<?xml version="1.0" encoding="utf-8"?>
<gpx xmlns:xsi="http://www.w3.org/2001/XMLSchema-instance" xmlns:xsd="http://www.w3.org/2001/XMLSchema" version="1.1" creator="Shapelink.com" xmlns="http://www.topografix.com/GPX/1/1" xmlns:gpxtpx="http://www.garmin.com/xmlschemas/TrackPointExtension/v1">
  <metadata>
    <name>Cykling 20.66 km, 2013-02-18</name>
    <desc></desc>
    <author><name>Stefan Östlund</name></author> 
    <time>2013-02-18T22:09:13Z</time>
  </metadata>
  <trk>
    <name>Cykling 20.66 km, 2013-02-18</name>
    <trkseg>
      <trkpt lat="59.9844755" lon="15.8274879">
        <ele>95.8</ele>
        <time>2013-02-18T22:09:13Z</time>
      </trkpt>
      <trkpt lat="59.9844753" lon="15.8274984">
        <ele>95.8</ele>
        <time>2013-02-18T22:09:17Z</time>
      </trkpt>
      <trkpt lat="59.9844727" lon="15.8275053">
        <ele>95.8</ele>
        <time>2013-02-18T22:09:18Z</time>
      </trkpt>
      <trkpt lat="59.9844723" lon="15.8275129">
        <ele>95.8</ele>
        <time>2013-02-18T22:09:19Z</time>
      </trkpt>
      <trkpt lat="59.9844365" lon="15.8275043">
        <ele>95.8</ele>
        <time>2013-02-18T22:09:20Z</time>
      </trkpt>
      <trkpt lat="59.9844326" lon="15.82755">
        <ele>95.8</ele>
        <time>2013-02-18T22:09:25Z</time>
      </trkpt>
      <trkpt lat="59.9844331" lon="15.8275508">
        <ele>95.8</ele>
        <time>2013-02-18T22:09:26Z</time>
      </trkpt>
      <trkpt lat="59.9844315" lon="15.8275468">
        <ele>95.8</ele>
        <time>2013-02-18T22:09:27Z</time>
      </trkpt>
      <trkpt lat="59.9844089" lon="15.8274944">
        <ele>95.8</ele>
        <time>2013-02-18T22:09:28Z</time>
      </trkpt>
      <trkpt lat="59.9844064" lon="15.8274905">
        <ele>95.8</ele>
        <time>2013-02-18T22:09:29Z</time>
      </trkpt>
      <trkpt lat="59.9844096" lon="15.8274898">
        <ele>95.8</ele>
        <time>2013-02-18T22:09:30Z</time>
      </trkpt>
      <trkpt lat="59.9844116" lon="15.8274902">
        <ele>95.8</ele>
        <time>2013-02-18T22:09:31Z</time>
      </trkpt>
      <trkpt lat="59.9844121" lon="15.8274937">
        <ele>95.8</ele>
        <time>2013-02-18T22:09:32Z</time>
      </trkpt>
      <trkpt lat="59.9844126" lon="15.8274994">
        <ele>95.8</ele>
        <time>2013-02-18T22:09:33Z</time>
      </trkpt>
      <trkpt lat="59.9844125" lon="15.8275057">
        <ele>95.8</ele>
        <time>2013-02-18T22:09:34Z</time>
      </trkpt>
      <trkpt lat="59.9844092" lon="15.8275106">
        <ele>96</ele>
        <time>2013-02-18T22:09:35Z</time>
      </trkpt>
      <trkpt lat="59.9843938" lon="15.827502">
        <ele>96</ele>
        <time>2013-02-18T22:09:36Z</time>
      </trkpt>
      <trkpt lat="59.9843871" lon="15.8274934">
        <ele>96</ele>
        <time>2013-02-18T22:09:37Z</time>
      </trkpt>
      <trkpt lat="59.9843861" lon="15.8274883">
        <ele>95.8</ele>
        <time>2013-02-18T22:09:38Z</time>
      </trkpt>
      <trkpt lat="59.9843804" lon="15.827466">
        <ele>95.8</ele>
        <time>2013-02-18T22:09:39Z</time>
      </trkpt>
      <trkpt lat="59.9843806" lon="15.8274577">
        <ele>95.8</ele>
        <time>2013-02-18T22:09:40Z</time>
      </trkpt>
      <trkpt lat="59.9843861" lon="15.8274352">
        <ele>95.8</ele>
        <time>2013-02-18T22:09:41Z</time>
      </trkpt>
      <trkpt lat="59.9843786" lon="15.8274077">
        <ele>95.8</ele>
        <time>2013-02-18T22:09:43Z</time>
      </trkpt>
      <trkpt lat="59.9843834" lon="15.8274035">
        <ele>95.8</ele>
        <time>2013-02-18T22:09:44Z</time>
      </trkpt>
      <trkpt lat="59.9843858" lon="15.8273957">
        <ele>95.8</ele>
        <time>2013-02-18T22:09:45Z</time>
      </trkpt>
      <trkpt lat="59.98439" lon="15.8273663">
        <ele>95.8</ele>
        <time>2013-02-18T22:09:50Z</time>
      </trkpt>
      <trkpt lat="59.984391" lon="15.8273478">
        <ele>95.8</ele>
        <time>2013-02-18T22:09:51Z</time>
      </trkpt>
      <trkpt lat="59.9843908" lon="15.8273393">
        <ele>95.8</ele>
        <time>2013-02-18T22:09:52Z</time>
      </trkpt>
      <trkpt lat="59.9843928" lon="15.8273329">
        <ele>96</ele>
        <time>2013-02-18T22:09:53Z</time>
      </trkpt>
      <trkpt lat="59.9843933" lon="15.8273264">
        <ele>96</ele>
        <time>2013-02-18T22:09:54Z</time>
      </trkpt>
      <trkpt lat="59.9843839" lon="15.8273212">
        <ele>96</ele>
        <time>2013-02-18T22:09:55Z</time>
      </trkpt>
      <trkpt lat="59.9843819" lon="15.8273154">
        <ele>95.8</ele>
        <time>2013-02-18T22:09:56Z</time>
      </trkpt>
      <trkpt lat="59.9843767" lon="15.8273101">
        <ele>95.8</ele>
        <time>2013-02-18T22:09:57Z</time>
      </trkpt>
      <trkpt lat="59.984368" lon="15.8273067">
        <ele>95.8</ele>
        <time>2013-02-18T22:09:58Z</time>
      </trkpt>
      <trkpt lat="59.9843642" lon="15.8273009">
        <ele>95.8</ele>
        <time>2013-02-18T22:09:59Z</time>
      </trkpt>
      <trkpt lat="59.9843624" lon="15.8272976">
        <ele>95.8</ele>
        <time>2013-02-18T22:10:00Z</time>
      </trkpt>
      <trkpt lat="59.9843599" lon="15.8273028">
        <ele>95.8</ele>
        <time>2013-02-18T22:10:01Z</time>
      </trkpt>
      <trkpt lat="59.984362" lon="15.8273103">
        <ele>95.8</ele>
        <time>2013-02-18T22:10:02Z</time>
      </trkpt>
      <trkpt lat="59.984363" lon="15.8273173">
        <ele>95.8</ele>
        <time>2013-02-18T22:10:03Z</time>
      </trkpt>
      <trkpt lat="59.9843633" lon="15.8273242">
        <ele>95.8</ele>
        <time>2013-02-18T22:10:04Z</time>
      </trkpt>
      <trkpt lat="59.9843601" lon="15.8273287">
        <ele>95.8</ele>
        <time>2013-02-18T22:10:05Z</time>
      </trkpt>
      <trkpt lat="59.9843601" lon="15.8273294">
        <ele>95.8</ele>
        <time>2013-02-18T22:10:06Z</time>
      </trkpt>
      <trkpt lat="59.9843595" lon="15.8273261">
        <ele>95.8</ele>
        <time>2013-02-18T22:10:07Z</time>
      </trkpt>
      <trkpt lat="59.984358" lon="15.8273242">
        <ele>95.8</ele>
        <time>2013-02-18T22:10:08Z</time>
      </trkpt>
      <trkpt lat="59.9843582" lon="15.827322">
        <ele>95.8</ele>
        <time>2013-02-18T22:10:09Z</time>
      </trkpt>
      <trkpt lat="59.984358" lon="15.8273157">
        <ele>95.8</ele>
        <time>2013-02-18T22:10:10Z</time>
      </trkpt>
      <trkpt lat="59.9843602" lon="15.82731">
        <ele>95.8</ele>
        <time>2013-02-18T22:10:11Z</time>
      </trkpt>
      <trkpt lat="59.9843627" lon="15.8273046">
        <ele>95.8</ele>
        <time>2013-02-18T22:10:12Z</time>
      </trkpt>
      <trkpt lat="59.9843627" lon="15.8272983">
        <ele>95.8</ele>
        <time>2013-02-18T22:10:13Z</time>
      </trkpt>
      <trkpt lat="59.9843653" lon="15.8272978">
        <ele>95.8</ele>
        <time>2013-02-18T22:10:14Z</time>
        <extensions><gpxtpx:TrackPointExtension><gpxtpx:hr>59</gpxtpx:hr></gpxtpx:TrackPointExtension></extensions>
      </trkpt>
      <trkpt lat="59.984385" lon="15.8273401">
        <ele>95.8</ele>
        <time>2013-02-18T22:10:15Z</time>
        <extensions><gpxtpx:TrackPointExtension><gpxtpx:hr>59</gpxtpx:hr></gpxtpx:TrackPointExtension></extensions>
      </trkpt>
      <trkpt lat="59.984388" lon="15.8273556">
        <ele>95.8</ele>
        <time>2013-02-18T22:10:17Z</time>
        <extensions><gpxtpx:TrackPointExtension><gpxtpx:hr>59</gpxtpx:hr></gpxtpx:TrackPointExtension></extensions>
      </trkpt>
      <trkpt lat="59.9843892" lon="15.8273579">
        <ele>95.8</ele>
        <time>2013-02-18T22:10:18Z</time>
        <extensions><gpxtpx:TrackPointExtension><gpxtpx:hr>59</gpxtpx:hr></gpxtpx:TrackPointExtension></extensions>
      </trkpt>
      <trkpt lat="59.984392" lon="15.8273602">
        <ele>95.8</ele>
        <time>2013-02-18T22:10:19Z</time>
      </trkpt>
      <trkpt lat="59.9843955" lon="15.8273602">
        <ele>95.8</ele>
        <time>2013-02-18T22:10:20Z</time>
      </trkpt>
      <trkpt lat="59.9843987" lon="15.827356">
        <ele>95.8</ele>
        <time>2013-02-18T22:10:21Z</time>
      </trkpt>
      <trkpt lat="59.984398" lon="15.8273486">
        <ele>95.8</ele>
        <time>2013-02-18T22:10:22Z</time>
      </trkpt>
      <trkpt lat="59.9843968" lon="15.8273415">
        <ele>95.8</ele>
        <time>2013-02-18T22:10:23Z</time>
      </trkpt>
      <trkpt lat="59.9843967" lon="15.8273321">
        <ele>95.8</ele>
        <time>2013-02-18T22:10:25Z</time>
      </trkpt>
      <trkpt lat="59.9843964" lon="15.8273304">
        <ele>95.8</ele>
        <time>2013-02-18T22:10:26Z</time>
      </trkpt>
      <trkpt lat="59.9843965" lon="15.8273298">
        <ele>95.8</ele>
        <time>2013-02-18T22:10:27Z</time>
      </trkpt>
      <trkpt lat="59.9843978" lon="15.827329">
        <ele>95.8</ele>
        <time>2013-02-18T22:10:28Z</time>
      </trkpt>
      <trkpt lat="59.9843973" lon="15.8273325">
        <ele>95.8</ele>
        <time>2013-02-18T22:10:29Z</time>
      </trkpt>
      <trkpt lat="59.9843954" lon="15.827337">
        <ele>95.8</ele>
        <time>2013-02-18T22:10:30Z</time>
      </trkpt>
      <trkpt lat="59.9844188" lon="15.8274268">
        <ele>95.8</ele>
        <time>2013-02-18T22:10:32Z</time>
      </trkpt>
      <trkpt lat="59.9844152" lon="15.827429">
        <ele>95.8</ele>
        <time>2013-02-18T22:10:36Z</time>
      </trkpt>
      <trkpt lat="59.9844153" lon="15.8274216">
        <ele>95.8</ele>
        <time>2013-02-18T22:10:38Z</time>
      </trkpt>
      <trkpt lat="59.9844198" lon="15.8274136">
        <ele>95.8</ele>
        <time>2013-02-18T22:10:41Z</time>
      </trkpt>
      <trkpt lat="59.9844203" lon="15.8274126">
        <ele>95.8</ele>
        <time>2013-02-18T22:10:42Z</time>
      </trkpt>
      <trkpt lat="59.9844246" lon="15.8274079">
        <ele>95.8</ele>
        <time>2013-02-18T22:10:44Z</time>
      </trkpt>
      <trkpt lat="59.9844337" lon="15.8274463">
        <ele>95.8</ele>
        <time>2013-02-18T22:10:45Z</time>
      </trkpt>
      <trkpt lat="59.9844352" lon="15.8274464">
        <ele>95.8</ele>
        <time>2013-02-18T22:10:46Z</time>
      </trkpt>
      <trkpt lat="59.984433" lon="15.8274468">
        <ele>95.8</ele>
        <time>2013-02-18T22:10:47Z</time>
      </trkpt>
      <trkpt lat="59.9844306" lon="15.8274469">
        <ele>95.8</ele>
        <time>2013-02-18T22:10:48Z</time>
      </trkpt>
      <trkpt lat="59.9844298" lon="15.8274495">
        <ele>95.8</ele>
        <time>2013-02-18T22:10:49Z</time>
      </trkpt>
      <trkpt lat="59.9844308" lon="15.8274526">
        <ele>96</ele>
        <time>2013-02-18T22:10:50Z</time>
      </trkpt>
      <trkpt lat="59.9844329" lon="15.8274546">
        <ele>96</ele>
        <time>2013-02-18T22:10:51Z</time>
      </trkpt>
      <trkpt lat="59.9844345" lon="15.8274483">
        <ele>95.8</ele>
        <time>2013-02-18T22:10:53Z</time>
      </trkpt>
      <trkpt lat="59.9844344" lon="15.8274437">
        <ele>95.8</ele>
        <time>2013-02-18T22:10:54Z</time>
      </trkpt>
      <trkpt lat="59.9844361" lon="15.8274375">
        <ele>95.8</ele>
        <time>2013-02-18T22:10:56Z</time>
      </trkpt>
      <trkpt lat="59.984435" lon="15.8274401">
        <ele>95.8</ele>
        <time>2013-02-18T22:10:57Z</time>
      </trkpt>
      <trkpt lat="59.9844236" lon="15.8274729">
        <ele>95.8</ele>
        <time>2013-02-18T22:11:00Z</time>
      </trkpt>
      <trkpt lat="59.9844158" lon="15.8274657">
        <ele>95.8</ele>
        <time>2013-02-18T22:11:02Z</time>
      </trkpt>
      <trkpt lat="59.9844324" lon="15.8274774">
        <ele>95.8</ele>
        <time>2013-02-18T22:11:05Z</time>
      </trkpt>
      <trkpt lat="59.9844359" lon="15.8274796">
        <ele>95.8</ele>
        <time>2013-02-18T22:11:06Z</time>
      </trkpt>
      <trkpt lat="59.9844353" lon="15.8274808">
        <ele>95.8</ele>
        <time>2013-02-18T22:11:07Z</time>
      </trkpt>
      <trkpt lat="59.9844343" lon="15.8274797">
        <ele>95.8</ele>
        <time>2013-02-18T22:11:08Z</time>
      </trkpt>
      <trkpt lat="59.9844342" lon="15.8274775">
        <ele>95.8</ele>
        <time>2013-02-18T22:11:09Z</time>
        <extensions><gpxtpx:TrackPointExtension><gpxtpx:hr>59</gpxtpx:hr></gpxtpx:TrackPointExtension></extensions>
      </trkpt>
      <trkpt lat="59.9844322" lon="15.8274774">
        <ele>95.8</ele>
        <time>2013-02-18T22:11:10Z</time>
        <extensions><gpxtpx:TrackPointExtension><gpxtpx:hr>59</gpxtpx:hr></gpxtpx:TrackPointExtension></extensions>
      </trkpt>
      <trkpt lat="59.9844318" lon="15.8274774">
        <ele>95.8</ele>
        <time>2013-02-18T22:11:11Z</time>
        <extensions><gpxtpx:TrackPointExtension><gpxtpx:hr>59</gpxtpx:hr></gpxtpx:TrackPointExtension></extensions>
      </trkpt>
      <trkpt lat="59.984432" lon="15.8274779">
        <ele>95.8</ele>
        <time>2013-02-18T22:11:12Z</time>
        <extensions><gpxtpx:TrackPointExtension><gpxtpx:hr>70</gpxtpx:hr></gpxtpx:TrackPointExtension></extensions>
      </trkpt>
      <trkpt lat="59.9844328" lon="15.8274782">
        <ele>95.8</ele>
        <time>2013-02-18T22:11:13Z</time>
        <extensions><gpxtpx:TrackPointExtension><gpxtpx:hr>70</gpxtpx:hr></gpxtpx:TrackPointExtension></extensions>
      </trkpt>
      <trkpt lat="59.9844335" lon="15.8274787">
        <ele>95.8</ele>
        <time>2013-02-18T22:11:14Z</time>
        <extensions><gpxtpx:TrackPointExtension><gpxtpx:hr>70</gpxtpx:hr></gpxtpx:TrackPointExtension></extensions>
      </trkpt>
      <trkpt lat="59.9844347" lon="15.8274797">
        <ele>95.8</ele>
        <time>2013-02-18T22:11:15Z</time>
        <extensions><gpxtpx:TrackPointExtension><gpxtpx:hr>70</gpxtpx:hr></gpxtpx:TrackPointExtension></extensions>
      </trkpt>
      <trkpt lat="59.9844373" lon="15.82748">
        <ele>95.8</ele>
        <time>2013-02-18T22:11:16Z</time>
        <extensions><gpxtpx:TrackPointExtension><gpxtpx:hr>72</gpxtpx:hr></gpxtpx:TrackPointExtension></extensions>
      </trkpt>
      <trkpt lat="59.9844503" lon="15.8275369">
        <ele>95.8</ele>
        <time>2013-02-18T22:11:17Z</time>
        <extensions><gpxtpx:TrackPointExtension><gpxtpx:hr>72</gpxtpx:hr></gpxtpx:TrackPointExtension></extensions>
      </trkpt>
      <trkpt lat="59.9844531" lon="15.8275491">
        <ele>95.8</ele>
        <time>2013-02-18T22:11:18Z</time>
        <extensions><gpxtpx:TrackPointExtension><gpxtpx:hr>72</gpxtpx:hr></gpxtpx:TrackPointExtension></extensions>
      </trkpt>
      <trkpt lat="59.9844562" lon="15.8275476">
        <ele>95.8</ele>
        <time>2013-02-18T22:11:19Z</time>
        <extensions><gpxtpx:TrackPointExtension><gpxtpx:hr>72</gpxtpx:hr></gpxtpx:TrackPointExtension></extensions>
      </trkpt>
      <trkpt lat="59.9844575" lon="15.8275467">
        <ele>95.8</ele>
        <time>2013-02-18T22:11:20Z</time>
        <extensions><gpxtpx:TrackPointExtension><gpxtpx:hr>72</gpxtpx:hr></gpxtpx:TrackPointExtension></extensions>
      </trkpt>
      <trkpt lat="59.9844565" lon="15.8275467">
        <ele>95.8</ele>
        <time>2013-02-18T22:11:21Z</time>
        <extensions><gpxtpx:TrackPointExtension><gpxtpx:hr>72</gpxtpx:hr></gpxtpx:TrackPointExtension></extensions>
      </trkpt>
      <trkpt lat="59.984455" lon="15.8275494">
        <ele>95.8</ele>
        <time>2013-02-18T22:11:22Z</time>
        <extensions><gpxtpx:TrackPointExtension><gpxtpx:hr>72</gpxtpx:hr></gpxtpx:TrackPointExtension></extensions>
      </trkpt>
      <trkpt lat="59.9844529" lon="15.8275553">
        <ele>95.8</ele>
        <time>2013-02-18T22:11:25Z</time>
      </trkpt>
      <trkpt lat="59.9844534" lon="15.8275556">
        <ele>95.8</ele>
        <time>2013-02-18T22:11:26Z</time>
      </trkpt>
      <trkpt lat="59.9844548" lon="15.827554">
        <ele>95.8</ele>
        <time>2013-02-18T22:11:27Z</time>
        <extensions><gpxtpx:TrackPointExtension><gpxtpx:hr>72</gpxtpx:hr></gpxtpx:TrackPointExtension></extensions>
      </trkpt>
      <trkpt lat="59.9844559" lon="15.8275489">
        <ele>95.8</ele>
        <time>2013-02-18T22:11:28Z</time>
        <extensions><gpxtpx:TrackPointExtension><gpxtpx:hr>72</gpxtpx:hr></gpxtpx:TrackPointExtension></extensions>
      </trkpt>
      <trkpt lat="59.984457" lon="15.8275411">
        <ele>95.8</ele>
        <time>2013-02-18T22:11:29Z</time>
        <extensions><gpxtpx:TrackPointExtension><gpxtpx:hr>72</gpxtpx:hr></gpxtpx:TrackPointExtension></extensions>
      </trkpt>
      <trkpt lat="59.9844571" lon="15.8275378">
        <ele>95.8</ele>
        <time>2013-02-18T22:11:30Z</time>
        <extensions><gpxtpx:TrackPointExtension><gpxtpx:hr>72</gpxtpx:hr></gpxtpx:TrackPointExtension></extensions>
      </trkpt>
      <trkpt lat="59.9844563" lon="15.8275382">
        <ele>96</ele>
        <time>2013-02-18T22:11:31Z</time>
        <extensions><gpxtpx:TrackPointExtension><gpxtpx:hr>72</gpxtpx:hr></gpxtpx:TrackPointExtension></extensions>
      </trkpt>
      <trkpt lat="59.9844533" lon="15.8275393">
        <ele>95.8</ele>
        <time>2013-02-18T22:11:32Z</time>
        <extensions><gpxtpx:TrackPointExtension><gpxtpx:hr>72</gpxtpx:hr></gpxtpx:TrackPointExtension></extensions>
      </trkpt>
      <trkpt lat="59.9844322" lon="15.8275509">
        <ele>95.8</ele>
        <time>2013-02-18T22:11:33Z</time>
        <extensions><gpxtpx:TrackPointExtension><gpxtpx:hr>66</gpxtpx:hr></gpxtpx:TrackPointExtension></extensions>
      </trkpt>
      <trkpt lat="59.9844244" lon="15.8275507">
        <ele>95.8</ele>
        <time>2013-02-18T22:11:34Z</time>
        <extensions><gpxtpx:TrackPointExtension><gpxtpx:hr>66</gpxtpx:hr></gpxtpx:TrackPointExtension></extensions>
      </trkpt>
      <trkpt lat="59.9844194" lon="15.8275543">
        <ele>95.8</ele>
        <time>2013-02-18T22:11:35Z</time>
        <extensions><gpxtpx:TrackPointExtension><gpxtpx:hr>66</gpxtpx:hr></gpxtpx:TrackPointExtension></extensions>
      </trkpt>
      <trkpt lat="59.9844149" lon="15.827552">
        <ele>95.8</ele>
        <time>2013-02-18T22:11:36Z</time>
        <extensions><gpxtpx:TrackPointExtension><gpxtpx:hr>66</gpxtpx:hr></gpxtpx:TrackPointExtension></extensions>
      </trkpt>
      <trkpt lat="59.9844125" lon="15.8275472">
        <ele>95.8</ele>
        <time>2013-02-18T22:11:37Z</time>
        <extensions><gpxtpx:TrackPointExtension><gpxtpx:hr>66</gpxtpx:hr></gpxtpx:TrackPointExtension></extensions>
      </trkpt>
      <trkpt lat="59.9844195" lon="15.827553">
        <ele>95.8</ele>
        <time>2013-02-18T22:11:39Z</time>
      </trkpt>
      <trkpt lat="59.9844245" lon="15.8275469">
        <ele>95.8</ele>
        <time>2013-02-18T22:11:41Z</time>
      </trkpt>
      <trkpt lat="59.9844273" lon="15.8275452">
        <ele>95.8</ele>
        <time>2013-02-18T22:11:42Z</time>
      </trkpt>
      <trkpt lat="59.9844285" lon="15.8275482">
        <ele>95.8</ele>
        <time>2013-02-18T22:11:43Z</time>
        <extensions><gpxtpx:TrackPointExtension><gpxtpx:hr>66</gpxtpx:hr></gpxtpx:TrackPointExtension></extensions>
      </trkpt>
      <trkpt lat="59.9844288" lon="15.8275519">
        <ele>95.8</ele>
        <time>2013-02-18T22:11:44Z</time>
        <extensions><gpxtpx:TrackPointExtension><gpxtpx:hr>66</gpxtpx:hr></gpxtpx:TrackPointExtension></extensions>
      </trkpt>
      <trkpt lat="59.9844287" lon="15.8275544">
        <ele>95.8</ele>
        <time>2013-02-18T22:11:45Z</time>
        <extensions><gpxtpx:TrackPointExtension><gpxtpx:hr>66</gpxtpx:hr></gpxtpx:TrackPointExtension></extensions>
      </trkpt>
      <trkpt lat="59.984433" lon="15.827582">
        <ele>95.8</ele>
        <time>2013-02-18T22:11:46Z</time>
        <extensions><gpxtpx:TrackPointExtension><gpxtpx:hr>66</gpxtpx:hr></gpxtpx:TrackPointExtension></extensions>
      </trkpt>
      <trkpt lat="59.9844425" lon="15.8275846">
        <ele>95.8</ele>
        <time>2013-02-18T22:11:47Z</time>
        <extensions><gpxtpx:TrackPointExtension><gpxtpx:hr>66</gpxtpx:hr></gpxtpx:TrackPointExtension></extensions>
      </trkpt>
      <trkpt lat="59.9844783" lon="15.8275761">
        <ele>95.8</ele>
        <time>2013-02-18T22:11:50Z</time>
        <extensions><gpxtpx:TrackPointExtension><gpxtpx:hr>66</gpxtpx:hr></gpxtpx:TrackPointExtension></extensions>
      </trkpt>
      <trkpt lat="59.9844902" lon="15.8275698">
        <ele>95.8</ele>
        <time>2013-02-18T22:11:51Z</time>
        <extensions><gpxtpx:TrackPointExtension><gpxtpx:hr>66</gpxtpx:hr></gpxtpx:TrackPointExtension></extensions>
      </trkpt>
      <trkpt lat="59.9845026" lon="15.8275688">
        <ele>95.8</ele>
        <time>2013-02-18T22:11:52Z</time>
        <extensions><gpxtpx:TrackPointExtension><gpxtpx:hr>66</gpxtpx:hr></gpxtpx:TrackPointExtension></extensions>
      </trkpt>
      <trkpt lat="59.9845192" lon="15.8275758">
        <ele>95.8</ele>
        <time>2013-02-18T22:11:54Z</time>
        <extensions><gpxtpx:TrackPointExtension><gpxtpx:hr>66</gpxtpx:hr></gpxtpx:TrackPointExtension></extensions>
      </trkpt>
      <trkpt lat="59.9845312" lon="15.8275821">
        <ele>95.8</ele>
        <time>2013-02-18T22:11:55Z</time>
      </trkpt>
      <trkpt lat="59.9845358" lon="15.8275865">
        <ele>95.8</ele>
        <time>2013-02-18T22:11:56Z</time>
      </trkpt>
      <trkpt lat="59.9845293" lon="15.827594">
        <ele>95.8</ele>
        <time>2013-02-18T22:12:00Z</time>
        <extensions><gpxtpx:TrackPointExtension><gpxtpx:hr>66</gpxtpx:hr></gpxtpx:TrackPointExtension></extensions>
      </trkpt>
      <trkpt lat="59.9845243" lon="15.8275879">
        <ele>95.8</ele>
        <time>2013-02-18T22:12:02Z</time>
        <extensions><gpxtpx:TrackPointExtension><gpxtpx:hr>66</gpxtpx:hr></gpxtpx:TrackPointExtension></extensions>
      </trkpt>
      <trkpt lat="59.9845244" lon="15.8275904">
        <ele>95.8</ele>
        <time>2013-02-18T22:12:03Z</time>
        <extensions><gpxtpx:TrackPointExtension><gpxtpx:hr>66</gpxtpx:hr></gpxtpx:TrackPointExtension></extensions>
      </trkpt>
      <trkpt lat="59.9845252" lon="15.827595">
        <ele>95.8</ele>
        <time>2013-02-18T22:12:04Z</time>
        <extensions><gpxtpx:TrackPointExtension><gpxtpx:hr>66</gpxtpx:hr></gpxtpx:TrackPointExtension></extensions>
      </trkpt>
      <trkpt lat="59.9845244" lon="15.8275972">
        <ele>96</ele>
        <time>2013-02-18T22:12:05Z</time>
        <extensions><gpxtpx:TrackPointExtension><gpxtpx:hr>66</gpxtpx:hr></gpxtpx:TrackPointExtension></extensions>
      </trkpt>
      <trkpt lat="59.984523" lon="15.8275997">
        <ele>96</ele>
        <time>2013-02-18T22:12:06Z</time>
        <extensions><gpxtpx:TrackPointExtension><gpxtpx:hr>66</gpxtpx:hr></gpxtpx:TrackPointExtension></extensions>
      </trkpt>
      <trkpt lat="59.9845228" lon="15.8276017">
        <ele>95.8</ele>
        <time>2013-02-18T22:12:07Z</time>
        <extensions><gpxtpx:TrackPointExtension><gpxtpx:hr>66</gpxtpx:hr></gpxtpx:TrackPointExtension></extensions>
      </trkpt>
      <trkpt lat="59.9845227" lon="15.8276041">
        <ele>96</ele>
        <time>2013-02-18T22:12:08Z</time>
        <extensions><gpxtpx:TrackPointExtension><gpxtpx:hr>66</gpxtpx:hr></gpxtpx:TrackPointExtension></extensions>
      </trkpt>
      <trkpt lat="59.9845211" lon="15.8276088">
        <ele>95.8</ele>
        <time>2013-02-18T22:12:09Z</time>
        <extensions><gpxtpx:TrackPointExtension><gpxtpx:hr>66</gpxtpx:hr></gpxtpx:TrackPointExtension></extensions>
      </trkpt>
      <trkpt lat="59.9845184" lon="15.8276145">
        <ele>95.8</ele>
        <time>2013-02-18T22:12:10Z</time>
        <extensions><gpxtpx:TrackPointExtension><gpxtpx:hr>66</gpxtpx:hr></gpxtpx:TrackPointExtension></extensions>
      </trkpt>
      <trkpt lat="59.984516" lon="15.8276172">
        <ele>95.8</ele>
        <time>2013-02-18T22:12:11Z</time>
        <extensions><gpxtpx:TrackPointExtension><gpxtpx:hr>66</gpxtpx:hr></gpxtpx:TrackPointExtension></extensions>
      </trkpt>
      <trkpt lat="59.984514" lon="15.8276182">
        <ele>95.8</ele>
        <time>2013-02-18T22:12:12Z</time>
        <extensions><gpxtpx:TrackPointExtension><gpxtpx:hr>66</gpxtpx:hr></gpxtpx:TrackPointExtension></extensions>
      </trkpt>
      <trkpt lat="59.9845656" lon="15.827574">
        <ele>95.8</ele>
        <time>2013-02-18T22:12:14Z</time>
        <extensions><gpxtpx:TrackPointExtension><gpxtpx:hr>66</gpxtpx:hr></gpxtpx:TrackPointExtension></extensions>
      </trkpt>
      <trkpt lat="59.9845624" lon="15.8275888">
        <ele>95.8</ele>
        <time>2013-02-18T22:12:19Z</time>
        <extensions><gpxtpx:TrackPointExtension><gpxtpx:hr>66</gpxtpx:hr></gpxtpx:TrackPointExtension></extensions>
      </trkpt>
      <trkpt lat="59.9845618" lon="15.8275906">
        <ele>95.8</ele>
        <time>2013-02-18T22:12:21Z</time>
        <extensions><gpxtpx:TrackPointExtension><gpxtpx:hr>62</gpxtpx:hr></gpxtpx:TrackPointExtension></extensions>
      </trkpt>
      <trkpt lat="59.984561" lon="15.8275926">
        <ele>95.8</ele>
        <time>2013-02-18T22:12:22Z</time>
        <extensions><gpxtpx:TrackPointExtension><gpxtpx:hr>62</gpxtpx:hr></gpxtpx:TrackPointExtension></extensions>
      </trkpt>
      <trkpt lat="59.9845616" lon="15.8275903">
        <ele>95.8</ele>
        <time>2013-02-18T22:12:23Z</time>
        <extensions><gpxtpx:TrackPointExtension><gpxtpx:hr>62</gpxtpx:hr></gpxtpx:TrackPointExtension></extensions>
      </trkpt>
      <trkpt lat="59.9845628" lon="15.8275881">
        <ele>95.8</ele>
        <time>2013-02-18T22:12:24Z</time>
        <extensions><gpxtpx:TrackPointExtension><gpxtpx:hr>62</gpxtpx:hr></gpxtpx:TrackPointExtension></extensions>
      </trkpt>
      <trkpt lat="59.9845643" lon="15.8275874">
        <ele>95.8</ele>
        <time>2013-02-18T22:12:25Z</time>
        <extensions><gpxtpx:TrackPointExtension><gpxtpx:hr>62</gpxtpx:hr></gpxtpx:TrackPointExtension></extensions>
      </trkpt>
      <trkpt lat="59.9845638" lon="15.8275895">
        <ele>95.8</ele>
        <time>2013-02-18T22:12:26Z</time>
        <extensions><gpxtpx:TrackPointExtension><gpxtpx:hr>62</gpxtpx:hr></gpxtpx:TrackPointExtension></extensions>
      </trkpt>
      <trkpt lat="59.9845637" lon="15.827592">
        <ele>95.8</ele>
        <time>2013-02-18T22:12:27Z</time>
        <extensions><gpxtpx:TrackPointExtension><gpxtpx:hr>62</gpxtpx:hr></gpxtpx:TrackPointExtension></extensions>
      </trkpt>
      <trkpt lat="59.9845622" lon="15.8275948">
        <ele>95.8</ele>
        <time>2013-02-18T22:12:28Z</time>
        <extensions><gpxtpx:TrackPointExtension><gpxtpx:hr>62</gpxtpx:hr></gpxtpx:TrackPointExtension></extensions>
      </trkpt>
      <trkpt lat="59.9845599" lon="15.8275937">
        <ele>95.8</ele>
        <time>2013-02-18T22:12:29Z</time>
        <extensions><gpxtpx:TrackPointExtension><gpxtpx:hr>62</gpxtpx:hr></gpxtpx:TrackPointExtension></extensions>
      </trkpt>
      <trkpt lat="59.9845604" lon="15.827588">
        <ele>95.8</ele>
        <time>2013-02-18T22:12:30Z</time>
        <extensions><gpxtpx:TrackPointExtension><gpxtpx:hr>62</gpxtpx:hr></gpxtpx:TrackPointExtension></extensions>
      </trkpt>
      <trkpt lat="59.9845635" lon="15.8275839">
        <ele>95.8</ele>
        <time>2013-02-18T22:12:31Z</time>
        <extensions><gpxtpx:TrackPointExtension><gpxtpx:hr>62</gpxtpx:hr></gpxtpx:TrackPointExtension></extensions>
      </trkpt>
      <trkpt lat="59.9845694" lon="15.8275835">
        <ele>95.8</ele>
        <time>2013-02-18T22:12:32Z</time>
        <extensions><gpxtpx:TrackPointExtension><gpxtpx:hr>70</gpxtpx:hr></gpxtpx:TrackPointExtension></extensions>
      </trkpt>
      <trkpt lat="59.9845761" lon="15.8275893">
        <ele>95.8</ele>
        <time>2013-02-18T22:12:33Z</time>
        <extensions><gpxtpx:TrackPointExtension><gpxtpx:hr>70</gpxtpx:hr></gpxtpx:TrackPointExtension></extensions>
      </trkpt>
      <trkpt lat="59.98458" lon="15.8275925">
        <ele>95.8</ele>
        <time>2013-02-18T22:12:34Z</time>
        <extensions><gpxtpx:TrackPointExtension><gpxtpx:hr>70</gpxtpx:hr></gpxtpx:TrackPointExtension></extensions>
      </trkpt>
      <trkpt lat="59.9845822" lon="15.8275913">
        <ele>96</ele>
        <time>2013-02-18T22:12:35Z</time>
        <extensions><gpxtpx:TrackPointExtension><gpxtpx:hr>77</gpxtpx:hr></gpxtpx:TrackPointExtension></extensions>
      </trkpt>
      <trkpt lat="59.9845823" lon="15.8275902">
        <ele>96</ele>
        <time>2013-02-18T22:12:36Z</time>
        <extensions><gpxtpx:TrackPointExtension><gpxtpx:hr>77</gpxtpx:hr></gpxtpx:TrackPointExtension></extensions>
      </trkpt>
      <trkpt lat="59.9845832" lon="15.8275875">
        <ele>95.8</ele>
        <time>2013-02-18T22:12:37Z</time>
        <extensions><gpxtpx:TrackPointExtension><gpxtpx:hr>77</gpxtpx:hr></gpxtpx:TrackPointExtension></extensions>
      </trkpt>
      <trkpt lat="59.9845845" lon="15.8275841">
        <ele>95.8</ele>
        <time>2013-02-18T22:12:38Z</time>
        <extensions><gpxtpx:TrackPointExtension><gpxtpx:hr>83</gpxtpx:hr></gpxtpx:TrackPointExtension></extensions>
      </trkpt>
      <trkpt lat="59.9845862" lon="15.8275832">
        <ele>95.8</ele>
        <time>2013-02-18T22:12:39Z</time>
        <extensions><gpxtpx:TrackPointExtension><gpxtpx:hr>93</gpxtpx:hr></gpxtpx:TrackPointExtension></extensions>
      </trkpt>
      <trkpt lat="59.9845903" lon="15.8275818">
        <ele>95.8</ele>
        <time>2013-02-18T22:12:40Z</time>
        <extensions><gpxtpx:TrackPointExtension><gpxtpx:hr>100</gpxtpx:hr></gpxtpx:TrackPointExtension></extensions>
      </trkpt>
      <trkpt lat="59.9845943" lon="15.827579">
        <ele>95.8</ele>
        <time>2013-02-18T22:12:41Z</time>
        <extensions><gpxtpx:TrackPointExtension><gpxtpx:hr>106</gpxtpx:hr></gpxtpx:TrackPointExtension></extensions>
      </trkpt>
      <trkpt lat="59.9845989" lon="15.8275803">
        <ele>95.8</ele>
        <time>2013-02-18T22:12:42Z</time>
        <extensions><gpxtpx:TrackPointExtension><gpxtpx:hr>113</gpxtpx:hr></gpxtpx:TrackPointExtension></extensions>
      </trkpt>
      <trkpt lat="59.9846012" lon="15.8275749">
        <ele>95.8</ele>
        <time>2013-02-18T22:12:43Z</time>
        <extensions><gpxtpx:TrackPointExtension><gpxtpx:hr>113</gpxtpx:hr></gpxtpx:TrackPointExtension></extensions>
      </trkpt>
      <trkpt lat="59.9846043" lon="15.8275683">
        <ele>95.8</ele>
        <time>2013-02-18T22:12:44Z</time>
        <extensions><gpxtpx:TrackPointExtension><gpxtpx:hr>113</gpxtpx:hr></gpxtpx:TrackPointExtension></extensions>
      </trkpt>
      <trkpt lat="59.9846047" lon="15.827568">
        <ele>95.8</ele>
        <time>2013-02-18T22:12:45Z</time>
        <extensions><gpxtpx:TrackPointExtension><gpxtpx:hr>113</gpxtpx:hr></gpxtpx:TrackPointExtension></extensions>
      </trkpt>
      <trkpt lat="59.9846033" lon="15.8275725">
        <ele>95.8</ele>
        <time>2013-02-18T22:12:46Z</time>
        <extensions><gpxtpx:TrackPointExtension><gpxtpx:hr>116</gpxtpx:hr></gpxtpx:TrackPointExtension></extensions>
      </trkpt>
      <trkpt lat="59.9846004" lon="15.8275769">
        <ele>95.8</ele>
        <time>2013-02-18T22:12:47Z</time>
        <extensions><gpxtpx:TrackPointExtension><gpxtpx:hr>119</gpxtpx:hr></gpxtpx:TrackPointExtension></extensions>
      </trkpt>
      <trkpt lat="59.984597" lon="15.8275815">
        <ele>95.8</ele>
        <time>2013-02-18T22:12:48Z</time>
        <extensions><gpxtpx:TrackPointExtension><gpxtpx:hr>120</gpxtpx:hr></gpxtpx:TrackPointExtension></extensions>
      </trkpt>
      <trkpt lat="59.984599" lon="15.8275846">
        <ele>95.8</ele>
        <time>2013-02-18T22:12:49Z</time>
        <extensions><gpxtpx:TrackPointExtension><gpxtpx:hr>122</gpxtpx:hr></gpxtpx:TrackPointExtension></extensions>
      </trkpt>
      <trkpt lat="59.9846026" lon="15.82758">
        <ele>95.8</ele>
        <time>2013-02-18T22:12:50Z</time>
        <extensions><gpxtpx:TrackPointExtension><gpxtpx:hr>123</gpxtpx:hr></gpxtpx:TrackPointExtension></extensions>
      </trkpt>
      <trkpt lat="59.984602" lon="15.827577">
        <ele>95.8</ele>
        <time>2013-02-18T22:12:51Z</time>
        <extensions><gpxtpx:TrackPointExtension><gpxtpx:hr>123</gpxtpx:hr></gpxtpx:TrackPointExtension></extensions>
      </trkpt>
      <trkpt lat="59.9846038" lon="15.8275747">
        <ele>95.8</ele>
        <time>2013-02-18T22:12:52Z</time>
        <extensions><gpxtpx:TrackPointExtension><gpxtpx:hr>124</gpxtpx:hr></gpxtpx:TrackPointExtension></extensions>
      </trkpt>
      <trkpt lat="59.9846077" lon="15.8275621">
        <ele>95.8</ele>
        <time>2013-02-18T22:12:53Z</time>
        <extensions><gpxtpx:TrackPointExtension><gpxtpx:hr>125</gpxtpx:hr></gpxtpx:TrackPointExtension></extensions>
      </trkpt>
      <trkpt lat="59.9846132" lon="15.8275579">
        <ele>95.8</ele>
        <time>2013-02-18T22:12:54Z</time>
        <extensions><gpxtpx:TrackPointExtension><gpxtpx:hr>125</gpxtpx:hr></gpxtpx:TrackPointExtension></extensions>
      </trkpt>
      <trkpt lat="59.9846159" lon="15.8275409">
        <ele>95.8</ele>
        <time>2013-02-18T22:12:56Z</time>
        <extensions><gpxtpx:TrackPointExtension><gpxtpx:hr>125</gpxtpx:hr></gpxtpx:TrackPointExtension></extensions>
      </trkpt>
      <trkpt lat="59.9846328" lon="15.8275603">
        <ele>95.8</ele>
        <time>2013-02-18T22:12:58Z</time>
        <extensions><gpxtpx:TrackPointExtension><gpxtpx:hr>125</gpxtpx:hr></gpxtpx:TrackPointExtension></extensions>
      </trkpt>
      <trkpt lat="59.984624" lon="15.8275779">
        <ele>95.8</ele>
        <time>2013-02-18T22:12:59Z</time>
        <extensions><gpxtpx:TrackPointExtension><gpxtpx:hr>126</gpxtpx:hr></gpxtpx:TrackPointExtension></extensions>
      </trkpt>
      <trkpt lat="59.9846176" lon="15.8275874">
        <ele>96</ele>
        <time>2013-02-18T22:13:00Z</time>
        <extensions><gpxtpx:TrackPointExtension><gpxtpx:hr>125</gpxtpx:hr></gpxtpx:TrackPointExtension></extensions>
      </trkpt>
      <trkpt lat="59.9846215" lon="15.8276097">
        <ele>96</ele>
        <time>2013-02-18T22:13:01Z</time>
        <extensions><gpxtpx:TrackPointExtension><gpxtpx:hr>126</gpxtpx:hr></gpxtpx:TrackPointExtension></extensions>
      </trkpt>
      <trkpt lat="59.984624" lon="15.8276286">
        <ele>96</ele>
        <time>2013-02-18T22:13:02Z</time>
        <extensions><gpxtpx:TrackPointExtension><gpxtpx:hr>125</gpxtpx:hr></gpxtpx:TrackPointExtension></extensions>
      </trkpt>
      <trkpt lat="59.9846198" lon="15.8276391">
        <ele>95.8</ele>
        <time>2013-02-18T22:13:03Z</time>
        <extensions><gpxtpx:TrackPointExtension><gpxtpx:hr>126</gpxtpx:hr></gpxtpx:TrackPointExtension></extensions>
      </trkpt>
      <trkpt lat="59.9846165" lon="15.8276452">
        <ele>95.8</ele>
        <time>2013-02-18T22:13:04Z</time>
        <extensions><gpxtpx:TrackPointExtension><gpxtpx:hr>126</gpxtpx:hr></gpxtpx:TrackPointExtension></extensions>
      </trkpt>
      <trkpt lat="59.9846141" lon="15.8276442">
        <ele>95.8</ele>
        <time>2013-02-18T22:13:05Z</time>
        <extensions><gpxtpx:TrackPointExtension><gpxtpx:hr>126</gpxtpx:hr></gpxtpx:TrackPointExtension></extensions>
      </trkpt>
      <trkpt lat="59.9846119" lon="15.827639">
        <ele>95.8</ele>
        <time>2013-02-18T22:13:06Z</time>
        <extensions><gpxtpx:TrackPointExtension><gpxtpx:hr>125</gpxtpx:hr></gpxtpx:TrackPointExtension></extensions>
      </trkpt>
      <trkpt lat="59.9846151" lon="15.8276356">
        <ele>95.8</ele>
        <time>2013-02-18T22:13:07Z</time>
        <extensions><gpxtpx:TrackPointExtension><gpxtpx:hr>125</gpxtpx:hr></gpxtpx:TrackPointExtension></extensions>
      </trkpt>
      <trkpt lat="59.9846181" lon="15.8276317">
        <ele>95.8</ele>
        <time>2013-02-18T22:13:08Z</time>
        <extensions><gpxtpx:TrackPointExtension><gpxtpx:hr>125</gpxtpx:hr></gpxtpx:TrackPointExtension></extensions>
      </trkpt>
      <trkpt lat="59.9846981" lon="15.8276462">
        <ele>95.8</ele>
        <time>2013-02-18T22:13:11Z</time>
        <extensions><gpxtpx:TrackPointExtension><gpxtpx:hr>125</gpxtpx:hr></gpxtpx:TrackPointExtension></extensions>
      </trkpt>
      <trkpt lat="59.9847507" lon="15.8276529">
        <ele>95.8</ele>
        <time>2013-02-18T22:13:14Z</time>
        <extensions><gpxtpx:TrackPointExtension><gpxtpx:hr>125</gpxtpx:hr></gpxtpx:TrackPointExtension></extensions>
      </trkpt>
      <trkpt lat="59.9847658" lon="15.8276337">
        <ele>95.8</ele>
        <time>2013-02-18T22:13:17Z</time>
        <extensions><gpxtpx:TrackPointExtension><gpxtpx:hr>126</gpxtpx:hr></gpxtpx:TrackPointExtension></extensions>
      </trkpt>
      <trkpt lat="59.984766" lon="15.8276245">
        <ele>96</ele>
        <time>2013-02-18T22:13:18Z</time>
        <extensions><gpxtpx:TrackPointExtension><gpxtpx:hr>126</gpxtpx:hr></gpxtpx:TrackPointExtension></extensions>
      </trkpt>
      <trkpt lat="59.9847668" lon="15.8276174">
        <ele>95.8</ele>
        <time>2013-02-18T22:13:19Z</time>
        <extensions><gpxtpx:TrackPointExtension><gpxtpx:hr>126</gpxtpx:hr></gpxtpx:TrackPointExtension></extensions>
      </trkpt>
      <trkpt lat="59.984764" lon="15.8276136">
        <ele>95.8</ele>
        <time>2013-02-18T22:13:20Z</time>
        <extensions><gpxtpx:TrackPointExtension><gpxtpx:hr>126</gpxtpx:hr></gpxtpx:TrackPointExtension></extensions>
      </trkpt>
      <trkpt lat="59.9847306" lon="15.8275858">
        <ele>95.8</ele>
        <time>2013-02-18T22:13:21Z</time>
        <extensions><gpxtpx:TrackPointExtension><gpxtpx:hr>126</gpxtpx:hr></gpxtpx:TrackPointExtension></extensions>
      </trkpt>
      <trkpt lat="59.9847164" lon="15.8275912">
        <ele>95.8</ele>
        <time>2013-02-18T22:13:22Z</time>
        <extensions><gpxtpx:TrackPointExtension><gpxtpx:hr>126</gpxtpx:hr></gpxtpx:TrackPointExtension></extensions>
      </trkpt>
      <trkpt lat="59.9846988" lon="15.8275927">
        <ele>95.8</ele>
        <time>2013-02-18T22:13:23Z</time>
        <extensions><gpxtpx:TrackPointExtension><gpxtpx:hr>127</gpxtpx:hr></gpxtpx:TrackPointExtension></extensions>
      </trkpt>
      <trkpt lat="59.9846896" lon="15.8275937">
        <ele>95.8</ele>
        <time>2013-02-18T22:13:24Z</time>
        <extensions><gpxtpx:TrackPointExtension><gpxtpx:hr>127</gpxtpx:hr></gpxtpx:TrackPointExtension></extensions>
      </trkpt>
      <trkpt lat="59.9846722" lon="15.8275968">
        <ele>95.8</ele>
        <time>2013-02-18T22:13:25Z</time>
        <extensions><gpxtpx:TrackPointExtension><gpxtpx:hr>127</gpxtpx:hr></gpxtpx:TrackPointExtension></extensions>
      </trkpt>
      <trkpt lat="59.9846698" lon="15.8276033">
        <ele>95.8</ele>
        <time>2013-02-18T22:13:26Z</time>
        <extensions><gpxtpx:TrackPointExtension><gpxtpx:hr>127</gpxtpx:hr></gpxtpx:TrackPointExtension></extensions>
      </trkpt>
      <trkpt lat="59.9846619" lon="15.8276034">
        <ele>95.8</ele>
        <time>2013-02-18T22:13:27Z</time>
        <extensions><gpxtpx:TrackPointExtension><gpxtpx:hr>127</gpxtpx:hr></gpxtpx:TrackPointExtension></extensions>
      </trkpt>
      <trkpt lat="59.984658" lon="15.8276042">
        <ele>95.8</ele>
        <time>2013-02-18T22:13:28Z</time>
        <extensions><gpxtpx:TrackPointExtension><gpxtpx:hr>127</gpxtpx:hr></gpxtpx:TrackPointExtension></extensions>
      </trkpt>
      <trkpt lat="59.9846542" lon="15.8276046">
        <ele>95.8</ele>
        <time>2013-02-18T22:13:29Z</time>
        <extensions><gpxtpx:TrackPointExtension><gpxtpx:hr>127</gpxtpx:hr></gpxtpx:TrackPointExtension></extensions>
      </trkpt>
      <trkpt lat="59.9846477" lon="15.8275996">
        <ele>95.8</ele>
        <time>2013-02-18T22:13:30Z</time>
        <extensions><gpxtpx:TrackPointExtension><gpxtpx:hr>127</gpxtpx:hr></gpxtpx:TrackPointExtension></extensions>
      </trkpt>
      <trkpt lat="59.9846711" lon="15.8276089">
        <ele>95.8</ele>
        <time>2013-02-18T22:13:31Z</time>
        <extensions><gpxtpx:TrackPointExtension><gpxtpx:hr>127</gpxtpx:hr></gpxtpx:TrackPointExtension></extensions>
      </trkpt>
      <trkpt lat="59.9846639" lon="15.8276006">
        <ele>95.8</ele>
        <time>2013-02-18T22:13:32Z</time>
        <extensions><gpxtpx:TrackPointExtension><gpxtpx:hr>127</gpxtpx:hr></gpxtpx:TrackPointExtension></extensions>
      </trkpt>
      <trkpt lat="59.9846672" lon="15.8275967">
        <ele>95.8</ele>
        <time>2013-02-18T22:13:33Z</time>
        <extensions><gpxtpx:TrackPointExtension><gpxtpx:hr>127</gpxtpx:hr></gpxtpx:TrackPointExtension></extensions>
      </trkpt>
      <trkpt lat="59.9846724" lon="15.827595">
        <ele>95.8</ele>
        <time>2013-02-18T22:13:34Z</time>
        <extensions><gpxtpx:TrackPointExtension><gpxtpx:hr>127</gpxtpx:hr></gpxtpx:TrackPointExtension></extensions>
      </trkpt>
      <trkpt lat="59.9846786" lon="15.8276141">
        <ele>95.8</ele>
        <time>2013-02-18T22:13:35Z</time>
        <extensions><gpxtpx:TrackPointExtension><gpxtpx:hr>127</gpxtpx:hr></gpxtpx:TrackPointExtension></extensions>
      </trkpt>
      <trkpt lat="59.9846718" lon="15.8276087">
        <ele>95.8</ele>
        <time>2013-02-18T22:13:36Z</time>
        <extensions><gpxtpx:TrackPointExtension><gpxtpx:hr>128</gpxtpx:hr></gpxtpx:TrackPointExtension></extensions>
      </trkpt>
      <trkpt lat="59.9846741" lon="15.8276062">
        <ele>95.8</ele>
        <time>2013-02-18T22:13:37Z</time>
        <extensions><gpxtpx:TrackPointExtension><gpxtpx:hr>128</gpxtpx:hr></gpxtpx:TrackPointExtension></extensions>
      </trkpt>
      <trkpt lat="59.9846726" lon="15.8276097">
        <ele>95.8</ele>
        <time>2013-02-18T22:13:38Z</time>
        <extensions><gpxtpx:TrackPointExtension><gpxtpx:hr>129</gpxtpx:hr></gpxtpx:TrackPointExtension></extensions>
      </trkpt>
      <trkpt lat="59.98467" lon="15.8276158">
        <ele>95.8</ele>
        <time>2013-02-18T22:13:39Z</time>
        <extensions><gpxtpx:TrackPointExtension><gpxtpx:hr>129</gpxtpx:hr></gpxtpx:TrackPointExtension></extensions>
      </trkpt>
      <trkpt lat="59.9846346" lon="15.8276343">
        <ele>95.8</ele>
        <time>2013-02-18T22:13:40Z</time>
        <extensions><gpxtpx:TrackPointExtension><gpxtpx:hr>130</gpxtpx:hr></gpxtpx:TrackPointExtension></extensions>
      </trkpt>
      <trkpt lat="59.9846244" lon="15.8276378">
        <ele>95.8</ele>
        <time>2013-02-18T22:13:41Z</time>
        <extensions><gpxtpx:TrackPointExtension><gpxtpx:hr>129</gpxtpx:hr></gpxtpx:TrackPointExtension></extensions>
      </trkpt>
      <trkpt lat="59.9846127" lon="15.8276393">
        <ele>95.8</ele>
        <time>2013-02-18T22:13:42Z</time>
        <extensions><gpxtpx:TrackPointExtension><gpxtpx:hr>130</gpxtpx:hr></gpxtpx:TrackPointExtension></extensions>
      </trkpt>
      <trkpt lat="59.9846105" lon="15.827642">
        <ele>95.8</ele>
        <time>2013-02-18T22:13:43Z</time>
        <extensions><gpxtpx:TrackPointExtension><gpxtpx:hr>130</gpxtpx:hr></gpxtpx:TrackPointExtension></extensions>
      </trkpt>
      <trkpt lat="59.9846094" lon="15.8276437">
        <ele>95.8</ele>
        <time>2013-02-18T22:13:44Z</time>
        <extensions><gpxtpx:TrackPointExtension><gpxtpx:hr>129</gpxtpx:hr></gpxtpx:TrackPointExtension></extensions>
      </trkpt>
      <trkpt lat="59.9846122" lon="15.8276472">
        <ele>95.8</ele>
        <time>2013-02-18T22:13:45Z</time>
        <extensions><gpxtpx:TrackPointExtension><gpxtpx:hr>129</gpxtpx:hr></gpxtpx:TrackPointExtension></extensions>
      </trkpt>
      <trkpt lat="59.9846145" lon="15.8276487">
        <ele>95.8</ele>
        <time>2013-02-18T22:13:46Z</time>
        <extensions><gpxtpx:TrackPointExtension><gpxtpx:hr>129</gpxtpx:hr></gpxtpx:TrackPointExtension></extensions>
      </trkpt>
      <trkpt lat="59.9846223" lon="15.8276425">
        <ele>96</ele>
        <time>2013-02-18T22:13:49Z</time>
        <extensions><gpxtpx:TrackPointExtension><gpxtpx:hr>128</gpxtpx:hr></gpxtpx:TrackPointExtension></extensions>
      </trkpt>
      <trkpt lat="59.9846204" lon="15.8276348">
        <ele>96</ele>
        <time>2013-02-18T22:13:50Z</time>
        <extensions><gpxtpx:TrackPointExtension><gpxtpx:hr>129</gpxtpx:hr></gpxtpx:TrackPointExtension></extensions>
      </trkpt>
      <trkpt lat="59.9846002" lon="15.8276134">
        <ele>95.8</ele>
        <time>2013-02-18T22:13:51Z</time>
        <extensions><gpxtpx:TrackPointExtension><gpxtpx:hr>128</gpxtpx:hr></gpxtpx:TrackPointExtension></extensions>
      </trkpt>
      <trkpt lat="59.9845974" lon="15.8276065">
        <ele>95.8</ele>
        <time>2013-02-18T22:13:52Z</time>
        <extensions><gpxtpx:TrackPointExtension><gpxtpx:hr>129</gpxtpx:hr></gpxtpx:TrackPointExtension></extensions>
      </trkpt>
      <trkpt lat="59.9845957" lon="15.8276022">
        <ele>95.8</ele>
        <time>2013-02-18T22:13:53Z</time>
        <extensions><gpxtpx:TrackPointExtension><gpxtpx:hr>128</gpxtpx:hr></gpxtpx:TrackPointExtension></extensions>
      </trkpt>
      <trkpt lat="59.9845842" lon="15.8275904">
        <ele>95.8</ele>
        <time>2013-02-18T22:13:55Z</time>
        <extensions><gpxtpx:TrackPointExtension><gpxtpx:hr>128</gpxtpx:hr></gpxtpx:TrackPointExtension></extensions>
      </trkpt>
      <trkpt lat="59.9845834" lon="15.827589">
        <ele>95.8</ele>
        <time>2013-02-18T22:13:57Z</time>
        <extensions><gpxtpx:TrackPointExtension><gpxtpx:hr>128</gpxtpx:hr></gpxtpx:TrackPointExtension></extensions>
      </trkpt>
      <trkpt lat="59.9845839" lon="15.8275869">
        <ele>95.8</ele>
        <time>2013-02-18T22:13:58Z</time>
        <extensions><gpxtpx:TrackPointExtension><gpxtpx:hr>128</gpxtpx:hr></gpxtpx:TrackPointExtension></extensions>
      </trkpt>
      <trkpt lat="59.98457" lon="15.8275841">
        <ele>96</ele>
        <time>2013-02-18T22:13:59Z</time>
        <extensions><gpxtpx:TrackPointExtension><gpxtpx:hr>128</gpxtpx:hr></gpxtpx:TrackPointExtension></extensions>
      </trkpt>
      <trkpt lat="59.9845668" lon="15.8275841">
        <ele>95.8</ele>
        <time>2013-02-18T22:14:00Z</time>
        <extensions><gpxtpx:TrackPointExtension><gpxtpx:hr>128</gpxtpx:hr></gpxtpx:TrackPointExtension></extensions>
      </trkpt>
      <trkpt lat="59.9845655" lon="15.8275907">
        <ele>95.8</ele>
        <time>2013-02-18T22:14:01Z</time>
        <extensions><gpxtpx:TrackPointExtension><gpxtpx:hr>128</gpxtpx:hr></gpxtpx:TrackPointExtension></extensions>
      </trkpt>
      <trkpt lat="59.9845655" lon="15.8275994">
        <ele>96</ele>
        <time>2013-02-18T22:14:02Z</time>
        <extensions><gpxtpx:TrackPointExtension><gpxtpx:hr>128</gpxtpx:hr></gpxtpx:TrackPointExtension></extensions>
      </trkpt>
      <trkpt lat="59.9845637" lon="15.8276078">
        <ele>95.8</ele>
        <time>2013-02-18T22:14:03Z</time>
        <extensions><gpxtpx:TrackPointExtension><gpxtpx:hr>127</gpxtpx:hr></gpxtpx:TrackPointExtension></extensions>
      </trkpt>
      <trkpt lat="59.9845608" lon="15.8276135">
        <ele>95.8</ele>
        <time>2013-02-18T22:14:04Z</time>
        <extensions><gpxtpx:TrackPointExtension><gpxtpx:hr>127</gpxtpx:hr></gpxtpx:TrackPointExtension></extensions>
      </trkpt>
      <trkpt lat="59.9845576" lon="15.8276148">
        <ele>95.8</ele>
        <time>2013-02-18T22:14:05Z</time>
        <extensions><gpxtpx:TrackPointExtension><gpxtpx:hr>128</gpxtpx:hr></gpxtpx:TrackPointExtension></extensions>
      </trkpt>
      <trkpt lat="59.9845571" lon="15.8276164">
        <ele>95.8</ele>
        <time>2013-02-18T22:14:06Z</time>
        <extensions><gpxtpx:TrackPointExtension><gpxtpx:hr>128</gpxtpx:hr></gpxtpx:TrackPointExtension></extensions>
      </trkpt>
      <trkpt lat="59.9845518" lon="15.8276202">
        <ele>95.8</ele>
        <time>2013-02-18T22:14:09Z</time>
        <extensions><gpxtpx:TrackPointExtension><gpxtpx:hr>128</gpxtpx:hr></gpxtpx:TrackPointExtension></extensions>
      </trkpt>
      <trkpt lat="59.9845334" lon="15.8276813">
        <ele>95.8</ele>
        <time>2013-02-18T22:14:16Z</time>
        <extensions><gpxtpx:TrackPointExtension><gpxtpx:hr>128</gpxtpx:hr></gpxtpx:TrackPointExtension></extensions>
      </trkpt>
      <trkpt lat="59.9845333" lon="15.8276889">
        <ele>95.8</ele>
        <time>2013-02-18T22:14:17Z</time>
        <extensions><gpxtpx:TrackPointExtension><gpxtpx:hr>129</gpxtpx:hr></gpxtpx:TrackPointExtension></extensions>
      </trkpt>
      <trkpt lat="59.9845332" lon="15.8276887">
        <ele>95.8</ele>
        <time>2013-02-18T22:14:18Z</time>
        <extensions><gpxtpx:TrackPointExtension><gpxtpx:hr>129</gpxtpx:hr></gpxtpx:TrackPointExtension></extensions>
      </trkpt>
      <trkpt lat="59.9845357" lon="15.8276856">
        <ele>95.8</ele>
        <time>2013-02-18T22:14:19Z</time>
        <extensions><gpxtpx:TrackPointExtension><gpxtpx:hr>128</gpxtpx:hr></gpxtpx:TrackPointExtension></extensions>
      </trkpt>
      <trkpt lat="59.9845378" lon="15.8276804">
        <ele>95.8</ele>
        <time>2013-02-18T22:14:20Z</time>
        <extensions><gpxtpx:TrackPointExtension><gpxtpx:hr>129</gpxtpx:hr></gpxtpx:TrackPointExtension></extensions>
      </trkpt>
      <trkpt lat="59.9845401" lon="15.8276709">
        <ele>95.8</ele>
        <time>2013-02-18T22:14:21Z</time>
        <extensions><gpxtpx:TrackPointExtension><gpxtpx:hr>128</gpxtpx:hr></gpxtpx:TrackPointExtension></extensions>
      </trkpt>
      <trkpt lat="59.9845409" lon="15.8276636">
        <ele>95.8</ele>
        <time>2013-02-18T22:14:22Z</time>
        <extensions><gpxtpx:TrackPointExtension><gpxtpx:hr>128</gpxtpx:hr></gpxtpx:TrackPointExtension></extensions>
      </trkpt>
      <trkpt lat="59.9845427" lon="15.827656">
        <ele>95.8</ele>
        <time>2013-02-18T22:14:23Z</time>
        <extensions><gpxtpx:TrackPointExtension><gpxtpx:hr>128</gpxtpx:hr></gpxtpx:TrackPointExtension></extensions>
      </trkpt>
      <trkpt lat="59.9845449" lon="15.8276488">
        <ele>95.8</ele>
        <time>2013-02-18T22:14:24Z</time>
        <extensions><gpxtpx:TrackPointExtension><gpxtpx:hr>128</gpxtpx:hr></gpxtpx:TrackPointExtension></extensions>
      </trkpt>
      <trkpt lat="59.9845461" lon="15.827645">
        <ele>95.8</ele>
        <time>2013-02-18T22:14:25Z</time>
        <extensions><gpxtpx:TrackPointExtension><gpxtpx:hr>129</gpxtpx:hr></gpxtpx:TrackPointExtension></extensions>
      </trkpt>
      <trkpt lat="59.9845466" lon="15.8276429">
        <ele>95.8</ele>
        <time>2013-02-18T22:14:26Z</time>
        <extensions><gpxtpx:TrackPointExtension><gpxtpx:hr>129</gpxtpx:hr></gpxtpx:TrackPointExtension></extensions>
      </trkpt>
      <trkpt lat="59.9845454" lon="15.8276375">
        <ele>95.8</ele>
        <time>2013-02-18T22:14:27Z</time>
        <extensions><gpxtpx:TrackPointExtension><gpxtpx:hr>129</gpxtpx:hr></gpxtpx:TrackPointExtension></extensions>
      </trkpt>
      <trkpt lat="59.9845449" lon="15.8276344">
        <ele>95.8</ele>
        <time>2013-02-18T22:14:28Z</time>
        <extensions><gpxtpx:TrackPointExtension><gpxtpx:hr>129</gpxtpx:hr></gpxtpx:TrackPointExtension></extensions>
      </trkpt>
      <trkpt lat="59.9845456" lon="15.8276334">
        <ele>95.8</ele>
        <time>2013-02-18T22:14:29Z</time>
        <extensions><gpxtpx:TrackPointExtension><gpxtpx:hr>128</gpxtpx:hr></gpxtpx:TrackPointExtension></extensions>
      </trkpt>
      <trkpt lat="59.984544" lon="15.8276344">
        <ele>95.8</ele>
        <time>2013-02-18T22:14:30Z</time>
        <extensions><gpxtpx:TrackPointExtension><gpxtpx:hr>128</gpxtpx:hr></gpxtpx:TrackPointExtension></extensions>
      </trkpt>
      <trkpt lat="59.9845423" lon="15.8276374">
        <ele>95.8</ele>
        <time>2013-02-18T22:14:31Z</time>
        <extensions><gpxtpx:TrackPointExtension><gpxtpx:hr>128</gpxtpx:hr></gpxtpx:TrackPointExtension></extensions>
      </trkpt>
      <trkpt lat="59.9845423" lon="15.8276379">
        <ele>96</ele>
        <time>2013-02-18T22:14:32Z</time>
        <extensions><gpxtpx:TrackPointExtension><gpxtpx:hr>128</gpxtpx:hr></gpxtpx:TrackPointExtension></extensions>
      </trkpt>
      <trkpt lat="59.9845411" lon="15.8276404">
        <ele>95.8</ele>
        <time>2013-02-18T22:14:33Z</time>
        <extensions><gpxtpx:TrackPointExtension><gpxtpx:hr>128</gpxtpx:hr></gpxtpx:TrackPointExtension></extensions>
      </trkpt>
      <trkpt lat="59.984541" lon="15.827642">
        <ele>95.8</ele>
        <time>2013-02-18T22:14:34Z</time>
        <extensions><gpxtpx:TrackPointExtension><gpxtpx:hr>128</gpxtpx:hr></gpxtpx:TrackPointExtension></extensions>
      </trkpt>
      <trkpt lat="59.9845413" lon="15.8276435">
        <ele>95.8</ele>
        <time>2013-02-18T22:14:35Z</time>
        <extensions><gpxtpx:TrackPointExtension><gpxtpx:hr>128</gpxtpx:hr></gpxtpx:TrackPointExtension></extensions>
      </trkpt>
      <trkpt lat="59.9845414" lon="15.8276439">
        <ele>95.8</ele>
        <time>2013-02-18T22:14:36Z</time>
        <extensions><gpxtpx:TrackPointExtension><gpxtpx:hr>128</gpxtpx:hr></gpxtpx:TrackPointExtension></extensions>
      </trkpt>
      <trkpt lat="59.9845408" lon="15.8276421">
        <ele>95.8</ele>
        <time>2013-02-18T22:14:37Z</time>
        <extensions><gpxtpx:TrackPointExtension><gpxtpx:hr>128</gpxtpx:hr></gpxtpx:TrackPointExtension></extensions>
      </trkpt>
      <trkpt lat="59.984544" lon="15.8276308">
        <ele>95.8</ele>
        <time>2013-02-18T22:14:39Z</time>
        <extensions><gpxtpx:TrackPointExtension><gpxtpx:hr>128</gpxtpx:hr></gpxtpx:TrackPointExtension></extensions>
      </trkpt>
      <trkpt lat="59.9844994" lon="15.8276856">
        <ele>95.8</ele>
        <time>2013-02-18T22:14:40Z</time>
        <extensions><gpxtpx:TrackPointExtension><gpxtpx:hr>128</gpxtpx:hr></gpxtpx:TrackPointExtension></extensions>
      </trkpt>
      <trkpt lat="59.984501" lon="15.827678">
        <ele>95.8</ele>
        <time>2013-02-18T22:14:41Z</time>
        <extensions><gpxtpx:TrackPointExtension><gpxtpx:hr>128</gpxtpx:hr></gpxtpx:TrackPointExtension></extensions>
      </trkpt>
      <trkpt lat="59.9845021" lon="15.8276726">
        <ele>95.8</ele>
        <time>2013-02-18T22:14:42Z</time>
        <extensions><gpxtpx:TrackPointExtension><gpxtpx:hr>128</gpxtpx:hr></gpxtpx:TrackPointExtension></extensions>
      </trkpt>
      <trkpt lat="59.984502" lon="15.8276738">
        <ele>95.8</ele>
        <time>2013-02-18T22:14:44Z</time>
        <extensions><gpxtpx:TrackPointExtension><gpxtpx:hr>127</gpxtpx:hr></gpxtpx:TrackPointExtension></extensions>
      </trkpt>
      <trkpt lat="59.9845056" lon="15.8276595">
        <ele>95.8</ele>
        <time>2013-02-18T22:14:45Z</time>
        <extensions><gpxtpx:TrackPointExtension><gpxtpx:hr>127</gpxtpx:hr></gpxtpx:TrackPointExtension></extensions>
      </trkpt>
      <trkpt lat="59.9845078" lon="15.8276494">
        <ele>95.8</ele>
        <time>2013-02-18T22:14:46Z</time>
        <extensions><gpxtpx:TrackPointExtension><gpxtpx:hr>127</gpxtpx:hr></gpxtpx:TrackPointExtension></extensions>
      </trkpt>
      <trkpt lat="59.9845094" lon="15.827641">
        <ele>95.8</ele>
        <time>2013-02-18T22:14:47Z</time>
        <extensions><gpxtpx:TrackPointExtension><gpxtpx:hr>127</gpxtpx:hr></gpxtpx:TrackPointExtension></extensions>
      </trkpt>
      <trkpt lat="59.9845125" lon="15.8276356">
        <ele>95.8</ele>
        <time>2013-02-18T22:14:48Z</time>
        <extensions><gpxtpx:TrackPointExtension><gpxtpx:hr>127</gpxtpx:hr></gpxtpx:TrackPointExtension></extensions>
      </trkpt>
      <trkpt lat="59.9845161" lon="15.8276277">
        <ele>95.8</ele>
        <time>2013-02-18T22:14:49Z</time>
        <extensions><gpxtpx:TrackPointExtension><gpxtpx:hr>127</gpxtpx:hr></gpxtpx:TrackPointExtension></extensions>
      </trkpt>
      <trkpt lat="59.984519" lon="15.8276195">
        <ele>95.8</ele>
        <time>2013-02-18T22:14:50Z</time>
        <extensions><gpxtpx:TrackPointExtension><gpxtpx:hr>127</gpxtpx:hr></gpxtpx:TrackPointExtension></extensions>
      </trkpt>
      <trkpt lat="59.9845238" lon="15.8275949">
        <ele>95.8</ele>
        <time>2013-02-18T22:14:53Z</time>
        <extensions><gpxtpx:TrackPointExtension><gpxtpx:hr>127</gpxtpx:hr></gpxtpx:TrackPointExtension></extensions>
      </trkpt>
      <trkpt lat="59.9845254" lon="15.8275907">
        <ele>95.8</ele>
        <time>2013-02-18T22:14:54Z</time>
        <extensions><gpxtpx:TrackPointExtension><gpxtpx:hr>127</gpxtpx:hr></gpxtpx:TrackPointExtension></extensions>
      </trkpt>
      <trkpt lat="59.9845261" lon="15.8275899">
        <ele>95.8</ele>
        <time>2013-02-18T22:14:55Z</time>
        <extensions><gpxtpx:TrackPointExtension><gpxtpx:hr>127</gpxtpx:hr></gpxtpx:TrackPointExtension></extensions>
      </trkpt>
      <trkpt lat="59.9845265" lon="15.8275896">
        <ele>95.8</ele>
        <time>2013-02-18T22:14:56Z</time>
        <extensions><gpxtpx:TrackPointExtension><gpxtpx:hr>127</gpxtpx:hr></gpxtpx:TrackPointExtension></extensions>
      </trkpt>
      <trkpt lat="59.9845266" lon="15.8275898">
        <ele>96</ele>
        <time>2013-02-18T22:14:57Z</time>
        <extensions><gpxtpx:TrackPointExtension><gpxtpx:hr>127</gpxtpx:hr></gpxtpx:TrackPointExtension></extensions>
      </trkpt>
      <trkpt lat="59.9845267" lon="15.827589">
        <ele>95.8</ele>
        <time>2013-02-18T22:14:58Z</time>
        <extensions><gpxtpx:TrackPointExtension><gpxtpx:hr>127</gpxtpx:hr></gpxtpx:TrackPointExtension></extensions>
      </trkpt>
      <trkpt lat="59.9845293" lon="15.8275867">
        <ele>95.8</ele>
        <time>2013-02-18T22:15:03Z</time>
        <extensions><gpxtpx:TrackPointExtension><gpxtpx:hr>127</gpxtpx:hr></gpxtpx:TrackPointExtension></extensions>
      </trkpt>
      <trkpt lat="59.984529" lon="15.8275871">
        <ele>95.8</ele>
        <time>2013-02-18T22:15:04Z</time>
        <extensions><gpxtpx:TrackPointExtension><gpxtpx:hr>127</gpxtpx:hr></gpxtpx:TrackPointExtension></extensions>
      </trkpt>
      <trkpt lat="59.9845289" lon="15.8275728">
        <ele>95.8</ele>
        <time>2013-02-18T22:15:08Z</time>
        <extensions><gpxtpx:TrackPointExtension><gpxtpx:hr>128</gpxtpx:hr></gpxtpx:TrackPointExtension></extensions>
      </trkpt>
      <trkpt lat="59.984517" lon="15.8275864">
        <ele>95.8</ele>
        <time>2013-02-18T22:15:09Z</time>
        <extensions><gpxtpx:TrackPointExtension><gpxtpx:hr>128</gpxtpx:hr></gpxtpx:TrackPointExtension></extensions>
      </trkpt>
      <trkpt lat="59.9845176" lon="15.8275746">
        <ele>95.8</ele>
        <time>2013-02-18T22:15:12Z</time>
        <extensions><gpxtpx:TrackPointExtension><gpxtpx:hr>128</gpxtpx:hr></gpxtpx:TrackPointExtension></extensions>
      </trkpt>
      <trkpt lat="59.9845169" lon="15.8275758">
        <ele>95.8</ele>
        <time>2013-02-18T22:15:13Z</time>
        <extensions><gpxtpx:TrackPointExtension><gpxtpx:hr>128</gpxtpx:hr></gpxtpx:TrackPointExtension></extensions>
      </trkpt>
      <trkpt lat="59.9845161" lon="15.8275773">
        <ele>95.8</ele>
        <time>2013-02-18T22:15:14Z</time>
        <extensions><gpxtpx:TrackPointExtension><gpxtpx:hr>129</gpxtpx:hr></gpxtpx:TrackPointExtension></extensions>
      </trkpt>
      <trkpt lat="59.9845162" lon="15.8275771">
        <ele>95.8</ele>
        <time>2013-02-18T22:15:15Z</time>
        <extensions><gpxtpx:TrackPointExtension><gpxtpx:hr>129</gpxtpx:hr></gpxtpx:TrackPointExtension></extensions>
      </trkpt>
      <trkpt lat="59.9845166" lon="15.8275755">
        <ele>96</ele>
        <time>2013-02-18T22:15:16Z</time>
        <extensions><gpxtpx:TrackPointExtension><gpxtpx:hr>129</gpxtpx:hr></gpxtpx:TrackPointExtension></extensions>
      </trkpt>
      <trkpt lat="59.9845167" lon="15.8275737">
        <ele>95.8</ele>
        <time>2013-02-18T22:15:17Z</time>
        <extensions><gpxtpx:TrackPointExtension><gpxtpx:hr>128</gpxtpx:hr></gpxtpx:TrackPointExtension></extensions>
      </trkpt>
      <trkpt lat="59.9845172" lon="15.8275722">
        <ele>95.8</ele>
        <time>2013-02-18T22:15:18Z</time>
        <extensions><gpxtpx:TrackPointExtension><gpxtpx:hr>128</gpxtpx:hr></gpxtpx:TrackPointExtension></extensions>
      </trkpt>
      <trkpt lat="59.9845167" lon="15.8275742">
        <ele>95.8</ele>
        <time>2013-02-18T22:15:19Z</time>
        <extensions><gpxtpx:TrackPointExtension><gpxtpx:hr>128</gpxtpx:hr></gpxtpx:TrackPointExtension></extensions>
      </trkpt>
      <trkpt lat="59.9845158" lon="15.8275778">
        <ele>95.8</ele>
        <time>2013-02-18T22:15:20Z</time>
        <extensions><gpxtpx:TrackPointExtension><gpxtpx:hr>128</gpxtpx:hr></gpxtpx:TrackPointExtension></extensions>
      </trkpt>
      <trkpt lat="59.9845147" lon="15.8275831">
        <ele>95.8</ele>
        <time>2013-02-18T22:15:21Z</time>
        <extensions><gpxtpx:TrackPointExtension><gpxtpx:hr>127</gpxtpx:hr></gpxtpx:TrackPointExtension></extensions>
      </trkpt>
      <trkpt lat="59.984512" lon="15.8275901">
        <ele>95.8</ele>
        <time>2013-02-18T22:15:22Z</time>
        <extensions><gpxtpx:TrackPointExtension><gpxtpx:hr>127</gpxtpx:hr></gpxtpx:TrackPointExtension></extensions>
      </trkpt>
      <trkpt lat="59.984512" lon="15.8275892">
        <ele>95.8</ele>
        <time>2013-02-18T22:15:23Z</time>
        <extensions><gpxtpx:TrackPointExtension><gpxtpx:hr>126</gpxtpx:hr></gpxtpx:TrackPointExtension></extensions>
      </trkpt>
      <trkpt lat="59.984513" lon="15.8275856">
        <ele>95.8</ele>
        <time>2013-02-18T22:15:24Z</time>
        <extensions><gpxtpx:TrackPointExtension><gpxtpx:hr>127</gpxtpx:hr></gpxtpx:TrackPointExtension></extensions>
      </trkpt>
      <trkpt lat="59.9845274" lon="15.8275546">
        <ele>95.8</ele>
        <time>2013-02-18T22:15:27Z</time>
        <extensions><gpxtpx:TrackPointExtension><gpxtpx:hr>127</gpxtpx:hr></gpxtpx:TrackPointExtension></extensions>
      </trkpt>
      <trkpt lat="59.9845365" lon="15.827551">
        <ele>95.8</ele>
        <time>2013-02-18T22:15:33Z</time>
        <extensions><gpxtpx:TrackPointExtension><gpxtpx:hr>128</gpxtpx:hr></gpxtpx:TrackPointExtension></extensions>
      </trkpt>
      <trkpt lat="59.9845346" lon="15.8275553">
        <ele>95.8</ele>
        <time>2013-02-18T22:15:34Z</time>
        <extensions><gpxtpx:TrackPointExtension><gpxtpx:hr>127</gpxtpx:hr></gpxtpx:TrackPointExtension></extensions>
      </trkpt>
      <trkpt lat="59.9845332" lon="15.827559">
        <ele>95.8</ele>
        <time>2013-02-18T22:15:35Z</time>
        <extensions><gpxtpx:TrackPointExtension><gpxtpx:hr>128</gpxtpx:hr></gpxtpx:TrackPointExtension></extensions>
      </trkpt>
      <trkpt lat="59.9845322" lon="15.827562">
        <ele>95.8</ele>
        <time>2013-02-18T22:15:36Z</time>
        <extensions><gpxtpx:TrackPointExtension><gpxtpx:hr>128</gpxtpx:hr></gpxtpx:TrackPointExtension></extensions>
      </trkpt>
      <trkpt lat="59.9845338" lon="15.8275622">
        <ele>95.8</ele>
        <time>2013-02-18T22:15:37Z</time>
        <extensions><gpxtpx:TrackPointExtension><gpxtpx:hr>128</gpxtpx:hr></gpxtpx:TrackPointExtension></extensions>
      </trkpt>
      <trkpt lat="59.9845347" lon="15.8275618">
        <ele>95.8</ele>
        <time>2013-02-18T22:15:38Z</time>
        <extensions><gpxtpx:TrackPointExtension><gpxtpx:hr>128</gpxtpx:hr></gpxtpx:TrackPointExtension></extensions>
      </trkpt>
      <trkpt lat="59.9845361" lon="15.8275628">
        <ele>95.8</ele>
        <time>2013-02-18T22:15:39Z</time>
        <extensions><gpxtpx:TrackPointExtension><gpxtpx:hr>128</gpxtpx:hr></gpxtpx:TrackPointExtension></extensions>
      </trkpt>
      <trkpt lat="59.9845404" lon="15.8275625">
        <ele>95.8</ele>
        <time>2013-02-18T22:15:41Z</time>
        <extensions><gpxtpx:TrackPointExtension><gpxtpx:hr>128</gpxtpx:hr></gpxtpx:TrackPointExtension></extensions>
      </trkpt>
      <trkpt lat="59.984542" lon="15.8275618">
        <ele>95.8</ele>
        <time>2013-02-18T22:15:42Z</time>
        <extensions><gpxtpx:TrackPointExtension><gpxtpx:hr>129</gpxtpx:hr></gpxtpx:TrackPointExtension></extensions>
      </trkpt>
      <trkpt lat="59.9845409" lon="15.8275628">
        <ele>96</ele>
        <time>2013-02-18T22:15:43Z</time>
        <extensions><gpxtpx:TrackPointExtension><gpxtpx:hr>128</gpxtpx:hr></gpxtpx:TrackPointExtension></extensions>
      </trkpt>
      <trkpt lat="59.9845401" lon="15.8275611">
        <ele>96</ele>
        <time>2013-02-18T22:15:44Z</time>
        <extensions><gpxtpx:TrackPointExtension><gpxtpx:hr>129</gpxtpx:hr></gpxtpx:TrackPointExtension></extensions>
      </trkpt>
      <trkpt lat="59.984541" lon="15.8275535">
        <ele>96</ele>
        <time>2013-02-18T22:15:45Z</time>
        <extensions><gpxtpx:TrackPointExtension><gpxtpx:hr>129</gpxtpx:hr></gpxtpx:TrackPointExtension></extensions>
      </trkpt>
      <trkpt lat="59.9845455" lon="15.8275424">
        <ele>96</ele>
        <time>2013-02-18T22:15:46Z</time>
        <extensions><gpxtpx:TrackPointExtension><gpxtpx:hr>129</gpxtpx:hr></gpxtpx:TrackPointExtension></extensions>
      </trkpt>
      <trkpt lat="59.9845497" lon="15.8275307">
        <ele>96</ele>
        <time>2013-02-18T22:15:47Z</time>
        <extensions><gpxtpx:TrackPointExtension><gpxtpx:hr>129</gpxtpx:hr></gpxtpx:TrackPointExtension></extensions>
      </trkpt>
      <trkpt lat="59.9845544" lon="15.8275195">
        <ele>95.8</ele>
        <time>2013-02-18T22:15:48Z</time>
        <extensions><gpxtpx:TrackPointExtension><gpxtpx:hr>129</gpxtpx:hr></gpxtpx:TrackPointExtension></extensions>
      </trkpt>
      <trkpt lat="59.9845596" lon="15.8275087">
        <ele>95.8</ele>
        <time>2013-02-18T22:15:49Z</time>
        <extensions><gpxtpx:TrackPointExtension><gpxtpx:hr>129</gpxtpx:hr></gpxtpx:TrackPointExtension></extensions>
      </trkpt>
      <trkpt lat="59.9845648" lon="15.8274971">
        <ele>95.8</ele>
        <time>2013-02-18T22:15:50Z</time>
        <extensions><gpxtpx:TrackPointExtension><gpxtpx:hr>129</gpxtpx:hr></gpxtpx:TrackPointExtension></extensions>
      </trkpt>
      <trkpt lat="59.9845694" lon="15.8274856">
        <ele>95.8</ele>
        <time>2013-02-18T22:15:51Z</time>
        <extensions><gpxtpx:TrackPointExtension><gpxtpx:hr>129</gpxtpx:hr></gpxtpx:TrackPointExtension></extensions>
      </trkpt>
      <trkpt lat="59.9844974" lon="15.8277544">
        <ele>95.8</ele>
        <time>2013-02-18T22:15:52Z</time>
        <extensions><gpxtpx:TrackPointExtension><gpxtpx:hr>129</gpxtpx:hr></gpxtpx:TrackPointExtension></extensions>
      </trkpt>
      <trkpt lat="59.9845047" lon="15.8277346">
        <ele>95.8</ele>
        <time>2013-02-18T22:15:53Z</time>
        <extensions><gpxtpx:TrackPointExtension><gpxtpx:hr>129</gpxtpx:hr></gpxtpx:TrackPointExtension></extensions>
      </trkpt>
      <trkpt lat="59.9845109" lon="15.8277164">
        <ele>95.8</ele>
        <time>2013-02-18T22:15:54Z</time>
        <extensions><gpxtpx:TrackPointExtension><gpxtpx:hr>129</gpxtpx:hr></gpxtpx:TrackPointExtension></extensions>
      </trkpt>
      <trkpt lat="59.9845202" lon="15.8276882">
        <ele>96</ele>
        <time>2013-02-18T22:15:55Z</time>
        <extensions><gpxtpx:TrackPointExtension><gpxtpx:hr>129</gpxtpx:hr></gpxtpx:TrackPointExtension></extensions>
      </trkpt>
      <trkpt lat="59.9845249" lon="15.8276709">
        <ele>96</ele>
        <time>2013-02-18T22:15:56Z</time>
        <extensions><gpxtpx:TrackPointExtension><gpxtpx:hr>129</gpxtpx:hr></gpxtpx:TrackPointExtension></extensions>
      </trkpt>
      <trkpt lat="59.9845382" lon="15.8276349">
        <ele>95.8</ele>
        <time>2013-02-18T22:15:57Z</time>
        <extensions><gpxtpx:TrackPointExtension><gpxtpx:hr>129</gpxtpx:hr></gpxtpx:TrackPointExtension></extensions>
      </trkpt>
      <trkpt lat="59.9845479" lon="15.8276158">
        <ele>95.8</ele>
        <time>2013-02-18T22:15:58Z</time>
        <extensions><gpxtpx:TrackPointExtension><gpxtpx:hr>129</gpxtpx:hr></gpxtpx:TrackPointExtension></extensions>
      </trkpt>
      <trkpt lat="59.9845523" lon="15.8276006">
        <ele>95.8</ele>
        <time>2013-02-18T22:15:59Z</time>
        <extensions><gpxtpx:TrackPointExtension><gpxtpx:hr>129</gpxtpx:hr></gpxtpx:TrackPointExtension></extensions>
      </trkpt>
      <trkpt lat="59.9845592" lon="15.8275846">
        <ele>95.8</ele>
        <time>2013-02-18T22:16:00Z</time>
        <extensions><gpxtpx:TrackPointExtension><gpxtpx:hr>129</gpxtpx:hr></gpxtpx:TrackPointExtension></extensions>
      </trkpt>
      <trkpt lat="59.9845645" lon="15.8275706">
        <ele>95.8</ele>
        <time>2013-02-18T22:16:01Z</time>
        <extensions><gpxtpx:TrackPointExtension><gpxtpx:hr>129</gpxtpx:hr></gpxtpx:TrackPointExtension></extensions>
      </trkpt>
      <trkpt lat="59.9845694" lon="15.8275541">
        <ele>95.8</ele>
        <time>2013-02-18T22:16:02Z</time>
        <extensions><gpxtpx:TrackPointExtension><gpxtpx:hr>129</gpxtpx:hr></gpxtpx:TrackPointExtension></extensions>
      </trkpt>
      <trkpt lat="59.9845737" lon="15.8275358">
        <ele>95.8</ele>
        <time>2013-02-18T22:16:03Z</time>
        <extensions><gpxtpx:TrackPointExtension><gpxtpx:hr>129</gpxtpx:hr></gpxtpx:TrackPointExtension></extensions>
      </trkpt>
      <trkpt lat="59.9845729" lon="15.8275266">
        <ele>95.8</ele>
        <time>2013-02-18T22:16:04Z</time>
        <extensions><gpxtpx:TrackPointExtension><gpxtpx:hr>129</gpxtpx:hr></gpxtpx:TrackPointExtension></extensions>
      </trkpt>
      <trkpt lat="59.984574" lon="15.8275176">
        <ele>95.8</ele>
        <time>2013-02-18T22:16:05Z</time>
        <extensions><gpxtpx:TrackPointExtension><gpxtpx:hr>129</gpxtpx:hr></gpxtpx:TrackPointExtension></extensions>
      </trkpt>
      <trkpt lat="59.984573" lon="15.827517">
        <ele>95.8</ele>
        <time>2013-02-18T22:16:06Z</time>
        <extensions><gpxtpx:TrackPointExtension><gpxtpx:hr>129</gpxtpx:hr></gpxtpx:TrackPointExtension></extensions>
      </trkpt>
      <trkpt lat="59.9845699" lon="15.8275214">
        <ele>95.8</ele>
        <time>2013-02-18T22:16:09Z</time>
        <extensions><gpxtpx:TrackPointExtension><gpxtpx:hr>129</gpxtpx:hr></gpxtpx:TrackPointExtension></extensions>
      </trkpt>
      <trkpt lat="59.9845717" lon="15.8275228">
        <ele>95.8</ele>
        <time>2013-02-18T22:16:10Z</time>
        <extensions><gpxtpx:TrackPointExtension><gpxtpx:hr>129</gpxtpx:hr></gpxtpx:TrackPointExtension></extensions>
      </trkpt>
      <trkpt lat="59.984572" lon="15.8275256">
        <ele>95.8</ele>
        <time>2013-02-18T22:16:11Z</time>
        <extensions><gpxtpx:TrackPointExtension><gpxtpx:hr>129</gpxtpx:hr></gpxtpx:TrackPointExtension></extensions>
      </trkpt>
      <trkpt lat="59.9845715" lon="15.8275296">
        <ele>95.8</ele>
        <time>2013-02-18T22:16:12Z</time>
        <extensions><gpxtpx:TrackPointExtension><gpxtpx:hr>129</gpxtpx:hr></gpxtpx:TrackPointExtension></extensions>
      </trkpt>
      <trkpt lat="59.9845539" lon="15.82755">
        <ele>95.8</ele>
        <time>2013-02-18T22:16:13Z</time>
        <extensions><gpxtpx:TrackPointExtension><gpxtpx:hr>130</gpxtpx:hr></gpxtpx:TrackPointExtension></extensions>
      </trkpt>
      <trkpt lat="59.9845466" lon="15.827569">
        <ele>95.8</ele>
        <time>2013-02-18T22:16:14Z</time>
        <extensions><gpxtpx:TrackPointExtension><gpxtpx:hr>130</gpxtpx:hr></gpxtpx:TrackPointExtension></extensions>
      </trkpt>
      <trkpt lat="59.9845363" lon="15.8275903">
        <ele>95.8</ele>
        <time>2013-02-18T22:16:15Z</time>
        <extensions><gpxtpx:TrackPointExtension><gpxtpx:hr>129</gpxtpx:hr></gpxtpx:TrackPointExtension></extensions>
      </trkpt>
      <trkpt lat="59.9845285" lon="15.827606">
        <ele>95.8</ele>
        <time>2013-02-18T22:16:16Z</time>
        <extensions><gpxtpx:TrackPointExtension><gpxtpx:hr>129</gpxtpx:hr></gpxtpx:TrackPointExtension></extensions>
      </trkpt>
      <trkpt lat="59.9845191" lon="15.8276251">
        <ele>95.8</ele>
        <time>2013-02-18T22:16:17Z</time>
        <extensions><gpxtpx:TrackPointExtension><gpxtpx:hr>129</gpxtpx:hr></gpxtpx:TrackPointExtension></extensions>
      </trkpt>
      <trkpt lat="59.984508" lon="15.8276458">
        <ele>95.8</ele>
        <time>2013-02-18T22:16:23Z</time>
        <extensions><gpxtpx:TrackPointExtension><gpxtpx:hr>129</gpxtpx:hr></gpxtpx:TrackPointExtension></extensions>
      </trkpt>
      <trkpt lat="59.984507" lon="15.8276478">
        <ele>95.8</ele>
        <time>2013-02-18T22:16:24Z</time>
        <extensions><gpxtpx:TrackPointExtension><gpxtpx:hr>129</gpxtpx:hr></gpxtpx:TrackPointExtension></extensions>
      </trkpt>
      <trkpt lat="59.9844944" lon="15.8276726">
        <ele>95.8</ele>
        <time>2013-02-18T22:16:29Z</time>
        <extensions><gpxtpx:TrackPointExtension><gpxtpx:hr>128</gpxtpx:hr></gpxtpx:TrackPointExtension></extensions>
      </trkpt>
      <trkpt lat="59.9844939" lon="15.8276755">
        <ele>95.8</ele>
        <time>2013-02-18T22:16:30Z</time>
        <extensions><gpxtpx:TrackPointExtension><gpxtpx:hr>128</gpxtpx:hr></gpxtpx:TrackPointExtension></extensions>
      </trkpt>
      <trkpt lat="59.9844924" lon="15.8276794">
        <ele>95.8</ele>
        <time>2013-02-18T22:16:31Z</time>
        <extensions><gpxtpx:TrackPointExtension><gpxtpx:hr>127</gpxtpx:hr></gpxtpx:TrackPointExtension></extensions>
      </trkpt>
      <trkpt lat="59.9844918" lon="15.8276809">
        <ele>95.8</ele>
        <time>2013-02-18T22:16:32Z</time>
        <extensions><gpxtpx:TrackPointExtension><gpxtpx:hr>127</gpxtpx:hr></gpxtpx:TrackPointExtension></extensions>
      </trkpt>
      <trkpt lat="59.9844907" lon="15.8276823">
        <ele>95.8</ele>
        <time>2013-02-18T22:16:33Z</time>
        <extensions><gpxtpx:TrackPointExtension><gpxtpx:hr>128</gpxtpx:hr></gpxtpx:TrackPointExtension></extensions>
      </trkpt>
      <trkpt lat="59.9844886" lon="15.8276836">
        <ele>95.8</ele>
        <time>2013-02-18T22:16:34Z</time>
        <extensions><gpxtpx:TrackPointExtension><gpxtpx:hr>128</gpxtpx:hr></gpxtpx:TrackPointExtension></extensions>
      </trkpt>
      <trkpt lat="59.9844859" lon="15.8276822">
        <ele>96</ele>
        <time>2013-02-18T22:16:35Z</time>
        <extensions><gpxtpx:TrackPointExtension><gpxtpx:hr>128</gpxtpx:hr></gpxtpx:TrackPointExtension></extensions>
      </trkpt>
      <trkpt lat="59.9844852" lon="15.827678">
        <ele>96</ele>
        <time>2013-02-18T22:16:36Z</time>
        <extensions><gpxtpx:TrackPointExtension><gpxtpx:hr>128</gpxtpx:hr></gpxtpx:TrackPointExtension></extensions>
      </trkpt>
      <trkpt lat="59.9844845" lon="15.8276723">
        <ele>95.8</ele>
        <time>2013-02-18T22:16:37Z</time>
        <extensions><gpxtpx:TrackPointExtension><gpxtpx:hr>129</gpxtpx:hr></gpxtpx:TrackPointExtension></extensions>
      </trkpt>
      <trkpt lat="59.9844829" lon="15.827668">
        <ele>95.8</ele>
        <time>2013-02-18T22:16:38Z</time>
        <extensions><gpxtpx:TrackPointExtension><gpxtpx:hr>129</gpxtpx:hr></gpxtpx:TrackPointExtension></extensions>
      </trkpt>
      <trkpt lat="59.9844813" lon="15.8276628">
        <ele>95.8</ele>
        <time>2013-02-18T22:16:39Z</time>
        <extensions><gpxtpx:TrackPointExtension><gpxtpx:hr>129</gpxtpx:hr></gpxtpx:TrackPointExtension></extensions>
      </trkpt>
      <trkpt lat="59.9844798" lon="15.8276582">
        <ele>95.8</ele>
        <time>2013-02-18T22:16:40Z</time>
        <extensions><gpxtpx:TrackPointExtension><gpxtpx:hr>130</gpxtpx:hr></gpxtpx:TrackPointExtension></extensions>
      </trkpt>
      <trkpt lat="59.984488" lon="15.8276458">
        <ele>95.8</ele>
        <time>2013-02-18T22:16:47Z</time>
        <extensions><gpxtpx:TrackPointExtension><gpxtpx:hr>129</gpxtpx:hr></gpxtpx:TrackPointExtension></extensions>
      </trkpt>
      <trkpt lat="59.9844884" lon="15.8276436">
        <ele>96</ele>
        <time>2013-02-18T22:16:48Z</time>
        <extensions><gpxtpx:TrackPointExtension><gpxtpx:hr>129</gpxtpx:hr></gpxtpx:TrackPointExtension></extensions>
      </trkpt>
      <trkpt lat="59.9844879" lon="15.8276414">
        <ele>96</ele>
        <time>2013-02-18T22:16:49Z</time>
        <extensions><gpxtpx:TrackPointExtension><gpxtpx:hr>129</gpxtpx:hr></gpxtpx:TrackPointExtension></extensions>
      </trkpt>
      <trkpt lat="59.9844881" lon="15.8276399">
        <ele>96</ele>
        <time>2013-02-18T22:16:50Z</time>
        <extensions><gpxtpx:TrackPointExtension><gpxtpx:hr>130</gpxtpx:hr></gpxtpx:TrackPointExtension></extensions>
      </trkpt>
      <trkpt lat="59.9844881" lon="15.8276404">
        <ele>96</ele>
        <time>2013-02-18T22:16:51Z</time>
        <extensions><gpxtpx:TrackPointExtension><gpxtpx:hr>129</gpxtpx:hr></gpxtpx:TrackPointExtension></extensions>
      </trkpt>
      <trkpt lat="59.9844872" lon="15.8276443">
        <ele>96</ele>
        <time>2013-02-18T22:16:52Z</time>
        <extensions><gpxtpx:TrackPointExtension><gpxtpx:hr>129</gpxtpx:hr></gpxtpx:TrackPointExtension></extensions>
      </trkpt>
      <trkpt lat="59.9844872" lon="15.8276503">
        <ele>96</ele>
        <time>2013-02-18T22:16:53Z</time>
        <extensions><gpxtpx:TrackPointExtension><gpxtpx:hr>130</gpxtpx:hr></gpxtpx:TrackPointExtension></extensions>
      </trkpt>
      <trkpt lat="59.9844895" lon="15.8276548">
        <ele>95.8</ele>
        <time>2013-02-18T22:16:54Z</time>
        <extensions><gpxtpx:TrackPointExtension><gpxtpx:hr>129</gpxtpx:hr></gpxtpx:TrackPointExtension></extensions>
      </trkpt>
      <trkpt lat="59.9844928" lon="15.8276545">
        <ele>95.8</ele>
        <time>2013-02-18T22:16:55Z</time>
        <extensions><gpxtpx:TrackPointExtension><gpxtpx:hr>129</gpxtpx:hr></gpxtpx:TrackPointExtension></extensions>
      </trkpt>
      <trkpt lat="59.9845465" lon="15.8275341">
        <ele>95.8</ele>
        <time>2013-02-18T22:16:56Z</time>
        <extensions><gpxtpx:TrackPointExtension><gpxtpx:hr>130</gpxtpx:hr></gpxtpx:TrackPointExtension></extensions>
      </trkpt>
      <trkpt lat="59.9845509" lon="15.8275262">
        <ele>95.8</ele>
        <time>2013-02-18T22:16:57Z</time>
        <extensions><gpxtpx:TrackPointExtension><gpxtpx:hr>130</gpxtpx:hr></gpxtpx:TrackPointExtension></extensions>
      </trkpt>
      <trkpt lat="59.9845542" lon="15.8275222">
        <ele>95.8</ele>
        <time>2013-02-18T22:16:58Z</time>
        <extensions><gpxtpx:TrackPointExtension><gpxtpx:hr>130</gpxtpx:hr></gpxtpx:TrackPointExtension></extensions>
      </trkpt>
      <trkpt lat="59.9845573" lon="15.8275183">
        <ele>95.8</ele>
        <time>2013-02-18T22:16:59Z</time>
        <extensions><gpxtpx:TrackPointExtension><gpxtpx:hr>130</gpxtpx:hr></gpxtpx:TrackPointExtension></extensions>
      </trkpt>
      <trkpt lat="59.9845615" lon="15.8275247">
        <ele>95.8</ele>
        <time>2013-02-18T22:17:00Z</time>
        <extensions><gpxtpx:TrackPointExtension><gpxtpx:hr>130</gpxtpx:hr></gpxtpx:TrackPointExtension></extensions>
      </trkpt>
      <trkpt lat="59.9845635" lon="15.8275254">
        <ele>95.8</ele>
        <time>2013-02-18T22:17:01Z</time>
        <extensions><gpxtpx:TrackPointExtension><gpxtpx:hr>130</gpxtpx:hr></gpxtpx:TrackPointExtension></extensions>
      </trkpt>
      <trkpt lat="59.9845625" lon="15.8275306">
        <ele>95.8</ele>
        <time>2013-02-18T22:17:02Z</time>
        <extensions><gpxtpx:TrackPointExtension><gpxtpx:hr>130</gpxtpx:hr></gpxtpx:TrackPointExtension></extensions>
      </trkpt>
      <trkpt lat="59.9845621" lon="15.8275338">
        <ele>95.8</ele>
        <time>2013-02-18T22:17:03Z</time>
        <extensions><gpxtpx:TrackPointExtension><gpxtpx:hr>130</gpxtpx:hr></gpxtpx:TrackPointExtension></extensions>
      </trkpt>
      <trkpt lat="59.9845618" lon="15.8275323">
        <ele>95.8</ele>
        <time>2013-02-18T22:17:04Z</time>
        <extensions><gpxtpx:TrackPointExtension><gpxtpx:hr>130</gpxtpx:hr></gpxtpx:TrackPointExtension></extensions>
      </trkpt>
      <trkpt lat="59.9845631" lon="15.8275206">
        <ele>95.8</ele>
        <time>2013-02-18T22:17:06Z</time>
        <extensions><gpxtpx:TrackPointExtension><gpxtpx:hr>130</gpxtpx:hr></gpxtpx:TrackPointExtension></extensions>
      </trkpt>
      <trkpt lat="59.9845663" lon="15.8275142">
        <ele>95.8</ele>
        <time>2013-02-18T22:17:07Z</time>
        <extensions><gpxtpx:TrackPointExtension><gpxtpx:hr>131</gpxtpx:hr></gpxtpx:TrackPointExtension></extensions>
      </trkpt>
      <trkpt lat="59.9845667" lon="15.8275083">
        <ele>95.8</ele>
        <time>2013-02-18T22:17:08Z</time>
        <extensions><gpxtpx:TrackPointExtension><gpxtpx:hr>131</gpxtpx:hr></gpxtpx:TrackPointExtension></extensions>
      </trkpt>
      <trkpt lat="59.9845631" lon="15.8275102">
        <ele>95.8</ele>
        <time>2013-02-18T22:17:10Z</time>
        <extensions><gpxtpx:TrackPointExtension><gpxtpx:hr>131</gpxtpx:hr></gpxtpx:TrackPointExtension></extensions>
      </trkpt>
      <trkpt lat="59.9845612" lon="15.8275147">
        <ele>95.8</ele>
        <time>2013-02-18T22:17:11Z</time>
        <extensions><gpxtpx:TrackPointExtension><gpxtpx:hr>131</gpxtpx:hr></gpxtpx:TrackPointExtension></extensions>
      </trkpt>
      <trkpt lat="59.9845556" lon="15.8275237">
        <ele>95.8</ele>
        <time>2013-02-18T22:17:12Z</time>
        <extensions><gpxtpx:TrackPointExtension><gpxtpx:hr>131</gpxtpx:hr></gpxtpx:TrackPointExtension></extensions>
      </trkpt>
      <trkpt lat="59.9845507" lon="15.8275318">
        <ele>95.8</ele>
        <time>2013-02-18T22:17:13Z</time>
        <extensions><gpxtpx:TrackPointExtension><gpxtpx:hr>131</gpxtpx:hr></gpxtpx:TrackPointExtension></extensions>
      </trkpt>
      <trkpt lat="59.9845473" lon="15.8275348">
        <ele>95.8</ele>
        <time>2013-02-18T22:17:14Z</time>
        <extensions><gpxtpx:TrackPointExtension><gpxtpx:hr>131</gpxtpx:hr></gpxtpx:TrackPointExtension></extensions>
      </trkpt>
      <trkpt lat="59.9845447" lon="15.8275305">
        <ele>95.8</ele>
        <time>2013-02-18T22:17:15Z</time>
        <extensions><gpxtpx:TrackPointExtension><gpxtpx:hr>131</gpxtpx:hr></gpxtpx:TrackPointExtension></extensions>
      </trkpt>
      <trkpt lat="59.9845422" lon="15.8275135">
        <ele>95.8</ele>
        <time>2013-02-18T22:17:17Z</time>
        <extensions><gpxtpx:TrackPointExtension><gpxtpx:hr>131</gpxtpx:hr></gpxtpx:TrackPointExtension></extensions>
      </trkpt>
      <trkpt lat="59.9845374" lon="15.8275043">
        <ele>95.8</ele>
        <time>2013-02-18T22:17:18Z</time>
        <extensions><gpxtpx:TrackPointExtension><gpxtpx:hr>131</gpxtpx:hr></gpxtpx:TrackPointExtension></extensions>
      </trkpt>
      <trkpt lat="59.9845361" lon="15.8274966">
        <ele>95.8</ele>
        <time>2013-02-18T22:17:19Z</time>
        <extensions><gpxtpx:TrackPointExtension><gpxtpx:hr>131</gpxtpx:hr></gpxtpx:TrackPointExtension></extensions>
      </trkpt>
      <trkpt lat="59.9845337" lon="15.8274901">
        <ele>95.8</ele>
        <time>2013-02-18T22:17:20Z</time>
        <extensions><gpxtpx:TrackPointExtension><gpxtpx:hr>131</gpxtpx:hr></gpxtpx:TrackPointExtension></extensions>
      </trkpt>
      <trkpt lat="59.9845333" lon="15.827485">
        <ele>95.8</ele>
        <time>2013-02-18T22:17:21Z</time>
        <extensions><gpxtpx:TrackPointExtension><gpxtpx:hr>131</gpxtpx:hr></gpxtpx:TrackPointExtension></extensions>
      </trkpt>
      <trkpt lat="59.9845267" lon="15.8274836">
        <ele>95.8</ele>
        <time>2013-02-18T22:17:22Z</time>
        <extensions><gpxtpx:TrackPointExtension><gpxtpx:hr>131</gpxtpx:hr></gpxtpx:TrackPointExtension></extensions>
      </trkpt>
      <trkpt lat="59.9845009" lon="15.82747">
        <ele>95.8</ele>
        <time>2013-02-18T22:17:25Z</time>
        <extensions><gpxtpx:TrackPointExtension><gpxtpx:hr>130</gpxtpx:hr></gpxtpx:TrackPointExtension></extensions>
      </trkpt>
      <trkpt lat="59.9844969" lon="15.8274662">
        <ele>95.8</ele>
        <time>2013-02-18T22:17:26Z</time>
        <extensions><gpxtpx:TrackPointExtension><gpxtpx:hr>130</gpxtpx:hr></gpxtpx:TrackPointExtension></extensions>
      </trkpt>
      <trkpt lat="59.9844942" lon="15.8274636">
        <ele>95.8</ele>
        <time>2013-02-18T22:17:27Z</time>
        <extensions><gpxtpx:TrackPointExtension><gpxtpx:hr>130</gpxtpx:hr></gpxtpx:TrackPointExtension></extensions>
      </trkpt>
      <trkpt lat="59.984493" lon="15.8274603">
        <ele>95.8</ele>
        <time>2013-02-18T22:17:28Z</time>
        <extensions><gpxtpx:TrackPointExtension><gpxtpx:hr>130</gpxtpx:hr></gpxtpx:TrackPointExtension></extensions>
      </trkpt>
      <trkpt lat="59.9844927" lon="15.8274549">
        <ele>95.8</ele>
        <time>2013-02-18T22:17:29Z</time>
        <extensions><gpxtpx:TrackPointExtension><gpxtpx:hr>130</gpxtpx:hr></gpxtpx:TrackPointExtension></extensions>
      </trkpt>
      <trkpt lat="59.9844958" lon="15.8274374">
        <ele>95.8</ele>
        <time>2013-02-18T22:17:30Z</time>
        <extensions><gpxtpx:TrackPointExtension><gpxtpx:hr>130</gpxtpx:hr></gpxtpx:TrackPointExtension></extensions>
      </trkpt>
      <trkpt lat="59.9844956" lon="15.8274281">
        <ele>95.8</ele>
        <time>2013-02-18T22:17:31Z</time>
        <extensions><gpxtpx:TrackPointExtension><gpxtpx:hr>130</gpxtpx:hr></gpxtpx:TrackPointExtension></extensions>
      </trkpt>
      <trkpt lat="59.9844957" lon="15.8274201">
        <ele>95.8</ele>
        <time>2013-02-18T22:17:32Z</time>
        <extensions><gpxtpx:TrackPointExtension><gpxtpx:hr>130</gpxtpx:hr></gpxtpx:TrackPointExtension></extensions>
      </trkpt>
      <trkpt lat="59.9844996" lon="15.8274205">
        <ele>95.8</ele>
        <time>2013-02-18T22:17:39Z</time>
        <extensions><gpxtpx:TrackPointExtension><gpxtpx:hr>130</gpxtpx:hr></gpxtpx:TrackPointExtension></extensions>
      </trkpt>
      <trkpt lat="59.9845023" lon="15.8274235">
        <ele>95.8</ele>
        <time>2013-02-18T22:17:40Z</time>
        <extensions><gpxtpx:TrackPointExtension><gpxtpx:hr>130</gpxtpx:hr></gpxtpx:TrackPointExtension></extensions>
      </trkpt>
      <trkpt lat="59.9845125" lon="15.8274197">
        <ele>95.8</ele>
        <time>2013-02-18T22:17:45Z</time>
        <extensions><gpxtpx:TrackPointExtension><gpxtpx:hr>129</gpxtpx:hr></gpxtpx:TrackPointExtension></extensions>
      </trkpt>
      <trkpt lat="59.9845244" lon="15.8274152">
        <ele>95.8</ele>
        <time>2013-02-18T22:17:46Z</time>
        <extensions><gpxtpx:TrackPointExtension><gpxtpx:hr>129</gpxtpx:hr></gpxtpx:TrackPointExtension></extensions>
      </trkpt>
      <trkpt lat="59.9845247" lon="15.8274136">
        <ele>95.8</ele>
        <time>2013-02-18T22:17:47Z</time>
        <extensions><gpxtpx:TrackPointExtension><gpxtpx:hr>129</gpxtpx:hr></gpxtpx:TrackPointExtension></extensions>
      </trkpt>
      <trkpt lat="59.9845233" lon="15.8274124">
        <ele>95.8</ele>
        <time>2013-02-18T22:17:48Z</time>
        <extensions><gpxtpx:TrackPointExtension><gpxtpx:hr>129</gpxtpx:hr></gpxtpx:TrackPointExtension></extensions>
      </trkpt>
      <trkpt lat="59.9845211" lon="15.8274108">
        <ele>95.8</ele>
        <time>2013-02-18T22:17:49Z</time>
        <extensions><gpxtpx:TrackPointExtension><gpxtpx:hr>129</gpxtpx:hr></gpxtpx:TrackPointExtension></extensions>
      </trkpt>
      <trkpt lat="59.9845197" lon="15.8274161">
        <ele>95.8</ele>
        <time>2013-02-18T22:17:50Z</time>
        <extensions><gpxtpx:TrackPointExtension><gpxtpx:hr>129</gpxtpx:hr></gpxtpx:TrackPointExtension></extensions>
      </trkpt>
      <trkpt lat="59.9845219" lon="15.8274166">
        <ele>95.8</ele>
        <time>2013-02-18T22:17:51Z</time>
        <extensions><gpxtpx:TrackPointExtension><gpxtpx:hr>129</gpxtpx:hr></gpxtpx:TrackPointExtension></extensions>
      </trkpt>
      <trkpt lat="59.9845234" lon="15.8274166">
        <ele>95.8</ele>
        <time>2013-02-18T22:17:52Z</time>
        <extensions><gpxtpx:TrackPointExtension><gpxtpx:hr>129</gpxtpx:hr></gpxtpx:TrackPointExtension></extensions>
      </trkpt>
      <trkpt lat="59.984523" lon="15.8274154">
        <ele>95.8</ele>
        <time>2013-02-18T22:17:53Z</time>
        <extensions><gpxtpx:TrackPointExtension><gpxtpx:hr>129</gpxtpx:hr></gpxtpx:TrackPointExtension></extensions>
      </trkpt>
      <trkpt lat="59.9845214" lon="15.8274147">
        <ele>95.8</ele>
        <time>2013-02-18T22:17:54Z</time>
        <extensions><gpxtpx:TrackPointExtension><gpxtpx:hr>129</gpxtpx:hr></gpxtpx:TrackPointExtension></extensions>
      </trkpt>
      <trkpt lat="59.9845227" lon="15.8274173">
        <ele>95.8</ele>
        <time>2013-02-18T22:17:55Z</time>
        <extensions><gpxtpx:TrackPointExtension><gpxtpx:hr>129</gpxtpx:hr></gpxtpx:TrackPointExtension></extensions>
      </trkpt>
      <trkpt lat="59.9845254" lon="15.8274217">
        <ele>95.8</ele>
        <time>2013-02-18T22:17:56Z</time>
        <extensions><gpxtpx:TrackPointExtension><gpxtpx:hr>129</gpxtpx:hr></gpxtpx:TrackPointExtension></extensions>
      </trkpt>
      <trkpt lat="59.9845293" lon="15.8274248">
        <ele>95.8</ele>
        <time>2013-02-18T22:17:57Z</time>
        <extensions><gpxtpx:TrackPointExtension><gpxtpx:hr>129</gpxtpx:hr></gpxtpx:TrackPointExtension></extensions>
      </trkpt>
      <trkpt lat="59.9845427" lon="15.8274342">
        <ele>95.8</ele>
        <time>2013-02-18T22:17:59Z</time>
        <extensions><gpxtpx:TrackPointExtension><gpxtpx:hr>129</gpxtpx:hr></gpxtpx:TrackPointExtension></extensions>
      </trkpt>
      <trkpt lat="59.9845464" lon="15.8274295">
        <ele>95.8</ele>
        <time>2013-02-18T22:18:00Z</time>
        <extensions><gpxtpx:TrackPointExtension><gpxtpx:hr>130</gpxtpx:hr></gpxtpx:TrackPointExtension></extensions>
      </trkpt>
      <trkpt lat="59.9845547" lon="15.8273969">
        <ele>95.8</ele>
        <time>2013-02-18T22:18:04Z</time>
        <extensions><gpxtpx:TrackPointExtension><gpxtpx:hr>130</gpxtpx:hr></gpxtpx:TrackPointExtension></extensions>
      </trkpt>
      <trkpt lat="59.9845527" lon="15.8273987">
        <ele>95.8</ele>
        <time>2013-02-18T22:18:05Z</time>
        <extensions><gpxtpx:TrackPointExtension><gpxtpx:hr>130</gpxtpx:hr></gpxtpx:TrackPointExtension></extensions>
      </trkpt>
      <trkpt lat="59.9845503" lon="15.8274298">
        <ele>95.8</ele>
        <time>2013-02-18T22:18:06Z</time>
        <extensions><gpxtpx:TrackPointExtension><gpxtpx:hr>130</gpxtpx:hr></gpxtpx:TrackPointExtension></extensions>
      </trkpt>
      <trkpt lat="59.9845485" lon="15.8274369">
        <ele>95.8</ele>
        <time>2013-02-18T22:18:07Z</time>
        <extensions><gpxtpx:TrackPointExtension><gpxtpx:hr>130</gpxtpx:hr></gpxtpx:TrackPointExtension></extensions>
      </trkpt>
      <trkpt lat="59.9845465" lon="15.8274422">
        <ele>95.8</ele>
        <time>2013-02-18T22:18:08Z</time>
        <extensions><gpxtpx:TrackPointExtension><gpxtpx:hr>130</gpxtpx:hr></gpxtpx:TrackPointExtension></extensions>
      </trkpt>
      <trkpt lat="59.9845449" lon="15.8274442">
        <ele>95.8</ele>
        <time>2013-02-18T22:18:09Z</time>
        <extensions><gpxtpx:TrackPointExtension><gpxtpx:hr>130</gpxtpx:hr></gpxtpx:TrackPointExtension></extensions>
      </trkpt>
      <trkpt lat="59.9845472" lon="15.8274313">
        <ele>95.8</ele>
        <time>2013-02-18T22:18:10Z</time>
        <extensions><gpxtpx:TrackPointExtension><gpxtpx:hr>130</gpxtpx:hr></gpxtpx:TrackPointExtension></extensions>
      </trkpt>
      <trkpt lat="59.9845511" lon="15.8274093">
        <ele>96</ele>
        <time>2013-02-18T22:18:11Z</time>
        <extensions><gpxtpx:TrackPointExtension><gpxtpx:hr>130</gpxtpx:hr></gpxtpx:TrackPointExtension></extensions>
      </trkpt>
      <trkpt lat="59.9845541" lon="15.8274007">
        <ele>95.8</ele>
        <time>2013-02-18T22:18:12Z</time>
        <extensions><gpxtpx:TrackPointExtension><gpxtpx:hr>131</gpxtpx:hr></gpxtpx:TrackPointExtension></extensions>
      </trkpt>
      <trkpt lat="59.984559" lon="15.8273843">
        <ele>95.8</ele>
        <time>2013-02-18T22:18:13Z</time>
        <extensions><gpxtpx:TrackPointExtension><gpxtpx:hr>131</gpxtpx:hr></gpxtpx:TrackPointExtension></extensions>
      </trkpt>
      <trkpt lat="59.9845613" lon="15.8273763">
        <ele>95.8</ele>
        <time>2013-02-18T22:18:14Z</time>
        <extensions><gpxtpx:TrackPointExtension><gpxtpx:hr>131</gpxtpx:hr></gpxtpx:TrackPointExtension></extensions>
      </trkpt>
      <trkpt lat="59.9845644" lon="15.8273769">
        <ele>95.8</ele>
        <time>2013-02-18T22:18:15Z</time>
        <extensions><gpxtpx:TrackPointExtension><gpxtpx:hr>130</gpxtpx:hr></gpxtpx:TrackPointExtension></extensions>
      </trkpt>
      <trkpt lat="59.9845664" lon="15.8273768">
        <ele>95.8</ele>
        <time>2013-02-18T22:18:16Z</time>
        <extensions><gpxtpx:TrackPointExtension><gpxtpx:hr>131</gpxtpx:hr></gpxtpx:TrackPointExtension></extensions>
      </trkpt>
      <trkpt lat="59.9845672" lon="15.8273738">
        <ele>95.8</ele>
        <time>2013-02-18T22:18:17Z</time>
        <extensions><gpxtpx:TrackPointExtension><gpxtpx:hr>130</gpxtpx:hr></gpxtpx:TrackPointExtension></extensions>
      </trkpt>
      <trkpt lat="59.984566" lon="15.827369">
        <ele>95.8</ele>
        <time>2013-02-18T22:18:18Z</time>
        <extensions><gpxtpx:TrackPointExtension><gpxtpx:hr>130</gpxtpx:hr></gpxtpx:TrackPointExtension></extensions>
      </trkpt>
      <trkpt lat="59.9845638" lon="15.8273639">
        <ele>95.8</ele>
        <time>2013-02-18T22:18:19Z</time>
        <extensions><gpxtpx:TrackPointExtension><gpxtpx:hr>131</gpxtpx:hr></gpxtpx:TrackPointExtension></extensions>
      </trkpt>
      <trkpt lat="59.9845509" lon="15.8273436">
        <ele>95.8</ele>
        <time>2013-02-18T22:18:20Z</time>
        <extensions><gpxtpx:TrackPointExtension><gpxtpx:hr>130</gpxtpx:hr></gpxtpx:TrackPointExtension></extensions>
      </trkpt>
      <trkpt lat="59.9845332" lon="15.8273116">
        <ele>95.8</ele>
        <time>2013-02-18T22:18:22Z</time>
        <extensions><gpxtpx:TrackPointExtension><gpxtpx:hr>130</gpxtpx:hr></gpxtpx:TrackPointExtension></extensions>
      </trkpt>
      <trkpt lat="59.9845178" lon="15.8272901">
        <ele>95.8</ele>
        <time>2013-02-18T22:18:24Z</time>
        <extensions><gpxtpx:TrackPointExtension><gpxtpx:hr>131</gpxtpx:hr></gpxtpx:TrackPointExtension></extensions>
      </trkpt>
      <trkpt lat="59.9845007" lon="15.8272681">
        <ele>95.8</ele>
        <time>2013-02-18T22:18:25Z</time>
        <extensions><gpxtpx:TrackPointExtension><gpxtpx:hr>131</gpxtpx:hr></gpxtpx:TrackPointExtension></extensions>
      </trkpt>
      <trkpt lat="59.9844901" lon="15.8272578">
        <ele>95.8</ele>
        <time>2013-02-18T22:18:26Z</time>
        <extensions><gpxtpx:TrackPointExtension><gpxtpx:hr>131</gpxtpx:hr></gpxtpx:TrackPointExtension></extensions>
      </trkpt>
      <trkpt lat="59.9844772" lon="15.827246">
        <ele>95.8</ele>
        <time>2013-02-18T22:18:27Z</time>
        <extensions><gpxtpx:TrackPointExtension><gpxtpx:hr>131</gpxtpx:hr></gpxtpx:TrackPointExtension></extensions>
      </trkpt>
      <trkpt lat="59.9844695" lon="15.8272392">
        <ele>95.8</ele>
        <time>2013-02-18T22:18:28Z</time>
        <extensions><gpxtpx:TrackPointExtension><gpxtpx:hr>131</gpxtpx:hr></gpxtpx:TrackPointExtension></extensions>
      </trkpt>
      <trkpt lat="59.9844544" lon="15.8272151">
        <ele>95.8</ele>
        <time>2013-02-18T22:18:29Z</time>
        <extensions><gpxtpx:TrackPointExtension><gpxtpx:hr>131</gpxtpx:hr></gpxtpx:TrackPointExtension></extensions>
      </trkpt>
      <trkpt lat="59.984444" lon="15.827194">
        <ele>95.8</ele>
        <time>2013-02-18T22:18:30Z</time>
        <extensions><gpxtpx:TrackPointExtension><gpxtpx:hr>131</gpxtpx:hr></gpxtpx:TrackPointExtension></extensions>
      </trkpt>
      <trkpt lat="59.9844356" lon="15.8271797">
        <ele>95.8</ele>
        <time>2013-02-18T22:18:31Z</time>
        <extensions><gpxtpx:TrackPointExtension><gpxtpx:hr>131</gpxtpx:hr></gpxtpx:TrackPointExtension></extensions>
      </trkpt>
      <trkpt lat="59.9844098" lon="15.8271593">
        <ele>95.8</ele>
        <time>2013-02-18T22:18:34Z</time>
        <extensions><gpxtpx:TrackPointExtension><gpxtpx:hr>131</gpxtpx:hr></gpxtpx:TrackPointExtension></extensions>
      </trkpt>
      <trkpt lat="59.9844027" lon="15.8271546">
        <ele>95.8</ele>
        <time>2013-02-18T22:18:35Z</time>
        <extensions><gpxtpx:TrackPointExtension><gpxtpx:hr>131</gpxtpx:hr></gpxtpx:TrackPointExtension></extensions>
      </trkpt>
      <trkpt lat="59.9844004" lon="15.8271507">
        <ele>95.8</ele>
        <time>2013-02-18T22:18:36Z</time>
        <extensions><gpxtpx:TrackPointExtension><gpxtpx:hr>131</gpxtpx:hr></gpxtpx:TrackPointExtension></extensions>
      </trkpt>
      <trkpt lat="59.9843963" lon="15.8271366">
        <ele>95.8</ele>
        <time>2013-02-18T22:18:37Z</time>
        <extensions><gpxtpx:TrackPointExtension><gpxtpx:hr>130</gpxtpx:hr></gpxtpx:TrackPointExtension></extensions>
      </trkpt>
      <trkpt lat="59.9843952" lon="15.8271236">
        <ele>95.8</ele>
        <time>2013-02-18T22:18:38Z</time>
        <extensions><gpxtpx:TrackPointExtension><gpxtpx:hr>131</gpxtpx:hr></gpxtpx:TrackPointExtension></extensions>
      </trkpt>
      <trkpt lat="59.9843928" lon="15.8271147">
        <ele>95.8</ele>
        <time>2013-02-18T22:18:39Z</time>
        <extensions><gpxtpx:TrackPointExtension><gpxtpx:hr>131</gpxtpx:hr></gpxtpx:TrackPointExtension></extensions>
      </trkpt>
      <trkpt lat="59.984389" lon="15.8270821">
        <ele>95.8</ele>
        <time>2013-02-18T22:18:41Z</time>
        <extensions><gpxtpx:TrackPointExtension><gpxtpx:hr>131</gpxtpx:hr></gpxtpx:TrackPointExtension></extensions>
      </trkpt>
      <trkpt lat="59.9843809" lon="15.8270589">
        <ele>95.8</ele>
        <time>2013-02-18T22:18:42Z</time>
        <extensions><gpxtpx:TrackPointExtension><gpxtpx:hr>131</gpxtpx:hr></gpxtpx:TrackPointExtension></extensions>
      </trkpt>
      <trkpt lat="59.9843679" lon="15.8270344">
        <ele>95.8</ele>
        <time>2013-02-18T22:18:43Z</time>
        <extensions><gpxtpx:TrackPointExtension><gpxtpx:hr>132</gpxtpx:hr></gpxtpx:TrackPointExtension></extensions>
      </trkpt>
      <trkpt lat="59.984365" lon="15.8270316">
        <ele>95.8</ele>
        <time>2013-02-18T22:18:44Z</time>
        <extensions><gpxtpx:TrackPointExtension><gpxtpx:hr>132</gpxtpx:hr></gpxtpx:TrackPointExtension></extensions>
      </trkpt>
      <trkpt lat="59.9843549" lon="15.8270013">
        <ele>95.8</ele>
        <time>2013-02-18T22:18:45Z</time>
        <extensions><gpxtpx:TrackPointExtension><gpxtpx:hr>132</gpxtpx:hr></gpxtpx:TrackPointExtension></extensions>
      </trkpt>
      <trkpt lat="59.9843555" lon="15.8269771">
        <ele>95.8</ele>
        <time>2013-02-18T22:18:47Z</time>
        <extensions><gpxtpx:TrackPointExtension><gpxtpx:hr>132</gpxtpx:hr></gpxtpx:TrackPointExtension></extensions>
      </trkpt>
      <trkpt lat="59.9843566" lon="15.8269765">
        <ele>95.8</ele>
        <time>2013-02-18T22:18:48Z</time>
        <extensions><gpxtpx:TrackPointExtension><gpxtpx:hr>132</gpxtpx:hr></gpxtpx:TrackPointExtension></extensions>
      </trkpt>
      <trkpt lat="59.9843571" lon="15.8269684">
        <ele>95.8</ele>
        <time>2013-02-18T22:18:49Z</time>
        <extensions><gpxtpx:TrackPointExtension><gpxtpx:hr>132</gpxtpx:hr></gpxtpx:TrackPointExtension></extensions>
      </trkpt>
      <trkpt lat="59.9843581" lon="15.8269617">
        <ele>95.8</ele>
        <time>2013-02-18T22:18:50Z</time>
        <extensions><gpxtpx:TrackPointExtension><gpxtpx:hr>132</gpxtpx:hr></gpxtpx:TrackPointExtension></extensions>
      </trkpt>
      <trkpt lat="59.9843649" lon="15.8269543">
        <ele>95.8</ele>
        <time>2013-02-18T22:18:52Z</time>
        <extensions><gpxtpx:TrackPointExtension><gpxtpx:hr>131</gpxtpx:hr></gpxtpx:TrackPointExtension></extensions>
      </trkpt>
      <trkpt lat="59.9843596" lon="15.8269423">
        <ele>95.8</ele>
        <time>2013-02-18T22:18:54Z</time>
        <extensions><gpxtpx:TrackPointExtension><gpxtpx:hr>131</gpxtpx:hr></gpxtpx:TrackPointExtension></extensions>
      </trkpt>
      <trkpt lat="59.9843736" lon="15.8269918">
        <ele>95.8</ele>
        <time>2013-02-18T22:18:55Z</time>
        <extensions><gpxtpx:TrackPointExtension><gpxtpx:hr>131</gpxtpx:hr></gpxtpx:TrackPointExtension></extensions>
      </trkpt>
      <trkpt lat="59.9843874" lon="15.8271035">
        <ele>95.8</ele>
        <time>2013-02-18T22:18:58Z</time>
        <extensions><gpxtpx:TrackPointExtension><gpxtpx:hr>132</gpxtpx:hr></gpxtpx:TrackPointExtension></extensions>
      </trkpt>
      <trkpt lat="59.9843979" lon="15.8271764">
        <ele>95.8</ele>
        <time>2013-02-18T22:19:00Z</time>
        <extensions><gpxtpx:TrackPointExtension><gpxtpx:hr>132</gpxtpx:hr></gpxtpx:TrackPointExtension></extensions>
      </trkpt>
      <trkpt lat="59.9844165" lon="15.8272576">
        <ele>95.8</ele>
        <time>2013-02-18T22:19:02Z</time>
        <extensions><gpxtpx:TrackPointExtension><gpxtpx:hr>131</gpxtpx:hr></gpxtpx:TrackPointExtension></extensions>
      </trkpt>
      <trkpt lat="59.9844226" lon="15.8272859">
        <ele>95.8</ele>
        <time>2013-02-18T22:19:03Z</time>
        <extensions><gpxtpx:TrackPointExtension><gpxtpx:hr>131</gpxtpx:hr></gpxtpx:TrackPointExtension></extensions>
      </trkpt>
      <trkpt lat="59.9844301" lon="15.8272968">
        <ele>95.8</ele>
        <time>2013-02-18T22:19:04Z</time>
        <extensions><gpxtpx:TrackPointExtension><gpxtpx:hr>131</gpxtpx:hr></gpxtpx:TrackPointExtension></extensions>
      </trkpt>
      <trkpt lat="59.9844383" lon="15.8273182">
        <ele>95.8</ele>
        <time>2013-02-18T22:19:05Z</time>
        <extensions><gpxtpx:TrackPointExtension><gpxtpx:hr>131</gpxtpx:hr></gpxtpx:TrackPointExtension></extensions>
      </trkpt>
      <trkpt lat="59.9844419" lon="15.8273167">
        <ele>95.8</ele>
        <time>2013-02-18T22:19:06Z</time>
        <extensions><gpxtpx:TrackPointExtension><gpxtpx:hr>132</gpxtpx:hr></gpxtpx:TrackPointExtension></extensions>
      </trkpt>
      <trkpt lat="59.9844418" lon="15.8273071">
        <ele>95.8</ele>
        <time>2013-02-18T22:19:07Z</time>
        <extensions><gpxtpx:TrackPointExtension><gpxtpx:hr>132</gpxtpx:hr></gpxtpx:TrackPointExtension></extensions>
      </trkpt>
      <trkpt lat="59.9844358" lon="15.827275">
        <ele>95.8</ele>
        <time>2013-02-18T22:19:08Z</time>
        <extensions><gpxtpx:TrackPointExtension><gpxtpx:hr>132</gpxtpx:hr></gpxtpx:TrackPointExtension></extensions>
      </trkpt>
      <trkpt lat="59.9844283" lon="15.8272464">
        <ele>95.8</ele>
        <time>2013-02-18T22:19:09Z</time>
        <extensions><gpxtpx:TrackPointExtension><gpxtpx:hr>132</gpxtpx:hr></gpxtpx:TrackPointExtension></extensions>
      </trkpt>
      <trkpt lat="59.9844241" lon="15.8272362">
        <ele>95.8</ele>
        <time>2013-02-18T22:19:10Z</time>
        <extensions><gpxtpx:TrackPointExtension><gpxtpx:hr>132</gpxtpx:hr></gpxtpx:TrackPointExtension></extensions>
      </trkpt>
      <trkpt lat="59.984424" lon="15.8272194">
        <ele>95.8</ele>
        <time>2013-02-18T22:19:11Z</time>
        <extensions><gpxtpx:TrackPointExtension><gpxtpx:hr>132</gpxtpx:hr></gpxtpx:TrackPointExtension></extensions>
      </trkpt>
      <trkpt lat="59.9844254" lon="15.827204">
        <ele>95.8</ele>
        <time>2013-02-18T22:19:12Z</time>
        <extensions><gpxtpx:TrackPointExtension><gpxtpx:hr>132</gpxtpx:hr></gpxtpx:TrackPointExtension></extensions>
      </trkpt>
      <trkpt lat="59.9844352" lon="15.8271769">
        <ele>95.8</ele>
        <time>2013-02-18T22:19:14Z</time>
        <extensions><gpxtpx:TrackPointExtension><gpxtpx:hr>133</gpxtpx:hr></gpxtpx:TrackPointExtension></extensions>
      </trkpt>
      <trkpt lat="59.9844401" lon="15.8271676">
        <ele>95.8</ele>
        <time>2013-02-18T22:19:15Z</time>
        <extensions><gpxtpx:TrackPointExtension><gpxtpx:hr>133</gpxtpx:hr></gpxtpx:TrackPointExtension></extensions>
      </trkpt>
      <trkpt lat="59.9844323" lon="15.8271417">
        <ele>95.8</ele>
        <time>2013-02-18T22:19:16Z</time>
        <extensions><gpxtpx:TrackPointExtension><gpxtpx:hr>133</gpxtpx:hr></gpxtpx:TrackPointExtension></extensions>
      </trkpt>
      <trkpt lat="59.9844131" lon="15.8270266">
        <ele>96</ele>
        <time>2013-02-18T22:19:19Z</time>
        <extensions><gpxtpx:TrackPointExtension><gpxtpx:hr>133</gpxtpx:hr></gpxtpx:TrackPointExtension></extensions>
      </trkpt>
      <trkpt lat="59.9844094" lon="15.8269952">
        <ele>95.8</ele>
        <time>2013-02-18T22:19:20Z</time>
        <extensions><gpxtpx:TrackPointExtension><gpxtpx:hr>133</gpxtpx:hr></gpxtpx:TrackPointExtension></extensions>
      </trkpt>
      <trkpt lat="59.9844041" lon="15.8269426">
        <ele>95.8</ele>
        <time>2013-02-18T22:19:21Z</time>
        <extensions><gpxtpx:TrackPointExtension><gpxtpx:hr>133</gpxtpx:hr></gpxtpx:TrackPointExtension></extensions>
      </trkpt>
      <trkpt lat="59.9844058" lon="15.8269501">
        <ele>95.8</ele>
        <time>2013-02-18T22:19:22Z</time>
        <extensions><gpxtpx:TrackPointExtension><gpxtpx:hr>133</gpxtpx:hr></gpxtpx:TrackPointExtension></extensions>
      </trkpt>
      <trkpt lat="59.9844162" lon="15.8269799">
        <ele>95.8</ele>
        <time>2013-02-18T22:19:23Z</time>
        <extensions><gpxtpx:TrackPointExtension><gpxtpx:hr>133</gpxtpx:hr></gpxtpx:TrackPointExtension></extensions>
      </trkpt>
      <trkpt lat="59.9844222" lon="15.8270043">
        <ele>95.8</ele>
        <time>2013-02-18T22:19:24Z</time>
        <extensions><gpxtpx:TrackPointExtension><gpxtpx:hr>133</gpxtpx:hr></gpxtpx:TrackPointExtension></extensions>
      </trkpt>
      <trkpt lat="59.9844291" lon="15.8270126">
        <ele>95.8</ele>
        <time>2013-02-18T22:19:25Z</time>
        <extensions><gpxtpx:TrackPointExtension><gpxtpx:hr>133</gpxtpx:hr></gpxtpx:TrackPointExtension></extensions>
      </trkpt>
      <trkpt lat="59.9844351" lon="15.8270268">
        <ele>95.8</ele>
        <time>2013-02-18T22:19:26Z</time>
        <extensions><gpxtpx:TrackPointExtension><gpxtpx:hr>133</gpxtpx:hr></gpxtpx:TrackPointExtension></extensions>
      </trkpt>
      <trkpt lat="59.984443" lon="15.8270557">
        <ele>95.8</ele>
        <time>2013-02-18T22:19:27Z</time>
        <extensions><gpxtpx:TrackPointExtension><gpxtpx:hr>134</gpxtpx:hr></gpxtpx:TrackPointExtension></extensions>
      </trkpt>
      <trkpt lat="59.9844451" lon="15.8270533">
        <ele>95.8</ele>
        <time>2013-02-18T22:19:28Z</time>
        <extensions><gpxtpx:TrackPointExtension><gpxtpx:hr>134</gpxtpx:hr></gpxtpx:TrackPointExtension></extensions>
      </trkpt>
      <trkpt lat="59.9844446" lon="15.8270495">
        <ele>95.8</ele>
        <time>2013-02-18T22:19:29Z</time>
        <extensions><gpxtpx:TrackPointExtension><gpxtpx:hr>134</gpxtpx:hr></gpxtpx:TrackPointExtension></extensions>
      </trkpt>
      <trkpt lat="59.9844428" lon="15.8270446">
        <ele>95.8</ele>
        <time>2013-02-18T22:19:30Z</time>
        <extensions><gpxtpx:TrackPointExtension><gpxtpx:hr>134</gpxtpx:hr></gpxtpx:TrackPointExtension></extensions>
      </trkpt>
      <trkpt lat="59.9844412" lon="15.827041">
        <ele>95.8</ele>
        <time>2013-02-18T22:19:31Z</time>
        <extensions><gpxtpx:TrackPointExtension><gpxtpx:hr>134</gpxtpx:hr></gpxtpx:TrackPointExtension></extensions>
      </trkpt>
      <trkpt lat="59.9844394" lon="15.8270393">
        <ele>95.8</ele>
        <time>2013-02-18T22:19:32Z</time>
        <extensions><gpxtpx:TrackPointExtension><gpxtpx:hr>134</gpxtpx:hr></gpxtpx:TrackPointExtension></extensions>
      </trkpt>
      <trkpt lat="59.9844397" lon="15.8270423">
        <ele>96</ele>
        <time>2013-02-18T22:19:33Z</time>
        <extensions><gpxtpx:TrackPointExtension><gpxtpx:hr>134</gpxtpx:hr></gpxtpx:TrackPointExtension></extensions>
      </trkpt>
      <trkpt lat="59.9844415" lon="15.8270456">
        <ele>96</ele>
        <time>2013-02-18T22:19:34Z</time>
        <extensions><gpxtpx:TrackPointExtension><gpxtpx:hr>134</gpxtpx:hr></gpxtpx:TrackPointExtension></extensions>
      </trkpt>
      <trkpt lat="59.9844435" lon="15.8270465">
        <ele>96</ele>
        <time>2013-02-18T22:19:35Z</time>
        <extensions><gpxtpx:TrackPointExtension><gpxtpx:hr>135</gpxtpx:hr></gpxtpx:TrackPointExtension></extensions>
      </trkpt>
      <trkpt lat="59.9844446" lon="15.8270443">
        <ele>96</ele>
        <time>2013-02-18T22:19:36Z</time>
        <extensions><gpxtpx:TrackPointExtension><gpxtpx:hr>135</gpxtpx:hr></gpxtpx:TrackPointExtension></extensions>
      </trkpt>
      <trkpt lat="59.9844441" lon="15.8270329">
        <ele>96</ele>
        <time>2013-02-18T22:19:37Z</time>
        <extensions><gpxtpx:TrackPointExtension><gpxtpx:hr>135</gpxtpx:hr></gpxtpx:TrackPointExtension></extensions>
      </trkpt>
      <trkpt lat="59.9844442" lon="15.827021">
        <ele>96</ele>
        <time>2013-02-18T22:19:38Z</time>
        <extensions><gpxtpx:TrackPointExtension><gpxtpx:hr>135</gpxtpx:hr></gpxtpx:TrackPointExtension></extensions>
      </trkpt>
      <trkpt lat="59.9844506" lon="15.827171">
        <ele>96</ele>
        <time>2013-02-18T22:19:39Z</time>
        <extensions><gpxtpx:TrackPointExtension><gpxtpx:hr>135</gpxtpx:hr></gpxtpx:TrackPointExtension></extensions>
      </trkpt>
      <trkpt lat="59.9844543" lon="15.8271636">
        <ele>96</ele>
        <time>2013-02-18T22:19:40Z</time>
        <extensions><gpxtpx:TrackPointExtension><gpxtpx:hr>136</gpxtpx:hr></gpxtpx:TrackPointExtension></extensions>
      </trkpt>
      <trkpt lat="59.9844573" lon="15.8271585">
        <ele>95.8</ele>
        <time>2013-02-18T22:19:41Z</time>
        <extensions><gpxtpx:TrackPointExtension><gpxtpx:hr>135</gpxtpx:hr></gpxtpx:TrackPointExtension></extensions>
      </trkpt>
      <trkpt lat="59.9844607" lon="15.8271577">
        <ele>95.8</ele>
        <time>2013-02-18T22:19:42Z</time>
        <extensions><gpxtpx:TrackPointExtension><gpxtpx:hr>136</gpxtpx:hr></gpxtpx:TrackPointExtension></extensions>
      </trkpt>
      <trkpt lat="59.9844643" lon="15.8271578">
        <ele>95.8</ele>
        <time>2013-02-18T22:19:43Z</time>
        <extensions><gpxtpx:TrackPointExtension><gpxtpx:hr>135</gpxtpx:hr></gpxtpx:TrackPointExtension></extensions>
      </trkpt>
      <trkpt lat="59.9844689" lon="15.8271584">
        <ele>95.8</ele>
        <time>2013-02-18T22:19:44Z</time>
        <extensions><gpxtpx:TrackPointExtension><gpxtpx:hr>136</gpxtpx:hr></gpxtpx:TrackPointExtension></extensions>
      </trkpt>
      <trkpt lat="59.984472" lon="15.8271621">
        <ele>95.8</ele>
        <time>2013-02-18T22:19:45Z</time>
        <extensions><gpxtpx:TrackPointExtension><gpxtpx:hr>136</gpxtpx:hr></gpxtpx:TrackPointExtension></extensions>
      </trkpt>
      <trkpt lat="59.9844711" lon="15.8271633">
        <ele>95.8</ele>
        <time>2013-02-18T22:19:46Z</time>
        <extensions><gpxtpx:TrackPointExtension><gpxtpx:hr>136</gpxtpx:hr></gpxtpx:TrackPointExtension></extensions>
      </trkpt>
      <trkpt lat="59.9844708" lon="15.8271637">
        <ele>95.8</ele>
        <time>2013-02-18T22:19:47Z</time>
        <extensions><gpxtpx:TrackPointExtension><gpxtpx:hr>136</gpxtpx:hr></gpxtpx:TrackPointExtension></extensions>
      </trkpt>
      <trkpt lat="59.9844722" lon="15.8271637">
        <ele>95.8</ele>
        <time>2013-02-18T22:19:48Z</time>
        <extensions><gpxtpx:TrackPointExtension><gpxtpx:hr>136</gpxtpx:hr></gpxtpx:TrackPointExtension></extensions>
      </trkpt>
      <trkpt lat="59.9844741" lon="15.8271655">
        <ele>95.8</ele>
        <time>2013-02-18T22:19:49Z</time>
        <extensions><gpxtpx:TrackPointExtension><gpxtpx:hr>136</gpxtpx:hr></gpxtpx:TrackPointExtension></extensions>
      </trkpt>
      <trkpt lat="59.9844754" lon="15.8271695">
        <ele>95.8</ele>
        <time>2013-02-18T22:19:50Z</time>
        <extensions><gpxtpx:TrackPointExtension><gpxtpx:hr>136</gpxtpx:hr></gpxtpx:TrackPointExtension></extensions>
      </trkpt>
      <trkpt lat="59.9844753" lon="15.8271731">
        <ele>95.8</ele>
        <time>2013-02-18T22:19:51Z</time>
        <extensions><gpxtpx:TrackPointExtension><gpxtpx:hr>136</gpxtpx:hr></gpxtpx:TrackPointExtension></extensions>
      </trkpt>
      <trkpt lat="59.9844747" lon="15.8271759">
        <ele>95.8</ele>
        <time>2013-02-18T22:19:52Z</time>
        <extensions><gpxtpx:TrackPointExtension><gpxtpx:hr>136</gpxtpx:hr></gpxtpx:TrackPointExtension></extensions>
      </trkpt>
      <trkpt lat="59.9844729" lon="15.8271772">
        <ele>96</ele>
        <time>2013-02-18T22:19:53Z</time>
        <extensions><gpxtpx:TrackPointExtension><gpxtpx:hr>136</gpxtpx:hr></gpxtpx:TrackPointExtension></extensions>
      </trkpt>
      <trkpt lat="59.9844733" lon="15.8271823">
        <ele>95.8</ele>
        <time>2013-02-18T22:19:54Z</time>
        <extensions><gpxtpx:TrackPointExtension><gpxtpx:hr>136</gpxtpx:hr></gpxtpx:TrackPointExtension></extensions>
      </trkpt>
      <trkpt lat="59.9844772" lon="15.8271909">
        <ele>95.8</ele>
        <time>2013-02-18T22:19:55Z</time>
        <extensions><gpxtpx:TrackPointExtension><gpxtpx:hr>137</gpxtpx:hr></gpxtpx:TrackPointExtension></extensions>
      </trkpt>
      <trkpt lat="59.9844797" lon="15.8271987">
        <ele>95.8</ele>
        <time>2013-02-18T22:19:56Z</time>
        <extensions><gpxtpx:TrackPointExtension><gpxtpx:hr>137</gpxtpx:hr></gpxtpx:TrackPointExtension></extensions>
      </trkpt>
      <trkpt lat="59.9844798" lon="15.8272037">
        <ele>95.8</ele>
        <time>2013-02-18T22:19:57Z</time>
        <extensions><gpxtpx:TrackPointExtension><gpxtpx:hr>137</gpxtpx:hr></gpxtpx:TrackPointExtension></extensions>
      </trkpt>
      <trkpt lat="59.9844798" lon="15.827213">
        <ele>95.8</ele>
        <time>2013-02-18T22:19:58Z</time>
        <extensions><gpxtpx:TrackPointExtension><gpxtpx:hr>137</gpxtpx:hr></gpxtpx:TrackPointExtension></extensions>
      </trkpt>
      <trkpt lat="59.9844819" lon="15.8272264">
        <ele>96</ele>
        <time>2013-02-18T22:19:59Z</time>
        <extensions><gpxtpx:TrackPointExtension><gpxtpx:hr>137</gpxtpx:hr></gpxtpx:TrackPointExtension></extensions>
      </trkpt>
      <trkpt lat="59.9844612" lon="15.8273452">
        <ele>95.8</ele>
        <time>2013-02-18T22:20:00Z</time>
        <extensions><gpxtpx:TrackPointExtension><gpxtpx:hr>138</gpxtpx:hr></gpxtpx:TrackPointExtension></extensions>
      </trkpt>
      <trkpt lat="59.9844656" lon="15.8273517">
        <ele>96</ele>
        <time>2013-02-18T22:20:01Z</time>
        <extensions><gpxtpx:TrackPointExtension><gpxtpx:hr>138</gpxtpx:hr></gpxtpx:TrackPointExtension></extensions>
      </trkpt>
      <trkpt lat="59.9844717" lon="15.8273613">
        <ele>96</ele>
        <time>2013-02-18T22:20:02Z</time>
        <extensions><gpxtpx:TrackPointExtension><gpxtpx:hr>138</gpxtpx:hr></gpxtpx:TrackPointExtension></extensions>
      </trkpt>
      <trkpt lat="59.9844772" lon="15.8273605">
        <ele>95.8</ele>
        <time>2013-02-18T22:20:03Z</time>
        <extensions><gpxtpx:TrackPointExtension><gpxtpx:hr>139</gpxtpx:hr></gpxtpx:TrackPointExtension></extensions>
      </trkpt>
      <trkpt lat="59.9844741" lon="15.8273318">
        <ele>95.8</ele>
        <time>2013-02-18T22:20:06Z</time>
        <extensions><gpxtpx:TrackPointExtension><gpxtpx:hr>139</gpxtpx:hr></gpxtpx:TrackPointExtension></extensions>
      </trkpt>
      <trkpt lat="59.9844662" lon="15.8273083">
        <ele>96</ele>
        <time>2013-02-18T22:20:07Z</time>
        <extensions><gpxtpx:TrackPointExtension><gpxtpx:hr>140</gpxtpx:hr></gpxtpx:TrackPointExtension></extensions>
      </trkpt>
      <trkpt lat="59.9844634" lon="15.82729">
        <ele>95.8</ele>
        <time>2013-02-18T22:20:08Z</time>
        <extensions><gpxtpx:TrackPointExtension><gpxtpx:hr>140</gpxtpx:hr></gpxtpx:TrackPointExtension></extensions>
      </trkpt>
      <trkpt lat="59.9844615" lon="15.8272646">
        <ele>95.8</ele>
        <time>2013-02-18T22:20:09Z</time>
        <extensions><gpxtpx:TrackPointExtension><gpxtpx:hr>140</gpxtpx:hr></gpxtpx:TrackPointExtension></extensions>
      </trkpt>
      <trkpt lat="59.9844726" lon="15.8272333">
        <ele>96</ele>
        <time>2013-02-18T22:20:12Z</time>
        <extensions><gpxtpx:TrackPointExtension><gpxtpx:hr>140</gpxtpx:hr></gpxtpx:TrackPointExtension></extensions>
      </trkpt>
      <trkpt lat="59.984472" lon="15.8272315">
        <ele>95.8</ele>
        <time>2013-02-18T22:20:13Z</time>
        <extensions><gpxtpx:TrackPointExtension><gpxtpx:hr>140</gpxtpx:hr></gpxtpx:TrackPointExtension></extensions>
      </trkpt>
      <trkpt lat="59.9844495" lon="15.8273069">
        <ele>95.8</ele>
        <time>2013-02-18T22:20:14Z</time>
        <extensions><gpxtpx:TrackPointExtension><gpxtpx:hr>140</gpxtpx:hr></gpxtpx:TrackPointExtension></extensions>
      </trkpt>
      <trkpt lat="59.9844685" lon="15.8273213">
        <ele>95.8</ele>
        <time>2013-02-18T22:20:18Z</time>
        <extensions><gpxtpx:TrackPointExtension><gpxtpx:hr>140</gpxtpx:hr></gpxtpx:TrackPointExtension></extensions>
      </trkpt>
      <trkpt lat="59.9844666" lon="15.8273233">
        <ele>95.8</ele>
        <time>2013-02-18T22:20:19Z</time>
        <extensions><gpxtpx:TrackPointExtension><gpxtpx:hr>140</gpxtpx:hr></gpxtpx:TrackPointExtension></extensions>
      </trkpt>
      <trkpt lat="59.9844643" lon="15.8273234">
        <ele>93.8</ele>
        <time>2013-02-18T22:20:20Z</time>
        <extensions><gpxtpx:TrackPointExtension><gpxtpx:hr>141</gpxtpx:hr></gpxtpx:TrackPointExtension></extensions>
      </trkpt>
      <trkpt lat="59.9844617" lon="15.8273211">
        <ele>93.8</ele>
        <time>2013-02-18T22:20:21Z</time>
        <extensions><gpxtpx:TrackPointExtension><gpxtpx:hr>141</gpxtpx:hr></gpxtpx:TrackPointExtension></extensions>
      </trkpt>
      <trkpt lat="59.9844609" lon="15.8273182">
        <ele>93.8</ele>
        <time>2013-02-18T22:20:22Z</time>
        <extensions><gpxtpx:TrackPointExtension><gpxtpx:hr>140</gpxtpx:hr></gpxtpx:TrackPointExtension></extensions>
      </trkpt>
      <trkpt lat="59.9844588" lon="15.8273177">
        <ele>93.8</ele>
        <time>2013-02-18T22:20:23Z</time>
        <extensions><gpxtpx:TrackPointExtension><gpxtpx:hr>140</gpxtpx:hr></gpxtpx:TrackPointExtension></extensions>
      </trkpt>
      <trkpt lat="59.9844561" lon="15.8273174">
        <ele>93.8</ele>
        <time>2013-02-18T22:20:24Z</time>
        <extensions><gpxtpx:TrackPointExtension><gpxtpx:hr>140</gpxtpx:hr></gpxtpx:TrackPointExtension></extensions>
      </trkpt>
      <trkpt lat="59.9844586" lon="15.8273136">
        <ele>93.8</ele>
        <time>2013-02-18T22:20:25Z</time>
        <extensions><gpxtpx:TrackPointExtension><gpxtpx:hr>140</gpxtpx:hr></gpxtpx:TrackPointExtension></extensions>
      </trkpt>
      <trkpt lat="59.9844621" lon="15.8273133">
        <ele>93.8</ele>
        <time>2013-02-18T22:20:26Z</time>
        <extensions><gpxtpx:TrackPointExtension><gpxtpx:hr>140</gpxtpx:hr></gpxtpx:TrackPointExtension></extensions>
      </trkpt>
      <trkpt lat="59.9844393" lon="15.8273851">
        <ele>93.8</ele>
        <time>2013-02-18T22:20:27Z</time>
        <extensions><gpxtpx:TrackPointExtension><gpxtpx:hr>141</gpxtpx:hr></gpxtpx:TrackPointExtension></extensions>
      </trkpt>
      <trkpt lat="59.9844441" lon="15.8273879">
        <ele>93.8</ele>
        <time>2013-02-18T22:20:28Z</time>
        <extensions><gpxtpx:TrackPointExtension><gpxtpx:hr>140</gpxtpx:hr></gpxtpx:TrackPointExtension></extensions>
      </trkpt>
      <trkpt lat="59.9844456" lon="15.8273916">
        <ele>93.8</ele>
        <time>2013-02-18T22:20:29Z</time>
        <extensions><gpxtpx:TrackPointExtension><gpxtpx:hr>141</gpxtpx:hr></gpxtpx:TrackPointExtension></extensions>
      </trkpt>
      <trkpt lat="59.984443" lon="15.8274005">
        <ele>93.8</ele>
        <time>2013-02-18T22:20:30Z</time>
        <extensions><gpxtpx:TrackPointExtension><gpxtpx:hr>141</gpxtpx:hr></gpxtpx:TrackPointExtension></extensions>
      </trkpt>
      <trkpt lat="59.9844163" lon="15.8274375">
        <ele>93.8</ele>
        <time>2013-02-18T22:20:31Z</time>
        <extensions><gpxtpx:TrackPointExtension><gpxtpx:hr>141</gpxtpx:hr></gpxtpx:TrackPointExtension></extensions>
      </trkpt>
      <trkpt lat="59.9844075" lon="15.8274416">
        <ele>93.8</ele>
        <time>2013-02-18T22:20:32Z</time>
        <extensions><gpxtpx:TrackPointExtension><gpxtpx:hr>142</gpxtpx:hr></gpxtpx:TrackPointExtension></extensions>
      </trkpt>
      <trkpt lat="59.984391" lon="15.8274685">
        <ele>93.8</ele>
        <time>2013-02-18T22:20:37Z</time>
        <extensions><gpxtpx:TrackPointExtension><gpxtpx:hr>143</gpxtpx:hr></gpxtpx:TrackPointExtension></extensions>
      </trkpt>
      <trkpt lat="59.9843928" lon="15.8274698">
        <ele>93.8</ele>
        <time>2013-02-18T22:20:38Z</time>
        <extensions><gpxtpx:TrackPointExtension><gpxtpx:hr>143</gpxtpx:hr></gpxtpx:TrackPointExtension></extensions>
      </trkpt>
      <trkpt lat="59.984394" lon="15.8274704">
        <ele>93.8</ele>
        <time>2013-02-18T22:20:39Z</time>
        <extensions><gpxtpx:TrackPointExtension><gpxtpx:hr>143</gpxtpx:hr></gpxtpx:TrackPointExtension></extensions>
      </trkpt>
      <trkpt lat="59.9843922" lon="15.8274714">
        <ele>93.8</ele>
        <time>2013-02-18T22:20:40Z</time>
        <extensions><gpxtpx:TrackPointExtension><gpxtpx:hr>143</gpxtpx:hr></gpxtpx:TrackPointExtension></extensions>
      </trkpt>
      <trkpt lat="59.9843924" lon="15.8274726">
        <ele>93.8</ele>
        <time>2013-02-18T22:20:41Z</time>
        <extensions><gpxtpx:TrackPointExtension><gpxtpx:hr>144</gpxtpx:hr></gpxtpx:TrackPointExtension></extensions>
      </trkpt>
      <trkpt lat="59.9843969" lon="15.8274716">
        <ele>93.8</ele>
        <time>2013-02-18T22:20:42Z</time>
        <extensions><gpxtpx:TrackPointExtension><gpxtpx:hr>144</gpxtpx:hr></gpxtpx:TrackPointExtension></extensions>
      </trkpt>
      <trkpt lat="59.9843987" lon="15.8274701">
        <ele>93.8</ele>
        <time>2013-02-18T22:20:43Z</time>
        <extensions><gpxtpx:TrackPointExtension><gpxtpx:hr>144</gpxtpx:hr></gpxtpx:TrackPointExtension></extensions>
      </trkpt>
      <trkpt lat="59.9843724" lon="15.8274287">
        <ele>93.8</ele>
        <time>2013-02-18T22:20:44Z</time>
        <extensions><gpxtpx:TrackPointExtension><gpxtpx:hr>144</gpxtpx:hr></gpxtpx:TrackPointExtension></extensions>
      </trkpt>
      <trkpt lat="59.9843678" lon="15.827414">
        <ele>93.8</ele>
        <time>2013-02-18T22:20:45Z</time>
        <extensions><gpxtpx:TrackPointExtension><gpxtpx:hr>144</gpxtpx:hr></gpxtpx:TrackPointExtension></extensions>
      </trkpt>
      <trkpt lat="59.984367" lon="15.8274043">
        <ele>93.8</ele>
        <time>2013-02-18T22:20:46Z</time>
        <extensions><gpxtpx:TrackPointExtension><gpxtpx:hr>144</gpxtpx:hr></gpxtpx:TrackPointExtension></extensions>
      </trkpt>
      <trkpt lat="59.984372" lon="15.8274012">
        <ele>93.8</ele>
        <time>2013-02-18T22:20:47Z</time>
        <extensions><gpxtpx:TrackPointExtension><gpxtpx:hr>144</gpxtpx:hr></gpxtpx:TrackPointExtension></extensions>
      </trkpt>
      <trkpt lat="59.9843785" lon="15.8273972">
        <ele>93.8</ele>
        <time>2013-02-18T22:20:48Z</time>
        <extensions><gpxtpx:TrackPointExtension><gpxtpx:hr>144</gpxtpx:hr></gpxtpx:TrackPointExtension></extensions>
      </trkpt>
      <trkpt lat="59.9843809" lon="15.8274022">
        <ele>93.8</ele>
        <time>2013-02-18T22:20:49Z</time>
        <extensions><gpxtpx:TrackPointExtension><gpxtpx:hr>143</gpxtpx:hr></gpxtpx:TrackPointExtension></extensions>
      </trkpt>
      <trkpt lat="59.9843842" lon="15.8274101">
        <ele>93.8</ele>
        <time>2013-02-18T22:20:50Z</time>
        <extensions><gpxtpx:TrackPointExtension><gpxtpx:hr>144</gpxtpx:hr></gpxtpx:TrackPointExtension></extensions>
      </trkpt>
      <trkpt lat="59.984384" lon="15.8274243">
        <ele>93.8</ele>
        <time>2013-02-18T22:20:51Z</time>
        <extensions><gpxtpx:TrackPointExtension><gpxtpx:hr>144</gpxtpx:hr></gpxtpx:TrackPointExtension></extensions>
      </trkpt>
      <trkpt lat="59.9843838" lon="15.8274333">
        <ele>93.8</ele>
        <time>2013-02-18T22:20:52Z</time>
        <extensions><gpxtpx:TrackPointExtension><gpxtpx:hr>144</gpxtpx:hr></gpxtpx:TrackPointExtension></extensions>
      </trkpt>
      <trkpt lat="59.9843844" lon="15.8274318">
        <ele>93.8</ele>
        <time>2013-02-18T22:20:53Z</time>
        <extensions><gpxtpx:TrackPointExtension><gpxtpx:hr>143</gpxtpx:hr></gpxtpx:TrackPointExtension></extensions>
      </trkpt>
      <trkpt lat="59.9843585" lon="15.8274251">
        <ele>93.8</ele>
        <time>2013-02-18T22:20:54Z</time>
        <extensions><gpxtpx:TrackPointExtension><gpxtpx:hr>144</gpxtpx:hr></gpxtpx:TrackPointExtension></extensions>
      </trkpt>
      <trkpt lat="59.9843582" lon="15.8274134">
        <ele>93.8</ele>
        <time>2013-02-18T22:20:55Z</time>
        <extensions><gpxtpx:TrackPointExtension><gpxtpx:hr>143</gpxtpx:hr></gpxtpx:TrackPointExtension></extensions>
      </trkpt>
      <trkpt lat="59.9843561" lon="15.8274023">
        <ele>93.8</ele>
        <time>2013-02-18T22:20:56Z</time>
        <extensions><gpxtpx:TrackPointExtension><gpxtpx:hr>144</gpxtpx:hr></gpxtpx:TrackPointExtension></extensions>
      </trkpt>
      <trkpt lat="59.9843549" lon="15.8273976">
        <ele>93.8</ele>
        <time>2013-02-18T22:20:58Z</time>
        <extensions><gpxtpx:TrackPointExtension><gpxtpx:hr>144</gpxtpx:hr></gpxtpx:TrackPointExtension></extensions>
      </trkpt>
      <trkpt lat="59.9843514" lon="15.8274038">
        <ele>93.8</ele>
        <time>2013-02-18T22:20:59Z</time>
        <extensions><gpxtpx:TrackPointExtension><gpxtpx:hr>143</gpxtpx:hr></gpxtpx:TrackPointExtension></extensions>
      </trkpt>
      <trkpt lat="59.9843431" lon="15.8274739">
        <ele>93.8</ele>
        <time>2013-02-18T22:21:00Z</time>
        <extensions><gpxtpx:TrackPointExtension><gpxtpx:hr>144</gpxtpx:hr></gpxtpx:TrackPointExtension></extensions>
      </trkpt>
      <trkpt lat="59.984341" lon="15.8274988">
        <ele>93.8</ele>
        <time>2013-02-18T22:21:01Z</time>
        <extensions><gpxtpx:TrackPointExtension><gpxtpx:hr>143</gpxtpx:hr></gpxtpx:TrackPointExtension></extensions>
      </trkpt>
      <trkpt lat="59.9843485" lon="15.8275109">
        <ele>93.8</ele>
        <time>2013-02-18T22:21:02Z</time>
        <extensions><gpxtpx:TrackPointExtension><gpxtpx:hr>144</gpxtpx:hr></gpxtpx:TrackPointExtension></extensions>
      </trkpt>
      <trkpt lat="59.98435" lon="15.8275194">
        <ele>93.8</ele>
        <time>2013-02-18T22:21:03Z</time>
        <extensions><gpxtpx:TrackPointExtension><gpxtpx:hr>143</gpxtpx:hr></gpxtpx:TrackPointExtension></extensions>
      </trkpt>
      <trkpt lat="59.9843514" lon="15.8275236">
        <ele>93.8</ele>
        <time>2013-02-18T22:21:04Z</time>
        <extensions><gpxtpx:TrackPointExtension><gpxtpx:hr>144</gpxtpx:hr></gpxtpx:TrackPointExtension></extensions>
      </trkpt>
      <trkpt lat="59.9843519" lon="15.8275188">
        <ele>93.8</ele>
        <time>2013-02-18T22:21:06Z</time>
        <extensions><gpxtpx:TrackPointExtension><gpxtpx:hr>144</gpxtpx:hr></gpxtpx:TrackPointExtension></extensions>
      </trkpt>
      <trkpt lat="59.984365" lon="15.8274849">
        <ele>93.8</ele>
        <time>2013-02-18T22:21:07Z</time>
        <extensions><gpxtpx:TrackPointExtension><gpxtpx:hr>144</gpxtpx:hr></gpxtpx:TrackPointExtension></extensions>
      </trkpt>
      <trkpt lat="59.9843669" lon="15.8274486">
        <ele>93.8</ele>
        <time>2013-02-18T22:21:08Z</time>
        <extensions><gpxtpx:TrackPointExtension><gpxtpx:hr>144</gpxtpx:hr></gpxtpx:TrackPointExtension></extensions>
      </trkpt>
      <trkpt lat="59.9843682" lon="15.8274304">
        <ele>93.8</ele>
        <time>2013-02-18T22:21:09Z</time>
        <extensions><gpxtpx:TrackPointExtension><gpxtpx:hr>144</gpxtpx:hr></gpxtpx:TrackPointExtension></extensions>
      </trkpt>
      <trkpt lat="59.9843716" lon="15.8274177">
        <ele>93.8</ele>
        <time>2013-02-18T22:21:10Z</time>
        <extensions><gpxtpx:TrackPointExtension><gpxtpx:hr>145</gpxtpx:hr></gpxtpx:TrackPointExtension></extensions>
      </trkpt>
      <trkpt lat="59.9843735" lon="15.8274058">
        <ele>93.8</ele>
        <time>2013-02-18T22:21:11Z</time>
        <extensions><gpxtpx:TrackPointExtension><gpxtpx:hr>145</gpxtpx:hr></gpxtpx:TrackPointExtension></extensions>
      </trkpt>
      <trkpt lat="59.9843721" lon="15.8273944">
        <ele>93.8</ele>
        <time>2013-02-18T22:21:12Z</time>
        <extensions><gpxtpx:TrackPointExtension><gpxtpx:hr>145</gpxtpx:hr></gpxtpx:TrackPointExtension></extensions>
      </trkpt>
      <trkpt lat="59.984366" lon="15.827414">
        <ele>93.8</ele>
        <time>2013-02-18T22:21:14Z</time>
        <extensions><gpxtpx:TrackPointExtension><gpxtpx:hr>146</gpxtpx:hr></gpxtpx:TrackPointExtension></extensions>
      </trkpt>
      <trkpt lat="59.9843617" lon="15.8274667">
        <ele>93.8</ele>
        <time>2013-02-18T22:21:15Z</time>
        <extensions><gpxtpx:TrackPointExtension><gpxtpx:hr>146</gpxtpx:hr></gpxtpx:TrackPointExtension></extensions>
      </trkpt>
      <trkpt lat="59.984355" lon="15.8274793">
        <ele>93.8</ele>
        <time>2013-02-18T22:21:16Z</time>
        <extensions><gpxtpx:TrackPointExtension><gpxtpx:hr>146</gpxtpx:hr></gpxtpx:TrackPointExtension></extensions>
      </trkpt>
      <trkpt lat="59.9843446" lon="15.8275083">
        <ele>93.8</ele>
        <time>2013-02-18T22:21:17Z</time>
        <extensions><gpxtpx:TrackPointExtension><gpxtpx:hr>146</gpxtpx:hr></gpxtpx:TrackPointExtension></extensions>
      </trkpt>
      <trkpt lat="59.9843453" lon="15.8275286">
        <ele>93.8</ele>
        <time>2013-02-18T22:21:18Z</time>
        <extensions><gpxtpx:TrackPointExtension><gpxtpx:hr>146</gpxtpx:hr></gpxtpx:TrackPointExtension></extensions>
      </trkpt>
      <trkpt lat="59.9843433" lon="15.8275433">
        <ele>93.8</ele>
        <time>2013-02-18T22:21:19Z</time>
        <extensions><gpxtpx:TrackPointExtension><gpxtpx:hr>146</gpxtpx:hr></gpxtpx:TrackPointExtension></extensions>
      </trkpt>
      <trkpt lat="59.9843427" lon="15.827551">
        <ele>93.8</ele>
        <time>2013-02-18T22:21:20Z</time>
        <extensions><gpxtpx:TrackPointExtension><gpxtpx:hr>147</gpxtpx:hr></gpxtpx:TrackPointExtension></extensions>
      </trkpt>
      <trkpt lat="59.9843569" lon="15.8275432">
        <ele>93.8</ele>
        <time>2013-02-18T22:21:24Z</time>
        <extensions><gpxtpx:TrackPointExtension><gpxtpx:hr>147</gpxtpx:hr></gpxtpx:TrackPointExtension></extensions>
      </trkpt>
      <trkpt lat="59.9843655" lon="15.8275523">
        <ele>93.8</ele>
        <time>2013-02-18T22:21:27Z</time>
        <extensions><gpxtpx:TrackPointExtension><gpxtpx:hr>147</gpxtpx:hr></gpxtpx:TrackPointExtension></extensions>
      </trkpt>
      <trkpt lat="59.9843714" lon="15.8275317">
        <ele>93.8</ele>
        <time>2013-02-18T22:21:33Z</time>
        <extensions><gpxtpx:TrackPointExtension><gpxtpx:hr>147</gpxtpx:hr></gpxtpx:TrackPointExtension></extensions>
      </trkpt>
      <trkpt lat="59.9843763" lon="15.8275326">
        <ele>93.8</ele>
        <time>2013-02-18T22:21:34Z</time>
        <extensions><gpxtpx:TrackPointExtension><gpxtpx:hr>147</gpxtpx:hr></gpxtpx:TrackPointExtension></extensions>
      </trkpt>
      <trkpt lat="59.9843778" lon="15.8275347">
        <ele>93.8</ele>
        <time>2013-02-18T22:21:35Z</time>
        <extensions><gpxtpx:TrackPointExtension><gpxtpx:hr>147</gpxtpx:hr></gpxtpx:TrackPointExtension></extensions>
      </trkpt>
      <trkpt lat="59.9843802" lon="15.8275377">
        <ele>93.8</ele>
        <time>2013-02-18T22:21:36Z</time>
        <extensions><gpxtpx:TrackPointExtension><gpxtpx:hr>147</gpxtpx:hr></gpxtpx:TrackPointExtension></extensions>
      </trkpt>
      <trkpt lat="59.9843863" lon="15.8275793">
        <ele>93.8</ele>
        <time>2013-02-18T22:21:37Z</time>
        <extensions><gpxtpx:TrackPointExtension><gpxtpx:hr>147</gpxtpx:hr></gpxtpx:TrackPointExtension></extensions>
      </trkpt>
      <trkpt lat="59.9843855" lon="15.8275754">
        <ele>93.8</ele>
        <time>2013-02-18T22:21:38Z</time>
        <extensions><gpxtpx:TrackPointExtension><gpxtpx:hr>147</gpxtpx:hr></gpxtpx:TrackPointExtension></extensions>
      </trkpt>
      <trkpt lat="59.9843845" lon="15.8275734">
        <ele>93.8</ele>
        <time>2013-02-18T22:21:39Z</time>
        <extensions><gpxtpx:TrackPointExtension><gpxtpx:hr>147</gpxtpx:hr></gpxtpx:TrackPointExtension></extensions>
      </trkpt>
      <trkpt lat="59.9843852" lon="15.8275714">
        <ele>93.8</ele>
        <time>2013-02-18T22:21:40Z</time>
        <extensions><gpxtpx:TrackPointExtension><gpxtpx:hr>147</gpxtpx:hr></gpxtpx:TrackPointExtension></extensions>
      </trkpt>
      <trkpt lat="59.984389" lon="15.8275722">
        <ele>93.8</ele>
        <time>2013-02-18T22:21:41Z</time>
        <extensions><gpxtpx:TrackPointExtension><gpxtpx:hr>147</gpxtpx:hr></gpxtpx:TrackPointExtension></extensions>
      </trkpt>
      <trkpt lat="59.9843916" lon="15.8275692">
        <ele>93.8</ele>
        <time>2013-02-18T22:21:42Z</time>
        <extensions><gpxtpx:TrackPointExtension><gpxtpx:hr>147</gpxtpx:hr></gpxtpx:TrackPointExtension></extensions>
      </trkpt>
      <trkpt lat="59.9843918" lon="15.8275632">
        <ele>93.8</ele>
        <time>2013-02-18T22:21:43Z</time>
        <extensions><gpxtpx:TrackPointExtension><gpxtpx:hr>147</gpxtpx:hr></gpxtpx:TrackPointExtension></extensions>
      </trkpt>
      <trkpt lat="59.9843925" lon="15.8275618">
        <ele>93.8</ele>
        <time>2013-02-18T22:21:44Z</time>
        <extensions><gpxtpx:TrackPointExtension><gpxtpx:hr>146</gpxtpx:hr></gpxtpx:TrackPointExtension></extensions>
      </trkpt>
      <trkpt lat="59.9843935" lon="15.8275556">
        <ele>93.8</ele>
        <time>2013-02-18T22:21:45Z</time>
        <extensions><gpxtpx:TrackPointExtension><gpxtpx:hr>147</gpxtpx:hr></gpxtpx:TrackPointExtension></extensions>
      </trkpt>
      <trkpt lat="59.9843954" lon="15.8275516">
        <ele>93.8</ele>
        <time>2013-02-18T22:21:46Z</time>
        <extensions><gpxtpx:TrackPointExtension><gpxtpx:hr>146</gpxtpx:hr></gpxtpx:TrackPointExtension></extensions>
      </trkpt>
      <trkpt lat="59.9843987" lon="15.8275468">
        <ele>93.8</ele>
        <time>2013-02-18T22:21:47Z</time>
        <extensions><gpxtpx:TrackPointExtension><gpxtpx:hr>147</gpxtpx:hr></gpxtpx:TrackPointExtension></extensions>
      </trkpt>
      <trkpt lat="59.9843997" lon="15.8275443">
        <ele>93.8</ele>
        <time>2013-02-18T22:21:48Z</time>
        <extensions><gpxtpx:TrackPointExtension><gpxtpx:hr>146</gpxtpx:hr></gpxtpx:TrackPointExtension></extensions>
      </trkpt>
      <trkpt lat="59.9843819" lon="15.8275565">
        <ele>93.8</ele>
        <time>2013-02-18T22:21:49Z</time>
        <extensions><gpxtpx:TrackPointExtension><gpxtpx:hr>147</gpxtpx:hr></gpxtpx:TrackPointExtension></extensions>
      </trkpt>
      <trkpt lat="59.9843706" lon="15.8275623">
        <ele>93.8</ele>
        <time>2013-02-18T22:21:50Z</time>
        <extensions><gpxtpx:TrackPointExtension><gpxtpx:hr>147</gpxtpx:hr></gpxtpx:TrackPointExtension></extensions>
      </trkpt>
      <trkpt lat="59.9843812" lon="15.8275377">
        <ele>93.8</ele>
        <time>2013-02-18T22:21:54Z</time>
        <extensions><gpxtpx:TrackPointExtension><gpxtpx:hr>147</gpxtpx:hr></gpxtpx:TrackPointExtension></extensions>
      </trkpt>
      <trkpt lat="59.9843858" lon="15.8275315">
        <ele>93.8</ele>
        <time>2013-02-18T22:21:55Z</time>
        <extensions><gpxtpx:TrackPointExtension><gpxtpx:hr>148</gpxtpx:hr></gpxtpx:TrackPointExtension></extensions>
      </trkpt>
      <trkpt lat="59.9843897" lon="15.8275251">
        <ele>93.8</ele>
        <time>2013-02-18T22:21:56Z</time>
        <extensions><gpxtpx:TrackPointExtension><gpxtpx:hr>147</gpxtpx:hr></gpxtpx:TrackPointExtension></extensions>
      </trkpt>
      <trkpt lat="59.9843891" lon="15.8275235">
        <ele>93.8</ele>
        <time>2013-02-18T22:21:57Z</time>
        <extensions><gpxtpx:TrackPointExtension><gpxtpx:hr>148</gpxtpx:hr></gpxtpx:TrackPointExtension></extensions>
      </trkpt>
      <trkpt lat="59.984389" lon="15.8275297">
        <ele>93.8</ele>
        <time>2013-02-18T22:21:58Z</time>
        <extensions><gpxtpx:TrackPointExtension><gpxtpx:hr>148</gpxtpx:hr></gpxtpx:TrackPointExtension></extensions>
      </trkpt>
      <trkpt lat="59.9843746" lon="15.8275808">
        <ele>93.8</ele>
        <time>2013-02-18T22:21:59Z</time>
        <extensions><gpxtpx:TrackPointExtension><gpxtpx:hr>148</gpxtpx:hr></gpxtpx:TrackPointExtension></extensions>
      </trkpt>
      <trkpt lat="59.9843753" lon="15.8275987">
        <ele>93.8</ele>
        <time>2013-02-18T22:22:00Z</time>
        <extensions><gpxtpx:TrackPointExtension><gpxtpx:hr>148</gpxtpx:hr></gpxtpx:TrackPointExtension></extensions>
      </trkpt>
      <trkpt lat="59.9843705" lon="15.8276228">
        <ele>93.8</ele>
        <time>2013-02-18T22:22:01Z</time>
        <extensions><gpxtpx:TrackPointExtension><gpxtpx:hr>147</gpxtpx:hr></gpxtpx:TrackPointExtension></extensions>
      </trkpt>
      <trkpt lat="59.9843689" lon="15.8276365">
        <ele>93.8</ele>
        <time>2013-02-18T22:22:02Z</time>
        <extensions><gpxtpx:TrackPointExtension><gpxtpx:hr>147</gpxtpx:hr></gpxtpx:TrackPointExtension></extensions>
      </trkpt>
      <trkpt lat="59.9843648" lon="15.8276547">
        <ele>93.8</ele>
        <time>2013-02-18T22:22:03Z</time>
        <extensions><gpxtpx:TrackPointExtension><gpxtpx:hr>148</gpxtpx:hr></gpxtpx:TrackPointExtension></extensions>
      </trkpt>
      <trkpt lat="59.9843619" lon="15.8276645">
        <ele>93.8</ele>
        <time>2013-02-18T22:22:04Z</time>
        <extensions><gpxtpx:TrackPointExtension><gpxtpx:hr>147</gpxtpx:hr></gpxtpx:TrackPointExtension></extensions>
      </trkpt>
      <trkpt lat="59.9843596" lon="15.8276721">
        <ele>93.8</ele>
        <time>2013-02-18T22:22:05Z</time>
        <extensions><gpxtpx:TrackPointExtension><gpxtpx:hr>147</gpxtpx:hr></gpxtpx:TrackPointExtension></extensions>
      </trkpt>
      <trkpt lat="59.9843561" lon="15.8276774">
        <ele>93.8</ele>
        <time>2013-02-18T22:22:06Z</time>
        <extensions><gpxtpx:TrackPointExtension><gpxtpx:hr>147</gpxtpx:hr></gpxtpx:TrackPointExtension></extensions>
      </trkpt>
      <trkpt lat="59.9843565" lon="15.8276856">
        <ele>93.8</ele>
        <time>2013-02-18T22:22:07Z</time>
        <extensions><gpxtpx:TrackPointExtension><gpxtpx:hr>147</gpxtpx:hr></gpxtpx:TrackPointExtension></extensions>
      </trkpt>
      <trkpt lat="59.9843517" lon="15.8276847">
        <ele>93.8</ele>
        <time>2013-02-18T22:22:08Z</time>
        <extensions><gpxtpx:TrackPointExtension><gpxtpx:hr>147</gpxtpx:hr></gpxtpx:TrackPointExtension></extensions>
      </trkpt>
      <trkpt lat="59.9843671" lon="15.8276851">
        <ele>93.8</ele>
        <time>2013-02-18T22:22:09Z</time>
        <extensions><gpxtpx:TrackPointExtension><gpxtpx:hr>147</gpxtpx:hr></gpxtpx:TrackPointExtension></extensions>
      </trkpt>
      <trkpt lat="59.9843702" lon="15.8276855">
        <ele>93.8</ele>
        <time>2013-02-18T22:22:11Z</time>
        <extensions><gpxtpx:TrackPointExtension><gpxtpx:hr>147</gpxtpx:hr></gpxtpx:TrackPointExtension></extensions>
      </trkpt>
      <trkpt lat="59.9843716" lon="15.8276752">
        <ele>93.8</ele>
        <time>2013-02-18T22:22:14Z</time>
        <extensions><gpxtpx:TrackPointExtension><gpxtpx:hr>147</gpxtpx:hr></gpxtpx:TrackPointExtension></extensions>
      </trkpt>
      <trkpt lat="59.9843698" lon="15.8276755">
        <ele>93.8</ele>
        <time>2013-02-18T22:22:15Z</time>
        <extensions><gpxtpx:TrackPointExtension><gpxtpx:hr>146</gpxtpx:hr></gpxtpx:TrackPointExtension></extensions>
      </trkpt>
      <trkpt lat="59.9843772" lon="15.8276877">
        <ele>93.8</ele>
        <time>2013-02-18T22:22:16Z</time>
        <extensions><gpxtpx:TrackPointExtension><gpxtpx:hr>146</gpxtpx:hr></gpxtpx:TrackPointExtension></extensions>
      </trkpt>
      <trkpt lat="59.9843785" lon="15.8277017">
        <ele>93.8</ele>
        <time>2013-02-18T22:22:17Z</time>
        <extensions><gpxtpx:TrackPointExtension><gpxtpx:hr>146</gpxtpx:hr></gpxtpx:TrackPointExtension></extensions>
      </trkpt>
      <trkpt lat="59.9843829" lon="15.8277067">
        <ele>93.8</ele>
        <time>2013-02-18T22:22:18Z</time>
        <extensions><gpxtpx:TrackPointExtension><gpxtpx:hr>146</gpxtpx:hr></gpxtpx:TrackPointExtension></extensions>
      </trkpt>
      <trkpt lat="59.9843782" lon="15.8277043">
        <ele>93.8</ele>
        <time>2013-02-18T22:22:19Z</time>
        <extensions><gpxtpx:TrackPointExtension><gpxtpx:hr>146</gpxtpx:hr></gpxtpx:TrackPointExtension></extensions>
      </trkpt>
      <trkpt lat="59.9843783" lon="15.8276918">
        <ele>93.8</ele>
        <time>2013-02-18T22:22:20Z</time>
        <extensions><gpxtpx:TrackPointExtension><gpxtpx:hr>146</gpxtpx:hr></gpxtpx:TrackPointExtension></extensions>
      </trkpt>
      <trkpt lat="59.9843779" lon="15.8276746">
        <ele>93.8</ele>
        <time>2013-02-18T22:22:21Z</time>
        <extensions><gpxtpx:TrackPointExtension><gpxtpx:hr>146</gpxtpx:hr></gpxtpx:TrackPointExtension></extensions>
      </trkpt>
      <trkpt lat="59.9843778" lon="15.8276526">
        <ele>93.8</ele>
        <time>2013-02-18T22:22:22Z</time>
        <extensions><gpxtpx:TrackPointExtension><gpxtpx:hr>146</gpxtpx:hr></gpxtpx:TrackPointExtension></extensions>
      </trkpt>
      <trkpt lat="59.9843811" lon="15.827651">
        <ele>93.8</ele>
        <time>2013-02-18T22:22:23Z</time>
        <extensions><gpxtpx:TrackPointExtension><gpxtpx:hr>146</gpxtpx:hr></gpxtpx:TrackPointExtension></extensions>
      </trkpt>
      <trkpt lat="59.9843819" lon="15.8276407">
        <ele>93.8</ele>
        <time>2013-02-18T22:22:24Z</time>
        <extensions><gpxtpx:TrackPointExtension><gpxtpx:hr>146</gpxtpx:hr></gpxtpx:TrackPointExtension></extensions>
      </trkpt>
      <trkpt lat="59.9843829" lon="15.8276298">
        <ele>93.8</ele>
        <time>2013-02-18T22:22:25Z</time>
        <extensions><gpxtpx:TrackPointExtension><gpxtpx:hr>146</gpxtpx:hr></gpxtpx:TrackPointExtension></extensions>
      </trkpt>
      <trkpt lat="59.984383" lon="15.827617">
        <ele>93.8</ele>
        <time>2013-02-18T22:22:26Z</time>
        <extensions><gpxtpx:TrackPointExtension><gpxtpx:hr>146</gpxtpx:hr></gpxtpx:TrackPointExtension></extensions>
      </trkpt>
      <trkpt lat="59.9843824" lon="15.8276047">
        <ele>93.8</ele>
        <time>2013-02-18T22:22:27Z</time>
        <extensions><gpxtpx:TrackPointExtension><gpxtpx:hr>146</gpxtpx:hr></gpxtpx:TrackPointExtension></extensions>
      </trkpt>
      <trkpt lat="59.9843787" lon="15.8276029">
        <ele>93.8</ele>
        <time>2013-02-18T22:22:28Z</time>
        <extensions><gpxtpx:TrackPointExtension><gpxtpx:hr>145</gpxtpx:hr></gpxtpx:TrackPointExtension></extensions>
      </trkpt>
      <trkpt lat="59.984378" lon="15.8275888">
        <ele>93.8</ele>
        <time>2013-02-18T22:22:29Z</time>
        <extensions><gpxtpx:TrackPointExtension><gpxtpx:hr>145</gpxtpx:hr></gpxtpx:TrackPointExtension></extensions>
      </trkpt>
      <trkpt lat="59.9843847" lon="15.8275712">
        <ele>93.8</ele>
        <time>2013-02-18T22:22:30Z</time>
        <extensions><gpxtpx:TrackPointExtension><gpxtpx:hr>145</gpxtpx:hr></gpxtpx:TrackPointExtension></extensions>
      </trkpt>
      <trkpt lat="59.9843931" lon="15.8275535">
        <ele>93.8</ele>
        <time>2013-02-18T22:22:31Z</time>
        <extensions><gpxtpx:TrackPointExtension><gpxtpx:hr>145</gpxtpx:hr></gpxtpx:TrackPointExtension></extensions>
      </trkpt>
      <trkpt lat="59.9843977" lon="15.8275373">
        <ele>93.8</ele>
        <time>2013-02-18T22:22:32Z</time>
        <extensions><gpxtpx:TrackPointExtension><gpxtpx:hr>145</gpxtpx:hr></gpxtpx:TrackPointExtension></extensions>
      </trkpt>
      <trkpt lat="59.9843982" lon="15.8275297">
        <ele>93.8</ele>
        <time>2013-02-18T22:22:33Z</time>
        <extensions><gpxtpx:TrackPointExtension><gpxtpx:hr>146</gpxtpx:hr></gpxtpx:TrackPointExtension></extensions>
      </trkpt>
      <trkpt lat="59.9843952" lon="15.82753">
        <ele>93.8</ele>
        <time>2013-02-18T22:22:34Z</time>
        <extensions><gpxtpx:TrackPointExtension><gpxtpx:hr>145</gpxtpx:hr></gpxtpx:TrackPointExtension></extensions>
      </trkpt>
      <trkpt lat="59.9843944" lon="15.8275338">
        <ele>93.8</ele>
        <time>2013-02-18T22:22:35Z</time>
        <extensions><gpxtpx:TrackPointExtension><gpxtpx:hr>146</gpxtpx:hr></gpxtpx:TrackPointExtension></extensions>
      </trkpt>
      <trkpt lat="59.9843949" lon="15.8275551">
        <ele>93.8</ele>
        <time>2013-02-18T22:22:38Z</time>
        <extensions><gpxtpx:TrackPointExtension><gpxtpx:hr>145</gpxtpx:hr></gpxtpx:TrackPointExtension></extensions>
      </trkpt>
      <trkpt lat="59.9843911" lon="15.8275669">
        <ele>93.8</ele>
        <time>2013-02-18T22:22:39Z</time>
        <extensions><gpxtpx:TrackPointExtension><gpxtpx:hr>145</gpxtpx:hr></gpxtpx:TrackPointExtension></extensions>
      </trkpt>
      <trkpt lat="59.9843873" lon="15.8275759">
        <ele>93.8</ele>
        <time>2013-02-18T22:22:41Z</time>
        <extensions><gpxtpx:TrackPointExtension><gpxtpx:hr>144</gpxtpx:hr></gpxtpx:TrackPointExtension></extensions>
      </trkpt>
      <trkpt lat="59.9843772" lon="15.8275517">
        <ele>93.8</ele>
        <time>2013-02-18T22:22:46Z</time>
        <extensions><gpxtpx:TrackPointExtension><gpxtpx:hr>144</gpxtpx:hr></gpxtpx:TrackPointExtension></extensions>
      </trkpt>
      <trkpt lat="59.9843721" lon="15.8275617">
        <ele>93.8</ele>
        <time>2013-02-18T22:22:47Z</time>
        <extensions><gpxtpx:TrackPointExtension><gpxtpx:hr>144</gpxtpx:hr></gpxtpx:TrackPointExtension></extensions>
      </trkpt>
      <trkpt lat="59.9843611" lon="15.8275955">
        <ele>93.8</ele>
        <time>2013-02-18T22:22:50Z</time>
        <extensions><gpxtpx:TrackPointExtension><gpxtpx:hr>144</gpxtpx:hr></gpxtpx:TrackPointExtension></extensions>
      </trkpt>
      <trkpt lat="59.98436" lon="15.8276056">
        <ele>93.8</ele>
        <time>2013-02-18T22:22:51Z</time>
        <extensions><gpxtpx:TrackPointExtension><gpxtpx:hr>144</gpxtpx:hr></gpxtpx:TrackPointExtension></extensions>
      </trkpt>
      <trkpt lat="59.9843591" lon="15.8276138">
        <ele>93.8</ele>
        <time>2013-02-18T22:22:52Z</time>
        <extensions><gpxtpx:TrackPointExtension><gpxtpx:hr>144</gpxtpx:hr></gpxtpx:TrackPointExtension></extensions>
      </trkpt>
      <trkpt lat="59.9843556" lon="15.8276148">
        <ele>93.8</ele>
        <time>2013-02-18T22:22:53Z</time>
        <extensions><gpxtpx:TrackPointExtension><gpxtpx:hr>144</gpxtpx:hr></gpxtpx:TrackPointExtension></extensions>
      </trkpt>
      <trkpt lat="59.9843577" lon="15.8276083">
        <ele>93.8</ele>
        <time>2013-02-18T22:22:54Z</time>
        <extensions><gpxtpx:TrackPointExtension><gpxtpx:hr>144</gpxtpx:hr></gpxtpx:TrackPointExtension></extensions>
      </trkpt>
      <trkpt lat="59.9843886" lon="15.8277256">
        <ele>93.8</ele>
        <time>2013-02-18T22:22:55Z</time>
        <extensions><gpxtpx:TrackPointExtension><gpxtpx:hr>144</gpxtpx:hr></gpxtpx:TrackPointExtension></extensions>
      </trkpt>
      <trkpt lat="59.9843903" lon="15.8277167">
        <ele>93.8</ele>
        <time>2013-02-18T22:22:56Z</time>
        <extensions><gpxtpx:TrackPointExtension><gpxtpx:hr>144</gpxtpx:hr></gpxtpx:TrackPointExtension></extensions>
      </trkpt>
      <trkpt lat="59.9843894" lon="15.827713">
        <ele>93.8</ele>
        <time>2013-02-18T22:22:57Z</time>
        <extensions><gpxtpx:TrackPointExtension><gpxtpx:hr>144</gpxtpx:hr></gpxtpx:TrackPointExtension></extensions>
      </trkpt>
      <trkpt lat="59.9843888" lon="15.8277112">
        <ele>93.8</ele>
        <time>2013-02-18T22:22:58Z</time>
        <extensions><gpxtpx:TrackPointExtension><gpxtpx:hr>143</gpxtpx:hr></gpxtpx:TrackPointExtension></extensions>
      </trkpt>
      <trkpt lat="59.9843879" lon="15.8277186">
        <ele>93.8</ele>
        <time>2013-02-18T22:22:59Z</time>
        <extensions><gpxtpx:TrackPointExtension><gpxtpx:hr>143</gpxtpx:hr></gpxtpx:TrackPointExtension></extensions>
      </trkpt>
      <trkpt lat="59.9843876" lon="15.8277282">
        <ele>93.8</ele>
        <time>2013-02-18T22:23:00Z</time>
        <extensions><gpxtpx:TrackPointExtension><gpxtpx:hr>143</gpxtpx:hr></gpxtpx:TrackPointExtension></extensions>
      </trkpt>
      <trkpt lat="59.9843876" lon="15.8277409">
        <ele>93.8</ele>
        <time>2013-02-18T22:23:01Z</time>
        <extensions><gpxtpx:TrackPointExtension><gpxtpx:hr>143</gpxtpx:hr></gpxtpx:TrackPointExtension></extensions>
      </trkpt>
      <trkpt lat="59.9843803" lon="15.8278136">
        <ele>93.8</ele>
        <time>2013-02-18T22:23:02Z</time>
        <extensions><gpxtpx:TrackPointExtension><gpxtpx:hr>143</gpxtpx:hr></gpxtpx:TrackPointExtension></extensions>
      </trkpt>
      <trkpt lat="59.9843798" lon="15.8278252">
        <ele>93.8</ele>
        <time>2013-02-18T22:23:03Z</time>
        <extensions><gpxtpx:TrackPointExtension><gpxtpx:hr>143</gpxtpx:hr></gpxtpx:TrackPointExtension></extensions>
      </trkpt>
      <trkpt lat="59.9843633" lon="15.827842">
        <ele>93.8</ele>
        <time>2013-02-18T22:23:08Z</time>
        <extensions><gpxtpx:TrackPointExtension><gpxtpx:hr>143</gpxtpx:hr></gpxtpx:TrackPointExtension></extensions>
      </trkpt>
      <trkpt lat="59.9843558" lon="15.8278395">
        <ele>93.8</ele>
        <time>2013-02-18T22:23:09Z</time>
        <extensions><gpxtpx:TrackPointExtension><gpxtpx:hr>142</gpxtpx:hr></gpxtpx:TrackPointExtension></extensions>
      </trkpt>
      <trkpt lat="59.9843558" lon="15.8278432">
        <ele>93.8</ele>
        <time>2013-02-18T22:23:10Z</time>
        <extensions><gpxtpx:TrackPointExtension><gpxtpx:hr>143</gpxtpx:hr></gpxtpx:TrackPointExtension></extensions>
      </trkpt>
      <trkpt lat="59.9843451" lon="15.827841">
        <ele>93.8</ele>
        <time>2013-02-18T22:23:11Z</time>
        <extensions><gpxtpx:TrackPointExtension><gpxtpx:hr>142</gpxtpx:hr></gpxtpx:TrackPointExtension></extensions>
      </trkpt>
      <trkpt lat="59.9843385" lon="15.8278366">
        <ele>93.8</ele>
        <time>2013-02-18T22:23:12Z</time>
        <extensions><gpxtpx:TrackPointExtension><gpxtpx:hr>143</gpxtpx:hr></gpxtpx:TrackPointExtension></extensions>
      </trkpt>
      <trkpt lat="59.9843428" lon="15.8278329">
        <ele>93.8</ele>
        <time>2013-02-18T22:23:13Z</time>
        <extensions><gpxtpx:TrackPointExtension><gpxtpx:hr>142</gpxtpx:hr></gpxtpx:TrackPointExtension></extensions>
      </trkpt>
      <trkpt lat="59.9843772" lon="15.8278561">
        <ele>93.8</ele>
        <time>2013-02-18T22:23:14Z</time>
        <extensions><gpxtpx:TrackPointExtension><gpxtpx:hr>143</gpxtpx:hr></gpxtpx:TrackPointExtension></extensions>
      </trkpt>
      <trkpt lat="59.98439" lon="15.8278595">
        <ele>93.8</ele>
        <time>2013-02-18T22:23:15Z</time>
        <extensions><gpxtpx:TrackPointExtension><gpxtpx:hr>143</gpxtpx:hr></gpxtpx:TrackPointExtension></extensions>
      </trkpt>
      <trkpt lat="59.9843959" lon="15.8278586">
        <ele>93.8</ele>
        <time>2013-02-18T22:23:16Z</time>
        <extensions><gpxtpx:TrackPointExtension><gpxtpx:hr>143</gpxtpx:hr></gpxtpx:TrackPointExtension></extensions>
      </trkpt>
      <trkpt lat="59.9844051" lon="15.827822">
        <ele>93.8</ele>
        <time>2013-02-18T22:23:17Z</time>
        <extensions><gpxtpx:TrackPointExtension><gpxtpx:hr>143</gpxtpx:hr></gpxtpx:TrackPointExtension></extensions>
      </trkpt>
      <trkpt lat="59.9844103" lon="15.8278152">
        <ele>93.8</ele>
        <time>2013-02-18T22:23:18Z</time>
        <extensions><gpxtpx:TrackPointExtension><gpxtpx:hr>143</gpxtpx:hr></gpxtpx:TrackPointExtension></extensions>
      </trkpt>
      <trkpt lat="59.9844149" lon="15.8278147">
        <ele>93.8</ele>
        <time>2013-02-18T22:23:19Z</time>
        <extensions><gpxtpx:TrackPointExtension><gpxtpx:hr>143</gpxtpx:hr></gpxtpx:TrackPointExtension></extensions>
      </trkpt>
      <trkpt lat="59.9844182" lon="15.827821">
        <ele>93.8</ele>
        <time>2013-02-18T22:23:20Z</time>
        <extensions><gpxtpx:TrackPointExtension><gpxtpx:hr>143</gpxtpx:hr></gpxtpx:TrackPointExtension></extensions>
      </trkpt>
      <trkpt lat="59.9844218" lon="15.8278265">
        <ele>93.8</ele>
        <time>2013-02-18T22:23:21Z</time>
        <extensions><gpxtpx:TrackPointExtension><gpxtpx:hr>143</gpxtpx:hr></gpxtpx:TrackPointExtension></extensions>
      </trkpt>
      <trkpt lat="59.9844206" lon="15.8278244">
        <ele>93.8</ele>
        <time>2013-02-18T22:23:22Z</time>
        <extensions><gpxtpx:TrackPointExtension><gpxtpx:hr>144</gpxtpx:hr></gpxtpx:TrackPointExtension></extensions>
      </trkpt>
      <trkpt lat="59.9844185" lon="15.8278232">
        <ele>93.8</ele>
        <time>2013-02-18T22:23:23Z</time>
        <extensions><gpxtpx:TrackPointExtension><gpxtpx:hr>143</gpxtpx:hr></gpxtpx:TrackPointExtension></extensions>
      </trkpt>
      <trkpt lat="59.9844162" lon="15.8278225">
        <ele>93.8</ele>
        <time>2013-02-18T22:23:24Z</time>
        <extensions><gpxtpx:TrackPointExtension><gpxtpx:hr>143</gpxtpx:hr></gpxtpx:TrackPointExtension></extensions>
      </trkpt>
      <trkpt lat="59.9844129" lon="15.8278205">
        <ele>93.8</ele>
        <time>2013-02-18T22:23:25Z</time>
        <extensions><gpxtpx:TrackPointExtension><gpxtpx:hr>144</gpxtpx:hr></gpxtpx:TrackPointExtension></extensions>
      </trkpt>
      <trkpt lat="59.9844118" lon="15.8278229">
        <ele>93.8</ele>
        <time>2013-02-18T22:23:26Z</time>
        <extensions><gpxtpx:TrackPointExtension><gpxtpx:hr>143</gpxtpx:hr></gpxtpx:TrackPointExtension></extensions>
      </trkpt>
      <trkpt lat="59.9844112" lon="15.8278234">
        <ele>93.8</ele>
        <time>2013-02-18T22:23:27Z</time>
        <extensions><gpxtpx:TrackPointExtension><gpxtpx:hr>143</gpxtpx:hr></gpxtpx:TrackPointExtension></extensions>
      </trkpt>
      <trkpt lat="59.9844118" lon="15.8278244">
        <ele>93.8</ele>
        <time>2013-02-18T22:23:30Z</time>
        <extensions><gpxtpx:TrackPointExtension><gpxtpx:hr>143</gpxtpx:hr></gpxtpx:TrackPointExtension></extensions>
      </trkpt>
      <trkpt lat="59.984411" lon="15.8278181">
        <ele>93.8</ele>
        <time>2013-02-18T22:23:31Z</time>
        <extensions><gpxtpx:TrackPointExtension><gpxtpx:hr>143</gpxtpx:hr></gpxtpx:TrackPointExtension></extensions>
      </trkpt>
      <trkpt lat="59.9844134" lon="15.8278124">
        <ele>93.8</ele>
        <time>2013-02-18T22:23:32Z</time>
        <extensions><gpxtpx:TrackPointExtension><gpxtpx:hr>143</gpxtpx:hr></gpxtpx:TrackPointExtension></extensions>
      </trkpt>
      <trkpt lat="59.9844137" lon="15.8278074">
        <ele>93.8</ele>
        <time>2013-02-18T22:23:33Z</time>
        <extensions><gpxtpx:TrackPointExtension><gpxtpx:hr>143</gpxtpx:hr></gpxtpx:TrackPointExtension></extensions>
      </trkpt>
      <trkpt lat="59.9844136" lon="15.8278009">
        <ele>93.8</ele>
        <time>2013-02-18T22:23:34Z</time>
        <extensions><gpxtpx:TrackPointExtension><gpxtpx:hr>143</gpxtpx:hr></gpxtpx:TrackPointExtension></extensions>
      </trkpt>
      <trkpt lat="59.9844139" lon="15.8277986">
        <ele>93.8</ele>
        <time>2013-02-18T22:23:35Z</time>
        <extensions><gpxtpx:TrackPointExtension><gpxtpx:hr>143</gpxtpx:hr></gpxtpx:TrackPointExtension></extensions>
      </trkpt>
      <trkpt lat="59.9844149" lon="15.8277962">
        <ele>93.8</ele>
        <time>2013-02-18T22:23:36Z</time>
        <extensions><gpxtpx:TrackPointExtension><gpxtpx:hr>144</gpxtpx:hr></gpxtpx:TrackPointExtension></extensions>
      </trkpt>
      <trkpt lat="59.9844147" lon="15.8277961">
        <ele>93.8</ele>
        <time>2013-02-18T22:23:37Z</time>
        <extensions><gpxtpx:TrackPointExtension><gpxtpx:hr>143</gpxtpx:hr></gpxtpx:TrackPointExtension></extensions>
      </trkpt>
      <trkpt lat="59.9844114" lon="15.8277933">
        <ele>93.8</ele>
        <time>2013-02-18T22:23:38Z</time>
        <extensions><gpxtpx:TrackPointExtension><gpxtpx:hr>144</gpxtpx:hr></gpxtpx:TrackPointExtension></extensions>
      </trkpt>
      <trkpt lat="59.98441" lon="15.8277949">
        <ele>93.8</ele>
        <time>2013-02-18T22:23:39Z</time>
        <extensions><gpxtpx:TrackPointExtension><gpxtpx:hr>144</gpxtpx:hr></gpxtpx:TrackPointExtension></extensions>
      </trkpt>
      <trkpt lat="59.9844097" lon="15.8277992">
        <ele>93.8</ele>
        <time>2013-02-18T22:23:40Z</time>
        <extensions><gpxtpx:TrackPointExtension><gpxtpx:hr>144</gpxtpx:hr></gpxtpx:TrackPointExtension></extensions>
      </trkpt>
      <trkpt lat="59.984408" lon="15.8277992">
        <ele>93.8</ele>
        <time>2013-02-18T22:23:41Z</time>
        <extensions><gpxtpx:TrackPointExtension><gpxtpx:hr>144</gpxtpx:hr></gpxtpx:TrackPointExtension></extensions>
      </trkpt>
      <trkpt lat="59.9844072" lon="15.8278053">
        <ele>93.8</ele>
        <time>2013-02-18T22:23:42Z</time>
        <extensions><gpxtpx:TrackPointExtension><gpxtpx:hr>144</gpxtpx:hr></gpxtpx:TrackPointExtension></extensions>
      </trkpt>
      <trkpt lat="59.9844078" lon="15.8278098">
        <ele>93.8</ele>
        <time>2013-02-18T22:23:43Z</time>
        <extensions><gpxtpx:TrackPointExtension><gpxtpx:hr>144</gpxtpx:hr></gpxtpx:TrackPointExtension></extensions>
      </trkpt>
      <trkpt lat="59.9844092" lon="15.8278117">
        <ele>93.8</ele>
        <time>2013-02-18T22:23:44Z</time>
        <extensions><gpxtpx:TrackPointExtension><gpxtpx:hr>144</gpxtpx:hr></gpxtpx:TrackPointExtension></extensions>
      </trkpt>
      <trkpt lat="59.9844119" lon="15.827807">
        <ele>93.8</ele>
        <time>2013-02-18T22:23:45Z</time>
        <extensions><gpxtpx:TrackPointExtension><gpxtpx:hr>144</gpxtpx:hr></gpxtpx:TrackPointExtension></extensions>
      </trkpt>
      <trkpt lat="59.9844433" lon="15.827778">
        <ele>93.8</ele>
        <time>2013-02-18T22:23:46Z</time>
        <extensions><gpxtpx:TrackPointExtension><gpxtpx:hr>145</gpxtpx:hr></gpxtpx:TrackPointExtension></extensions>
      </trkpt>
      <trkpt lat="59.9844444" lon="15.8277576">
        <ele>93.8</ele>
        <time>2013-02-18T22:23:47Z</time>
        <extensions><gpxtpx:TrackPointExtension><gpxtpx:hr>144</gpxtpx:hr></gpxtpx:TrackPointExtension></extensions>
      </trkpt>
      <trkpt lat="59.9844475" lon="15.827748">
        <ele>93.8</ele>
        <time>2013-02-18T22:23:48Z</time>
        <extensions><gpxtpx:TrackPointExtension><gpxtpx:hr>145</gpxtpx:hr></gpxtpx:TrackPointExtension></extensions>
      </trkpt>
      <trkpt lat="59.9844518" lon="15.8277391">
        <ele>93.8</ele>
        <time>2013-02-18T22:23:49Z</time>
        <extensions><gpxtpx:TrackPointExtension><gpxtpx:hr>144</gpxtpx:hr></gpxtpx:TrackPointExtension></extensions>
      </trkpt>
      <trkpt lat="59.9844563" lon="15.8277353">
        <ele>93.8</ele>
        <time>2013-02-18T22:23:50Z</time>
        <extensions><gpxtpx:TrackPointExtension><gpxtpx:hr>145</gpxtpx:hr></gpxtpx:TrackPointExtension></extensions>
      </trkpt>
      <trkpt lat="59.9844591" lon="15.8277368">
        <ele>93.8</ele>
        <time>2013-02-18T22:23:51Z</time>
        <extensions><gpxtpx:TrackPointExtension><gpxtpx:hr>145</gpxtpx:hr></gpxtpx:TrackPointExtension></extensions>
      </trkpt>
      <trkpt lat="59.9844614" lon="15.8277352">
        <ele>93.8</ele>
        <time>2013-02-18T22:23:52Z</time>
        <extensions><gpxtpx:TrackPointExtension><gpxtpx:hr>145</gpxtpx:hr></gpxtpx:TrackPointExtension></extensions>
      </trkpt>
      <trkpt lat="59.9844647" lon="15.8277203">
        <ele>93.8</ele>
        <time>2013-02-18T22:23:54Z</time>
        <extensions><gpxtpx:TrackPointExtension><gpxtpx:hr>144</gpxtpx:hr></gpxtpx:TrackPointExtension></extensions>
      </trkpt>
      <trkpt lat="59.9844517" lon="15.8277341">
        <ele>93.8</ele>
        <time>2013-02-18T22:23:55Z</time>
        <extensions><gpxtpx:TrackPointExtension><gpxtpx:hr>144</gpxtpx:hr></gpxtpx:TrackPointExtension></extensions>
      </trkpt>
      <trkpt lat="59.984441" lon="15.8277149">
        <ele>93.8</ele>
        <time>2013-02-18T22:23:58Z</time>
        <extensions><gpxtpx:TrackPointExtension><gpxtpx:hr>144</gpxtpx:hr></gpxtpx:TrackPointExtension></extensions>
      </trkpt>
      <trkpt lat="59.9844392" lon="15.8277125">
        <ele>93.8</ele>
        <time>2013-02-18T22:23:59Z</time>
        <extensions><gpxtpx:TrackPointExtension><gpxtpx:hr>144</gpxtpx:hr></gpxtpx:TrackPointExtension></extensions>
      </trkpt>
      <trkpt lat="59.9844322" lon="15.8276986">
        <ele>93.8</ele>
        <time>2013-02-18T22:24:07Z</time>
        <extensions><gpxtpx:TrackPointExtension><gpxtpx:hr>144</gpxtpx:hr></gpxtpx:TrackPointExtension></extensions>
      </trkpt>
      <trkpt lat="59.9844254" lon="15.827701">
        <ele>93.8</ele>
        <time>2013-02-18T22:24:09Z</time>
        <extensions><gpxtpx:TrackPointExtension><gpxtpx:hr>144</gpxtpx:hr></gpxtpx:TrackPointExtension></extensions>
      </trkpt>
      <trkpt lat="59.9844248" lon="15.827707">
        <ele>93.8</ele>
        <time>2013-02-18T22:24:10Z</time>
        <extensions><gpxtpx:TrackPointExtension><gpxtpx:hr>144</gpxtpx:hr></gpxtpx:TrackPointExtension></extensions>
      </trkpt>
      <trkpt lat="59.9844248" lon="15.827713">
        <ele>93.8</ele>
        <time>2013-02-18T22:24:11Z</time>
        <extensions><gpxtpx:TrackPointExtension><gpxtpx:hr>143</gpxtpx:hr></gpxtpx:TrackPointExtension></extensions>
      </trkpt>
      <trkpt lat="59.984414" lon="15.8276526">
        <ele>93.8</ele>
        <time>2013-02-18T22:24:12Z</time>
        <extensions><gpxtpx:TrackPointExtension><gpxtpx:hr>144</gpxtpx:hr></gpxtpx:TrackPointExtension></extensions>
      </trkpt>
      <trkpt lat="59.9844182" lon="15.8276525">
        <ele>93.8</ele>
        <time>2013-02-18T22:24:13Z</time>
        <extensions><gpxtpx:TrackPointExtension><gpxtpx:hr>143</gpxtpx:hr></gpxtpx:TrackPointExtension></extensions>
      </trkpt>
      <trkpt lat="59.9844227" lon="15.8276509">
        <ele>93.8</ele>
        <time>2013-02-18T22:24:14Z</time>
        <extensions><gpxtpx:TrackPointExtension><gpxtpx:hr>143</gpxtpx:hr></gpxtpx:TrackPointExtension></extensions>
      </trkpt>
      <trkpt lat="59.9844308" lon="15.8276462">
        <ele>93.8</ele>
        <time>2013-02-18T22:24:15Z</time>
        <extensions><gpxtpx:TrackPointExtension><gpxtpx:hr>143</gpxtpx:hr></gpxtpx:TrackPointExtension></extensions>
      </trkpt>
      <trkpt lat="59.9844398" lon="15.8276513">
        <ele>93.8</ele>
        <time>2013-02-18T22:24:16Z</time>
        <extensions><gpxtpx:TrackPointExtension><gpxtpx:hr>142</gpxtpx:hr></gpxtpx:TrackPointExtension></extensions>
      </trkpt>
      <trkpt lat="59.9844451" lon="15.8276639">
        <ele>93.8</ele>
        <time>2013-02-18T22:24:17Z</time>
        <extensions><gpxtpx:TrackPointExtension><gpxtpx:hr>142</gpxtpx:hr></gpxtpx:TrackPointExtension></extensions>
      </trkpt>
      <trkpt lat="59.9844435" lon="15.8276706">
        <ele>93.8</ele>
        <time>2013-02-18T22:24:18Z</time>
        <extensions><gpxtpx:TrackPointExtension><gpxtpx:hr>142</gpxtpx:hr></gpxtpx:TrackPointExtension></extensions>
      </trkpt>
      <trkpt lat="59.984442" lon="15.8276789">
        <ele>93.8</ele>
        <time>2013-02-18T22:24:19Z</time>
        <extensions><gpxtpx:TrackPointExtension><gpxtpx:hr>142</gpxtpx:hr></gpxtpx:TrackPointExtension></extensions>
      </trkpt>
      <trkpt lat="59.9844479" lon="15.8276896">
        <ele>93.8</ele>
        <time>2013-02-18T22:24:23Z</time>
        <extensions><gpxtpx:TrackPointExtension><gpxtpx:hr>141</gpxtpx:hr></gpxtpx:TrackPointExtension></extensions>
      </trkpt>
      <trkpt lat="59.9844478" lon="15.8276948">
        <ele>93.8</ele>
        <time>2013-02-18T22:24:24Z</time>
        <extensions><gpxtpx:TrackPointExtension><gpxtpx:hr>141</gpxtpx:hr></gpxtpx:TrackPointExtension></extensions>
      </trkpt>
      <trkpt lat="59.9844226" lon="15.8277043">
        <ele>93.8</ele>
        <time>2013-02-18T22:24:25Z</time>
        <extensions><gpxtpx:TrackPointExtension><gpxtpx:hr>141</gpxtpx:hr></gpxtpx:TrackPointExtension></extensions>
      </trkpt>
      <trkpt lat="59.984424" lon="15.8277162">
        <ele>93.8</ele>
        <time>2013-02-18T22:24:26Z</time>
        <extensions><gpxtpx:TrackPointExtension><gpxtpx:hr>141</gpxtpx:hr></gpxtpx:TrackPointExtension></extensions>
      </trkpt>
      <trkpt lat="59.984421" lon="15.8277272">
        <ele>93.8</ele>
        <time>2013-02-18T22:24:27Z</time>
        <extensions><gpxtpx:TrackPointExtension><gpxtpx:hr>141</gpxtpx:hr></gpxtpx:TrackPointExtension></extensions>
      </trkpt>
      <trkpt lat="59.98442" lon="15.8277397">
        <ele>93.8</ele>
        <time>2013-02-18T22:24:28Z</time>
        <extensions><gpxtpx:TrackPointExtension><gpxtpx:hr>141</gpxtpx:hr></gpxtpx:TrackPointExtension></extensions>
      </trkpt>
      <trkpt lat="59.9844077" lon="15.8277563">
        <ele>93.8</ele>
        <time>2013-02-18T22:24:29Z</time>
        <extensions><gpxtpx:TrackPointExtension><gpxtpx:hr>141</gpxtpx:hr></gpxtpx:TrackPointExtension></extensions>
      </trkpt>
      <trkpt lat="59.9843876" lon="15.827791">
        <ele>93.8</ele>
        <time>2013-02-18T22:24:30Z</time>
        <extensions><gpxtpx:TrackPointExtension><gpxtpx:hr>141</gpxtpx:hr></gpxtpx:TrackPointExtension></extensions>
      </trkpt>
      <trkpt lat="59.9843618" lon="15.827826">
        <ele>93.8</ele>
        <time>2013-02-18T22:24:31Z</time>
        <extensions><gpxtpx:TrackPointExtension><gpxtpx:hr>140</gpxtpx:hr></gpxtpx:TrackPointExtension></extensions>
      </trkpt>
      <trkpt lat="59.9843459" lon="15.8278517">
        <ele>93.8</ele>
        <time>2013-02-18T22:24:32Z</time>
        <extensions><gpxtpx:TrackPointExtension><gpxtpx:hr>140</gpxtpx:hr></gpxtpx:TrackPointExtension></extensions>
      </trkpt>
      <trkpt lat="59.9843206" lon="15.8278888">
        <ele>93.8</ele>
        <time>2013-02-18T22:24:33Z</time>
        <extensions><gpxtpx:TrackPointExtension><gpxtpx:hr>141</gpxtpx:hr></gpxtpx:TrackPointExtension></extensions>
      </trkpt>
      <trkpt lat="59.984312" lon="15.8279089">
        <ele>93.8</ele>
        <time>2013-02-18T22:24:34Z</time>
        <extensions><gpxtpx:TrackPointExtension><gpxtpx:hr>141</gpxtpx:hr></gpxtpx:TrackPointExtension></extensions>
      </trkpt>
      <trkpt lat="59.9843039" lon="15.8279251">
        <ele>93.8</ele>
        <time>2013-02-18T22:24:35Z</time>
        <extensions><gpxtpx:TrackPointExtension><gpxtpx:hr>141</gpxtpx:hr></gpxtpx:TrackPointExtension></extensions>
      </trkpt>
      <trkpt lat="59.9843115" lon="15.8279194">
        <ele>93.8</ele>
        <time>2013-02-18T22:24:36Z</time>
        <extensions><gpxtpx:TrackPointExtension><gpxtpx:hr>142</gpxtpx:hr></gpxtpx:TrackPointExtension></extensions>
      </trkpt>
      <trkpt lat="59.9843158" lon="15.8279203">
        <ele>93.8</ele>
        <time>2013-02-18T22:24:37Z</time>
        <extensions><gpxtpx:TrackPointExtension><gpxtpx:hr>142</gpxtpx:hr></gpxtpx:TrackPointExtension></extensions>
      </trkpt>
      <trkpt lat="59.9843237" lon="15.8279123">
        <ele>93.8</ele>
        <time>2013-02-18T22:24:38Z</time>
        <extensions><gpxtpx:TrackPointExtension><gpxtpx:hr>142</gpxtpx:hr></gpxtpx:TrackPointExtension></extensions>
      </trkpt>
      <trkpt lat="59.9843279" lon="15.8279145">
        <ele>93.8</ele>
        <time>2013-02-18T22:24:39Z</time>
        <extensions><gpxtpx:TrackPointExtension><gpxtpx:hr>142</gpxtpx:hr></gpxtpx:TrackPointExtension></extensions>
      </trkpt>
      <trkpt lat="59.9843286" lon="15.8279146">
        <ele>93.8</ele>
        <time>2013-02-18T22:24:40Z</time>
        <extensions><gpxtpx:TrackPointExtension><gpxtpx:hr>142</gpxtpx:hr></gpxtpx:TrackPointExtension></extensions>
      </trkpt>
      <trkpt lat="59.984327" lon="15.8279165">
        <ele>93.8</ele>
        <time>2013-02-18T22:24:41Z</time>
        <extensions><gpxtpx:TrackPointExtension><gpxtpx:hr>143</gpxtpx:hr></gpxtpx:TrackPointExtension></extensions>
      </trkpt>
      <trkpt lat="59.9843192" lon="15.8278581">
        <ele>93.8</ele>
        <time>2013-02-18T22:24:45Z</time>
        <extensions><gpxtpx:TrackPointExtension><gpxtpx:hr>143</gpxtpx:hr></gpxtpx:TrackPointExtension></extensions>
      </trkpt>
      <trkpt lat="59.9843156" lon="15.82787">
        <ele>93.8</ele>
        <time>2013-02-18T22:24:46Z</time>
        <extensions><gpxtpx:TrackPointExtension><gpxtpx:hr>142</gpxtpx:hr></gpxtpx:TrackPointExtension></extensions>
      </trkpt>
      <trkpt lat="59.9843076" lon="15.827886">
        <ele>93.8</ele>
        <time>2013-02-18T22:24:47Z</time>
        <extensions><gpxtpx:TrackPointExtension><gpxtpx:hr>143</gpxtpx:hr></gpxtpx:TrackPointExtension></extensions>
      </trkpt>
      <trkpt lat="59.9842897" lon="15.8279054">
        <ele>93.8</ele>
        <time>2013-02-18T22:24:49Z</time>
        <extensions><gpxtpx:TrackPointExtension><gpxtpx:hr>142</gpxtpx:hr></gpxtpx:TrackPointExtension></extensions>
      </trkpt>
      <trkpt lat="59.9842824" lon="15.8279069">
        <ele>93.8</ele>
        <time>2013-02-18T22:24:50Z</time>
        <extensions><gpxtpx:TrackPointExtension><gpxtpx:hr>142</gpxtpx:hr></gpxtpx:TrackPointExtension></extensions>
      </trkpt>
      <trkpt lat="59.9842809" lon="15.8279529">
        <ele>93.8</ele>
        <time>2013-02-18T22:24:51Z</time>
        <extensions><gpxtpx:TrackPointExtension><gpxtpx:hr>142</gpxtpx:hr></gpxtpx:TrackPointExtension></extensions>
      </trkpt>
      <trkpt lat="59.9842816" lon="15.8280029">
        <ele>93.8</ele>
        <time>2013-02-18T22:24:52Z</time>
        <extensions><gpxtpx:TrackPointExtension><gpxtpx:hr>142</gpxtpx:hr></gpxtpx:TrackPointExtension></extensions>
      </trkpt>
      <trkpt lat="59.9842931" lon="15.8281772">
        <ele>93.8</ele>
        <time>2013-02-18T22:24:56Z</time>
        <extensions><gpxtpx:TrackPointExtension><gpxtpx:hr>142</gpxtpx:hr></gpxtpx:TrackPointExtension></extensions>
      </trkpt>
      <trkpt lat="59.9843004" lon="15.828206">
        <ele>93.8</ele>
        <time>2013-02-18T22:24:57Z</time>
        <extensions><gpxtpx:TrackPointExtension><gpxtpx:hr>141</gpxtpx:hr></gpxtpx:TrackPointExtension></extensions>
      </trkpt>
      <trkpt lat="59.9843034" lon="15.8282269">
        <ele>93.8</ele>
        <time>2013-02-18T22:24:58Z</time>
        <extensions><gpxtpx:TrackPointExtension><gpxtpx:hr>141</gpxtpx:hr></gpxtpx:TrackPointExtension></extensions>
      </trkpt>
      <trkpt lat="59.9843098" lon="15.8282549">
        <ele>93.8</ele>
        <time>2013-02-18T22:24:59Z</time>
        <extensions><gpxtpx:TrackPointExtension><gpxtpx:hr>141</gpxtpx:hr></gpxtpx:TrackPointExtension></extensions>
      </trkpt>
      <trkpt lat="59.9843099" lon="15.828277">
        <ele>93.8</ele>
        <time>2013-02-18T22:25:00Z</time>
        <extensions><gpxtpx:TrackPointExtension><gpxtpx:hr>141</gpxtpx:hr></gpxtpx:TrackPointExtension></extensions>
      </trkpt>
      <trkpt lat="59.9842996" lon="15.8282518">
        <ele>93.8</ele>
        <time>2013-02-18T22:25:02Z</time>
        <extensions><gpxtpx:TrackPointExtension><gpxtpx:hr>142</gpxtpx:hr></gpxtpx:TrackPointExtension></extensions>
      </trkpt>
      <trkpt lat="59.9842896" lon="15.8280975">
        <ele>93.8</ele>
        <time>2013-02-18T22:25:03Z</time>
        <extensions><gpxtpx:TrackPointExtension><gpxtpx:hr>142</gpxtpx:hr></gpxtpx:TrackPointExtension></extensions>
      </trkpt>
      <trkpt lat="59.9842848" lon="15.8280672">
        <ele>93.8</ele>
        <time>2013-02-18T22:25:04Z</time>
        <extensions><gpxtpx:TrackPointExtension><gpxtpx:hr>142</gpxtpx:hr></gpxtpx:TrackPointExtension></extensions>
      </trkpt>
      <trkpt lat="59.9842801" lon="15.8280509">
        <ele>93.8</ele>
        <time>2013-02-18T22:25:05Z</time>
        <extensions><gpxtpx:TrackPointExtension><gpxtpx:hr>142</gpxtpx:hr></gpxtpx:TrackPointExtension></extensions>
      </trkpt>
      <trkpt lat="59.9842817" lon="15.8280421">
        <ele>93.8</ele>
        <time>2013-02-18T22:25:06Z</time>
        <extensions><gpxtpx:TrackPointExtension><gpxtpx:hr>142</gpxtpx:hr></gpxtpx:TrackPointExtension></extensions>
      </trkpt>
      <trkpt lat="59.9842825" lon="15.8280347">
        <ele>93.8</ele>
        <time>2013-02-18T22:25:07Z</time>
        <extensions><gpxtpx:TrackPointExtension><gpxtpx:hr>142</gpxtpx:hr></gpxtpx:TrackPointExtension></extensions>
      </trkpt>
      <trkpt lat="59.9842714" lon="15.8280534">
        <ele>93.8</ele>
        <time>2013-02-18T22:25:08Z</time>
        <extensions><gpxtpx:TrackPointExtension><gpxtpx:hr>142</gpxtpx:hr></gpxtpx:TrackPointExtension></extensions>
      </trkpt>
      <trkpt lat="59.9842715" lon="15.8280336">
        <ele>93.8</ele>
        <time>2013-02-18T22:25:09Z</time>
        <extensions><gpxtpx:TrackPointExtension><gpxtpx:hr>141</gpxtpx:hr></gpxtpx:TrackPointExtension></extensions>
      </trkpt>
      <trkpt lat="59.9842739" lon="15.8279906">
        <ele>93.8</ele>
        <time>2013-02-18T22:25:10Z</time>
        <extensions><gpxtpx:TrackPointExtension><gpxtpx:hr>141</gpxtpx:hr></gpxtpx:TrackPointExtension></extensions>
      </trkpt>
      <trkpt lat="59.9842792" lon="15.8279444">
        <ele>93.8</ele>
        <time>2013-02-18T22:25:11Z</time>
        <extensions><gpxtpx:TrackPointExtension><gpxtpx:hr>141</gpxtpx:hr></gpxtpx:TrackPointExtension></extensions>
      </trkpt>
      <trkpt lat="59.9842785" lon="15.8279446">
        <ele>93.8</ele>
        <time>2013-02-18T22:25:12Z</time>
        <extensions><gpxtpx:TrackPointExtension><gpxtpx:hr>141</gpxtpx:hr></gpxtpx:TrackPointExtension></extensions>
      </trkpt>
      <trkpt lat="59.9842846" lon="15.8279447">
        <ele>93.8</ele>
        <time>2013-02-18T22:25:13Z</time>
        <extensions><gpxtpx:TrackPointExtension><gpxtpx:hr>141</gpxtpx:hr></gpxtpx:TrackPointExtension></extensions>
      </trkpt>
      <trkpt lat="59.9842942" lon="15.8280688">
        <ele>93.8</ele>
        <time>2013-02-18T22:25:16Z</time>
        <extensions><gpxtpx:TrackPointExtension><gpxtpx:hr>141</gpxtpx:hr></gpxtpx:TrackPointExtension></extensions>
      </trkpt>
      <trkpt lat="59.9842656" lon="15.8283893">
        <ele>93.8</ele>
        <time>2013-02-18T22:25:21Z</time>
        <extensions><gpxtpx:TrackPointExtension><gpxtpx:hr>140</gpxtpx:hr></gpxtpx:TrackPointExtension></extensions>
      </trkpt>
      <trkpt lat="59.9842443" lon="15.8283804">
        <ele>93.8</ele>
        <time>2013-02-18T22:25:23Z</time>
        <extensions><gpxtpx:TrackPointExtension><gpxtpx:hr>140</gpxtpx:hr></gpxtpx:TrackPointExtension></extensions>
      </trkpt>
      <trkpt lat="59.9842431" lon="15.8283461">
        <ele>93.8</ele>
        <time>2013-02-18T22:25:24Z</time>
        <extensions><gpxtpx:TrackPointExtension><gpxtpx:hr>140</gpxtpx:hr></gpxtpx:TrackPointExtension></extensions>
      </trkpt>
      <trkpt lat="59.9842308" lon="15.8283141">
        <ele>93.8</ele>
        <time>2013-02-18T22:25:25Z</time>
        <extensions><gpxtpx:TrackPointExtension><gpxtpx:hr>140</gpxtpx:hr></gpxtpx:TrackPointExtension></extensions>
      </trkpt>
      <trkpt lat="59.9842265" lon="15.8282758">
        <ele>93.8</ele>
        <time>2013-02-18T22:25:26Z</time>
        <extensions><gpxtpx:TrackPointExtension><gpxtpx:hr>140</gpxtpx:hr></gpxtpx:TrackPointExtension></extensions>
      </trkpt>
      <trkpt lat="59.9842215" lon="15.8282326">
        <ele>93.8</ele>
        <time>2013-02-18T22:25:27Z</time>
        <extensions><gpxtpx:TrackPointExtension><gpxtpx:hr>139</gpxtpx:hr></gpxtpx:TrackPointExtension></extensions>
      </trkpt>
      <trkpt lat="59.9842199" lon="15.8281818">
        <ele>93.8</ele>
        <time>2013-02-18T22:25:28Z</time>
        <extensions><gpxtpx:TrackPointExtension><gpxtpx:hr>140</gpxtpx:hr></gpxtpx:TrackPointExtension></extensions>
      </trkpt>
      <trkpt lat="59.9842125" lon="15.828142">
        <ele>93.8</ele>
        <time>2013-02-18T22:25:29Z</time>
        <extensions><gpxtpx:TrackPointExtension><gpxtpx:hr>140</gpxtpx:hr></gpxtpx:TrackPointExtension></extensions>
      </trkpt>
      <trkpt lat="59.9842193" lon="15.8280225">
        <ele>93.8</ele>
        <time>2013-02-18T22:25:31Z</time>
        <extensions><gpxtpx:TrackPointExtension><gpxtpx:hr>139</gpxtpx:hr></gpxtpx:TrackPointExtension></extensions>
      </trkpt>
      <trkpt lat="59.9842122" lon="15.8280142">
        <ele>93.8</ele>
        <time>2013-02-18T22:25:32Z</time>
        <extensions><gpxtpx:TrackPointExtension><gpxtpx:hr>140</gpxtpx:hr></gpxtpx:TrackPointExtension></extensions>
      </trkpt>
      <trkpt lat="59.9842032" lon="15.8279499">
        <ele>93.8</ele>
        <time>2013-02-18T22:25:33Z</time>
        <extensions><gpxtpx:TrackPointExtension><gpxtpx:hr>140</gpxtpx:hr></gpxtpx:TrackPointExtension></extensions>
      </trkpt>
      <trkpt lat="59.9842046" lon="15.8278842">
        <ele>93.8</ele>
        <time>2013-02-18T22:25:34Z</time>
        <extensions><gpxtpx:TrackPointExtension><gpxtpx:hr>140</gpxtpx:hr></gpxtpx:TrackPointExtension></extensions>
      </trkpt>
      <trkpt lat="59.9842105" lon="15.8278294">
        <ele>93.8</ele>
        <time>2013-02-18T22:25:35Z</time>
        <extensions><gpxtpx:TrackPointExtension><gpxtpx:hr>139</gpxtpx:hr></gpxtpx:TrackPointExtension></extensions>
      </trkpt>
      <trkpt lat="59.9842193" lon="15.8277827">
        <ele>93.8</ele>
        <time>2013-02-18T22:25:38Z</time>
        <extensions><gpxtpx:TrackPointExtension><gpxtpx:hr>140</gpxtpx:hr></gpxtpx:TrackPointExtension></extensions>
      </trkpt>
      <trkpt lat="59.9842174" lon="15.8277678">
        <ele>93.8</ele>
        <time>2013-02-18T22:25:39Z</time>
        <extensions><gpxtpx:TrackPointExtension><gpxtpx:hr>140</gpxtpx:hr></gpxtpx:TrackPointExtension></extensions>
      </trkpt>
      <trkpt lat="59.984229" lon="15.8277761">
        <ele>93.8</ele>
        <time>2013-02-18T22:25:42Z</time>
        <extensions><gpxtpx:TrackPointExtension><gpxtpx:hr>140</gpxtpx:hr></gpxtpx:TrackPointExtension></extensions>
      </trkpt>
      <trkpt lat="59.9842638" lon="15.8276875">
        <ele>93.8</ele>
        <time>2013-02-18T22:25:43Z</time>
        <extensions><gpxtpx:TrackPointExtension><gpxtpx:hr>141</gpxtpx:hr></gpxtpx:TrackPointExtension></extensions>
      </trkpt>
      <trkpt lat="59.9842626" lon="15.8276781">
        <ele>93.8</ele>
        <time>2013-02-18T22:25:44Z</time>
        <extensions><gpxtpx:TrackPointExtension><gpxtpx:hr>141</gpxtpx:hr></gpxtpx:TrackPointExtension></extensions>
      </trkpt>
      <trkpt lat="59.9842625" lon="15.8276758">
        <ele>93.8</ele>
        <time>2013-02-18T22:25:45Z</time>
        <extensions><gpxtpx:TrackPointExtension><gpxtpx:hr>141</gpxtpx:hr></gpxtpx:TrackPointExtension></extensions>
      </trkpt>
      <trkpt lat="59.9842617" lon="15.8276685">
        <ele>93.8</ele>
        <time>2013-02-18T22:25:46Z</time>
        <extensions><gpxtpx:TrackPointExtension><gpxtpx:hr>141</gpxtpx:hr></gpxtpx:TrackPointExtension></extensions>
      </trkpt>
      <trkpt lat="59.9842602" lon="15.8276606">
        <ele>93.8</ele>
        <time>2013-02-18T22:25:47Z</time>
        <extensions><gpxtpx:TrackPointExtension><gpxtpx:hr>142</gpxtpx:hr></gpxtpx:TrackPointExtension></extensions>
      </trkpt>
      <trkpt lat="59.9842584" lon="15.8276543">
        <ele>93.8</ele>
        <time>2013-02-18T22:25:48Z</time>
        <extensions><gpxtpx:TrackPointExtension><gpxtpx:hr>142</gpxtpx:hr></gpxtpx:TrackPointExtension></extensions>
      </trkpt>
      <trkpt lat="59.9842638" lon="15.8276545">
        <ele>93.8</ele>
        <time>2013-02-18T22:25:49Z</time>
        <extensions><gpxtpx:TrackPointExtension><gpxtpx:hr>142</gpxtpx:hr></gpxtpx:TrackPointExtension></extensions>
      </trkpt>
      <trkpt lat="59.9843306" lon="15.8276186">
        <ele>93.8</ele>
        <time>2013-02-18T22:25:50Z</time>
        <extensions><gpxtpx:TrackPointExtension><gpxtpx:hr>142</gpxtpx:hr></gpxtpx:TrackPointExtension></extensions>
      </trkpt>
      <trkpt lat="59.9843369" lon="15.8275919">
        <ele>93.8</ele>
        <time>2013-02-18T22:25:51Z</time>
        <extensions><gpxtpx:TrackPointExtension><gpxtpx:hr>142</gpxtpx:hr></gpxtpx:TrackPointExtension></extensions>
      </trkpt>
      <trkpt lat="59.9843403" lon="15.8275856">
        <ele>93.8</ele>
        <time>2013-02-18T22:25:52Z</time>
        <extensions><gpxtpx:TrackPointExtension><gpxtpx:hr>143</gpxtpx:hr></gpxtpx:TrackPointExtension></extensions>
      </trkpt>
      <trkpt lat="59.9843477" lon="15.8275605">
        <ele>93.8</ele>
        <time>2013-02-18T22:25:53Z</time>
        <extensions><gpxtpx:TrackPointExtension><gpxtpx:hr>143</gpxtpx:hr></gpxtpx:TrackPointExtension></extensions>
      </trkpt>
      <trkpt lat="59.9843479" lon="15.8275597">
        <ele>93.8</ele>
        <time>2013-02-18T22:25:54Z</time>
        <extensions><gpxtpx:TrackPointExtension><gpxtpx:hr>142</gpxtpx:hr></gpxtpx:TrackPointExtension></extensions>
      </trkpt>
      <trkpt lat="59.9843475" lon="15.8275531">
        <ele>93.8</ele>
        <time>2013-02-18T22:25:55Z</time>
        <extensions><gpxtpx:TrackPointExtension><gpxtpx:hr>143</gpxtpx:hr></gpxtpx:TrackPointExtension></extensions>
      </trkpt>
      <trkpt lat="59.9843482" lon="15.8275449">
        <ele>93.8</ele>
        <time>2013-02-18T22:25:56Z</time>
        <extensions><gpxtpx:TrackPointExtension><gpxtpx:hr>142</gpxtpx:hr></gpxtpx:TrackPointExtension></extensions>
      </trkpt>
      <trkpt lat="59.984351" lon="15.8275392">
        <ele>93.8</ele>
        <time>2013-02-18T22:25:57Z</time>
        <extensions><gpxtpx:TrackPointExtension><gpxtpx:hr>142</gpxtpx:hr></gpxtpx:TrackPointExtension></extensions>
      </trkpt>
      <trkpt lat="59.9843519" lon="15.8275306">
        <ele>93.8</ele>
        <time>2013-02-18T22:25:58Z</time>
        <extensions><gpxtpx:TrackPointExtension><gpxtpx:hr>142</gpxtpx:hr></gpxtpx:TrackPointExtension></extensions>
      </trkpt>
      <trkpt lat="59.9843507" lon="15.8275274">
        <ele>93.8</ele>
        <time>2013-02-18T22:25:59Z</time>
        <extensions><gpxtpx:TrackPointExtension><gpxtpx:hr>142</gpxtpx:hr></gpxtpx:TrackPointExtension></extensions>
      </trkpt>
      <trkpt lat="59.9843488" lon="15.8275259">
        <ele>93.8</ele>
        <time>2013-02-18T22:26:00Z</time>
        <extensions><gpxtpx:TrackPointExtension><gpxtpx:hr>142</gpxtpx:hr></gpxtpx:TrackPointExtension></extensions>
      </trkpt>
      <trkpt lat="59.9843425" lon="15.8275303">
        <ele>93.8</ele>
        <time>2013-02-18T22:26:02Z</time>
        <extensions><gpxtpx:TrackPointExtension><gpxtpx:hr>141</gpxtpx:hr></gpxtpx:TrackPointExtension></extensions>
      </trkpt>
      <trkpt lat="59.9843618" lon="15.8276336">
        <ele>93.8</ele>
        <time>2013-02-18T22:26:03Z</time>
        <extensions><gpxtpx:TrackPointExtension><gpxtpx:hr>141</gpxtpx:hr></gpxtpx:TrackPointExtension></extensions>
      </trkpt>
      <trkpt lat="59.9843638" lon="15.8276481">
        <ele>93.8</ele>
        <time>2013-02-18T22:26:04Z</time>
        <extensions><gpxtpx:TrackPointExtension><gpxtpx:hr>141</gpxtpx:hr></gpxtpx:TrackPointExtension></extensions>
      </trkpt>
      <trkpt lat="59.9843633" lon="15.8276576">
        <ele>93.8</ele>
        <time>2013-02-18T22:26:05Z</time>
        <extensions><gpxtpx:TrackPointExtension><gpxtpx:hr>141</gpxtpx:hr></gpxtpx:TrackPointExtension></extensions>
      </trkpt>
      <trkpt lat="59.9843616" lon="15.8276519">
        <ele>93.8</ele>
        <time>2013-02-18T22:26:06Z</time>
        <extensions><gpxtpx:TrackPointExtension><gpxtpx:hr>141</gpxtpx:hr></gpxtpx:TrackPointExtension></extensions>
      </trkpt>
      <trkpt lat="59.9843716" lon="15.8276069">
        <ele>93.8</ele>
        <time>2013-02-18T22:26:07Z</time>
        <extensions><gpxtpx:TrackPointExtension><gpxtpx:hr>141</gpxtpx:hr></gpxtpx:TrackPointExtension></extensions>
      </trkpt>
      <trkpt lat="59.9843816" lon="15.8275749">
        <ele>93.8</ele>
        <time>2013-02-18T22:26:08Z</time>
        <extensions><gpxtpx:TrackPointExtension><gpxtpx:hr>141</gpxtpx:hr></gpxtpx:TrackPointExtension></extensions>
      </trkpt>
      <trkpt lat="59.9843972" lon="15.8275394">
        <ele>93.8</ele>
        <time>2013-02-18T22:26:09Z</time>
        <extensions><gpxtpx:TrackPointExtension><gpxtpx:hr>141</gpxtpx:hr></gpxtpx:TrackPointExtension></extensions>
      </trkpt>
      <trkpt lat="59.984421" lon="15.8274961">
        <ele>93.8</ele>
        <time>2013-02-18T22:26:11Z</time>
        <extensions><gpxtpx:TrackPointExtension><gpxtpx:hr>141</gpxtpx:hr></gpxtpx:TrackPointExtension></extensions>
      </trkpt>
      <trkpt lat="59.984426" lon="15.8274895">
        <ele>93.8</ele>
        <time>2013-02-18T22:26:12Z</time>
        <extensions><gpxtpx:TrackPointExtension><gpxtpx:hr>141</gpxtpx:hr></gpxtpx:TrackPointExtension></extensions>
      </trkpt>
      <trkpt lat="59.9844425" lon="15.8274555">
        <ele>93.8</ele>
        <time>2013-02-18T22:26:13Z</time>
        <extensions><gpxtpx:TrackPointExtension><gpxtpx:hr>141</gpxtpx:hr></gpxtpx:TrackPointExtension></extensions>
      </trkpt>
      <trkpt lat="59.9844518" lon="15.8274463">
        <ele>93.8</ele>
        <time>2013-02-18T22:26:14Z</time>
        <extensions><gpxtpx:TrackPointExtension><gpxtpx:hr>141</gpxtpx:hr></gpxtpx:TrackPointExtension></extensions>
      </trkpt>
      <trkpt lat="59.9844623" lon="15.8274467">
        <ele>93.8</ele>
        <time>2013-02-18T22:26:15Z</time>
        <extensions><gpxtpx:TrackPointExtension><gpxtpx:hr>141</gpxtpx:hr></gpxtpx:TrackPointExtension></extensions>
      </trkpt>
      <trkpt lat="59.9844628" lon="15.8274455">
        <ele>93.8</ele>
        <time>2013-02-18T22:26:19Z</time>
        <extensions><gpxtpx:TrackPointExtension><gpxtpx:hr>141</gpxtpx:hr></gpxtpx:TrackPointExtension></extensions>
      </trkpt>
      <trkpt lat="59.9844581" lon="15.827457">
        <ele>93.8</ele>
        <time>2013-02-18T22:26:20Z</time>
        <extensions><gpxtpx:TrackPointExtension><gpxtpx:hr>141</gpxtpx:hr></gpxtpx:TrackPointExtension></extensions>
      </trkpt>
      <trkpt lat="59.9844607" lon="15.8274539">
        <ele>93.8</ele>
        <time>2013-02-18T22:26:21Z</time>
        <extensions><gpxtpx:TrackPointExtension><gpxtpx:hr>141</gpxtpx:hr></gpxtpx:TrackPointExtension></extensions>
      </trkpt>
      <trkpt lat="59.9844628" lon="15.8274571">
        <ele>93.8</ele>
        <time>2013-02-18T22:26:22Z</time>
        <extensions><gpxtpx:TrackPointExtension><gpxtpx:hr>141</gpxtpx:hr></gpxtpx:TrackPointExtension></extensions>
      </trkpt>
      <trkpt lat="59.9844644" lon="15.8274588">
        <ele>93.8</ele>
        <time>2013-02-18T22:26:23Z</time>
        <extensions><gpxtpx:TrackPointExtension><gpxtpx:hr>141</gpxtpx:hr></gpxtpx:TrackPointExtension></extensions>
      </trkpt>
      <trkpt lat="59.9844662" lon="15.8274592">
        <ele>93.8</ele>
        <time>2013-02-18T22:26:24Z</time>
        <extensions><gpxtpx:TrackPointExtension><gpxtpx:hr>141</gpxtpx:hr></gpxtpx:TrackPointExtension></extensions>
      </trkpt>
      <trkpt lat="59.9844696" lon="15.8274596">
        <ele>93.8</ele>
        <time>2013-02-18T22:26:26Z</time>
        <extensions><gpxtpx:TrackPointExtension><gpxtpx:hr>141</gpxtpx:hr></gpxtpx:TrackPointExtension></extensions>
      </trkpt>
      <trkpt lat="59.9844608" lon="15.8275081">
        <ele>93.8</ele>
        <time>2013-02-18T22:26:28Z</time>
        <extensions><gpxtpx:TrackPointExtension><gpxtpx:hr>141</gpxtpx:hr></gpxtpx:TrackPointExtension></extensions>
      </trkpt>
      <trkpt lat="59.9844522" lon="15.8275091">
        <ele>93.8</ele>
        <time>2013-02-18T22:26:32Z</time>
        <extensions><gpxtpx:TrackPointExtension><gpxtpx:hr>141</gpxtpx:hr></gpxtpx:TrackPointExtension></extensions>
      </trkpt>
      <trkpt lat="59.9844504" lon="15.8275185">
        <ele>93.8</ele>
        <time>2013-02-18T22:26:35Z</time>
        <extensions><gpxtpx:TrackPointExtension><gpxtpx:hr>141</gpxtpx:hr></gpxtpx:TrackPointExtension></extensions>
      </trkpt>
      <trkpt lat="59.9844473" lon="15.8275493">
        <ele>93.8</ele>
        <time>2013-02-18T22:26:36Z</time>
        <extensions><gpxtpx:TrackPointExtension><gpxtpx:hr>140</gpxtpx:hr></gpxtpx:TrackPointExtension></extensions>
      </trkpt>
      <trkpt lat="59.9844454" lon="15.827558">
        <ele>93.8</ele>
        <time>2013-02-18T22:26:38Z</time>
        <extensions><gpxtpx:TrackPointExtension><gpxtpx:hr>140</gpxtpx:hr></gpxtpx:TrackPointExtension></extensions>
      </trkpt>
      <trkpt lat="59.9844591" lon="15.82753">
        <ele>93.8</ele>
        <time>2013-02-18T22:26:40Z</time>
        <extensions><gpxtpx:TrackPointExtension><gpxtpx:hr>140</gpxtpx:hr></gpxtpx:TrackPointExtension></extensions>
      </trkpt>
      <trkpt lat="59.9844617" lon="15.8275134">
        <ele>93.8</ele>
        <time>2013-02-18T22:26:41Z</time>
        <extensions><gpxtpx:TrackPointExtension><gpxtpx:hr>139</gpxtpx:hr></gpxtpx:TrackPointExtension></extensions>
      </trkpt>
      <trkpt lat="59.9844656" lon="15.8275059">
        <ele>93.8</ele>
        <time>2013-02-18T22:26:42Z</time>
        <extensions><gpxtpx:TrackPointExtension><gpxtpx:hr>139</gpxtpx:hr></gpxtpx:TrackPointExtension></extensions>
      </trkpt>
      <trkpt lat="59.984472" lon="15.827497">
        <ele>93.8</ele>
        <time>2013-02-18T22:26:43Z</time>
        <extensions><gpxtpx:TrackPointExtension><gpxtpx:hr>139</gpxtpx:hr></gpxtpx:TrackPointExtension></extensions>
      </trkpt>
      <trkpt lat="59.9844746" lon="15.8274938">
        <ele>93.8</ele>
        <time>2013-02-18T22:26:44Z</time>
        <extensions><gpxtpx:TrackPointExtension><gpxtpx:hr>139</gpxtpx:hr></gpxtpx:TrackPointExtension></extensions>
      </trkpt>
      <trkpt lat="59.984484" lon="15.8274864">
        <ele>93.8</ele>
        <time>2013-02-18T22:26:45Z</time>
        <extensions><gpxtpx:TrackPointExtension><gpxtpx:hr>139</gpxtpx:hr></gpxtpx:TrackPointExtension></extensions>
      </trkpt>
      <trkpt lat="59.9844876" lon="15.8274836">
        <ele>93.8</ele>
        <time>2013-02-18T22:26:46Z</time>
        <extensions><gpxtpx:TrackPointExtension><gpxtpx:hr>139</gpxtpx:hr></gpxtpx:TrackPointExtension></extensions>
      </trkpt>
      <trkpt lat="59.9844875" lon="15.8274807">
        <ele>93.8</ele>
        <time>2013-02-18T22:26:47Z</time>
        <extensions><gpxtpx:TrackPointExtension><gpxtpx:hr>139</gpxtpx:hr></gpxtpx:TrackPointExtension></extensions>
      </trkpt>
      <trkpt lat="59.9844859" lon="15.8274766">
        <ele>93.8</ele>
        <time>2013-02-18T22:26:48Z</time>
        <extensions><gpxtpx:TrackPointExtension><gpxtpx:hr>140</gpxtpx:hr></gpxtpx:TrackPointExtension></extensions>
      </trkpt>
      <trkpt lat="59.984484" lon="15.8274741">
        <ele>93.8</ele>
        <time>2013-02-18T22:26:49Z</time>
        <extensions><gpxtpx:TrackPointExtension><gpxtpx:hr>140</gpxtpx:hr></gpxtpx:TrackPointExtension></extensions>
      </trkpt>
      <trkpt lat="59.9844835" lon="15.8274685">
        <ele>93.8</ele>
        <time>2013-02-18T22:26:50Z</time>
        <extensions><gpxtpx:TrackPointExtension><gpxtpx:hr>140</gpxtpx:hr></gpxtpx:TrackPointExtension></extensions>
      </trkpt>
      <trkpt lat="59.9844821" lon="15.8274765">
        <ele>93.8</ele>
        <time>2013-02-18T22:26:51Z</time>
        <extensions><gpxtpx:TrackPointExtension><gpxtpx:hr>140</gpxtpx:hr></gpxtpx:TrackPointExtension></extensions>
      </trkpt>
      <trkpt lat="59.9844834" lon="15.8274787">
        <ele>93.8</ele>
        <time>2013-02-18T22:26:52Z</time>
        <extensions><gpxtpx:TrackPointExtension><gpxtpx:hr>140</gpxtpx:hr></gpxtpx:TrackPointExtension></extensions>
      </trkpt>
      <trkpt lat="59.9844879" lon="15.8274823">
        <ele>93.8</ele>
        <time>2013-02-18T22:26:55Z</time>
        <extensions><gpxtpx:TrackPointExtension><gpxtpx:hr>140</gpxtpx:hr></gpxtpx:TrackPointExtension></extensions>
      </trkpt>
      <trkpt lat="59.9844885" lon="15.8274719">
        <ele>93.8</ele>
        <time>2013-02-18T22:26:58Z</time>
        <extensions><gpxtpx:TrackPointExtension><gpxtpx:hr>141</gpxtpx:hr></gpxtpx:TrackPointExtension></extensions>
      </trkpt>
      <trkpt lat="59.9844886" lon="15.8274714">
        <ele>93.8</ele>
        <time>2013-02-18T22:26:59Z</time>
        <extensions><gpxtpx:TrackPointExtension><gpxtpx:hr>141</gpxtpx:hr></gpxtpx:TrackPointExtension></extensions>
      </trkpt>
      <trkpt lat="59.9844893" lon="15.8274732">
        <ele>93.8</ele>
        <time>2013-02-18T22:27:00Z</time>
        <extensions><gpxtpx:TrackPointExtension><gpxtpx:hr>141</gpxtpx:hr></gpxtpx:TrackPointExtension></extensions>
      </trkpt>
      <trkpt lat="59.9844882" lon="15.8274734">
        <ele>93.8</ele>
        <time>2013-02-18T22:27:01Z</time>
        <extensions><gpxtpx:TrackPointExtension><gpxtpx:hr>141</gpxtpx:hr></gpxtpx:TrackPointExtension></extensions>
      </trkpt>
      <trkpt lat="59.9844852" lon="15.8274712">
        <ele>93.8</ele>
        <time>2013-02-18T22:27:02Z</time>
        <extensions><gpxtpx:TrackPointExtension><gpxtpx:hr>141</gpxtpx:hr></gpxtpx:TrackPointExtension></extensions>
      </trkpt>
      <trkpt lat="59.9844845" lon="15.8274646">
        <ele>93.8</ele>
        <time>2013-02-18T22:27:03Z</time>
        <extensions><gpxtpx:TrackPointExtension><gpxtpx:hr>142</gpxtpx:hr></gpxtpx:TrackPointExtension></extensions>
      </trkpt>
      <trkpt lat="59.9844902" lon="15.8275302">
        <ele>93.8</ele>
        <time>2013-02-18T22:27:04Z</time>
        <extensions><gpxtpx:TrackPointExtension><gpxtpx:hr>142</gpxtpx:hr></gpxtpx:TrackPointExtension></extensions>
      </trkpt>
      <trkpt lat="59.9844901" lon="15.8275249">
        <ele>93.8</ele>
        <time>2013-02-18T22:27:05Z</time>
        <extensions><gpxtpx:TrackPointExtension><gpxtpx:hr>142</gpxtpx:hr></gpxtpx:TrackPointExtension></extensions>
      </trkpt>
      <trkpt lat="59.9844891" lon="15.8275235">
        <ele>93.8</ele>
        <time>2013-02-18T22:27:06Z</time>
        <extensions><gpxtpx:TrackPointExtension><gpxtpx:hr>143</gpxtpx:hr></gpxtpx:TrackPointExtension></extensions>
      </trkpt>
      <trkpt lat="59.98449" lon="15.827524">
        <ele>93.8</ele>
        <time>2013-02-18T22:27:07Z</time>
        <extensions><gpxtpx:TrackPointExtension><gpxtpx:hr>143</gpxtpx:hr></gpxtpx:TrackPointExtension></extensions>
      </trkpt>
      <trkpt lat="59.984492" lon="15.8275265">
        <ele>93.8</ele>
        <time>2013-02-18T22:27:08Z</time>
        <extensions><gpxtpx:TrackPointExtension><gpxtpx:hr>143</gpxtpx:hr></gpxtpx:TrackPointExtension></extensions>
      </trkpt>
      <trkpt lat="59.9844936" lon="15.827529">
        <ele>93.8</ele>
        <time>2013-02-18T22:27:09Z</time>
        <extensions><gpxtpx:TrackPointExtension><gpxtpx:hr>143</gpxtpx:hr></gpxtpx:TrackPointExtension></extensions>
      </trkpt>
      <trkpt lat="59.9845026" lon="15.8275821">
        <ele>93.8</ele>
        <time>2013-02-18T22:27:10Z</time>
        <extensions><gpxtpx:TrackPointExtension><gpxtpx:hr>144</gpxtpx:hr></gpxtpx:TrackPointExtension></extensions>
      </trkpt>
      <trkpt lat="59.9845062" lon="15.8275764">
        <ele>93.8</ele>
        <time>2013-02-18T22:27:11Z</time>
        <extensions><gpxtpx:TrackPointExtension><gpxtpx:hr>144</gpxtpx:hr></gpxtpx:TrackPointExtension></extensions>
      </trkpt>
      <trkpt lat="59.9845073" lon="15.8275734">
        <ele>93.8</ele>
        <time>2013-02-18T22:27:12Z</time>
        <extensions><gpxtpx:TrackPointExtension><gpxtpx:hr>145</gpxtpx:hr></gpxtpx:TrackPointExtension></extensions>
      </trkpt>
      <trkpt lat="59.9845064" lon="15.8275735">
        <ele>93.8</ele>
        <time>2013-02-18T22:27:13Z</time>
        <extensions><gpxtpx:TrackPointExtension><gpxtpx:hr>145</gpxtpx:hr></gpxtpx:TrackPointExtension></extensions>
      </trkpt>
      <trkpt lat="59.9845062" lon="15.8275753">
        <ele>93.8</ele>
        <time>2013-02-18T22:27:14Z</time>
        <extensions><gpxtpx:TrackPointExtension><gpxtpx:hr>145</gpxtpx:hr></gpxtpx:TrackPointExtension></extensions>
      </trkpt>
      <trkpt lat="59.9845055" lon="15.8275784">
        <ele>93.8</ele>
        <time>2013-02-18T22:27:15Z</time>
        <extensions><gpxtpx:TrackPointExtension><gpxtpx:hr>146</gpxtpx:hr></gpxtpx:TrackPointExtension></extensions>
      </trkpt>
      <trkpt lat="59.9845053" lon="15.8275815">
        <ele>93.8</ele>
        <time>2013-02-18T22:27:18Z</time>
        <extensions><gpxtpx:TrackPointExtension><gpxtpx:hr>145</gpxtpx:hr></gpxtpx:TrackPointExtension></extensions>
      </trkpt>
      <trkpt lat="59.9845063" lon="15.8275861">
        <ele>93.8</ele>
        <time>2013-02-18T22:27:19Z</time>
        <extensions><gpxtpx:TrackPointExtension><gpxtpx:hr>145</gpxtpx:hr></gpxtpx:TrackPointExtension></extensions>
      </trkpt>
      <trkpt lat="59.9845068" lon="15.8275895">
        <ele>93.8</ele>
        <time>2013-02-18T22:27:20Z</time>
        <extensions><gpxtpx:TrackPointExtension><gpxtpx:hr>145</gpxtpx:hr></gpxtpx:TrackPointExtension></extensions>
      </trkpt>
      <trkpt lat="59.9845062" lon="15.8275908">
        <ele>93.8</ele>
        <time>2013-02-18T22:27:21Z</time>
        <extensions><gpxtpx:TrackPointExtension><gpxtpx:hr>145</gpxtpx:hr></gpxtpx:TrackPointExtension></extensions>
      </trkpt>
      <trkpt lat="59.9845073" lon="15.8275892">
        <ele>93.8</ele>
        <time>2013-02-18T22:27:22Z</time>
        <extensions><gpxtpx:TrackPointExtension><gpxtpx:hr>145</gpxtpx:hr></gpxtpx:TrackPointExtension></extensions>
      </trkpt>
      <trkpt lat="59.9845095" lon="15.8275841">
        <ele>93.8</ele>
        <time>2013-02-18T22:27:23Z</time>
        <extensions><gpxtpx:TrackPointExtension><gpxtpx:hr>145</gpxtpx:hr></gpxtpx:TrackPointExtension></extensions>
      </trkpt>
      <trkpt lat="59.9845117" lon="15.8275777">
        <ele>93.8</ele>
        <time>2013-02-18T22:27:24Z</time>
        <extensions><gpxtpx:TrackPointExtension><gpxtpx:hr>145</gpxtpx:hr></gpxtpx:TrackPointExtension></extensions>
      </trkpt>
      <trkpt lat="59.9845147" lon="15.8275647">
        <ele>93.8</ele>
        <time>2013-02-18T22:27:26Z</time>
        <extensions><gpxtpx:TrackPointExtension><gpxtpx:hr>146</gpxtpx:hr></gpxtpx:TrackPointExtension></extensions>
      </trkpt>
      <trkpt lat="59.9845171" lon="15.8275597">
        <ele>93.8</ele>
        <time>2013-02-18T22:27:27Z</time>
        <extensions><gpxtpx:TrackPointExtension><gpxtpx:hr>146</gpxtpx:hr></gpxtpx:TrackPointExtension></extensions>
      </trkpt>
      <trkpt lat="59.9845181" lon="15.8275556">
        <ele>93.8</ele>
        <time>2013-02-18T22:27:28Z</time>
        <extensions><gpxtpx:TrackPointExtension><gpxtpx:hr>146</gpxtpx:hr></gpxtpx:TrackPointExtension></extensions>
      </trkpt>
      <trkpt lat="59.984519" lon="15.8275497">
        <ele>93.8</ele>
        <time>2013-02-18T22:27:29Z</time>
        <extensions><gpxtpx:TrackPointExtension><gpxtpx:hr>147</gpxtpx:hr></gpxtpx:TrackPointExtension></extensions>
      </trkpt>
      <trkpt lat="59.9845186" lon="15.8275454">
        <ele>93.8</ele>
        <time>2013-02-18T22:27:30Z</time>
        <extensions><gpxtpx:TrackPointExtension><gpxtpx:hr>147</gpxtpx:hr></gpxtpx:TrackPointExtension></extensions>
      </trkpt>
      <trkpt lat="59.9845171" lon="15.8275456">
        <ele>93.8</ele>
        <time>2013-02-18T22:27:31Z</time>
        <extensions><gpxtpx:TrackPointExtension><gpxtpx:hr>147</gpxtpx:hr></gpxtpx:TrackPointExtension></extensions>
      </trkpt>
      <trkpt lat="59.9845165" lon="15.8275467">
        <ele>93.8</ele>
        <time>2013-02-18T22:27:32Z</time>
        <extensions><gpxtpx:TrackPointExtension><gpxtpx:hr>148</gpxtpx:hr></gpxtpx:TrackPointExtension></extensions>
      </trkpt>
      <trkpt lat="59.9845176" lon="15.8275457">
        <ele>93.8</ele>
        <time>2013-02-18T22:27:33Z</time>
        <extensions><gpxtpx:TrackPointExtension><gpxtpx:hr>148</gpxtpx:hr></gpxtpx:TrackPointExtension></extensions>
      </trkpt>
      <trkpt lat="59.9845176" lon="15.8275551">
        <ele>93.8</ele>
        <time>2013-02-18T22:27:35Z</time>
        <extensions><gpxtpx:TrackPointExtension><gpxtpx:hr>147</gpxtpx:hr></gpxtpx:TrackPointExtension></extensions>
      </trkpt>
      <trkpt lat="59.9845224" lon="15.8276519">
        <ele>93.8</ele>
        <time>2013-02-18T22:27:36Z</time>
        <extensions><gpxtpx:TrackPointExtension><gpxtpx:hr>147</gpxtpx:hr></gpxtpx:TrackPointExtension></extensions>
      </trkpt>
      <trkpt lat="59.984521" lon="15.8276695">
        <ele>93.8</ele>
        <time>2013-02-18T22:27:37Z</time>
        <extensions><gpxtpx:TrackPointExtension><gpxtpx:hr>147</gpxtpx:hr></gpxtpx:TrackPointExtension></extensions>
      </trkpt>
      <trkpt lat="59.9845192" lon="15.8276757">
        <ele>93.8</ele>
        <time>2013-02-18T22:27:38Z</time>
        <extensions><gpxtpx:TrackPointExtension><gpxtpx:hr>148</gpxtpx:hr></gpxtpx:TrackPointExtension></extensions>
      </trkpt>
      <trkpt lat="59.9845187" lon="15.8276769">
        <ele>93.8</ele>
        <time>2013-02-18T22:27:39Z</time>
        <extensions><gpxtpx:TrackPointExtension><gpxtpx:hr>147</gpxtpx:hr></gpxtpx:TrackPointExtension></extensions>
      </trkpt>
      <trkpt lat="59.9845185" lon="15.8276771">
        <ele>93.8</ele>
        <time>2013-02-18T22:27:40Z</time>
        <extensions><gpxtpx:TrackPointExtension><gpxtpx:hr>147</gpxtpx:hr></gpxtpx:TrackPointExtension></extensions>
      </trkpt>
      <trkpt lat="59.9845168" lon="15.8276786">
        <ele>93.8</ele>
        <time>2013-02-18T22:27:41Z</time>
        <extensions><gpxtpx:TrackPointExtension><gpxtpx:hr>147</gpxtpx:hr></gpxtpx:TrackPointExtension></extensions>
      </trkpt>
      <trkpt lat="59.9845166" lon="15.8276758">
        <ele>93.8</ele>
        <time>2013-02-18T22:27:42Z</time>
        <extensions><gpxtpx:TrackPointExtension><gpxtpx:hr>147</gpxtpx:hr></gpxtpx:TrackPointExtension></extensions>
      </trkpt>
      <trkpt lat="59.9845092" lon="15.8276869">
        <ele>93.8</ele>
        <time>2013-02-18T22:27:46Z</time>
        <extensions><gpxtpx:TrackPointExtension><gpxtpx:hr>146</gpxtpx:hr></gpxtpx:TrackPointExtension></extensions>
      </trkpt>
      <trkpt lat="59.9845201" lon="15.827686">
        <ele>93.8</ele>
        <time>2013-02-18T22:27:49Z</time>
        <extensions><gpxtpx:TrackPointExtension><gpxtpx:hr>146</gpxtpx:hr></gpxtpx:TrackPointExtension></extensions>
      </trkpt>
      <trkpt lat="59.9845238" lon="15.8276777">
        <ele>93.8</ele>
        <time>2013-02-18T22:27:52Z</time>
        <extensions><gpxtpx:TrackPointExtension><gpxtpx:hr>146</gpxtpx:hr></gpxtpx:TrackPointExtension></extensions>
      </trkpt>
      <trkpt lat="59.9845208" lon="15.8276605">
        <ele>93.8</ele>
        <time>2013-02-18T22:27:56Z</time>
        <extensions><gpxtpx:TrackPointExtension><gpxtpx:hr>146</gpxtpx:hr></gpxtpx:TrackPointExtension></extensions>
      </trkpt>
      <trkpt lat="59.9845222" lon="15.8276521">
        <ele>93.8</ele>
        <time>2013-02-18T22:27:57Z</time>
        <extensions><gpxtpx:TrackPointExtension><gpxtpx:hr>146</gpxtpx:hr></gpxtpx:TrackPointExtension></extensions>
      </trkpt>
      <trkpt lat="59.9845288" lon="15.8276385">
        <ele>93.8</ele>
        <time>2013-02-18T22:27:58Z</time>
        <extensions><gpxtpx:TrackPointExtension><gpxtpx:hr>147</gpxtpx:hr></gpxtpx:TrackPointExtension></extensions>
      </trkpt>
      <trkpt lat="59.984531" lon="15.8276325">
        <ele>93.8</ele>
        <time>2013-02-18T22:27:59Z</time>
        <extensions><gpxtpx:TrackPointExtension><gpxtpx:hr>147</gpxtpx:hr></gpxtpx:TrackPointExtension></extensions>
      </trkpt>
      <trkpt lat="59.984534" lon="15.8276272">
        <ele>93.8</ele>
        <time>2013-02-18T22:28:00Z</time>
        <extensions><gpxtpx:TrackPointExtension><gpxtpx:hr>147</gpxtpx:hr></gpxtpx:TrackPointExtension></extensions>
      </trkpt>
      <trkpt lat="59.9845351" lon="15.8276286">
        <ele>93.8</ele>
        <time>2013-02-18T22:28:01Z</time>
        <extensions><gpxtpx:TrackPointExtension><gpxtpx:hr>147</gpxtpx:hr></gpxtpx:TrackPointExtension></extensions>
      </trkpt>
      <trkpt lat="59.9845295" lon="15.8276568">
        <ele>93.8</ele>
        <time>2013-02-18T22:28:02Z</time>
        <extensions><gpxtpx:TrackPointExtension><gpxtpx:hr>147</gpxtpx:hr></gpxtpx:TrackPointExtension></extensions>
      </trkpt>
      <trkpt lat="59.9845234" lon="15.8276747">
        <ele>93.8</ele>
        <time>2013-02-18T22:28:03Z</time>
        <extensions><gpxtpx:TrackPointExtension><gpxtpx:hr>146</gpxtpx:hr></gpxtpx:TrackPointExtension></extensions>
      </trkpt>
      <trkpt lat="59.9845245" lon="15.8276778">
        <ele>93.8</ele>
        <time>2013-02-18T22:28:04Z</time>
        <extensions><gpxtpx:TrackPointExtension><gpxtpx:hr>146</gpxtpx:hr></gpxtpx:TrackPointExtension></extensions>
      </trkpt>
      <trkpt lat="59.9845208" lon="15.8276844">
        <ele>93.8</ele>
        <time>2013-02-18T22:28:05Z</time>
        <extensions><gpxtpx:TrackPointExtension><gpxtpx:hr>146</gpxtpx:hr></gpxtpx:TrackPointExtension></extensions>
      </trkpt>
      <trkpt lat="59.9845172" lon="15.827692">
        <ele>93.8</ele>
        <time>2013-02-18T22:28:06Z</time>
        <extensions><gpxtpx:TrackPointExtension><gpxtpx:hr>146</gpxtpx:hr></gpxtpx:TrackPointExtension></extensions>
      </trkpt>
      <trkpt lat="59.9845148" lon="15.8276971">
        <ele>93.8</ele>
        <time>2013-02-18T22:28:07Z</time>
        <extensions><gpxtpx:TrackPointExtension><gpxtpx:hr>146</gpxtpx:hr></gpxtpx:TrackPointExtension></extensions>
      </trkpt>
      <trkpt lat="59.9845125" lon="15.8277003">
        <ele>93.8</ele>
        <time>2013-02-18T22:28:08Z</time>
        <extensions><gpxtpx:TrackPointExtension><gpxtpx:hr>146</gpxtpx:hr></gpxtpx:TrackPointExtension></extensions>
      </trkpt>
      <trkpt lat="59.9845105" lon="15.8277032">
        <ele>93.8</ele>
        <time>2013-02-18T22:28:12Z</time>
        <extensions><gpxtpx:TrackPointExtension><gpxtpx:hr>146</gpxtpx:hr></gpxtpx:TrackPointExtension></extensions>
      </trkpt>
      <trkpt lat="59.984514" lon="15.8276996">
        <ele>93.8</ele>
        <time>2013-02-18T22:28:14Z</time>
        <extensions><gpxtpx:TrackPointExtension><gpxtpx:hr>146</gpxtpx:hr></gpxtpx:TrackPointExtension></extensions>
      </trkpt>
      <trkpt lat="59.984515" lon="15.827697">
        <ele>93.8</ele>
        <time>2013-02-18T22:28:15Z</time>
        <extensions><gpxtpx:TrackPointExtension><gpxtpx:hr>146</gpxtpx:hr></gpxtpx:TrackPointExtension></extensions>
      </trkpt>
      <trkpt lat="59.9845156" lon="15.8276934">
        <ele>93.8</ele>
        <time>2013-02-18T22:28:16Z</time>
        <extensions><gpxtpx:TrackPointExtension><gpxtpx:hr>146</gpxtpx:hr></gpxtpx:TrackPointExtension></extensions>
      </trkpt>
      <trkpt lat="59.984517" lon="15.827688">
        <ele>93.8</ele>
        <time>2013-02-18T22:28:17Z</time>
        <extensions><gpxtpx:TrackPointExtension><gpxtpx:hr>146</gpxtpx:hr></gpxtpx:TrackPointExtension></extensions>
      </trkpt>
      <trkpt lat="59.9845203" lon="15.8276817">
        <ele>93.8</ele>
        <time>2013-02-18T22:28:18Z</time>
        <extensions><gpxtpx:TrackPointExtension><gpxtpx:hr>146</gpxtpx:hr></gpxtpx:TrackPointExtension></extensions>
      </trkpt>
      <trkpt lat="59.9845549" lon="15.8276903">
        <ele>93.8</ele>
        <time>2013-02-18T22:28:19Z</time>
        <extensions><gpxtpx:TrackPointExtension><gpxtpx:hr>146</gpxtpx:hr></gpxtpx:TrackPointExtension></extensions>
      </trkpt>
      <trkpt lat="59.9845631" lon="15.8276715">
        <ele>93.8</ele>
        <time>2013-02-18T22:28:21Z</time>
        <extensions><gpxtpx:TrackPointExtension><gpxtpx:hr>146</gpxtpx:hr></gpxtpx:TrackPointExtension></extensions>
      </trkpt>
      <trkpt lat="59.984565" lon="15.8276679">
        <ele>93.8</ele>
        <time>2013-02-18T22:28:22Z</time>
        <extensions><gpxtpx:TrackPointExtension><gpxtpx:hr>146</gpxtpx:hr></gpxtpx:TrackPointExtension></extensions>
      </trkpt>
      <trkpt lat="59.9845674" lon="15.8276616">
        <ele>93.8</ele>
        <time>2013-02-18T22:28:23Z</time>
        <extensions><gpxtpx:TrackPointExtension><gpxtpx:hr>146</gpxtpx:hr></gpxtpx:TrackPointExtension></extensions>
      </trkpt>
      <trkpt lat="59.9845698" lon="15.8276561">
        <ele>93.8</ele>
        <time>2013-02-18T22:28:24Z</time>
        <extensions><gpxtpx:TrackPointExtension><gpxtpx:hr>145</gpxtpx:hr></gpxtpx:TrackPointExtension></extensions>
      </trkpt>
      <trkpt lat="59.9845736" lon="15.8276509">
        <ele>93.8</ele>
        <time>2013-02-18T22:28:25Z</time>
        <extensions><gpxtpx:TrackPointExtension><gpxtpx:hr>146</gpxtpx:hr></gpxtpx:TrackPointExtension></extensions>
      </trkpt>
      <trkpt lat="59.9845758" lon="15.8276458">
        <ele>93.8</ele>
        <time>2013-02-18T22:28:26Z</time>
        <extensions><gpxtpx:TrackPointExtension><gpxtpx:hr>145</gpxtpx:hr></gpxtpx:TrackPointExtension></extensions>
      </trkpt>
      <trkpt lat="59.9845767" lon="15.827643">
        <ele>93.8</ele>
        <time>2013-02-18T22:28:27Z</time>
        <extensions><gpxtpx:TrackPointExtension><gpxtpx:hr>145</gpxtpx:hr></gpxtpx:TrackPointExtension></extensions>
      </trkpt>
      <trkpt lat="59.9845772" lon="15.8276409">
        <ele>93.8</ele>
        <time>2013-02-18T22:28:28Z</time>
        <extensions><gpxtpx:TrackPointExtension><gpxtpx:hr>145</gpxtpx:hr></gpxtpx:TrackPointExtension></extensions>
      </trkpt>
      <trkpt lat="59.9845768" lon="15.8276396">
        <ele>93.8</ele>
        <time>2013-02-18T22:28:29Z</time>
        <extensions><gpxtpx:TrackPointExtension><gpxtpx:hr>145</gpxtpx:hr></gpxtpx:TrackPointExtension></extensions>
      </trkpt>
      <trkpt lat="59.9845758" lon="15.8276387">
        <ele>93.8</ele>
        <time>2013-02-18T22:28:30Z</time>
        <extensions><gpxtpx:TrackPointExtension><gpxtpx:hr>145</gpxtpx:hr></gpxtpx:TrackPointExtension></extensions>
      </trkpt>
      <trkpt lat="59.9845738" lon="15.8276404">
        <ele>93.8</ele>
        <time>2013-02-18T22:28:31Z</time>
        <extensions><gpxtpx:TrackPointExtension><gpxtpx:hr>145</gpxtpx:hr></gpxtpx:TrackPointExtension></extensions>
      </trkpt>
      <trkpt lat="59.9845672" lon="15.8276436">
        <ele>93.8</ele>
        <time>2013-02-18T22:28:33Z</time>
        <extensions><gpxtpx:TrackPointExtension><gpxtpx:hr>145</gpxtpx:hr></gpxtpx:TrackPointExtension></extensions>
      </trkpt>
      <trkpt lat="59.9845632" lon="15.8276456">
        <ele>93.8</ele>
        <time>2013-02-18T22:28:37Z</time>
        <extensions><gpxtpx:TrackPointExtension><gpxtpx:hr>144</gpxtpx:hr></gpxtpx:TrackPointExtension></extensions>
      </trkpt>
      <trkpt lat="59.9845634" lon="15.827645">
        <ele>93.8</ele>
        <time>2013-02-18T22:28:38Z</time>
        <extensions><gpxtpx:TrackPointExtension><gpxtpx:hr>144</gpxtpx:hr></gpxtpx:TrackPointExtension></extensions>
      </trkpt>
      <trkpt lat="59.9845633" lon="15.8276445">
        <ele>93.8</ele>
        <time>2013-02-18T22:28:39Z</time>
        <extensions><gpxtpx:TrackPointExtension><gpxtpx:hr>143</gpxtpx:hr></gpxtpx:TrackPointExtension></extensions>
      </trkpt>
      <trkpt lat="59.984563" lon="15.8276432">
        <ele>93.8</ele>
        <time>2013-02-18T22:28:40Z</time>
        <extensions><gpxtpx:TrackPointExtension><gpxtpx:hr>143</gpxtpx:hr></gpxtpx:TrackPointExtension></extensions>
      </trkpt>
      <trkpt lat="59.9845633" lon="15.827641">
        <ele>93.8</ele>
        <time>2013-02-18T22:28:41Z</time>
        <extensions><gpxtpx:TrackPointExtension><gpxtpx:hr>143</gpxtpx:hr></gpxtpx:TrackPointExtension></extensions>
      </trkpt>
      <trkpt lat="59.9845673" lon="15.8276318">
        <ele>93.8</ele>
        <time>2013-02-18T22:28:43Z</time>
        <extensions><gpxtpx:TrackPointExtension><gpxtpx:hr>142</gpxtpx:hr></gpxtpx:TrackPointExtension></extensions>
      </trkpt>
      <trkpt lat="59.9845693" lon="15.8276271">
        <ele>93.8</ele>
        <time>2013-02-18T22:28:44Z</time>
        <extensions><gpxtpx:TrackPointExtension><gpxtpx:hr>143</gpxtpx:hr></gpxtpx:TrackPointExtension></extensions>
      </trkpt>
      <trkpt lat="59.9845719" lon="15.8276205">
        <ele>93.8</ele>
        <time>2013-02-18T22:28:45Z</time>
        <extensions><gpxtpx:TrackPointExtension><gpxtpx:hr>143</gpxtpx:hr></gpxtpx:TrackPointExtension></extensions>
      </trkpt>
      <trkpt lat="59.9845746" lon="15.8276123">
        <ele>93.8</ele>
        <time>2013-02-18T22:28:46Z</time>
        <extensions><gpxtpx:TrackPointExtension><gpxtpx:hr>143</gpxtpx:hr></gpxtpx:TrackPointExtension></extensions>
      </trkpt>
      <trkpt lat="59.9845761" lon="15.8276058">
        <ele>93.8</ele>
        <time>2013-02-18T22:28:47Z</time>
        <extensions><gpxtpx:TrackPointExtension><gpxtpx:hr>144</gpxtpx:hr></gpxtpx:TrackPointExtension></extensions>
      </trkpt>
      <trkpt lat="59.9845775" lon="15.8275999">
        <ele>93.8</ele>
        <time>2013-02-18T22:28:48Z</time>
        <extensions><gpxtpx:TrackPointExtension><gpxtpx:hr>144</gpxtpx:hr></gpxtpx:TrackPointExtension></extensions>
      </trkpt>
      <trkpt lat="59.9845799" lon="15.8275938">
        <ele>93.8</ele>
        <time>2013-02-18T22:28:49Z</time>
        <extensions><gpxtpx:TrackPointExtension><gpxtpx:hr>145</gpxtpx:hr></gpxtpx:TrackPointExtension></extensions>
      </trkpt>
      <trkpt lat="59.9845811" lon="15.827588">
        <ele>93.8</ele>
        <time>2013-02-18T22:28:50Z</time>
        <extensions><gpxtpx:TrackPointExtension><gpxtpx:hr>145</gpxtpx:hr></gpxtpx:TrackPointExtension></extensions>
      </trkpt>
      <trkpt lat="59.984583" lon="15.8275807">
        <ele>93.8</ele>
        <time>2013-02-18T22:28:51Z</time>
        <extensions><gpxtpx:TrackPointExtension><gpxtpx:hr>146</gpxtpx:hr></gpxtpx:TrackPointExtension></extensions>
      </trkpt>
      <trkpt lat="59.9845856" lon="15.8275727">
        <ele>93.8</ele>
        <time>2013-02-18T22:28:52Z</time>
        <extensions><gpxtpx:TrackPointExtension><gpxtpx:hr>146</gpxtpx:hr></gpxtpx:TrackPointExtension></extensions>
      </trkpt>
      <trkpt lat="59.9845876" lon="15.8275654">
        <ele>93.8</ele>
        <time>2013-02-18T22:28:53Z</time>
        <extensions><gpxtpx:TrackPointExtension><gpxtpx:hr>146</gpxtpx:hr></gpxtpx:TrackPointExtension></extensions>
      </trkpt>
      <trkpt lat="59.9845886" lon="15.8275589">
        <ele>93.8</ele>
        <time>2013-02-18T22:28:54Z</time>
        <extensions><gpxtpx:TrackPointExtension><gpxtpx:hr>146</gpxtpx:hr></gpxtpx:TrackPointExtension></extensions>
      </trkpt>
      <trkpt lat="59.9845892" lon="15.8275557">
        <ele>93.8</ele>
        <time>2013-02-18T22:28:55Z</time>
        <extensions><gpxtpx:TrackPointExtension><gpxtpx:hr>147</gpxtpx:hr></gpxtpx:TrackPointExtension></extensions>
      </trkpt>
      <trkpt lat="59.9845885" lon="15.8275559">
        <ele>93.8</ele>
        <time>2013-02-18T22:28:56Z</time>
        <extensions><gpxtpx:TrackPointExtension><gpxtpx:hr>147</gpxtpx:hr></gpxtpx:TrackPointExtension></extensions>
      </trkpt>
      <trkpt lat="59.984586" lon="15.8275583">
        <ele>93.8</ele>
        <time>2013-02-18T22:28:57Z</time>
        <extensions><gpxtpx:TrackPointExtension><gpxtpx:hr>147</gpxtpx:hr></gpxtpx:TrackPointExtension></extensions>
      </trkpt>
      <trkpt lat="59.9845832" lon="15.8275601">
        <ele>93.8</ele>
        <time>2013-02-18T22:28:58Z</time>
        <extensions><gpxtpx:TrackPointExtension><gpxtpx:hr>147</gpxtpx:hr></gpxtpx:TrackPointExtension></extensions>
      </trkpt>
      <trkpt lat="59.9845806" lon="15.8275606">
        <ele>93.8</ele>
        <time>2013-02-18T22:29:00Z</time>
        <extensions><gpxtpx:TrackPointExtension><gpxtpx:hr>146</gpxtpx:hr></gpxtpx:TrackPointExtension></extensions>
      </trkpt>
      <trkpt lat="59.9845855" lon="15.8275278">
        <ele>93.8</ele>
        <time>2013-02-18T22:29:10Z</time>
        <extensions><gpxtpx:TrackPointExtension><gpxtpx:hr>146</gpxtpx:hr></gpxtpx:TrackPointExtension></extensions>
      </trkpt>
      <trkpt lat="59.9845891" lon="15.8275165">
        <ele>93.8</ele>
        <time>2013-02-18T22:29:12Z</time>
        <extensions><gpxtpx:TrackPointExtension><gpxtpx:hr>146</gpxtpx:hr></gpxtpx:TrackPointExtension></extensions>
      </trkpt>
      <trkpt lat="59.9846015" lon="15.8276094">
        <ele>93.8</ele>
        <time>2013-02-18T22:29:13Z</time>
        <extensions><gpxtpx:TrackPointExtension><gpxtpx:hr>146</gpxtpx:hr></gpxtpx:TrackPointExtension></extensions>
      </trkpt>
      <trkpt lat="59.9846055" lon="15.8276025">
        <ele>93.8</ele>
        <time>2013-02-18T22:29:14Z</time>
        <extensions><gpxtpx:TrackPointExtension><gpxtpx:hr>146</gpxtpx:hr></gpxtpx:TrackPointExtension></extensions>
      </trkpt>
      <trkpt lat="59.9846086" lon="15.8275964">
        <ele>93.8</ele>
        <time>2013-02-18T22:29:15Z</time>
        <extensions><gpxtpx:TrackPointExtension><gpxtpx:hr>146</gpxtpx:hr></gpxtpx:TrackPointExtension></extensions>
      </trkpt>
      <trkpt lat="59.9846112" lon="15.8275923">
        <ele>93.8</ele>
        <time>2013-02-18T22:29:16Z</time>
        <extensions><gpxtpx:TrackPointExtension><gpxtpx:hr>146</gpxtpx:hr></gpxtpx:TrackPointExtension></extensions>
      </trkpt>
      <trkpt lat="59.9846142" lon="15.8275863">
        <ele>93.8</ele>
        <time>2013-02-18T22:29:17Z</time>
        <extensions><gpxtpx:TrackPointExtension><gpxtpx:hr>146</gpxtpx:hr></gpxtpx:TrackPointExtension></extensions>
      </trkpt>
      <trkpt lat="59.9846166" lon="15.8275805">
        <ele>93.8</ele>
        <time>2013-02-18T22:29:18Z</time>
        <extensions><gpxtpx:TrackPointExtension><gpxtpx:hr>146</gpxtpx:hr></gpxtpx:TrackPointExtension></extensions>
      </trkpt>
      <trkpt lat="59.9846189" lon="15.8275771">
        <ele>93.8</ele>
        <time>2013-02-18T22:29:19Z</time>
        <extensions><gpxtpx:TrackPointExtension><gpxtpx:hr>146</gpxtpx:hr></gpxtpx:TrackPointExtension></extensions>
      </trkpt>
      <trkpt lat="59.9846207" lon="15.8275739">
        <ele>93.8</ele>
        <time>2013-02-18T22:29:20Z</time>
        <extensions><gpxtpx:TrackPointExtension><gpxtpx:hr>146</gpxtpx:hr></gpxtpx:TrackPointExtension></extensions>
      </trkpt>
      <trkpt lat="59.9846228" lon="15.8275694">
        <ele>93.8</ele>
        <time>2013-02-18T22:29:21Z</time>
        <extensions><gpxtpx:TrackPointExtension><gpxtpx:hr>146</gpxtpx:hr></gpxtpx:TrackPointExtension></extensions>
      </trkpt>
      <trkpt lat="59.9846254" lon="15.8275642">
        <ele>93.8</ele>
        <time>2013-02-18T22:29:22Z</time>
        <extensions><gpxtpx:TrackPointExtension><gpxtpx:hr>146</gpxtpx:hr></gpxtpx:TrackPointExtension></extensions>
      </trkpt>
      <trkpt lat="59.9846288" lon="15.8275582">
        <ele>93.8</ele>
        <time>2013-02-18T22:29:23Z</time>
        <extensions><gpxtpx:TrackPointExtension><gpxtpx:hr>146</gpxtpx:hr></gpxtpx:TrackPointExtension></extensions>
      </trkpt>
      <trkpt lat="59.9846334" lon="15.8275542">
        <ele>93.8</ele>
        <time>2013-02-18T22:29:27Z</time>
        <extensions><gpxtpx:TrackPointExtension><gpxtpx:hr>147</gpxtpx:hr></gpxtpx:TrackPointExtension></extensions>
      </trkpt>
      <trkpt lat="59.9846341" lon="15.8275528">
        <ele>93.8</ele>
        <time>2013-02-18T22:29:28Z</time>
        <extensions><gpxtpx:TrackPointExtension><gpxtpx:hr>147</gpxtpx:hr></gpxtpx:TrackPointExtension></extensions>
      </trkpt>
      <trkpt lat="59.9846376" lon="15.8275376">
        <ele>93.8</ele>
        <time>2013-02-18T22:29:32Z</time>
        <extensions><gpxtpx:TrackPointExtension><gpxtpx:hr>147</gpxtpx:hr></gpxtpx:TrackPointExtension></extensions>
      </trkpt>
      <trkpt lat="59.9846371" lon="15.827538">
        <ele>93.8</ele>
        <time>2013-02-18T22:29:33Z</time>
        <extensions><gpxtpx:TrackPointExtension><gpxtpx:hr>148</gpxtpx:hr></gpxtpx:TrackPointExtension></extensions>
      </trkpt>
      <trkpt lat="59.9846387" lon="15.8275339">
        <ele>93.8</ele>
        <time>2013-02-18T22:29:34Z</time>
        <extensions><gpxtpx:TrackPointExtension><gpxtpx:hr>147</gpxtpx:hr></gpxtpx:TrackPointExtension></extensions>
      </trkpt>
      <trkpt lat="59.9846413" lon="15.8275271">
        <ele>93.8</ele>
        <time>2013-02-18T22:29:35Z</time>
        <extensions><gpxtpx:TrackPointExtension><gpxtpx:hr>148</gpxtpx:hr></gpxtpx:TrackPointExtension></extensions>
      </trkpt>
      <trkpt lat="59.984643" lon="15.8275208">
        <ele>93.8</ele>
        <time>2013-02-18T22:29:36Z</time>
        <extensions><gpxtpx:TrackPointExtension><gpxtpx:hr>147</gpxtpx:hr></gpxtpx:TrackPointExtension></extensions>
      </trkpt>
      <trkpt lat="59.9846457" lon="15.8275144">
        <ele>93.8</ele>
        <time>2013-02-18T22:29:37Z</time>
        <extensions><gpxtpx:TrackPointExtension><gpxtpx:hr>147</gpxtpx:hr></gpxtpx:TrackPointExtension></extensions>
      </trkpt>
      <trkpt lat="59.9846481" lon="15.8275083">
        <ele>93.8</ele>
        <time>2013-02-18T22:29:38Z</time>
        <extensions><gpxtpx:TrackPointExtension><gpxtpx:hr>147</gpxtpx:hr></gpxtpx:TrackPointExtension></extensions>
      </trkpt>
      <trkpt lat="59.9846487" lon="15.8275079">
        <ele>93.8</ele>
        <time>2013-02-18T22:29:39Z</time>
        <extensions><gpxtpx:TrackPointExtension><gpxtpx:hr>147</gpxtpx:hr></gpxtpx:TrackPointExtension></extensions>
      </trkpt>
      <trkpt lat="59.9846477" lon="15.8275136">
        <ele>93.8</ele>
        <time>2013-02-18T22:29:40Z</time>
        <extensions><gpxtpx:TrackPointExtension><gpxtpx:hr>147</gpxtpx:hr></gpxtpx:TrackPointExtension></extensions>
      </trkpt>
      <trkpt lat="59.9846473" lon="15.827515">
        <ele>93.8</ele>
        <time>2013-02-18T22:29:41Z</time>
        <extensions><gpxtpx:TrackPointExtension><gpxtpx:hr>147</gpxtpx:hr></gpxtpx:TrackPointExtension></extensions>
      </trkpt>
      <trkpt lat="59.984647" lon="15.8275144">
        <ele>93.8</ele>
        <time>2013-02-18T22:29:42Z</time>
        <extensions><gpxtpx:TrackPointExtension><gpxtpx:hr>147</gpxtpx:hr></gpxtpx:TrackPointExtension></extensions>
      </trkpt>
      <trkpt lat="59.9846466" lon="15.8275147">
        <ele>93.8</ele>
        <time>2013-02-18T22:29:43Z</time>
        <extensions><gpxtpx:TrackPointExtension><gpxtpx:hr>147</gpxtpx:hr></gpxtpx:TrackPointExtension></extensions>
      </trkpt>
      <trkpt lat="59.9846466" lon="15.8275142">
        <ele>93.8</ele>
        <time>2013-02-18T22:29:44Z</time>
        <extensions><gpxtpx:TrackPointExtension><gpxtpx:hr>147</gpxtpx:hr></gpxtpx:TrackPointExtension></extensions>
      </trkpt>
      <trkpt lat="59.9846462" lon="15.827511">
        <ele>93.8</ele>
        <time>2013-02-18T22:29:45Z</time>
        <extensions><gpxtpx:TrackPointExtension><gpxtpx:hr>148</gpxtpx:hr></gpxtpx:TrackPointExtension></extensions>
      </trkpt>
      <trkpt lat="59.9846482" lon="15.8275047">
        <ele>93.8</ele>
        <time>2013-02-18T22:29:46Z</time>
        <extensions><gpxtpx:TrackPointExtension><gpxtpx:hr>147</gpxtpx:hr></gpxtpx:TrackPointExtension></extensions>
      </trkpt>
      <trkpt lat="59.9846526" lon="15.8274916">
        <ele>93.8</ele>
        <time>2013-02-18T22:29:48Z</time>
        <extensions><gpxtpx:TrackPointExtension><gpxtpx:hr>147</gpxtpx:hr></gpxtpx:TrackPointExtension></extensions>
      </trkpt>
      <trkpt lat="59.9846512" lon="15.8274787">
        <ele>93.8</ele>
        <time>2013-02-18T22:29:55Z</time>
        <extensions><gpxtpx:TrackPointExtension><gpxtpx:hr>148</gpxtpx:hr></gpxtpx:TrackPointExtension></extensions>
      </trkpt>
      <trkpt lat="59.9846492" lon="15.8274789">
        <ele>93.8</ele>
        <time>2013-02-18T22:29:58Z</time>
        <extensions><gpxtpx:TrackPointExtension><gpxtpx:hr>147</gpxtpx:hr></gpxtpx:TrackPointExtension></extensions>
      </trkpt>
      <trkpt lat="59.9846504" lon="15.8274784">
        <ele>93.8</ele>
        <time>2013-02-18T22:29:59Z</time>
        <extensions><gpxtpx:TrackPointExtension><gpxtpx:hr>147</gpxtpx:hr></gpxtpx:TrackPointExtension></extensions>
      </trkpt>
      <trkpt lat="59.9846516" lon="15.8274764">
        <ele>93.8</ele>
        <time>2013-02-18T22:30:00Z</time>
        <extensions><gpxtpx:TrackPointExtension><gpxtpx:hr>147</gpxtpx:hr></gpxtpx:TrackPointExtension></extensions>
      </trkpt>
      <trkpt lat="59.9846526" lon="15.8274732">
        <ele>93.8</ele>
        <time>2013-02-18T22:30:01Z</time>
        <extensions><gpxtpx:TrackPointExtension><gpxtpx:hr>147</gpxtpx:hr></gpxtpx:TrackPointExtension></extensions>
      </trkpt>
      <trkpt lat="59.9846545" lon="15.8274643">
        <ele>93.8</ele>
        <time>2013-02-18T22:30:02Z</time>
        <extensions><gpxtpx:TrackPointExtension><gpxtpx:hr>147</gpxtpx:hr></gpxtpx:TrackPointExtension></extensions>
      </trkpt>
      <trkpt lat="59.9846557" lon="15.8274573">
        <ele>93.8</ele>
        <time>2013-02-18T22:30:03Z</time>
        <extensions><gpxtpx:TrackPointExtension><gpxtpx:hr>147</gpxtpx:hr></gpxtpx:TrackPointExtension></extensions>
      </trkpt>
      <trkpt lat="59.984657" lon="15.8274517">
        <ele>93.8</ele>
        <time>2013-02-18T22:30:04Z</time>
        <extensions><gpxtpx:TrackPointExtension><gpxtpx:hr>147</gpxtpx:hr></gpxtpx:TrackPointExtension></extensions>
      </trkpt>
      <trkpt lat="59.9846576" lon="15.8274474">
        <ele>93.8</ele>
        <time>2013-02-18T22:30:05Z</time>
        <extensions><gpxtpx:TrackPointExtension><gpxtpx:hr>147</gpxtpx:hr></gpxtpx:TrackPointExtension></extensions>
      </trkpt>
      <trkpt lat="59.9846596" lon="15.8274427">
        <ele>93.8</ele>
        <time>2013-02-18T22:30:06Z</time>
        <extensions><gpxtpx:TrackPointExtension><gpxtpx:hr>147</gpxtpx:hr></gpxtpx:TrackPointExtension></extensions>
      </trkpt>
      <trkpt lat="59.9846612" lon="15.8274395">
        <ele>93.8</ele>
        <time>2013-02-18T22:30:07Z</time>
        <extensions><gpxtpx:TrackPointExtension><gpxtpx:hr>147</gpxtpx:hr></gpxtpx:TrackPointExtension></extensions>
      </trkpt>
      <trkpt lat="59.9846615" lon="15.8274406">
        <ele>93.8</ele>
        <time>2013-02-18T22:30:09Z</time>
        <extensions><gpxtpx:TrackPointExtension><gpxtpx:hr>147</gpxtpx:hr></gpxtpx:TrackPointExtension></extensions>
      </trkpt>
      <trkpt lat="59.9846603" lon="15.8274421">
        <ele>93.8</ele>
        <time>2013-02-18T22:30:10Z</time>
        <extensions><gpxtpx:TrackPointExtension><gpxtpx:hr>147</gpxtpx:hr></gpxtpx:TrackPointExtension></extensions>
      </trkpt>
      <trkpt lat="59.9846581" lon="15.8274439">
        <ele>93.8</ele>
        <time>2013-02-18T22:30:11Z</time>
        <extensions><gpxtpx:TrackPointExtension><gpxtpx:hr>147</gpxtpx:hr></gpxtpx:TrackPointExtension></extensions>
      </trkpt>
      <trkpt lat="59.9846554" lon="15.8274469">
        <ele>93.8</ele>
        <time>2013-02-18T22:30:12Z</time>
        <extensions><gpxtpx:TrackPointExtension><gpxtpx:hr>147</gpxtpx:hr></gpxtpx:TrackPointExtension></extensions>
      </trkpt>
      <trkpt lat="59.984654" lon="15.8274437">
        <ele>93.8</ele>
        <time>2013-02-18T22:30:13Z</time>
        <extensions><gpxtpx:TrackPointExtension><gpxtpx:hr>147</gpxtpx:hr></gpxtpx:TrackPointExtension></extensions>
      </trkpt>
      <trkpt lat="59.9846383" lon="15.8276017">
        <ele>93.8</ele>
        <time>2013-02-18T22:30:14Z</time>
        <extensions><gpxtpx:TrackPointExtension><gpxtpx:hr>147</gpxtpx:hr></gpxtpx:TrackPointExtension></extensions>
      </trkpt>
      <trkpt lat="59.9846424" lon="15.827592">
        <ele>93.8</ele>
        <time>2013-02-18T22:30:15Z</time>
        <extensions><gpxtpx:TrackPointExtension><gpxtpx:hr>147</gpxtpx:hr></gpxtpx:TrackPointExtension></extensions>
      </trkpt>
      <trkpt lat="59.9846563" lon="15.8275649">
        <ele>93.8</ele>
        <time>2013-02-18T22:30:17Z</time>
        <extensions><gpxtpx:TrackPointExtension><gpxtpx:hr>147</gpxtpx:hr></gpxtpx:TrackPointExtension></extensions>
      </trkpt>
      <trkpt lat="59.9846603" lon="15.827554">
        <ele>93.8</ele>
        <time>2013-02-18T22:30:18Z</time>
        <extensions><gpxtpx:TrackPointExtension><gpxtpx:hr>147</gpxtpx:hr></gpxtpx:TrackPointExtension></extensions>
      </trkpt>
      <trkpt lat="59.9846634" lon="15.8275511">
        <ele>93.8</ele>
        <time>2013-02-18T22:30:19Z</time>
        <extensions><gpxtpx:TrackPointExtension><gpxtpx:hr>147</gpxtpx:hr></gpxtpx:TrackPointExtension></extensions>
      </trkpt>
      <trkpt lat="59.9846596" lon="15.8275589">
        <ele>93.8</ele>
        <time>2013-02-18T22:30:23Z</time>
        <extensions><gpxtpx:TrackPointExtension><gpxtpx:hr>147</gpxtpx:hr></gpxtpx:TrackPointExtension></extensions>
      </trkpt>
      <trkpt lat="59.9846521" lon="15.8275884">
        <ele>93.8</ele>
        <time>2013-02-18T22:30:24Z</time>
        <extensions><gpxtpx:TrackPointExtension><gpxtpx:hr>147</gpxtpx:hr></gpxtpx:TrackPointExtension></extensions>
      </trkpt>
      <trkpt lat="59.9846473" lon="15.8276213">
        <ele>93.8</ele>
        <time>2013-02-18T22:30:26Z</time>
        <extensions><gpxtpx:TrackPointExtension><gpxtpx:hr>147</gpxtpx:hr></gpxtpx:TrackPointExtension></extensions>
      </trkpt>
      <trkpt lat="59.9846398" lon="15.8276772">
        <ele>93.8</ele>
        <time>2013-02-18T22:30:30Z</time>
        <extensions><gpxtpx:TrackPointExtension><gpxtpx:hr>146</gpxtpx:hr></gpxtpx:TrackPointExtension></extensions>
      </trkpt>
      <trkpt lat="59.9846354" lon="15.8276863">
        <ele>93.8</ele>
        <time>2013-02-18T22:30:31Z</time>
        <extensions><gpxtpx:TrackPointExtension><gpxtpx:hr>146</gpxtpx:hr></gpxtpx:TrackPointExtension></extensions>
      </trkpt>
      <trkpt lat="59.9846331" lon="15.8276906">
        <ele>93.8</ele>
        <time>2013-02-18T22:30:32Z</time>
        <extensions><gpxtpx:TrackPointExtension><gpxtpx:hr>146</gpxtpx:hr></gpxtpx:TrackPointExtension></extensions>
      </trkpt>
      <trkpt lat="59.9846316" lon="15.8276903">
        <ele>93.8</ele>
        <time>2013-02-18T22:30:33Z</time>
        <extensions><gpxtpx:TrackPointExtension><gpxtpx:hr>146</gpxtpx:hr></gpxtpx:TrackPointExtension></extensions>
      </trkpt>
      <trkpt lat="59.9846305" lon="15.8276865">
        <ele>93.8</ele>
        <time>2013-02-18T22:30:34Z</time>
        <extensions><gpxtpx:TrackPointExtension><gpxtpx:hr>146</gpxtpx:hr></gpxtpx:TrackPointExtension></extensions>
      </trkpt>
      <trkpt lat="59.9846318" lon="15.8276773">
        <ele>93.8</ele>
        <time>2013-02-18T22:30:35Z</time>
        <extensions><gpxtpx:TrackPointExtension><gpxtpx:hr>146</gpxtpx:hr></gpxtpx:TrackPointExtension></extensions>
      </trkpt>
      <trkpt lat="59.9846321" lon="15.8276771">
        <ele>93.8</ele>
        <time>2013-02-18T22:30:37Z</time>
        <extensions><gpxtpx:TrackPointExtension><gpxtpx:hr>146</gpxtpx:hr></gpxtpx:TrackPointExtension></extensions>
      </trkpt>
      <trkpt lat="59.9846228" lon="15.8277122">
        <ele>93.8</ele>
        <time>2013-02-18T22:30:38Z</time>
        <extensions><gpxtpx:TrackPointExtension><gpxtpx:hr>146</gpxtpx:hr></gpxtpx:TrackPointExtension></extensions>
      </trkpt>
      <trkpt lat="59.9846197" lon="15.8277214">
        <ele>93.8</ele>
        <time>2013-02-18T22:30:43Z</time>
        <extensions><gpxtpx:TrackPointExtension><gpxtpx:hr>146</gpxtpx:hr></gpxtpx:TrackPointExtension></extensions>
      </trkpt>
      <trkpt lat="59.9846368" lon="15.8276673">
        <ele>93.8</ele>
        <time>2013-02-18T22:30:45Z</time>
        <extensions><gpxtpx:TrackPointExtension><gpxtpx:hr>146</gpxtpx:hr></gpxtpx:TrackPointExtension></extensions>
      </trkpt>
      <trkpt lat="59.9846531" lon="15.8276064">
        <ele>93.8</ele>
        <time>2013-02-18T22:30:48Z</time>
        <extensions><gpxtpx:TrackPointExtension><gpxtpx:hr>146</gpxtpx:hr></gpxtpx:TrackPointExtension></extensions>
      </trkpt>
      <trkpt lat="59.9846571" lon="15.8275869">
        <ele>93.8</ele>
        <time>2013-02-18T22:30:49Z</time>
        <extensions><gpxtpx:TrackPointExtension><gpxtpx:hr>146</gpxtpx:hr></gpxtpx:TrackPointExtension></extensions>
      </trkpt>
      <trkpt lat="59.9846649" lon="15.8275794">
        <ele>93.8</ele>
        <time>2013-02-18T22:30:50Z</time>
        <extensions><gpxtpx:TrackPointExtension><gpxtpx:hr>146</gpxtpx:hr></gpxtpx:TrackPointExtension></extensions>
      </trkpt>
      <trkpt lat="59.9846737" lon="15.8275638">
        <ele>93.8</ele>
        <time>2013-02-18T22:30:51Z</time>
        <extensions><gpxtpx:TrackPointExtension><gpxtpx:hr>146</gpxtpx:hr></gpxtpx:TrackPointExtension></extensions>
      </trkpt>
      <trkpt lat="59.9846786" lon="15.8275537">
        <ele>93.8</ele>
        <time>2013-02-18T22:30:52Z</time>
        <extensions><gpxtpx:TrackPointExtension><gpxtpx:hr>145</gpxtpx:hr></gpxtpx:TrackPointExtension></extensions>
      </trkpt>
      <trkpt lat="59.9846917" lon="15.8275229">
        <ele>93.8</ele>
        <time>2013-02-18T22:30:53Z</time>
        <extensions><gpxtpx:TrackPointExtension><gpxtpx:hr>145</gpxtpx:hr></gpxtpx:TrackPointExtension></extensions>
      </trkpt>
      <trkpt lat="59.9847" lon="15.8274949">
        <ele>93.8</ele>
        <time>2013-02-18T22:30:54Z</time>
        <extensions><gpxtpx:TrackPointExtension><gpxtpx:hr>145</gpxtpx:hr></gpxtpx:TrackPointExtension></extensions>
      </trkpt>
      <trkpt lat="59.9847133" lon="15.8274676">
        <ele>93.8</ele>
        <time>2013-02-18T22:30:55Z</time>
        <extensions><gpxtpx:TrackPointExtension><gpxtpx:hr>145</gpxtpx:hr></gpxtpx:TrackPointExtension></extensions>
      </trkpt>
      <trkpt lat="59.984715" lon="15.8274623">
        <ele>93.8</ele>
        <time>2013-02-18T22:30:56Z</time>
        <extensions><gpxtpx:TrackPointExtension><gpxtpx:hr>145</gpxtpx:hr></gpxtpx:TrackPointExtension></extensions>
      </trkpt>
      <trkpt lat="59.984727" lon="15.8274259">
        <ele>93.8</ele>
        <time>2013-02-18T22:30:57Z</time>
        <extensions><gpxtpx:TrackPointExtension><gpxtpx:hr>144</gpxtpx:hr></gpxtpx:TrackPointExtension></extensions>
      </trkpt>
      <trkpt lat="59.9847367" lon="15.8273982">
        <ele>93.8</ele>
        <time>2013-02-18T22:30:58Z</time>
        <extensions><gpxtpx:TrackPointExtension><gpxtpx:hr>144</gpxtpx:hr></gpxtpx:TrackPointExtension></extensions>
      </trkpt>
      <trkpt lat="59.9847362" lon="15.8273826">
        <ele>93.8</ele>
        <time>2013-02-18T22:30:59Z</time>
        <extensions><gpxtpx:TrackPointExtension><gpxtpx:hr>144</gpxtpx:hr></gpxtpx:TrackPointExtension></extensions>
      </trkpt>
      <trkpt lat="59.9847327" lon="15.8273727">
        <ele>93.8</ele>
        <time>2013-02-18T22:31:00Z</time>
        <extensions><gpxtpx:TrackPointExtension><gpxtpx:hr>144</gpxtpx:hr></gpxtpx:TrackPointExtension></extensions>
      </trkpt>
      <trkpt lat="59.9847322" lon="15.8273608">
        <ele>93.8</ele>
        <time>2013-02-18T22:31:01Z</time>
        <extensions><gpxtpx:TrackPointExtension><gpxtpx:hr>144</gpxtpx:hr></gpxtpx:TrackPointExtension></extensions>
      </trkpt>
      <trkpt lat="59.9847295" lon="15.8273558">
        <ele>93.8</ele>
        <time>2013-02-18T22:31:02Z</time>
        <extensions><gpxtpx:TrackPointExtension><gpxtpx:hr>144</gpxtpx:hr></gpxtpx:TrackPointExtension></extensions>
      </trkpt>
      <trkpt lat="59.9847267" lon="15.8273535">
        <ele>93.8</ele>
        <time>2013-02-18T22:31:03Z</time>
        <extensions><gpxtpx:TrackPointExtension><gpxtpx:hr>144</gpxtpx:hr></gpxtpx:TrackPointExtension></extensions>
      </trkpt>
      <trkpt lat="59.9847264" lon="15.8273538">
        <ele>93.8</ele>
        <time>2013-02-18T22:31:04Z</time>
        <extensions><gpxtpx:TrackPointExtension><gpxtpx:hr>144</gpxtpx:hr></gpxtpx:TrackPointExtension></extensions>
      </trkpt>
      <trkpt lat="59.9847256" lon="15.8273597">
        <ele>93.8</ele>
        <time>2013-02-18T22:31:05Z</time>
        <extensions><gpxtpx:TrackPointExtension><gpxtpx:hr>143</gpxtpx:hr></gpxtpx:TrackPointExtension></extensions>
      </trkpt>
      <trkpt lat="59.9847311" lon="15.827341">
        <ele>93.8</ele>
        <time>2013-02-18T22:31:08Z</time>
        <extensions><gpxtpx:TrackPointExtension><gpxtpx:hr>144</gpxtpx:hr></gpxtpx:TrackPointExtension></extensions>
      </trkpt>
      <trkpt lat="59.9847053" lon="15.827408">
        <ele>93.8</ele>
        <time>2013-02-18T22:31:09Z</time>
        <extensions><gpxtpx:TrackPointExtension><gpxtpx:hr>145</gpxtpx:hr></gpxtpx:TrackPointExtension></extensions>
      </trkpt>
      <trkpt lat="59.9847044" lon="15.8274027">
        <ele>93.8</ele>
        <time>2013-02-18T22:31:10Z</time>
        <extensions><gpxtpx:TrackPointExtension><gpxtpx:hr>145</gpxtpx:hr></gpxtpx:TrackPointExtension></extensions>
      </trkpt>
      <trkpt lat="59.9847006" lon="15.8274022">
        <ele>93.8</ele>
        <time>2013-02-18T22:31:11Z</time>
        <extensions><gpxtpx:TrackPointExtension><gpxtpx:hr>145</gpxtpx:hr></gpxtpx:TrackPointExtension></extensions>
      </trkpt>
      <trkpt lat="59.9846777" lon="15.8274463">
        <ele>93.8</ele>
        <time>2013-02-18T22:31:12Z</time>
        <extensions><gpxtpx:TrackPointExtension><gpxtpx:hr>144</gpxtpx:hr></gpxtpx:TrackPointExtension></extensions>
      </trkpt>
      <trkpt lat="59.9846634" lon="15.8274818">
        <ele>93.8</ele>
        <time>2013-02-18T22:31:13Z</time>
        <extensions><gpxtpx:TrackPointExtension><gpxtpx:hr>144</gpxtpx:hr></gpxtpx:TrackPointExtension></extensions>
      </trkpt>
      <trkpt lat="59.9846532" lon="15.8275175">
        <ele>93.8</ele>
        <time>2013-02-18T22:31:14Z</time>
        <extensions><gpxtpx:TrackPointExtension><gpxtpx:hr>144</gpxtpx:hr></gpxtpx:TrackPointExtension></extensions>
      </trkpt>
      <trkpt lat="59.9846409" lon="15.8275671">
        <ele>93.8</ele>
        <time>2013-02-18T22:31:16Z</time>
        <extensions><gpxtpx:TrackPointExtension><gpxtpx:hr>145</gpxtpx:hr></gpxtpx:TrackPointExtension></extensions>
      </trkpt>
      <trkpt lat="59.9846342" lon="15.8275793">
        <ele>93.8</ele>
        <time>2013-02-18T22:31:17Z</time>
        <extensions><gpxtpx:TrackPointExtension><gpxtpx:hr>145</gpxtpx:hr></gpxtpx:TrackPointExtension></extensions>
      </trkpt>
      <trkpt lat="59.9846248" lon="15.8276054">
        <ele>96.8</ele>
        <time>2013-02-18T22:31:18Z</time>
        <extensions><gpxtpx:TrackPointExtension><gpxtpx:hr>145</gpxtpx:hr></gpxtpx:TrackPointExtension></extensions>
      </trkpt>
      <trkpt lat="59.9846216" lon="15.8276233">
        <ele>96.8</ele>
        <time>2013-02-18T22:31:19Z</time>
        <extensions><gpxtpx:TrackPointExtension><gpxtpx:hr>145</gpxtpx:hr></gpxtpx:TrackPointExtension></extensions>
      </trkpt>
      <trkpt lat="59.9846098" lon="15.8276474">
        <ele>96.8</ele>
        <time>2013-02-18T22:31:20Z</time>
        <extensions><gpxtpx:TrackPointExtension><gpxtpx:hr>145</gpxtpx:hr></gpxtpx:TrackPointExtension></extensions>
      </trkpt>
      <trkpt lat="59.9846026" lon="15.8276832">
        <ele>96.8</ele>
        <time>2013-02-18T22:31:21Z</time>
        <extensions><gpxtpx:TrackPointExtension><gpxtpx:hr>145</gpxtpx:hr></gpxtpx:TrackPointExtension></extensions>
      </trkpt>
      <trkpt lat="59.9845989" lon="15.8277019">
        <ele>96.8</ele>
        <time>2013-02-18T22:31:22Z</time>
        <extensions><gpxtpx:TrackPointExtension><gpxtpx:hr>145</gpxtpx:hr></gpxtpx:TrackPointExtension></extensions>
      </trkpt>
      <trkpt lat="59.9845995" lon="15.8277172">
        <ele>96.8</ele>
        <time>2013-02-18T22:31:24Z</time>
        <extensions><gpxtpx:TrackPointExtension><gpxtpx:hr>145</gpxtpx:hr></gpxtpx:TrackPointExtension></extensions>
      </trkpt>
      <trkpt lat="59.9846015" lon="15.8277216">
        <ele>96.8</ele>
        <time>2013-02-18T22:31:25Z</time>
        <extensions><gpxtpx:TrackPointExtension><gpxtpx:hr>145</gpxtpx:hr></gpxtpx:TrackPointExtension></extensions>
      </trkpt>
      <trkpt lat="59.9846012" lon="15.8277193">
        <ele>96.8</ele>
        <time>2013-02-18T22:31:26Z</time>
        <extensions><gpxtpx:TrackPointExtension><gpxtpx:hr>145</gpxtpx:hr></gpxtpx:TrackPointExtension></extensions>
      </trkpt>
      <trkpt lat="59.9846002" lon="15.8277156">
        <ele>96.8</ele>
        <time>2013-02-18T22:31:27Z</time>
        <extensions><gpxtpx:TrackPointExtension><gpxtpx:hr>145</gpxtpx:hr></gpxtpx:TrackPointExtension></extensions>
      </trkpt>
      <trkpt lat="59.9845984" lon="15.8277153">
        <ele>96.8</ele>
        <time>2013-02-18T22:31:28Z</time>
        <extensions><gpxtpx:TrackPointExtension><gpxtpx:hr>145</gpxtpx:hr></gpxtpx:TrackPointExtension></extensions>
      </trkpt>
      <trkpt lat="59.9845958" lon="15.8277143">
        <ele>96.8</ele>
        <time>2013-02-18T22:31:29Z</time>
        <extensions><gpxtpx:TrackPointExtension><gpxtpx:hr>145</gpxtpx:hr></gpxtpx:TrackPointExtension></extensions>
      </trkpt>
      <trkpt lat="59.9845927" lon="15.8277131">
        <ele>96.8</ele>
        <time>2013-02-18T22:31:30Z</time>
        <extensions><gpxtpx:TrackPointExtension><gpxtpx:hr>145</gpxtpx:hr></gpxtpx:TrackPointExtension></extensions>
      </trkpt>
      <trkpt lat="59.9845901" lon="15.8277133">
        <ele>96.8</ele>
        <time>2013-02-18T22:31:31Z</time>
        <extensions><gpxtpx:TrackPointExtension><gpxtpx:hr>145</gpxtpx:hr></gpxtpx:TrackPointExtension></extensions>
      </trkpt>
      <trkpt lat="59.9845824" lon="15.8276212">
        <ele>96.8</ele>
        <time>2013-02-18T22:31:34Z</time>
        <extensions><gpxtpx:TrackPointExtension><gpxtpx:hr>145</gpxtpx:hr></gpxtpx:TrackPointExtension></extensions>
      </trkpt>
      <trkpt lat="59.9845852" lon="15.8275877">
        <ele>96.8</ele>
        <time>2013-02-18T22:31:36Z</time>
        <extensions><gpxtpx:TrackPointExtension><gpxtpx:hr>145</gpxtpx:hr></gpxtpx:TrackPointExtension></extensions>
      </trkpt>
      <trkpt lat="59.9845699" lon="15.8275675">
        <ele>96.8</ele>
        <time>2013-02-18T22:31:41Z</time>
        <extensions><gpxtpx:TrackPointExtension><gpxtpx:hr>145</gpxtpx:hr></gpxtpx:TrackPointExtension></extensions>
      </trkpt>
      <trkpt lat="59.9845682" lon="15.827561">
        <ele>96.8</ele>
        <time>2013-02-18T22:31:44Z</time>
        <extensions><gpxtpx:TrackPointExtension><gpxtpx:hr>146</gpxtpx:hr></gpxtpx:TrackPointExtension></extensions>
      </trkpt>
      <trkpt lat="59.9845694" lon="15.8275613">
        <ele>96.8</ele>
        <time>2013-02-18T22:31:45Z</time>
        <extensions><gpxtpx:TrackPointExtension><gpxtpx:hr>145</gpxtpx:hr></gpxtpx:TrackPointExtension></extensions>
      </trkpt>
      <trkpt lat="59.9845731" lon="15.8275523">
        <ele>96.8</ele>
        <time>2013-02-18T22:31:46Z</time>
        <extensions><gpxtpx:TrackPointExtension><gpxtpx:hr>146</gpxtpx:hr></gpxtpx:TrackPointExtension></extensions>
      </trkpt>
      <trkpt lat="59.9845775" lon="15.827542">
        <ele>96.8</ele>
        <time>2013-02-18T22:31:47Z</time>
        <extensions><gpxtpx:TrackPointExtension><gpxtpx:hr>145</gpxtpx:hr></gpxtpx:TrackPointExtension></extensions>
      </trkpt>
      <trkpt lat="59.9845848" lon="15.8275254">
        <ele>96.8</ele>
        <time>2013-02-18T22:31:48Z</time>
        <extensions><gpxtpx:TrackPointExtension><gpxtpx:hr>145</gpxtpx:hr></gpxtpx:TrackPointExtension></extensions>
      </trkpt>
      <trkpt lat="59.9845902" lon="15.8275224">
        <ele>96.8</ele>
        <time>2013-02-18T22:31:49Z</time>
        <extensions><gpxtpx:TrackPointExtension><gpxtpx:hr>145</gpxtpx:hr></gpxtpx:TrackPointExtension></extensions>
      </trkpt>
      <trkpt lat="59.9845897" lon="15.8275214">
        <ele>96.8</ele>
        <time>2013-02-18T22:31:50Z</time>
        <extensions><gpxtpx:TrackPointExtension><gpxtpx:hr>145</gpxtpx:hr></gpxtpx:TrackPointExtension></extensions>
      </trkpt>
      <trkpt lat="59.9845883" lon="15.8275199">
        <ele>96.8</ele>
        <time>2013-02-18T22:31:51Z</time>
        <extensions><gpxtpx:TrackPointExtension><gpxtpx:hr>145</gpxtpx:hr></gpxtpx:TrackPointExtension></extensions>
      </trkpt>
      <trkpt lat="59.9845851" lon="15.8275218">
        <ele>96.8</ele>
        <time>2013-02-18T22:31:52Z</time>
        <extensions><gpxtpx:TrackPointExtension><gpxtpx:hr>145</gpxtpx:hr></gpxtpx:TrackPointExtension></extensions>
      </trkpt>
      <trkpt lat="59.9845819" lon="15.827522">
        <ele>96.8</ele>
        <time>2013-02-18T22:31:53Z</time>
        <extensions><gpxtpx:TrackPointExtension><gpxtpx:hr>145</gpxtpx:hr></gpxtpx:TrackPointExtension></extensions>
      </trkpt>
      <trkpt lat="59.9845794" lon="15.8275281">
        <ele>96.8</ele>
        <time>2013-02-18T22:31:54Z</time>
        <extensions><gpxtpx:TrackPointExtension><gpxtpx:hr>145</gpxtpx:hr></gpxtpx:TrackPointExtension></extensions>
      </trkpt>
      <trkpt lat="59.9845608" lon="15.8275548">
        <ele>96.8</ele>
        <time>2013-02-18T22:31:55Z</time>
        <extensions><gpxtpx:TrackPointExtension><gpxtpx:hr>145</gpxtpx:hr></gpxtpx:TrackPointExtension></extensions>
      </trkpt>
      <trkpt lat="59.984556" lon="15.8275771">
        <ele>96.8</ele>
        <time>2013-02-18T22:31:56Z</time>
        <extensions><gpxtpx:TrackPointExtension><gpxtpx:hr>144</gpxtpx:hr></gpxtpx:TrackPointExtension></extensions>
      </trkpt>
      <trkpt lat="59.9845526" lon="15.8275934">
        <ele>96.8</ele>
        <time>2013-02-18T22:31:57Z</time>
        <extensions><gpxtpx:TrackPointExtension><gpxtpx:hr>145</gpxtpx:hr></gpxtpx:TrackPointExtension></extensions>
      </trkpt>
      <trkpt lat="59.9845463" lon="15.8276054">
        <ele>96.8</ele>
        <time>2013-02-18T22:31:58Z</time>
        <extensions><gpxtpx:TrackPointExtension><gpxtpx:hr>145</gpxtpx:hr></gpxtpx:TrackPointExtension></extensions>
      </trkpt>
      <trkpt lat="59.9845456" lon="15.8276174">
        <ele>96.8</ele>
        <time>2013-02-18T22:31:59Z</time>
        <extensions><gpxtpx:TrackPointExtension><gpxtpx:hr>145</gpxtpx:hr></gpxtpx:TrackPointExtension></extensions>
      </trkpt>
      <trkpt lat="59.9845279" lon="15.8277024">
        <ele>96.8</ele>
        <time>2013-02-18T22:32:02Z</time>
        <extensions><gpxtpx:TrackPointExtension><gpxtpx:hr>144</gpxtpx:hr></gpxtpx:TrackPointExtension></extensions>
      </trkpt>
      <trkpt lat="59.9845238" lon="15.8277183">
        <ele>96.8</ele>
        <time>2013-02-18T22:32:03Z</time>
        <extensions><gpxtpx:TrackPointExtension><gpxtpx:hr>144</gpxtpx:hr></gpxtpx:TrackPointExtension></extensions>
      </trkpt>
      <trkpt lat="59.9845199" lon="15.827748">
        <ele>96.8</ele>
        <time>2013-02-18T22:32:04Z</time>
        <extensions><gpxtpx:TrackPointExtension><gpxtpx:hr>144</gpxtpx:hr></gpxtpx:TrackPointExtension></extensions>
      </trkpt>
      <trkpt lat="59.9845165" lon="15.8277682">
        <ele>96.8</ele>
        <time>2013-02-18T22:32:05Z</time>
        <extensions><gpxtpx:TrackPointExtension><gpxtpx:hr>144</gpxtpx:hr></gpxtpx:TrackPointExtension></extensions>
      </trkpt>
      <trkpt lat="59.9845207" lon="15.827784">
        <ele>96.8</ele>
        <time>2013-02-18T22:32:06Z</time>
        <extensions><gpxtpx:TrackPointExtension><gpxtpx:hr>143</gpxtpx:hr></gpxtpx:TrackPointExtension></extensions>
      </trkpt>
      <trkpt lat="59.9845213" lon="15.8278009">
        <ele>96.8</ele>
        <time>2013-02-18T22:32:07Z</time>
        <extensions><gpxtpx:TrackPointExtension><gpxtpx:hr>144</gpxtpx:hr></gpxtpx:TrackPointExtension></extensions>
      </trkpt>
      <trkpt lat="59.9845222" lon="15.8278315">
        <ele>96.8</ele>
        <time>2013-02-18T22:32:08Z</time>
        <extensions><gpxtpx:TrackPointExtension><gpxtpx:hr>143</gpxtpx:hr></gpxtpx:TrackPointExtension></extensions>
      </trkpt>
      <trkpt lat="59.984522" lon="15.8278437">
        <ele>96.8</ele>
        <time>2013-02-18T22:32:09Z</time>
        <extensions><gpxtpx:TrackPointExtension><gpxtpx:hr>144</gpxtpx:hr></gpxtpx:TrackPointExtension></extensions>
      </trkpt>
      <trkpt lat="59.9845213" lon="15.8278586">
        <ele>96.8</ele>
        <time>2013-02-18T22:32:10Z</time>
        <extensions><gpxtpx:TrackPointExtension><gpxtpx:hr>144</gpxtpx:hr></gpxtpx:TrackPointExtension></extensions>
      </trkpt>
      <trkpt lat="59.9845161" lon="15.8278584">
        <ele>96.8</ele>
        <time>2013-02-18T22:32:11Z</time>
        <extensions><gpxtpx:TrackPointExtension><gpxtpx:hr>144</gpxtpx:hr></gpxtpx:TrackPointExtension></extensions>
      </trkpt>
      <trkpt lat="59.9845143" lon="15.8278757">
        <ele>96.8</ele>
        <time>2013-02-18T22:32:12Z</time>
        <extensions><gpxtpx:TrackPointExtension><gpxtpx:hr>144</gpxtpx:hr></gpxtpx:TrackPointExtension></extensions>
      </trkpt>
      <trkpt lat="59.9845104" lon="15.827906">
        <ele>96.8</ele>
        <time>2013-02-18T22:32:13Z</time>
        <extensions><gpxtpx:TrackPointExtension><gpxtpx:hr>144</gpxtpx:hr></gpxtpx:TrackPointExtension></extensions>
      </trkpt>
      <trkpt lat="59.9845087" lon="15.8279216">
        <ele>96.8</ele>
        <time>2013-02-18T22:32:14Z</time>
        <extensions><gpxtpx:TrackPointExtension><gpxtpx:hr>144</gpxtpx:hr></gpxtpx:TrackPointExtension></extensions>
      </trkpt>
      <trkpt lat="59.9845048" lon="15.8279365">
        <ele>96.8</ele>
        <time>2013-02-18T22:32:15Z</time>
        <extensions><gpxtpx:TrackPointExtension><gpxtpx:hr>144</gpxtpx:hr></gpxtpx:TrackPointExtension></extensions>
      </trkpt>
      <trkpt lat="59.9845015" lon="15.8279501">
        <ele>96.8</ele>
        <time>2013-02-18T22:32:16Z</time>
        <extensions><gpxtpx:TrackPointExtension><gpxtpx:hr>144</gpxtpx:hr></gpxtpx:TrackPointExtension></extensions>
      </trkpt>
      <trkpt lat="59.9845064" lon="15.8279743">
        <ele>96.8</ele>
        <time>2013-02-18T22:32:17Z</time>
        <extensions><gpxtpx:TrackPointExtension><gpxtpx:hr>144</gpxtpx:hr></gpxtpx:TrackPointExtension></extensions>
      </trkpt>
      <trkpt lat="59.9845138" lon="15.8279863">
        <ele>96.8</ele>
        <time>2013-02-18T22:32:18Z</time>
        <extensions><gpxtpx:TrackPointExtension><gpxtpx:hr>144</gpxtpx:hr></gpxtpx:TrackPointExtension></extensions>
      </trkpt>
      <trkpt lat="59.9845169" lon="15.8279877">
        <ele>96.8</ele>
        <time>2013-02-18T22:32:19Z</time>
        <extensions><gpxtpx:TrackPointExtension><gpxtpx:hr>143</gpxtpx:hr></gpxtpx:TrackPointExtension></extensions>
      </trkpt>
      <trkpt lat="59.9845151" lon="15.8279808">
        <ele>96.8</ele>
        <time>2013-02-18T22:32:21Z</time>
        <extensions><gpxtpx:TrackPointExtension><gpxtpx:hr>143</gpxtpx:hr></gpxtpx:TrackPointExtension></extensions>
      </trkpt>
      <trkpt lat="59.9845113" lon="15.8279742">
        <ele>96.8</ele>
        <time>2013-02-18T22:32:22Z</time>
        <extensions><gpxtpx:TrackPointExtension><gpxtpx:hr>144</gpxtpx:hr></gpxtpx:TrackPointExtension></extensions>
      </trkpt>
      <trkpt lat="59.9845077" lon="15.8279671">
        <ele>96.8</ele>
        <time>2013-02-18T22:32:23Z</time>
        <extensions><gpxtpx:TrackPointExtension><gpxtpx:hr>143</gpxtpx:hr></gpxtpx:TrackPointExtension></extensions>
      </trkpt>
      <trkpt lat="59.9845087" lon="15.8279607">
        <ele>96.8</ele>
        <time>2013-02-18T22:32:25Z</time>
        <extensions><gpxtpx:TrackPointExtension><gpxtpx:hr>144</gpxtpx:hr></gpxtpx:TrackPointExtension></extensions>
      </trkpt>
      <trkpt lat="59.9845335" lon="15.8279005">
        <ele>96.8</ele>
        <time>2013-02-18T22:32:26Z</time>
        <extensions><gpxtpx:TrackPointExtension><gpxtpx:hr>144</gpxtpx:hr></gpxtpx:TrackPointExtension></extensions>
      </trkpt>
      <trkpt lat="59.9845375" lon="15.8279118">
        <ele>96.8</ele>
        <time>2013-02-18T22:32:27Z</time>
        <extensions><gpxtpx:TrackPointExtension><gpxtpx:hr>144</gpxtpx:hr></gpxtpx:TrackPointExtension></extensions>
      </trkpt>
      <trkpt lat="59.9845372" lon="15.8279087">
        <ele>96.8</ele>
        <time>2013-02-18T22:32:28Z</time>
        <extensions><gpxtpx:TrackPointExtension><gpxtpx:hr>144</gpxtpx:hr></gpxtpx:TrackPointExtension></extensions>
      </trkpt>
      <trkpt lat="59.9845352" lon="15.8279033">
        <ele>96.8</ele>
        <time>2013-02-18T22:32:29Z</time>
        <extensions><gpxtpx:TrackPointExtension><gpxtpx:hr>144</gpxtpx:hr></gpxtpx:TrackPointExtension></extensions>
      </trkpt>
      <trkpt lat="59.9845203" lon="15.8278453">
        <ele>96.8</ele>
        <time>2013-02-18T22:32:30Z</time>
        <extensions><gpxtpx:TrackPointExtension><gpxtpx:hr>144</gpxtpx:hr></gpxtpx:TrackPointExtension></extensions>
      </trkpt>
      <trkpt lat="59.9845225" lon="15.8278519">
        <ele>96.8</ele>
        <time>2013-02-18T22:32:31Z</time>
        <extensions><gpxtpx:TrackPointExtension><gpxtpx:hr>144</gpxtpx:hr></gpxtpx:TrackPointExtension></extensions>
      </trkpt>
      <trkpt lat="59.9845175" lon="15.8278511">
        <ele>96.8</ele>
        <time>2013-02-18T22:32:33Z</time>
        <extensions><gpxtpx:TrackPointExtension><gpxtpx:hr>145</gpxtpx:hr></gpxtpx:TrackPointExtension></extensions>
      </trkpt>
      <trkpt lat="59.9845175" lon="15.8278477">
        <ele>96.8</ele>
        <time>2013-02-18T22:32:34Z</time>
        <extensions><gpxtpx:TrackPointExtension><gpxtpx:hr>145</gpxtpx:hr></gpxtpx:TrackPointExtension></extensions>
      </trkpt>
      <trkpt lat="59.9845193" lon="15.8278463">
        <ele>96.8</ele>
        <time>2013-02-18T22:32:35Z</time>
        <extensions><gpxtpx:TrackPointExtension><gpxtpx:hr>145</gpxtpx:hr></gpxtpx:TrackPointExtension></extensions>
      </trkpt>
      <trkpt lat="59.9845185" lon="15.827834">
        <ele>96.8</ele>
        <time>2013-02-18T22:32:36Z</time>
        <extensions><gpxtpx:TrackPointExtension><gpxtpx:hr>145</gpxtpx:hr></gpxtpx:TrackPointExtension></extensions>
      </trkpt>
      <trkpt lat="59.9845187" lon="15.8278281">
        <ele>96.8</ele>
        <time>2013-02-18T22:32:37Z</time>
        <extensions><gpxtpx:TrackPointExtension><gpxtpx:hr>145</gpxtpx:hr></gpxtpx:TrackPointExtension></extensions>
      </trkpt>
      <trkpt lat="59.9845175" lon="15.827826">
        <ele>96.8</ele>
        <time>2013-02-18T22:32:38Z</time>
        <extensions><gpxtpx:TrackPointExtension><gpxtpx:hr>146</gpxtpx:hr></gpxtpx:TrackPointExtension></extensions>
      </trkpt>
      <trkpt lat="59.9845083" lon="15.8278206">
        <ele>96.8</ele>
        <time>2013-02-18T22:32:41Z</time>
        <extensions><gpxtpx:TrackPointExtension><gpxtpx:hr>146</gpxtpx:hr></gpxtpx:TrackPointExtension></extensions>
      </trkpt>
      <trkpt lat="59.9845011" lon="15.8278192">
        <ele>96.8</ele>
        <time>2013-02-18T22:32:42Z</time>
        <extensions><gpxtpx:TrackPointExtension><gpxtpx:hr>146</gpxtpx:hr></gpxtpx:TrackPointExtension></extensions>
      </trkpt>
      <trkpt lat="59.9844941" lon="15.8278175">
        <ele>96.8</ele>
        <time>2013-02-18T22:32:43Z</time>
        <extensions><gpxtpx:TrackPointExtension><gpxtpx:hr>147</gpxtpx:hr></gpxtpx:TrackPointExtension></extensions>
      </trkpt>
      <trkpt lat="59.9844891" lon="15.827817">
        <ele>96.8</ele>
        <time>2013-02-18T22:32:44Z</time>
        <extensions><gpxtpx:TrackPointExtension><gpxtpx:hr>146</gpxtpx:hr></gpxtpx:TrackPointExtension></extensions>
      </trkpt>
      <trkpt lat="59.9844848" lon="15.827826">
        <ele>96.8</ele>
        <time>2013-02-18T22:32:45Z</time>
        <extensions><gpxtpx:TrackPointExtension><gpxtpx:hr>146</gpxtpx:hr></gpxtpx:TrackPointExtension></extensions>
      </trkpt>
      <trkpt lat="59.9845681" lon="15.8278583">
        <ele>96.8</ele>
        <time>2013-02-18T22:32:46Z</time>
        <extensions><gpxtpx:TrackPointExtension><gpxtpx:hr>146</gpxtpx:hr></gpxtpx:TrackPointExtension></extensions>
      </trkpt>
      <trkpt lat="59.9845834" lon="15.8278649">
        <ele>96.8</ele>
        <time>2013-02-18T22:32:47Z</time>
        <extensions><gpxtpx:TrackPointExtension><gpxtpx:hr>146</gpxtpx:hr></gpxtpx:TrackPointExtension></extensions>
      </trkpt>
      <trkpt lat="59.984603" lon="15.8278715">
        <ele>96.8</ele>
        <time>2013-02-18T22:32:48Z</time>
        <extensions><gpxtpx:TrackPointExtension><gpxtpx:hr>146</gpxtpx:hr></gpxtpx:TrackPointExtension></extensions>
      </trkpt>
      <trkpt lat="59.9846154" lon="15.82787">
        <ele>96.8</ele>
        <time>2013-02-18T22:32:50Z</time>
        <extensions><gpxtpx:TrackPointExtension><gpxtpx:hr>146</gpxtpx:hr></gpxtpx:TrackPointExtension></extensions>
      </trkpt>
      <trkpt lat="59.984619" lon="15.827864">
        <ele>96.8</ele>
        <time>2013-02-18T22:32:51Z</time>
        <extensions><gpxtpx:TrackPointExtension><gpxtpx:hr>146</gpxtpx:hr></gpxtpx:TrackPointExtension></extensions>
      </trkpt>
      <trkpt lat="59.9846261" lon="15.8278757">
        <ele>96.8</ele>
        <time>2013-02-18T22:32:53Z</time>
        <extensions><gpxtpx:TrackPointExtension><gpxtpx:hr>146</gpxtpx:hr></gpxtpx:TrackPointExtension></extensions>
      </trkpt>
      <trkpt lat="59.9846103" lon="15.8278909">
        <ele>96.8</ele>
        <time>2013-02-18T22:32:59Z</time>
        <extensions><gpxtpx:TrackPointExtension><gpxtpx:hr>147</gpxtpx:hr></gpxtpx:TrackPointExtension></extensions>
      </trkpt>
      <trkpt lat="59.9846668" lon="15.8278486">
        <ele>96.8</ele>
        <time>2013-02-18T22:33:01Z</time>
        <extensions><gpxtpx:TrackPointExtension><gpxtpx:hr>147</gpxtpx:hr></gpxtpx:TrackPointExtension></extensions>
      </trkpt>
      <trkpt lat="59.984685" lon="15.8278645">
        <ele>96.8</ele>
        <time>2013-02-18T22:33:02Z</time>
        <extensions><gpxtpx:TrackPointExtension><gpxtpx:hr>147</gpxtpx:hr></gpxtpx:TrackPointExtension></extensions>
      </trkpt>
      <trkpt lat="59.9846938" lon="15.8278678">
        <ele>96.8</ele>
        <time>2013-02-18T22:33:03Z</time>
        <extensions><gpxtpx:TrackPointExtension><gpxtpx:hr>147</gpxtpx:hr></gpxtpx:TrackPointExtension></extensions>
      </trkpt>
      <trkpt lat="59.9846968" lon="15.8278709">
        <ele>96.8</ele>
        <time>2013-02-18T22:33:04Z</time>
        <extensions><gpxtpx:TrackPointExtension><gpxtpx:hr>147</gpxtpx:hr></gpxtpx:TrackPointExtension></extensions>
      </trkpt>
      <trkpt lat="59.9846963" lon="15.8278632">
        <ele>96.8</ele>
        <time>2013-02-18T22:33:05Z</time>
        <extensions><gpxtpx:TrackPointExtension><gpxtpx:hr>147</gpxtpx:hr></gpxtpx:TrackPointExtension></extensions>
      </trkpt>
      <trkpt lat="59.9846917" lon="15.8278364">
        <ele>96.8</ele>
        <time>2013-02-18T22:33:06Z</time>
        <extensions><gpxtpx:TrackPointExtension><gpxtpx:hr>148</gpxtpx:hr></gpxtpx:TrackPointExtension></extensions>
      </trkpt>
      <trkpt lat="59.9846877" lon="15.8278242">
        <ele>96.8</ele>
        <time>2013-02-18T22:33:07Z</time>
        <extensions><gpxtpx:TrackPointExtension><gpxtpx:hr>148</gpxtpx:hr></gpxtpx:TrackPointExtension></extensions>
      </trkpt>
      <trkpt lat="59.984682" lon="15.8278208">
        <ele>96.8</ele>
        <time>2013-02-18T22:33:08Z</time>
        <extensions><gpxtpx:TrackPointExtension><gpxtpx:hr>148</gpxtpx:hr></gpxtpx:TrackPointExtension></extensions>
      </trkpt>
      <trkpt lat="59.9846772" lon="15.8278181">
        <ele>96.8</ele>
        <time>2013-02-18T22:33:09Z</time>
        <extensions><gpxtpx:TrackPointExtension><gpxtpx:hr>148</gpxtpx:hr></gpxtpx:TrackPointExtension></extensions>
      </trkpt>
      <trkpt lat="59.9846736" lon="15.8278171">
        <ele>96.8</ele>
        <time>2013-02-18T22:33:10Z</time>
        <extensions><gpxtpx:TrackPointExtension><gpxtpx:hr>149</gpxtpx:hr></gpxtpx:TrackPointExtension></extensions>
      </trkpt>
      <trkpt lat="59.9846714" lon="15.8278192">
        <ele>96.8</ele>
        <time>2013-02-18T22:33:11Z</time>
        <extensions><gpxtpx:TrackPointExtension><gpxtpx:hr>149</gpxtpx:hr></gpxtpx:TrackPointExtension></extensions>
      </trkpt>
      <trkpt lat="59.9846583" lon="15.82784">
        <ele>96.8</ele>
        <time>2013-02-18T22:33:16Z</time>
        <extensions><gpxtpx:TrackPointExtension><gpxtpx:hr>148</gpxtpx:hr></gpxtpx:TrackPointExtension></extensions>
      </trkpt>
      <trkpt lat="59.9846367" lon="15.8278413">
        <ele>96.8</ele>
        <time>2013-02-18T22:33:21Z</time>
        <extensions><gpxtpx:TrackPointExtension><gpxtpx:hr>149</gpxtpx:hr></gpxtpx:TrackPointExtension></extensions>
      </trkpt>
      <trkpt lat="59.9846335" lon="15.827848">
        <ele>96.8</ele>
        <time>2013-02-18T22:33:22Z</time>
        <extensions><gpxtpx:TrackPointExtension><gpxtpx:hr>149</gpxtpx:hr></gpxtpx:TrackPointExtension></extensions>
      </trkpt>
      <trkpt lat="59.984629" lon="15.8278516">
        <ele>96.8</ele>
        <time>2013-02-18T22:33:23Z</time>
        <extensions><gpxtpx:TrackPointExtension><gpxtpx:hr>149</gpxtpx:hr></gpxtpx:TrackPointExtension></extensions>
      </trkpt>
      <trkpt lat="59.9846228" lon="15.8278504">
        <ele>96.8</ele>
        <time>2013-02-18T22:33:24Z</time>
        <extensions><gpxtpx:TrackPointExtension><gpxtpx:hr>149</gpxtpx:hr></gpxtpx:TrackPointExtension></extensions>
      </trkpt>
      <trkpt lat="59.9846173" lon="15.8278527">
        <ele>96.8</ele>
        <time>2013-02-18T22:33:25Z</time>
        <extensions><gpxtpx:TrackPointExtension><gpxtpx:hr>149</gpxtpx:hr></gpxtpx:TrackPointExtension></extensions>
      </trkpt>
      <trkpt lat="59.9846131" lon="15.8278541">
        <ele>96.8</ele>
        <time>2013-02-18T22:33:26Z</time>
        <extensions><gpxtpx:TrackPointExtension><gpxtpx:hr>149</gpxtpx:hr></gpxtpx:TrackPointExtension></extensions>
      </trkpt>
      <trkpt lat="59.9846102" lon="15.8278538">
        <ele>96.8</ele>
        <time>2013-02-18T22:33:27Z</time>
        <extensions><gpxtpx:TrackPointExtension><gpxtpx:hr>149</gpxtpx:hr></gpxtpx:TrackPointExtension></extensions>
      </trkpt>
      <trkpt lat="59.9846064" lon="15.8278488">
        <ele>96.8</ele>
        <time>2013-02-18T22:33:28Z</time>
        <extensions><gpxtpx:TrackPointExtension><gpxtpx:hr>149</gpxtpx:hr></gpxtpx:TrackPointExtension></extensions>
      </trkpt>
      <trkpt lat="59.9846056" lon="15.8278494">
        <ele>96.8</ele>
        <time>2013-02-18T22:33:29Z</time>
        <extensions><gpxtpx:TrackPointExtension><gpxtpx:hr>149</gpxtpx:hr></gpxtpx:TrackPointExtension></extensions>
      </trkpt>
      <trkpt lat="59.9846084" lon="15.8278518">
        <ele>96.8</ele>
        <time>2013-02-18T22:33:30Z</time>
        <extensions><gpxtpx:TrackPointExtension><gpxtpx:hr>149</gpxtpx:hr></gpxtpx:TrackPointExtension></extensions>
      </trkpt>
      <trkpt lat="59.9846108" lon="15.827854">
        <ele>96.8</ele>
        <time>2013-02-18T22:33:31Z</time>
        <extensions><gpxtpx:TrackPointExtension><gpxtpx:hr>150</gpxtpx:hr></gpxtpx:TrackPointExtension></extensions>
      </trkpt>
      <trkpt lat="59.9846107" lon="15.8278579">
        <ele>96.8</ele>
        <time>2013-02-18T22:33:32Z</time>
        <extensions><gpxtpx:TrackPointExtension><gpxtpx:hr>150</gpxtpx:hr></gpxtpx:TrackPointExtension></extensions>
      </trkpt>
      <trkpt lat="59.9846081" lon="15.8278601">
        <ele>96.8</ele>
        <time>2013-02-18T22:33:33Z</time>
        <extensions><gpxtpx:TrackPointExtension><gpxtpx:hr>150</gpxtpx:hr></gpxtpx:TrackPointExtension></extensions>
      </trkpt>
      <trkpt lat="59.9846058" lon="15.8278522">
        <ele>96.8</ele>
        <time>2013-02-18T22:33:34Z</time>
        <extensions><gpxtpx:TrackPointExtension><gpxtpx:hr>150</gpxtpx:hr></gpxtpx:TrackPointExtension></extensions>
      </trkpt>
      <trkpt lat="59.9846802" lon="15.8279885">
        <ele>96.8</ele>
        <time>2013-02-18T22:33:35Z</time>
        <extensions><gpxtpx:TrackPointExtension><gpxtpx:hr>150</gpxtpx:hr></gpxtpx:TrackPointExtension></extensions>
      </trkpt>
      <trkpt lat="59.9846653" lon="15.8280034">
        <ele>96.8</ele>
        <time>2013-02-18T22:33:36Z</time>
        <extensions><gpxtpx:TrackPointExtension><gpxtpx:hr>150</gpxtpx:hr></gpxtpx:TrackPointExtension></extensions>
      </trkpt>
      <trkpt lat="59.9846598" lon="15.8280202">
        <ele>96.8</ele>
        <time>2013-02-18T22:33:37Z</time>
        <extensions><gpxtpx:TrackPointExtension><gpxtpx:hr>150</gpxtpx:hr></gpxtpx:TrackPointExtension></extensions>
      </trkpt>
      <trkpt lat="59.98465" lon="15.8280259">
        <ele>96.8</ele>
        <time>2013-02-18T22:33:38Z</time>
        <extensions><gpxtpx:TrackPointExtension><gpxtpx:hr>150</gpxtpx:hr></gpxtpx:TrackPointExtension></extensions>
      </trkpt>
      <trkpt lat="59.984641" lon="15.8280314">
        <ele>96.8</ele>
        <time>2013-02-18T22:33:41Z</time>
        <extensions><gpxtpx:TrackPointExtension><gpxtpx:hr>150</gpxtpx:hr></gpxtpx:TrackPointExtension></extensions>
      </trkpt>
      <trkpt lat="59.9846423" lon="15.8280402">
        <ele>96.8</ele>
        <time>2013-02-18T22:33:42Z</time>
        <extensions><gpxtpx:TrackPointExtension><gpxtpx:hr>150</gpxtpx:hr></gpxtpx:TrackPointExtension></extensions>
      </trkpt>
      <trkpt lat="59.9846461" lon="15.8280334">
        <ele>96.8</ele>
        <time>2013-02-18T22:33:43Z</time>
        <extensions><gpxtpx:TrackPointExtension><gpxtpx:hr>149</gpxtpx:hr></gpxtpx:TrackPointExtension></extensions>
      </trkpt>
      <trkpt lat="59.984644" lon="15.8280321">
        <ele>96.8</ele>
        <time>2013-02-18T22:33:44Z</time>
        <extensions><gpxtpx:TrackPointExtension><gpxtpx:hr>150</gpxtpx:hr></gpxtpx:TrackPointExtension></extensions>
      </trkpt>
      <trkpt lat="59.9846435" lon="15.8280259">
        <ele>96.8</ele>
        <time>2013-02-18T22:33:45Z</time>
        <extensions><gpxtpx:TrackPointExtension><gpxtpx:hr>149</gpxtpx:hr></gpxtpx:TrackPointExtension></extensions>
      </trkpt>
      <trkpt lat="59.9846454" lon="15.8280218">
        <ele>96.8</ele>
        <time>2013-02-18T22:33:46Z</time>
        <extensions><gpxtpx:TrackPointExtension><gpxtpx:hr>149</gpxtpx:hr></gpxtpx:TrackPointExtension></extensions>
      </trkpt>
      <trkpt lat="59.9846474" lon="15.8280173">
        <ele>96.8</ele>
        <time>2013-02-18T22:33:47Z</time>
        <extensions><gpxtpx:TrackPointExtension><gpxtpx:hr>149</gpxtpx:hr></gpxtpx:TrackPointExtension></extensions>
      </trkpt>
      <trkpt lat="59.9846489" lon="15.8280097">
        <ele>96.8</ele>
        <time>2013-02-18T22:33:48Z</time>
        <extensions><gpxtpx:TrackPointExtension><gpxtpx:hr>149</gpxtpx:hr></gpxtpx:TrackPointExtension></extensions>
      </trkpt>
      <trkpt lat="59.9846485" lon="15.8280066">
        <ele>96.8</ele>
        <time>2013-02-18T22:33:49Z</time>
        <extensions><gpxtpx:TrackPointExtension><gpxtpx:hr>149</gpxtpx:hr></gpxtpx:TrackPointExtension></extensions>
      </trkpt>
      <trkpt lat="59.9846448" lon="15.8280048">
        <ele>96.8</ele>
        <time>2013-02-18T22:33:50Z</time>
        <extensions><gpxtpx:TrackPointExtension><gpxtpx:hr>149</gpxtpx:hr></gpxtpx:TrackPointExtension></extensions>
      </trkpt>
      <trkpt lat="59.9846404" lon="15.8280016">
        <ele>96.8</ele>
        <time>2013-02-18T22:33:51Z</time>
        <extensions><gpxtpx:TrackPointExtension><gpxtpx:hr>149</gpxtpx:hr></gpxtpx:TrackPointExtension></extensions>
      </trkpt>
      <trkpt lat="59.9846391" lon="15.8279974">
        <ele>96.8</ele>
        <time>2013-02-18T22:33:52Z</time>
        <extensions><gpxtpx:TrackPointExtension><gpxtpx:hr>149</gpxtpx:hr></gpxtpx:TrackPointExtension></extensions>
      </trkpt>
      <trkpt lat="59.984636" lon="15.8279956">
        <ele>96.8</ele>
        <time>2013-02-18T22:33:54Z</time>
        <extensions><gpxtpx:TrackPointExtension><gpxtpx:hr>148</gpxtpx:hr></gpxtpx:TrackPointExtension></extensions>
      </trkpt>
      <trkpt lat="59.9846644" lon="15.8279607">
        <ele>96.8</ele>
        <time>2013-02-18T22:33:55Z</time>
        <extensions><gpxtpx:TrackPointExtension><gpxtpx:hr>148</gpxtpx:hr></gpxtpx:TrackPointExtension></extensions>
      </trkpt>
      <trkpt lat="59.9846608" lon="15.827956">
        <ele>96.8</ele>
        <time>2013-02-18T22:33:56Z</time>
        <extensions><gpxtpx:TrackPointExtension><gpxtpx:hr>148</gpxtpx:hr></gpxtpx:TrackPointExtension></extensions>
      </trkpt>
      <trkpt lat="59.9846573" lon="15.8279559">
        <ele>96.8</ele>
        <time>2013-02-18T22:33:57Z</time>
        <extensions><gpxtpx:TrackPointExtension><gpxtpx:hr>148</gpxtpx:hr></gpxtpx:TrackPointExtension></extensions>
      </trkpt>
      <trkpt lat="59.9846556" lon="15.8279565">
        <ele>96.8</ele>
        <time>2013-02-18T22:33:58Z</time>
        <extensions><gpxtpx:TrackPointExtension><gpxtpx:hr>148</gpxtpx:hr></gpxtpx:TrackPointExtension></extensions>
      </trkpt>
      <trkpt lat="59.9846544" lon="15.8279565">
        <ele>96.8</ele>
        <time>2013-02-18T22:33:59Z</time>
        <extensions><gpxtpx:TrackPointExtension><gpxtpx:hr>148</gpxtpx:hr></gpxtpx:TrackPointExtension></extensions>
      </trkpt>
      <trkpt lat="59.9846561" lon="15.8279569">
        <ele>96.8</ele>
        <time>2013-02-18T22:34:00Z</time>
        <extensions><gpxtpx:TrackPointExtension><gpxtpx:hr>148</gpxtpx:hr></gpxtpx:TrackPointExtension></extensions>
      </trkpt>
      <trkpt lat="59.9846589" lon="15.8279552">
        <ele>96.8</ele>
        <time>2013-02-18T22:34:01Z</time>
        <extensions><gpxtpx:TrackPointExtension><gpxtpx:hr>148</gpxtpx:hr></gpxtpx:TrackPointExtension></extensions>
      </trkpt>
      <trkpt lat="59.9846836" lon="15.827949">
        <ele>96.8</ele>
        <time>2013-02-18T22:34:02Z</time>
        <extensions><gpxtpx:TrackPointExtension><gpxtpx:hr>148</gpxtpx:hr></gpxtpx:TrackPointExtension></extensions>
      </trkpt>
      <trkpt lat="59.9846998" lon="15.8279073">
        <ele>96.8</ele>
        <time>2013-02-18T22:34:04Z</time>
        <extensions><gpxtpx:TrackPointExtension><gpxtpx:hr>149</gpxtpx:hr></gpxtpx:TrackPointExtension></extensions>
      </trkpt>
      <trkpt lat="59.9846919" lon="15.8279309">
        <ele>96.8</ele>
        <time>2013-02-18T22:34:09Z</time>
        <extensions><gpxtpx:TrackPointExtension><gpxtpx:hr>149</gpxtpx:hr></gpxtpx:TrackPointExtension></extensions>
      </trkpt>
      <trkpt lat="59.9846793" lon="15.8279499">
        <ele>96.8</ele>
        <time>2013-02-18T22:34:12Z</time>
        <extensions><gpxtpx:TrackPointExtension><gpxtpx:hr>149</gpxtpx:hr></gpxtpx:TrackPointExtension></extensions>
      </trkpt>
      <trkpt lat="59.9846637" lon="15.8279683">
        <ele>96.8</ele>
        <time>2013-02-18T22:34:15Z</time>
        <extensions><gpxtpx:TrackPointExtension><gpxtpx:hr>150</gpxtpx:hr></gpxtpx:TrackPointExtension></extensions>
      </trkpt>
      <trkpt lat="59.9846564" lon="15.827938">
        <ele>96.8</ele>
        <time>2013-02-18T22:34:16Z</time>
        <extensions><gpxtpx:TrackPointExtension><gpxtpx:hr>150</gpxtpx:hr></gpxtpx:TrackPointExtension></extensions>
      </trkpt>
      <trkpt lat="59.9846553" lon="15.8279667">
        <ele>96.8</ele>
        <time>2013-02-18T22:34:18Z</time>
        <extensions><gpxtpx:TrackPointExtension><gpxtpx:hr>150</gpxtpx:hr></gpxtpx:TrackPointExtension></extensions>
      </trkpt>
      <trkpt lat="59.9846515" lon="15.8279775">
        <ele>96.8</ele>
        <time>2013-02-18T22:34:19Z</time>
        <extensions><gpxtpx:TrackPointExtension><gpxtpx:hr>150</gpxtpx:hr></gpxtpx:TrackPointExtension></extensions>
      </trkpt>
      <trkpt lat="59.9846472" lon="15.8279785">
        <ele>96.8</ele>
        <time>2013-02-18T22:34:20Z</time>
        <extensions><gpxtpx:TrackPointExtension><gpxtpx:hr>150</gpxtpx:hr></gpxtpx:TrackPointExtension></extensions>
      </trkpt>
      <trkpt lat="59.9846453" lon="15.8279422">
        <ele>96.8</ele>
        <time>2013-02-18T22:34:21Z</time>
        <extensions><gpxtpx:TrackPointExtension><gpxtpx:hr>150</gpxtpx:hr></gpxtpx:TrackPointExtension></extensions>
      </trkpt>
      <trkpt lat="59.9846463" lon="15.8279275">
        <ele>96.8</ele>
        <time>2013-02-18T22:34:22Z</time>
        <extensions><gpxtpx:TrackPointExtension><gpxtpx:hr>150</gpxtpx:hr></gpxtpx:TrackPointExtension></extensions>
      </trkpt>
      <trkpt lat="59.9846467" lon="15.8279199">
        <ele>96.8</ele>
        <time>2013-02-18T22:34:23Z</time>
        <extensions><gpxtpx:TrackPointExtension><gpxtpx:hr>150</gpxtpx:hr></gpxtpx:TrackPointExtension></extensions>
      </trkpt>
      <trkpt lat="59.984644" lon="15.8279166">
        <ele>96.8</ele>
        <time>2013-02-18T22:34:24Z</time>
        <extensions><gpxtpx:TrackPointExtension><gpxtpx:hr>150</gpxtpx:hr></gpxtpx:TrackPointExtension></extensions>
      </trkpt>
      <trkpt lat="59.9846465" lon="15.8279181">
        <ele>96.8</ele>
        <time>2013-02-18T22:34:25Z</time>
        <extensions><gpxtpx:TrackPointExtension><gpxtpx:hr>150</gpxtpx:hr></gpxtpx:TrackPointExtension></extensions>
      </trkpt>
      <trkpt lat="59.9846511" lon="15.827921">
        <ele>96.8</ele>
        <time>2013-02-18T22:34:26Z</time>
        <extensions><gpxtpx:TrackPointExtension><gpxtpx:hr>150</gpxtpx:hr></gpxtpx:TrackPointExtension></extensions>
      </trkpt>
      <trkpt lat="59.9846556" lon="15.8279182">
        <ele>96.8</ele>
        <time>2013-02-18T22:34:27Z</time>
        <extensions><gpxtpx:TrackPointExtension><gpxtpx:hr>150</gpxtpx:hr></gpxtpx:TrackPointExtension></extensions>
      </trkpt>
      <trkpt lat="59.9846585" lon="15.8279184">
        <ele>96.8</ele>
        <time>2013-02-18T22:34:28Z</time>
        <extensions><gpxtpx:TrackPointExtension><gpxtpx:hr>150</gpxtpx:hr></gpxtpx:TrackPointExtension></extensions>
      </trkpt>
      <trkpt lat="59.9846625" lon="15.8279187">
        <ele>96.8</ele>
        <time>2013-02-18T22:34:29Z</time>
        <extensions><gpxtpx:TrackPointExtension><gpxtpx:hr>150</gpxtpx:hr></gpxtpx:TrackPointExtension></extensions>
      </trkpt>
      <trkpt lat="59.9846617" lon="15.8279256">
        <ele>96.8</ele>
        <time>2013-02-18T22:34:30Z</time>
        <extensions><gpxtpx:TrackPointExtension><gpxtpx:hr>151</gpxtpx:hr></gpxtpx:TrackPointExtension></extensions>
      </trkpt>
      <trkpt lat="59.9846567" lon="15.827923">
        <ele>96.8</ele>
        <time>2013-02-18T22:34:32Z</time>
        <extensions><gpxtpx:TrackPointExtension><gpxtpx:hr>151</gpxtpx:hr></gpxtpx:TrackPointExtension></extensions>
      </trkpt>
      <trkpt lat="59.9846679" lon="15.8278955">
        <ele>96.8</ele>
        <time>2013-02-18T22:34:34Z</time>
        <extensions><gpxtpx:TrackPointExtension><gpxtpx:hr>151</gpxtpx:hr></gpxtpx:TrackPointExtension></extensions>
      </trkpt>
      <trkpt lat="59.9846803" lon="15.8278945">
        <ele>96.8</ele>
        <time>2013-02-18T22:34:36Z</time>
        <extensions><gpxtpx:TrackPointExtension><gpxtpx:hr>152</gpxtpx:hr></gpxtpx:TrackPointExtension></extensions>
      </trkpt>
      <trkpt lat="59.9846827" lon="15.8278902">
        <ele>96.8</ele>
        <time>2013-02-18T22:34:37Z</time>
        <extensions><gpxtpx:TrackPointExtension><gpxtpx:hr>152</gpxtpx:hr></gpxtpx:TrackPointExtension></extensions>
      </trkpt>
      <trkpt lat="59.9846847" lon="15.8278839">
        <ele>96.8</ele>
        <time>2013-02-18T22:34:38Z</time>
        <extensions><gpxtpx:TrackPointExtension><gpxtpx:hr>152</gpxtpx:hr></gpxtpx:TrackPointExtension></extensions>
      </trkpt>
      <trkpt lat="59.9846545" lon="15.8280606">
        <ele>96.8</ele>
        <time>2013-02-18T22:34:46Z</time>
        <extensions><gpxtpx:TrackPointExtension><gpxtpx:hr>153</gpxtpx:hr></gpxtpx:TrackPointExtension></extensions>
      </trkpt>
      <trkpt lat="59.9846537" lon="15.8280538">
        <ele>96.8</ele>
        <time>2013-02-18T22:34:47Z</time>
        <extensions><gpxtpx:TrackPointExtension><gpxtpx:hr>153</gpxtpx:hr></gpxtpx:TrackPointExtension></extensions>
      </trkpt>
      <trkpt lat="59.9846544" lon="15.8280498">
        <ele>96.8</ele>
        <time>2013-02-18T22:34:48Z</time>
        <extensions><gpxtpx:TrackPointExtension><gpxtpx:hr>154</gpxtpx:hr></gpxtpx:TrackPointExtension></extensions>
      </trkpt>
      <trkpt lat="59.9846569" lon="15.8280488">
        <ele>96.8</ele>
        <time>2013-02-18T22:34:49Z</time>
        <extensions><gpxtpx:TrackPointExtension><gpxtpx:hr>154</gpxtpx:hr></gpxtpx:TrackPointExtension></extensions>
      </trkpt>
      <trkpt lat="59.9846601" lon="15.8280495">
        <ele>96.8</ele>
        <time>2013-02-18T22:34:50Z</time>
        <extensions><gpxtpx:TrackPointExtension><gpxtpx:hr>153</gpxtpx:hr></gpxtpx:TrackPointExtension></extensions>
      </trkpt>
      <trkpt lat="59.9846632" lon="15.8280513">
        <ele>96.8</ele>
        <time>2013-02-18T22:34:51Z</time>
        <extensions><gpxtpx:TrackPointExtension><gpxtpx:hr>154</gpxtpx:hr></gpxtpx:TrackPointExtension></extensions>
      </trkpt>
      <trkpt lat="59.9846685" lon="15.8280539">
        <ele>96.8</ele>
        <time>2013-02-18T22:34:52Z</time>
        <extensions><gpxtpx:TrackPointExtension><gpxtpx:hr>153</gpxtpx:hr></gpxtpx:TrackPointExtension></extensions>
      </trkpt>
      <trkpt lat="59.9846834" lon="15.8279215">
        <ele>96.8</ele>
        <time>2013-02-18T22:34:53Z</time>
        <extensions><gpxtpx:TrackPointExtension><gpxtpx:hr>153</gpxtpx:hr></gpxtpx:TrackPointExtension></extensions>
      </trkpt>
      <trkpt lat="59.984688" lon="15.8279299">
        <ele>96.8</ele>
        <time>2013-02-18T22:34:54Z</time>
        <extensions><gpxtpx:TrackPointExtension><gpxtpx:hr>153</gpxtpx:hr></gpxtpx:TrackPointExtension></extensions>
      </trkpt>
      <trkpt lat="59.9846854" lon="15.8279425">
        <ele>96.8</ele>
        <time>2013-02-18T22:34:56Z</time>
        <extensions><gpxtpx:TrackPointExtension><gpxtpx:hr>153</gpxtpx:hr></gpxtpx:TrackPointExtension></extensions>
      </trkpt>
      <trkpt lat="59.9846832" lon="15.8279439">
        <ele>96.8</ele>
        <time>2013-02-18T22:34:57Z</time>
        <extensions><gpxtpx:TrackPointExtension><gpxtpx:hr>153</gpxtpx:hr></gpxtpx:TrackPointExtension></extensions>
      </trkpt>
      <trkpt lat="59.9846819" lon="15.8279417">
        <ele>96.8</ele>
        <time>2013-02-18T22:34:58Z</time>
        <extensions><gpxtpx:TrackPointExtension><gpxtpx:hr>153</gpxtpx:hr></gpxtpx:TrackPointExtension></extensions>
      </trkpt>
      <trkpt lat="59.9846789" lon="15.8279381">
        <ele>96.8</ele>
        <time>2013-02-18T22:34:59Z</time>
        <extensions><gpxtpx:TrackPointExtension><gpxtpx:hr>152</gpxtpx:hr></gpxtpx:TrackPointExtension></extensions>
      </trkpt>
      <trkpt lat="59.9846404" lon="15.8279131">
        <ele>96.8</ele>
        <time>2013-02-18T22:35:00Z</time>
        <extensions><gpxtpx:TrackPointExtension><gpxtpx:hr>152</gpxtpx:hr></gpxtpx:TrackPointExtension></extensions>
      </trkpt>
      <trkpt lat="59.9846347" lon="15.8279129">
        <ele>96.8</ele>
        <time>2013-02-18T22:35:01Z</time>
        <extensions><gpxtpx:TrackPointExtension><gpxtpx:hr>152</gpxtpx:hr></gpxtpx:TrackPointExtension></extensions>
      </trkpt>
      <trkpt lat="59.9846332" lon="15.8279122">
        <ele>96.8</ele>
        <time>2013-02-18T22:35:02Z</time>
        <extensions><gpxtpx:TrackPointExtension><gpxtpx:hr>152</gpxtpx:hr></gpxtpx:TrackPointExtension></extensions>
      </trkpt>
      <trkpt lat="59.98463" lon="15.8279121">
        <ele>96.8</ele>
        <time>2013-02-18T22:35:03Z</time>
        <extensions><gpxtpx:TrackPointExtension><gpxtpx:hr>151</gpxtpx:hr></gpxtpx:TrackPointExtension></extensions>
      </trkpt>
      <trkpt lat="59.9846315" lon="15.8279153">
        <ele>96.8</ele>
        <time>2013-02-18T22:35:04Z</time>
        <extensions><gpxtpx:TrackPointExtension><gpxtpx:hr>151</gpxtpx:hr></gpxtpx:TrackPointExtension></extensions>
      </trkpt>
      <trkpt lat="59.9846322" lon="15.8279262">
        <ele>96.8</ele>
        <time>2013-02-18T22:35:05Z</time>
        <extensions><gpxtpx:TrackPointExtension><gpxtpx:hr>151</gpxtpx:hr></gpxtpx:TrackPointExtension></extensions>
      </trkpt>
      <trkpt lat="59.9845911" lon="15.8279086">
        <ele>96.8</ele>
        <time>2013-02-18T22:35:06Z</time>
        <extensions><gpxtpx:TrackPointExtension><gpxtpx:hr>151</gpxtpx:hr></gpxtpx:TrackPointExtension></extensions>
      </trkpt>
      <trkpt lat="59.9845817" lon="15.8279155">
        <ele>96.8</ele>
        <time>2013-02-18T22:35:07Z</time>
        <extensions><gpxtpx:TrackPointExtension><gpxtpx:hr>151</gpxtpx:hr></gpxtpx:TrackPointExtension></extensions>
      </trkpt>
      <trkpt lat="59.9845801" lon="15.8279281">
        <ele>96.8</ele>
        <time>2013-02-18T22:35:08Z</time>
        <extensions><gpxtpx:TrackPointExtension><gpxtpx:hr>151</gpxtpx:hr></gpxtpx:TrackPointExtension></extensions>
      </trkpt>
      <trkpt lat="59.9845848" lon="15.8278715">
        <ele>96.8</ele>
        <time>2013-02-18T22:35:10Z</time>
        <extensions><gpxtpx:TrackPointExtension><gpxtpx:hr>151</gpxtpx:hr></gpxtpx:TrackPointExtension></extensions>
      </trkpt>
      <trkpt lat="59.9845883" lon="15.827856">
        <ele>96.8</ele>
        <time>2013-02-18T22:35:11Z</time>
        <extensions><gpxtpx:TrackPointExtension><gpxtpx:hr>150</gpxtpx:hr></gpxtpx:TrackPointExtension></extensions>
      </trkpt>
      <trkpt lat="59.9845868" lon="15.8278354">
        <ele>96.8</ele>
        <time>2013-02-18T22:35:12Z</time>
        <extensions><gpxtpx:TrackPointExtension><gpxtpx:hr>150</gpxtpx:hr></gpxtpx:TrackPointExtension></extensions>
      </trkpt>
      <trkpt lat="59.9845882" lon="15.8278047">
        <ele>96.8</ele>
        <time>2013-02-18T22:35:14Z</time>
        <extensions><gpxtpx:TrackPointExtension><gpxtpx:hr>150</gpxtpx:hr></gpxtpx:TrackPointExtension></extensions>
      </trkpt>
      <trkpt lat="59.9845874" lon="15.8277973">
        <ele>96.8</ele>
        <time>2013-02-18T22:35:15Z</time>
        <extensions><gpxtpx:TrackPointExtension><gpxtpx:hr>150</gpxtpx:hr></gpxtpx:TrackPointExtension></extensions>
      </trkpt>
      <trkpt lat="59.9845902" lon="15.8277763">
        <ele>96.8</ele>
        <time>2013-02-18T22:35:16Z</time>
        <extensions><gpxtpx:TrackPointExtension><gpxtpx:hr>150</gpxtpx:hr></gpxtpx:TrackPointExtension></extensions>
      </trkpt>
      <trkpt lat="59.9845904" lon="15.8277698">
        <ele>96.8</ele>
        <time>2013-02-18T22:35:17Z</time>
        <extensions><gpxtpx:TrackPointExtension><gpxtpx:hr>150</gpxtpx:hr></gpxtpx:TrackPointExtension></extensions>
      </trkpt>
      <trkpt lat="59.984592" lon="15.8277599">
        <ele>96.8</ele>
        <time>2013-02-18T22:35:18Z</time>
        <extensions><gpxtpx:TrackPointExtension><gpxtpx:hr>150</gpxtpx:hr></gpxtpx:TrackPointExtension></extensions>
      </trkpt>
      <trkpt lat="59.9845885" lon="15.8277592">
        <ele>97.8</ele>
        <time>2013-02-18T22:35:19Z</time>
        <extensions><gpxtpx:TrackPointExtension><gpxtpx:hr>150</gpxtpx:hr></gpxtpx:TrackPointExtension></extensions>
      </trkpt>
      <trkpt lat="59.9845892" lon="15.8277517">
        <ele>97.8</ele>
        <time>2013-02-18T22:35:20Z</time>
        <extensions><gpxtpx:TrackPointExtension><gpxtpx:hr>150</gpxtpx:hr></gpxtpx:TrackPointExtension></extensions>
      </trkpt>
      <trkpt lat="59.9845899" lon="15.8277417">
        <ele>97.8</ele>
        <time>2013-02-18T22:35:21Z</time>
        <extensions><gpxtpx:TrackPointExtension><gpxtpx:hr>149</gpxtpx:hr></gpxtpx:TrackPointExtension></extensions>
      </trkpt>
      <trkpt lat="59.9845905" lon="15.8277388">
        <ele>97.8</ele>
        <time>2013-02-18T22:35:22Z</time>
        <extensions><gpxtpx:TrackPointExtension><gpxtpx:hr>149</gpxtpx:hr></gpxtpx:TrackPointExtension></extensions>
      </trkpt>
      <trkpt lat="59.9845863" lon="15.8277548">
        <ele>97.8</ele>
        <time>2013-02-18T22:35:25Z</time>
        <extensions><gpxtpx:TrackPointExtension><gpxtpx:hr>148</gpxtpx:hr></gpxtpx:TrackPointExtension></extensions>
      </trkpt>
      <trkpt lat="59.9845864" lon="15.8277582">
        <ele>97.8</ele>
        <time>2013-02-18T22:35:32Z</time>
        <extensions><gpxtpx:TrackPointExtension><gpxtpx:hr>147</gpxtpx:hr></gpxtpx:TrackPointExtension></extensions>
      </trkpt>
      <trkpt lat="59.984587" lon="15.8277492">
        <ele>97.8</ele>
        <time>2013-02-18T22:35:33Z</time>
        <extensions><gpxtpx:TrackPointExtension><gpxtpx:hr>146</gpxtpx:hr></gpxtpx:TrackPointExtension></extensions>
      </trkpt>
      <trkpt lat="59.9845892" lon="15.8277477">
        <ele>97.8</ele>
        <time>2013-02-18T22:35:34Z</time>
        <extensions><gpxtpx:TrackPointExtension><gpxtpx:hr>146</gpxtpx:hr></gpxtpx:TrackPointExtension></extensions>
      </trkpt>
      <trkpt lat="59.9845896" lon="15.8277467">
        <ele>97.8</ele>
        <time>2013-02-18T22:35:35Z</time>
        <extensions><gpxtpx:TrackPointExtension><gpxtpx:hr>146</gpxtpx:hr></gpxtpx:TrackPointExtension></extensions>
      </trkpt>
      <trkpt lat="59.9845918" lon="15.8277418">
        <ele>97.8</ele>
        <time>2013-02-18T22:35:37Z</time>
        <extensions><gpxtpx:TrackPointExtension><gpxtpx:hr>146</gpxtpx:hr></gpxtpx:TrackPointExtension></extensions>
      </trkpt>
      <trkpt lat="59.9845933" lon="15.8277399">
        <ele>97.8</ele>
        <time>2013-02-18T22:35:38Z</time>
        <extensions><gpxtpx:TrackPointExtension><gpxtpx:hr>146</gpxtpx:hr></gpxtpx:TrackPointExtension></extensions>
      </trkpt>
      <trkpt lat="59.9845948" lon="15.8277359">
        <ele>97.8</ele>
        <time>2013-02-18T22:35:39Z</time>
        <extensions><gpxtpx:TrackPointExtension><gpxtpx:hr>146</gpxtpx:hr></gpxtpx:TrackPointExtension></extensions>
      </trkpt>
      <trkpt lat="59.9845966" lon="15.8277299">
        <ele>97.8</ele>
        <time>2013-02-18T22:35:40Z</time>
        <extensions><gpxtpx:TrackPointExtension><gpxtpx:hr>145</gpxtpx:hr></gpxtpx:TrackPointExtension></extensions>
      </trkpt>
      <trkpt lat="59.9845997" lon="15.8277299">
        <ele>97.8</ele>
        <time>2013-02-18T22:35:41Z</time>
        <extensions><gpxtpx:TrackPointExtension><gpxtpx:hr>146</gpxtpx:hr></gpxtpx:TrackPointExtension></extensions>
      </trkpt>
      <trkpt lat="59.9846027" lon="15.8277293">
        <ele>97.8</ele>
        <time>2013-02-18T22:35:42Z</time>
        <extensions><gpxtpx:TrackPointExtension><gpxtpx:hr>145</gpxtpx:hr></gpxtpx:TrackPointExtension></extensions>
      </trkpt>
      <trkpt lat="59.9846044" lon="15.8277306">
        <ele>97.8</ele>
        <time>2013-02-18T22:35:43Z</time>
        <extensions><gpxtpx:TrackPointExtension><gpxtpx:hr>145</gpxtpx:hr></gpxtpx:TrackPointExtension></extensions>
      </trkpt>
      <trkpt lat="59.984609" lon="15.8277208">
        <ele>97.8</ele>
        <time>2013-02-18T22:35:45Z</time>
        <extensions><gpxtpx:TrackPointExtension><gpxtpx:hr>145</gpxtpx:hr></gpxtpx:TrackPointExtension></extensions>
      </trkpt>
      <trkpt lat="59.9845909" lon="15.8277823">
        <ele>97.8</ele>
        <time>2013-02-18T22:35:49Z</time>
        <extensions><gpxtpx:TrackPointExtension><gpxtpx:hr>143</gpxtpx:hr></gpxtpx:TrackPointExtension></extensions>
      </trkpt>
      <trkpt lat="59.9845921" lon="15.8278011">
        <ele>97.8</ele>
        <time>2013-02-18T22:35:51Z</time>
        <extensions><gpxtpx:TrackPointExtension><gpxtpx:hr>143</gpxtpx:hr></gpxtpx:TrackPointExtension></extensions>
      </trkpt>
      <trkpt lat="59.9845937" lon="15.8278063">
        <ele>97.8</ele>
        <time>2013-02-18T22:35:52Z</time>
        <extensions><gpxtpx:TrackPointExtension><gpxtpx:hr>143</gpxtpx:hr></gpxtpx:TrackPointExtension></extensions>
      </trkpt>
      <trkpt lat="59.9845947" lon="15.8278115">
        <ele>97.8</ele>
        <time>2013-02-18T22:35:53Z</time>
        <extensions><gpxtpx:TrackPointExtension><gpxtpx:hr>143</gpxtpx:hr></gpxtpx:TrackPointExtension></extensions>
      </trkpt>
      <trkpt lat="59.9845955" lon="15.8278142">
        <ele>97.8</ele>
        <time>2013-02-18T22:35:56Z</time>
        <extensions><gpxtpx:TrackPointExtension><gpxtpx:hr>142</gpxtpx:hr></gpxtpx:TrackPointExtension></extensions>
      </trkpt>
      <trkpt lat="59.9845952" lon="15.8278185">
        <ele>97.8</ele>
        <time>2013-02-18T22:35:57Z</time>
        <extensions><gpxtpx:TrackPointExtension><gpxtpx:hr>143</gpxtpx:hr></gpxtpx:TrackPointExtension></extensions>
      </trkpt>
      <trkpt lat="59.9845957" lon="15.8278195">
        <ele>97.8</ele>
        <time>2013-02-18T22:35:58Z</time>
        <extensions><gpxtpx:TrackPointExtension><gpxtpx:hr>143</gpxtpx:hr></gpxtpx:TrackPointExtension></extensions>
      </trkpt>
      <trkpt lat="59.9845962" lon="15.82782">
        <ele>97.8</ele>
        <time>2013-02-18T22:35:59Z</time>
        <extensions><gpxtpx:TrackPointExtension><gpxtpx:hr>143</gpxtpx:hr></gpxtpx:TrackPointExtension></extensions>
      </trkpt>
      <trkpt lat="59.9845969" lon="15.8278194">
        <ele>97.8</ele>
        <time>2013-02-18T22:36:00Z</time>
        <extensions><gpxtpx:TrackPointExtension><gpxtpx:hr>143</gpxtpx:hr></gpxtpx:TrackPointExtension></extensions>
      </trkpt>
      <trkpt lat="59.9845976" lon="15.8278181">
        <ele>97.8</ele>
        <time>2013-02-18T22:36:01Z</time>
        <extensions><gpxtpx:TrackPointExtension><gpxtpx:hr>143</gpxtpx:hr></gpxtpx:TrackPointExtension></extensions>
      </trkpt>
      <trkpt lat="59.9845966" lon="15.827815">
        <ele>97.8</ele>
        <time>2013-02-18T22:36:02Z</time>
        <extensions><gpxtpx:TrackPointExtension><gpxtpx:hr>143</gpxtpx:hr></gpxtpx:TrackPointExtension></extensions>
      </trkpt>
      <trkpt lat="59.9845948" lon="15.8278176">
        <ele>97.8</ele>
        <time>2013-02-18T22:36:03Z</time>
        <extensions><gpxtpx:TrackPointExtension><gpxtpx:hr>143</gpxtpx:hr></gpxtpx:TrackPointExtension></extensions>
      </trkpt>
      <trkpt lat="59.9845646" lon="15.8278374">
        <ele>97.8</ele>
        <time>2013-02-18T22:36:04Z</time>
        <extensions><gpxtpx:TrackPointExtension><gpxtpx:hr>142</gpxtpx:hr></gpxtpx:TrackPointExtension></extensions>
      </trkpt>
      <trkpt lat="59.9845628" lon="15.8278413">
        <ele>97.8</ele>
        <time>2013-02-18T22:36:05Z</time>
        <extensions><gpxtpx:TrackPointExtension><gpxtpx:hr>143</gpxtpx:hr></gpxtpx:TrackPointExtension></extensions>
      </trkpt>
      <trkpt lat="59.9845624" lon="15.8278384">
        <ele>97.8</ele>
        <time>2013-02-18T22:36:06Z</time>
        <extensions><gpxtpx:TrackPointExtension><gpxtpx:hr>142</gpxtpx:hr></gpxtpx:TrackPointExtension></extensions>
      </trkpt>
      <trkpt lat="59.9845623" lon="15.8278343">
        <ele>97.8</ele>
        <time>2013-02-18T22:36:07Z</time>
        <extensions><gpxtpx:TrackPointExtension><gpxtpx:hr>143</gpxtpx:hr></gpxtpx:TrackPointExtension></extensions>
      </trkpt>
      <trkpt lat="59.9845659" lon="15.8278008">
        <ele>97.8</ele>
        <time>2013-02-18T22:36:08Z</time>
        <extensions><gpxtpx:TrackPointExtension><gpxtpx:hr>143</gpxtpx:hr></gpxtpx:TrackPointExtension></extensions>
      </trkpt>
      <trkpt lat="59.9845701" lon="15.8277775">
        <ele>97.8</ele>
        <time>2013-02-18T22:36:09Z</time>
        <extensions><gpxtpx:TrackPointExtension><gpxtpx:hr>143</gpxtpx:hr></gpxtpx:TrackPointExtension></extensions>
      </trkpt>
      <trkpt lat="59.9845738" lon="15.8277615">
        <ele>97.8</ele>
        <time>2013-02-18T22:36:10Z</time>
        <extensions><gpxtpx:TrackPointExtension><gpxtpx:hr>143</gpxtpx:hr></gpxtpx:TrackPointExtension></extensions>
      </trkpt>
      <trkpt lat="59.9845765" lon="15.82775">
        <ele>97.8</ele>
        <time>2013-02-18T22:36:11Z</time>
        <extensions><gpxtpx:TrackPointExtension><gpxtpx:hr>143</gpxtpx:hr></gpxtpx:TrackPointExtension></extensions>
      </trkpt>
      <trkpt lat="59.9845779" lon="15.8277483">
        <ele>97.8</ele>
        <time>2013-02-18T22:36:12Z</time>
        <extensions><gpxtpx:TrackPointExtension><gpxtpx:hr>143</gpxtpx:hr></gpxtpx:TrackPointExtension></extensions>
      </trkpt>
      <trkpt lat="59.9845787" lon="15.8277535">
        <ele>97.8</ele>
        <time>2013-02-18T22:36:13Z</time>
        <extensions><gpxtpx:TrackPointExtension><gpxtpx:hr>143</gpxtpx:hr></gpxtpx:TrackPointExtension></extensions>
      </trkpt>
      <trkpt lat="59.9845762" lon="15.827774">
        <ele>97.8</ele>
        <time>2013-02-18T22:36:15Z</time>
        <extensions><gpxtpx:TrackPointExtension><gpxtpx:hr>144</gpxtpx:hr></gpxtpx:TrackPointExtension></extensions>
      </trkpt>
      <trkpt lat="59.9845767" lon="15.8277878">
        <ele>97.8</ele>
        <time>2013-02-18T22:36:16Z</time>
        <extensions><gpxtpx:TrackPointExtension><gpxtpx:hr>144</gpxtpx:hr></gpxtpx:TrackPointExtension></extensions>
      </trkpt>
      <trkpt lat="59.9845772" lon="15.8277879">
        <ele>97.8</ele>
        <time>2013-02-18T22:36:17Z</time>
        <extensions><gpxtpx:TrackPointExtension><gpxtpx:hr>145</gpxtpx:hr></gpxtpx:TrackPointExtension></extensions>
      </trkpt>
      <trkpt lat="59.9845818" lon="15.8277695">
        <ele>97.8</ele>
        <time>2013-02-18T22:36:21Z</time>
        <extensions><gpxtpx:TrackPointExtension><gpxtpx:hr>146</gpxtpx:hr></gpxtpx:TrackPointExtension></extensions>
      </trkpt>
      <trkpt lat="59.9845831" lon="15.8277636">
        <ele>97.8</ele>
        <time>2013-02-18T22:36:22Z</time>
        <extensions><gpxtpx:TrackPointExtension><gpxtpx:hr>146</gpxtpx:hr></gpxtpx:TrackPointExtension></extensions>
      </trkpt>
      <trkpt lat="59.9845847" lon="15.8277587">
        <ele>97.8</ele>
        <time>2013-02-18T22:36:23Z</time>
        <extensions><gpxtpx:TrackPointExtension><gpxtpx:hr>147</gpxtpx:hr></gpxtpx:TrackPointExtension></extensions>
      </trkpt>
      <trkpt lat="59.9845859" lon="15.8277588">
        <ele>97.8</ele>
        <time>2013-02-18T22:36:24Z</time>
        <extensions><gpxtpx:TrackPointExtension><gpxtpx:hr>147</gpxtpx:hr></gpxtpx:TrackPointExtension></extensions>
      </trkpt>
      <trkpt lat="59.9845863" lon="15.8277662">
        <ele>97.8</ele>
        <time>2013-02-18T22:36:25Z</time>
        <extensions><gpxtpx:TrackPointExtension><gpxtpx:hr>146</gpxtpx:hr></gpxtpx:TrackPointExtension></extensions>
      </trkpt>
      <trkpt lat="59.9845872" lon="15.8277711">
        <ele>97.8</ele>
        <time>2013-02-18T22:36:26Z</time>
        <extensions><gpxtpx:TrackPointExtension><gpxtpx:hr>146</gpxtpx:hr></gpxtpx:TrackPointExtension></extensions>
      </trkpt>
      <trkpt lat="59.9845941" lon="15.8278227">
        <ele>97.8</ele>
        <time>2013-02-18T22:36:28Z</time>
        <extensions><gpxtpx:TrackPointExtension><gpxtpx:hr>146</gpxtpx:hr></gpxtpx:TrackPointExtension></extensions>
      </trkpt>
      <trkpt lat="59.9845936" lon="15.8278505">
        <ele>97.8</ele>
        <time>2013-02-18T22:36:29Z</time>
        <extensions><gpxtpx:TrackPointExtension><gpxtpx:hr>146</gpxtpx:hr></gpxtpx:TrackPointExtension></extensions>
      </trkpt>
      <trkpt lat="59.9845903" lon="15.8278993">
        <ele>97.8</ele>
        <time>2013-02-18T22:36:30Z</time>
        <extensions><gpxtpx:TrackPointExtension><gpxtpx:hr>145</gpxtpx:hr></gpxtpx:TrackPointExtension></extensions>
      </trkpt>
      <trkpt lat="59.9845889" lon="15.8279392">
        <ele>97.8</ele>
        <time>2013-02-18T22:36:31Z</time>
        <extensions><gpxtpx:TrackPointExtension><gpxtpx:hr>145</gpxtpx:hr></gpxtpx:TrackPointExtension></extensions>
      </trkpt>
      <trkpt lat="59.9845848" lon="15.8279864">
        <ele>97.8</ele>
        <time>2013-02-18T22:36:32Z</time>
        <extensions><gpxtpx:TrackPointExtension><gpxtpx:hr>145</gpxtpx:hr></gpxtpx:TrackPointExtension></extensions>
      </trkpt>
      <trkpt lat="59.9845817" lon="15.8280202">
        <ele>97.8</ele>
        <time>2013-02-18T22:36:33Z</time>
        <extensions><gpxtpx:TrackPointExtension><gpxtpx:hr>145</gpxtpx:hr></gpxtpx:TrackPointExtension></extensions>
      </trkpt>
      <trkpt lat="59.9845783" lon="15.8280542">
        <ele>97.8</ele>
        <time>2013-02-18T22:36:34Z</time>
        <extensions><gpxtpx:TrackPointExtension><gpxtpx:hr>145</gpxtpx:hr></gpxtpx:TrackPointExtension></extensions>
      </trkpt>
      <trkpt lat="59.9845749" lon="15.828057">
        <ele>97.8</ele>
        <time>2013-02-18T22:36:35Z</time>
        <extensions><gpxtpx:TrackPointExtension><gpxtpx:hr>145</gpxtpx:hr></gpxtpx:TrackPointExtension></extensions>
      </trkpt>
      <trkpt lat="59.98457" lon="15.8280859">
        <ele>97.8</ele>
        <time>2013-02-18T22:36:37Z</time>
        <extensions><gpxtpx:TrackPointExtension><gpxtpx:hr>145</gpxtpx:hr></gpxtpx:TrackPointExtension></extensions>
      </trkpt>
      <trkpt lat="59.984568" lon="15.8280996">
        <ele>97.8</ele>
        <time>2013-02-18T22:36:38Z</time>
        <extensions><gpxtpx:TrackPointExtension><gpxtpx:hr>144</gpxtpx:hr></gpxtpx:TrackPointExtension></extensions>
      </trkpt>
      <trkpt lat="59.9845646" lon="15.8281547">
        <ele>97.8</ele>
        <time>2013-02-18T22:36:43Z</time>
        <extensions><gpxtpx:TrackPointExtension><gpxtpx:hr>144</gpxtpx:hr></gpxtpx:TrackPointExtension></extensions>
      </trkpt>
      <trkpt lat="59.9845492" lon="15.8280392">
        <ele>97.8</ele>
        <time>2013-02-18T22:36:49Z</time>
        <extensions><gpxtpx:TrackPointExtension><gpxtpx:hr>143</gpxtpx:hr></gpxtpx:TrackPointExtension></extensions>
      </trkpt>
      <trkpt lat="59.9845534" lon="15.8280088">
        <ele>97.8</ele>
        <time>2013-02-18T22:36:50Z</time>
        <extensions><gpxtpx:TrackPointExtension><gpxtpx:hr>143</gpxtpx:hr></gpxtpx:TrackPointExtension></extensions>
      </trkpt>
      <trkpt lat="59.9845528" lon="15.8279818">
        <ele>97.8</ele>
        <time>2013-02-18T22:36:51Z</time>
        <extensions><gpxtpx:TrackPointExtension><gpxtpx:hr>143</gpxtpx:hr></gpxtpx:TrackPointExtension></extensions>
      </trkpt>
      <trkpt lat="59.9845535" lon="15.8279555">
        <ele>97.8</ele>
        <time>2013-02-18T22:36:52Z</time>
        <extensions><gpxtpx:TrackPointExtension><gpxtpx:hr>143</gpxtpx:hr></gpxtpx:TrackPointExtension></extensions>
      </trkpt>
      <trkpt lat="59.9845533" lon="15.8279348">
        <ele>97.8</ele>
        <time>2013-02-18T22:36:53Z</time>
        <extensions><gpxtpx:TrackPointExtension><gpxtpx:hr>143</gpxtpx:hr></gpxtpx:TrackPointExtension></extensions>
      </trkpt>
      <trkpt lat="59.984555" lon="15.8279269">
        <ele>97.8</ele>
        <time>2013-02-18T22:36:54Z</time>
        <extensions><gpxtpx:TrackPointExtension><gpxtpx:hr>143</gpxtpx:hr></gpxtpx:TrackPointExtension></extensions>
      </trkpt>
      <trkpt lat="59.984556" lon="15.8279203">
        <ele>97.8</ele>
        <time>2013-02-18T22:36:55Z</time>
        <extensions><gpxtpx:TrackPointExtension><gpxtpx:hr>144</gpxtpx:hr></gpxtpx:TrackPointExtension></extensions>
      </trkpt>
      <trkpt lat="59.9845586" lon="15.8279245">
        <ele>97.8</ele>
        <time>2013-02-18T22:36:56Z</time>
        <extensions><gpxtpx:TrackPointExtension><gpxtpx:hr>143</gpxtpx:hr></gpxtpx:TrackPointExtension></extensions>
      </trkpt>
      <trkpt lat="59.9845596" lon="15.8279263">
        <ele>97.8</ele>
        <time>2013-02-18T22:36:57Z</time>
        <extensions><gpxtpx:TrackPointExtension><gpxtpx:hr>143</gpxtpx:hr></gpxtpx:TrackPointExtension></extensions>
      </trkpt>
      <trkpt lat="59.9845608" lon="15.8279208">
        <ele>97.8</ele>
        <time>2013-02-18T22:36:58Z</time>
        <extensions><gpxtpx:TrackPointExtension><gpxtpx:hr>143</gpxtpx:hr></gpxtpx:TrackPointExtension></extensions>
      </trkpt>
      <trkpt lat="59.9845623" lon="15.8279171">
        <ele>97.8</ele>
        <time>2013-02-18T22:36:59Z</time>
        <extensions><gpxtpx:TrackPointExtension><gpxtpx:hr>143</gpxtpx:hr></gpxtpx:TrackPointExtension></extensions>
      </trkpt>
      <trkpt lat="59.9845646" lon="15.8279112">
        <ele>97.8</ele>
        <time>2013-02-18T22:37:00Z</time>
        <extensions><gpxtpx:TrackPointExtension><gpxtpx:hr>142</gpxtpx:hr></gpxtpx:TrackPointExtension></extensions>
      </trkpt>
      <trkpt lat="59.9845702" lon="15.8278925">
        <ele>97.8</ele>
        <time>2013-02-18T22:37:04Z</time>
        <extensions><gpxtpx:TrackPointExtension><gpxtpx:hr>140</gpxtpx:hr></gpxtpx:TrackPointExtension></extensions>
      </trkpt>
      <trkpt lat="59.9845724" lon="15.8278784">
        <ele>97.8</ele>
        <time>2013-02-18T22:37:06Z</time>
        <extensions><gpxtpx:TrackPointExtension><gpxtpx:hr>140</gpxtpx:hr></gpxtpx:TrackPointExtension></extensions>
      </trkpt>
      <trkpt lat="59.9845736" lon="15.8278768">
        <ele>97.8</ele>
        <time>2013-02-18T22:37:07Z</time>
        <extensions><gpxtpx:TrackPointExtension><gpxtpx:hr>139</gpxtpx:hr></gpxtpx:TrackPointExtension></extensions>
      </trkpt>
      <trkpt lat="59.9845747" lon="15.8278798">
        <ele>97.8</ele>
        <time>2013-02-18T22:37:08Z</time>
        <extensions><gpxtpx:TrackPointExtension><gpxtpx:hr>139</gpxtpx:hr></gpxtpx:TrackPointExtension></extensions>
      </trkpt>
      <trkpt lat="59.9845756" lon="15.8278824">
        <ele>97.8</ele>
        <time>2013-02-18T22:37:09Z</time>
        <extensions><gpxtpx:TrackPointExtension><gpxtpx:hr>139</gpxtpx:hr></gpxtpx:TrackPointExtension></extensions>
      </trkpt>
      <trkpt lat="59.9845766" lon="15.8278869">
        <ele>97.8</ele>
        <time>2013-02-18T22:37:10Z</time>
        <extensions><gpxtpx:TrackPointExtension><gpxtpx:hr>139</gpxtpx:hr></gpxtpx:TrackPointExtension></extensions>
      </trkpt>
      <trkpt lat="59.9845775" lon="15.8278912">
        <ele>97.8</ele>
        <time>2013-02-18T22:37:11Z</time>
        <extensions><gpxtpx:TrackPointExtension><gpxtpx:hr>138</gpxtpx:hr></gpxtpx:TrackPointExtension></extensions>
      </trkpt>
      <trkpt lat="59.9845808" lon="15.8278833">
        <ele>97.8</ele>
        <time>2013-02-18T22:37:12Z</time>
        <extensions><gpxtpx:TrackPointExtension><gpxtpx:hr>138</gpxtpx:hr></gpxtpx:TrackPointExtension></extensions>
      </trkpt>
      <trkpt lat="59.9845535" lon="15.8277041">
        <ele>97.8</ele>
        <time>2013-02-18T22:37:13Z</time>
        <extensions><gpxtpx:TrackPointExtension><gpxtpx:hr>139</gpxtpx:hr></gpxtpx:TrackPointExtension></extensions>
      </trkpt>
      <trkpt lat="59.9845549" lon="15.8276991">
        <ele>97.8</ele>
        <time>2013-02-18T22:37:14Z</time>
        <extensions><gpxtpx:TrackPointExtension><gpxtpx:hr>138</gpxtpx:hr></gpxtpx:TrackPointExtension></extensions>
      </trkpt>
      <trkpt lat="59.9845554" lon="15.827698">
        <ele>97.8</ele>
        <time>2013-02-18T22:37:15Z</time>
        <extensions><gpxtpx:TrackPointExtension><gpxtpx:hr>138</gpxtpx:hr></gpxtpx:TrackPointExtension></extensions>
      </trkpt>
      <trkpt lat="59.9845551" lon="15.8277028">
        <ele>97.8</ele>
        <time>2013-02-18T22:37:17Z</time>
        <extensions><gpxtpx:TrackPointExtension><gpxtpx:hr>138</gpxtpx:hr></gpxtpx:TrackPointExtension></extensions>
      </trkpt>
      <trkpt lat="59.9845547" lon="15.8277125">
        <ele>97.8</ele>
        <time>2013-02-18T22:37:18Z</time>
        <extensions><gpxtpx:TrackPointExtension><gpxtpx:hr>138</gpxtpx:hr></gpxtpx:TrackPointExtension></extensions>
      </trkpt>
      <trkpt lat="59.9845545" lon="15.8277197">
        <ele>97.8</ele>
        <time>2013-02-18T22:37:19Z</time>
        <extensions><gpxtpx:TrackPointExtension><gpxtpx:hr>138</gpxtpx:hr></gpxtpx:TrackPointExtension></extensions>
      </trkpt>
      <trkpt lat="59.9845549" lon="15.8277219">
        <ele>97.8</ele>
        <time>2013-02-18T22:37:20Z</time>
        <extensions><gpxtpx:TrackPointExtension><gpxtpx:hr>139</gpxtpx:hr></gpxtpx:TrackPointExtension></extensions>
      </trkpt>
      <trkpt lat="59.9845542" lon="15.8277281">
        <ele>97.8</ele>
        <time>2013-02-18T22:37:21Z</time>
        <extensions><gpxtpx:TrackPointExtension><gpxtpx:hr>139</gpxtpx:hr></gpxtpx:TrackPointExtension></extensions>
      </trkpt>
      <trkpt lat="59.9845427" lon="15.8276985">
        <ele>97.8</ele>
        <time>2013-02-18T22:37:22Z</time>
        <extensions><gpxtpx:TrackPointExtension><gpxtpx:hr>139</gpxtpx:hr></gpxtpx:TrackPointExtension></extensions>
      </trkpt>
      <trkpt lat="59.9845426" lon="15.8277052">
        <ele>97.8</ele>
        <time>2013-02-18T22:37:23Z</time>
        <extensions><gpxtpx:TrackPointExtension><gpxtpx:hr>139</gpxtpx:hr></gpxtpx:TrackPointExtension></extensions>
      </trkpt>
      <trkpt lat="59.9845425" lon="15.8277121">
        <ele>97.8</ele>
        <time>2013-02-18T22:37:24Z</time>
        <extensions><gpxtpx:TrackPointExtension><gpxtpx:hr>139</gpxtpx:hr></gpxtpx:TrackPointExtension></extensions>
      </trkpt>
      <trkpt lat="59.9845443" lon="15.8277143">
        <ele>97.8</ele>
        <time>2013-02-18T22:37:26Z</time>
        <extensions><gpxtpx:TrackPointExtension><gpxtpx:hr>139</gpxtpx:hr></gpxtpx:TrackPointExtension></extensions>
      </trkpt>
      <trkpt lat="59.9845458" lon="15.8277136">
        <ele>97.8</ele>
        <time>2013-02-18T22:37:27Z</time>
        <extensions><gpxtpx:TrackPointExtension><gpxtpx:hr>139</gpxtpx:hr></gpxtpx:TrackPointExtension></extensions>
      </trkpt>
      <trkpt lat="59.9845464" lon="15.8277115">
        <ele>97.8</ele>
        <time>2013-02-18T22:37:28Z</time>
        <extensions><gpxtpx:TrackPointExtension><gpxtpx:hr>139</gpxtpx:hr></gpxtpx:TrackPointExtension></extensions>
      </trkpt>
      <trkpt lat="59.9845472" lon="15.8277084">
        <ele>97.8</ele>
        <time>2013-02-18T22:37:29Z</time>
        <extensions><gpxtpx:TrackPointExtension><gpxtpx:hr>139</gpxtpx:hr></gpxtpx:TrackPointExtension></extensions>
      </trkpt>
      <trkpt lat="59.9845486" lon="15.8277023">
        <ele>97.8</ele>
        <time>2013-02-18T22:37:30Z</time>
        <extensions><gpxtpx:TrackPointExtension><gpxtpx:hr>138</gpxtpx:hr></gpxtpx:TrackPointExtension></extensions>
      </trkpt>
      <trkpt lat="59.9845501" lon="15.8276989">
        <ele>97.8</ele>
        <time>2013-02-18T22:37:31Z</time>
        <extensions><gpxtpx:TrackPointExtension><gpxtpx:hr>139</gpxtpx:hr></gpxtpx:TrackPointExtension></extensions>
      </trkpt>
      <trkpt lat="59.9845506" lon="15.8276885">
        <ele>97.8</ele>
        <time>2013-02-18T22:37:32Z</time>
        <extensions><gpxtpx:TrackPointExtension><gpxtpx:hr>139</gpxtpx:hr></gpxtpx:TrackPointExtension></extensions>
      </trkpt>
      <trkpt lat="59.984541" lon="15.827581">
        <ele>97.8</ele>
        <time>2013-02-18T22:37:35Z</time>
        <extensions><gpxtpx:TrackPointExtension><gpxtpx:hr>139</gpxtpx:hr></gpxtpx:TrackPointExtension></extensions>
      </trkpt>
      <trkpt lat="59.9845461" lon="15.8275628">
        <ele>97.8</ele>
        <time>2013-02-18T22:37:38Z</time>
        <extensions><gpxtpx:TrackPointExtension><gpxtpx:hr>139</gpxtpx:hr></gpxtpx:TrackPointExtension></extensions>
      </trkpt>
      <trkpt lat="59.9845598" lon="15.8275264">
        <ele>97.8</ele>
        <time>2013-02-18T22:37:44Z</time>
        <extensions><gpxtpx:TrackPointExtension><gpxtpx:hr>139</gpxtpx:hr></gpxtpx:TrackPointExtension></extensions>
      </trkpt>
      <trkpt lat="59.9845645" lon="15.8275127">
        <ele>97.8</ele>
        <time>2013-02-18T22:37:45Z</time>
        <extensions><gpxtpx:TrackPointExtension><gpxtpx:hr>139</gpxtpx:hr></gpxtpx:TrackPointExtension></extensions>
      </trkpt>
      <trkpt lat="59.984568" lon="15.8274836">
        <ele>97.8</ele>
        <time>2013-02-18T22:37:47Z</time>
        <extensions><gpxtpx:TrackPointExtension><gpxtpx:hr>139</gpxtpx:hr></gpxtpx:TrackPointExtension></extensions>
      </trkpt>
      <trkpt lat="59.984571" lon="15.8274675">
        <ele>97.8</ele>
        <time>2013-02-18T22:37:48Z</time>
        <extensions><gpxtpx:TrackPointExtension><gpxtpx:hr>139</gpxtpx:hr></gpxtpx:TrackPointExtension></extensions>
      </trkpt>
      <trkpt lat="59.9845703" lon="15.8274546">
        <ele>97.8</ele>
        <time>2013-02-18T22:37:49Z</time>
        <extensions><gpxtpx:TrackPointExtension><gpxtpx:hr>138</gpxtpx:hr></gpxtpx:TrackPointExtension></extensions>
      </trkpt>
      <trkpt lat="59.984571" lon="15.8274324">
        <ele>97.8</ele>
        <time>2013-02-18T22:37:51Z</time>
        <extensions><gpxtpx:TrackPointExtension><gpxtpx:hr>138</gpxtpx:hr></gpxtpx:TrackPointExtension></extensions>
      </trkpt>
      <trkpt lat="59.9845715" lon="15.8274276">
        <ele>97.8</ele>
        <time>2013-02-18T22:37:52Z</time>
        <extensions><gpxtpx:TrackPointExtension><gpxtpx:hr>138</gpxtpx:hr></gpxtpx:TrackPointExtension></extensions>
      </trkpt>
      <trkpt lat="59.9845724" lon="15.8274207">
        <ele>97.8</ele>
        <time>2013-02-18T22:37:53Z</time>
        <extensions><gpxtpx:TrackPointExtension><gpxtpx:hr>138</gpxtpx:hr></gpxtpx:TrackPointExtension></extensions>
      </trkpt>
      <trkpt lat="59.9845665" lon="15.8274191">
        <ele>97.8</ele>
        <time>2013-02-18T22:37:54Z</time>
        <extensions><gpxtpx:TrackPointExtension><gpxtpx:hr>138</gpxtpx:hr></gpxtpx:TrackPointExtension></extensions>
      </trkpt>
      <trkpt lat="59.9845669" lon="15.8274108">
        <ele>97.8</ele>
        <time>2013-02-18T22:37:55Z</time>
        <extensions><gpxtpx:TrackPointExtension><gpxtpx:hr>138</gpxtpx:hr></gpxtpx:TrackPointExtension></extensions>
      </trkpt>
      <trkpt lat="59.9845677" lon="15.8274111">
        <ele>97.8</ele>
        <time>2013-02-18T22:37:56Z</time>
        <extensions><gpxtpx:TrackPointExtension><gpxtpx:hr>137</gpxtpx:hr></gpxtpx:TrackPointExtension></extensions>
      </trkpt>
      <trkpt lat="59.9845684" lon="15.8274266">
        <ele>97.8</ele>
        <time>2013-02-18T22:37:59Z</time>
        <extensions><gpxtpx:TrackPointExtension><gpxtpx:hr>137</gpxtpx:hr></gpxtpx:TrackPointExtension></extensions>
      </trkpt>
      <trkpt lat="59.9845782" lon="15.8274228">
        <ele>97.8</ele>
        <time>2013-02-18T22:38:06Z</time>
        <extensions><gpxtpx:TrackPointExtension><gpxtpx:hr>138</gpxtpx:hr></gpxtpx:TrackPointExtension></extensions>
      </trkpt>
      <trkpt lat="59.9845789" lon="15.8274267">
        <ele>97.8</ele>
        <time>2013-02-18T22:38:07Z</time>
        <extensions><gpxtpx:TrackPointExtension><gpxtpx:hr>138</gpxtpx:hr></gpxtpx:TrackPointExtension></extensions>
      </trkpt>
      <trkpt lat="59.9845801" lon="15.8274319">
        <ele>97.8</ele>
        <time>2013-02-18T22:38:08Z</time>
        <extensions><gpxtpx:TrackPointExtension><gpxtpx:hr>137</gpxtpx:hr></gpxtpx:TrackPointExtension></extensions>
      </trkpt>
      <trkpt lat="59.9845816" lon="15.827435">
        <ele>97.8</ele>
        <time>2013-02-18T22:38:09Z</time>
        <extensions><gpxtpx:TrackPointExtension><gpxtpx:hr>137</gpxtpx:hr></gpxtpx:TrackPointExtension></extensions>
      </trkpt>
      <trkpt lat="59.9845848" lon="15.8274329">
        <ele>97.8</ele>
        <time>2013-02-18T22:38:11Z</time>
        <extensions><gpxtpx:TrackPointExtension><gpxtpx:hr>137</gpxtpx:hr></gpxtpx:TrackPointExtension></extensions>
      </trkpt>
      <trkpt lat="59.9845862" lon="15.8274275">
        <ele>97.8</ele>
        <time>2013-02-18T22:38:12Z</time>
        <extensions><gpxtpx:TrackPointExtension><gpxtpx:hr>138</gpxtpx:hr></gpxtpx:TrackPointExtension></extensions>
      </trkpt>
      <trkpt lat="59.9845886" lon="15.8274247">
        <ele>97.8</ele>
        <time>2013-02-18T22:38:13Z</time>
        <extensions><gpxtpx:TrackPointExtension><gpxtpx:hr>138</gpxtpx:hr></gpxtpx:TrackPointExtension></extensions>
      </trkpt>
      <trkpt lat="59.9845903" lon="15.827425">
        <ele>97.8</ele>
        <time>2013-02-18T22:38:14Z</time>
        <extensions><gpxtpx:TrackPointExtension><gpxtpx:hr>138</gpxtpx:hr></gpxtpx:TrackPointExtension></extensions>
      </trkpt>
      <trkpt lat="59.9845917" lon="15.8274287">
        <ele>97.8</ele>
        <time>2013-02-18T22:38:15Z</time>
        <extensions><gpxtpx:TrackPointExtension><gpxtpx:hr>138</gpxtpx:hr></gpxtpx:TrackPointExtension></extensions>
      </trkpt>
      <trkpt lat="59.9845923" lon="15.8274303">
        <ele>97.8</ele>
        <time>2013-02-18T22:38:16Z</time>
        <extensions><gpxtpx:TrackPointExtension><gpxtpx:hr>138</gpxtpx:hr></gpxtpx:TrackPointExtension></extensions>
      </trkpt>
      <trkpt lat="59.9845928" lon="15.8274329">
        <ele>97.8</ele>
        <time>2013-02-18T22:38:17Z</time>
        <extensions><gpxtpx:TrackPointExtension><gpxtpx:hr>138</gpxtpx:hr></gpxtpx:TrackPointExtension></extensions>
      </trkpt>
      <trkpt lat="59.984593" lon="15.8274389">
        <ele>97.8</ele>
        <time>2013-02-18T22:38:18Z</time>
        <extensions><gpxtpx:TrackPointExtension><gpxtpx:hr>138</gpxtpx:hr></gpxtpx:TrackPointExtension></extensions>
      </trkpt>
      <trkpt lat="59.9845934" lon="15.8274444">
        <ele>97.8</ele>
        <time>2013-02-18T22:38:19Z</time>
        <extensions><gpxtpx:TrackPointExtension><gpxtpx:hr>138</gpxtpx:hr></gpxtpx:TrackPointExtension></extensions>
      </trkpt>
      <trkpt lat="59.9845933" lon="15.827447">
        <ele>97.8</ele>
        <time>2013-02-18T22:38:20Z</time>
        <extensions><gpxtpx:TrackPointExtension><gpxtpx:hr>139</gpxtpx:hr></gpxtpx:TrackPointExtension></extensions>
      </trkpt>
      <trkpt lat="59.9845931" lon="15.8274475">
        <ele>97.8</ele>
        <time>2013-02-18T22:38:21Z</time>
        <extensions><gpxtpx:TrackPointExtension><gpxtpx:hr>139</gpxtpx:hr></gpxtpx:TrackPointExtension></extensions>
      </trkpt>
      <trkpt lat="59.9845935" lon="15.8274447">
        <ele>97.8</ele>
        <time>2013-02-18T22:38:22Z</time>
        <extensions><gpxtpx:TrackPointExtension><gpxtpx:hr>139</gpxtpx:hr></gpxtpx:TrackPointExtension></extensions>
      </trkpt>
      <trkpt lat="59.9845942" lon="15.8274416">
        <ele>97.8</ele>
        <time>2013-02-18T22:38:23Z</time>
        <extensions><gpxtpx:TrackPointExtension><gpxtpx:hr>139</gpxtpx:hr></gpxtpx:TrackPointExtension></extensions>
      </trkpt>
      <trkpt lat="59.9845948" lon="15.8274377">
        <ele>97.8</ele>
        <time>2013-02-18T22:38:24Z</time>
        <extensions><gpxtpx:TrackPointExtension><gpxtpx:hr>140</gpxtpx:hr></gpxtpx:TrackPointExtension></extensions>
      </trkpt>
      <trkpt lat="59.9845956" lon="15.8274333">
        <ele>97.8</ele>
        <time>2013-02-18T22:38:25Z</time>
        <extensions><gpxtpx:TrackPointExtension><gpxtpx:hr>140</gpxtpx:hr></gpxtpx:TrackPointExtension></extensions>
      </trkpt>
      <trkpt lat="59.9845955" lon="15.8274309">
        <ele>97.8</ele>
        <time>2013-02-18T22:38:26Z</time>
        <extensions><gpxtpx:TrackPointExtension><gpxtpx:hr>140</gpxtpx:hr></gpxtpx:TrackPointExtension></extensions>
      </trkpt>
      <trkpt lat="59.9845953" lon="15.8274292">
        <ele>97.8</ele>
        <time>2013-02-18T22:38:27Z</time>
        <extensions><gpxtpx:TrackPointExtension><gpxtpx:hr>140</gpxtpx:hr></gpxtpx:TrackPointExtension></extensions>
      </trkpt>
      <trkpt lat="59.9845952" lon="15.8274213">
        <ele>97.8</ele>
        <time>2013-02-18T22:38:29Z</time>
        <extensions><gpxtpx:TrackPointExtension><gpxtpx:hr>140</gpxtpx:hr></gpxtpx:TrackPointExtension></extensions>
      </trkpt>
      <trkpt lat="59.9845964" lon="15.8274144">
        <ele>97.8</ele>
        <time>2013-02-18T22:38:30Z</time>
        <extensions><gpxtpx:TrackPointExtension><gpxtpx:hr>141</gpxtpx:hr></gpxtpx:TrackPointExtension></extensions>
      </trkpt>
      <trkpt lat="59.9845544" lon="15.8274514">
        <ele>97.8</ele>
        <time>2013-02-18T22:38:31Z</time>
        <extensions><gpxtpx:TrackPointExtension><gpxtpx:hr>141</gpxtpx:hr></gpxtpx:TrackPointExtension></extensions>
      </trkpt>
      <trkpt lat="59.9845554" lon="15.8274469">
        <ele>97.8</ele>
        <time>2013-02-18T22:38:32Z</time>
        <extensions><gpxtpx:TrackPointExtension><gpxtpx:hr>141</gpxtpx:hr></gpxtpx:TrackPointExtension></extensions>
      </trkpt>
      <trkpt lat="59.9845575" lon="15.8274384">
        <ele>97.8</ele>
        <time>2013-02-18T22:38:35Z</time>
        <extensions><gpxtpx:TrackPointExtension><gpxtpx:hr>142</gpxtpx:hr></gpxtpx:TrackPointExtension></extensions>
      </trkpt>
      <trkpt lat="59.9845615" lon="15.8274393">
        <ele>97.8</ele>
        <time>2013-02-18T22:38:44Z</time>
        <extensions><gpxtpx:TrackPointExtension><gpxtpx:hr>143</gpxtpx:hr></gpxtpx:TrackPointExtension></extensions>
      </trkpt>
      <trkpt lat="59.9845615" lon="15.8274416">
        <ele>97.8</ele>
        <time>2013-02-18T22:38:45Z</time>
        <extensions><gpxtpx:TrackPointExtension><gpxtpx:hr>143</gpxtpx:hr></gpxtpx:TrackPointExtension></extensions>
      </trkpt>
      <trkpt lat="59.9845615" lon="15.8274432">
        <ele>97.8</ele>
        <time>2013-02-18T22:38:46Z</time>
        <extensions><gpxtpx:TrackPointExtension><gpxtpx:hr>143</gpxtpx:hr></gpxtpx:TrackPointExtension></extensions>
      </trkpt>
      <trkpt lat="59.9845622" lon="15.8274432">
        <ele>97.8</ele>
        <time>2013-02-18T22:38:47Z</time>
        <extensions><gpxtpx:TrackPointExtension><gpxtpx:hr>143</gpxtpx:hr></gpxtpx:TrackPointExtension></extensions>
      </trkpt>
      <trkpt lat="59.9845638" lon="15.8274377">
        <ele>97.8</ele>
        <time>2013-02-18T22:38:48Z</time>
        <extensions><gpxtpx:TrackPointExtension><gpxtpx:hr>144</gpxtpx:hr></gpxtpx:TrackPointExtension></extensions>
      </trkpt>
      <trkpt lat="59.9845643" lon="15.8274332">
        <ele>97.8</ele>
        <time>2013-02-18T22:38:49Z</time>
        <extensions><gpxtpx:TrackPointExtension><gpxtpx:hr>144</gpxtpx:hr></gpxtpx:TrackPointExtension></extensions>
      </trkpt>
      <trkpt lat="59.9845652" lon="15.8274285">
        <ele>97.8</ele>
        <time>2013-02-18T22:38:50Z</time>
        <extensions><gpxtpx:TrackPointExtension><gpxtpx:hr>144</gpxtpx:hr></gpxtpx:TrackPointExtension></extensions>
      </trkpt>
      <trkpt lat="59.9845665" lon="15.8274238">
        <ele>97.8</ele>
        <time>2013-02-18T22:38:51Z</time>
        <extensions><gpxtpx:TrackPointExtension><gpxtpx:hr>145</gpxtpx:hr></gpxtpx:TrackPointExtension></extensions>
      </trkpt>
      <trkpt lat="59.9845679" lon="15.8274191">
        <ele>97.8</ele>
        <time>2013-02-18T22:38:52Z</time>
        <extensions><gpxtpx:TrackPointExtension><gpxtpx:hr>145</gpxtpx:hr></gpxtpx:TrackPointExtension></extensions>
      </trkpt>
      <trkpt lat="59.9845687" lon="15.8274151">
        <ele>97.8</ele>
        <time>2013-02-18T22:38:53Z</time>
        <extensions><gpxtpx:TrackPointExtension><gpxtpx:hr>145</gpxtpx:hr></gpxtpx:TrackPointExtension></extensions>
      </trkpt>
      <trkpt lat="59.9845687" lon="15.8274142">
        <ele>97.8</ele>
        <time>2013-02-18T22:38:54Z</time>
        <extensions><gpxtpx:TrackPointExtension><gpxtpx:hr>146</gpxtpx:hr></gpxtpx:TrackPointExtension></extensions>
      </trkpt>
      <trkpt lat="59.9845685" lon="15.8274157">
        <ele>97.8</ele>
        <time>2013-02-18T22:38:55Z</time>
        <extensions><gpxtpx:TrackPointExtension><gpxtpx:hr>146</gpxtpx:hr></gpxtpx:TrackPointExtension></extensions>
      </trkpt>
      <trkpt lat="59.984568" lon="15.8274182">
        <ele>97.8</ele>
        <time>2013-02-18T22:38:56Z</time>
        <extensions><gpxtpx:TrackPointExtension><gpxtpx:hr>146</gpxtpx:hr></gpxtpx:TrackPointExtension></extensions>
      </trkpt>
      <trkpt lat="59.9845674" lon="15.8274219">
        <ele>97.8</ele>
        <time>2013-02-18T22:38:57Z</time>
        <extensions><gpxtpx:TrackPointExtension><gpxtpx:hr>147</gpxtpx:hr></gpxtpx:TrackPointExtension></extensions>
      </trkpt>
      <trkpt lat="59.9845696" lon="15.8274132">
        <ele>97.8</ele>
        <time>2013-02-18T22:39:01Z</time>
        <extensions><gpxtpx:TrackPointExtension><gpxtpx:hr>147</gpxtpx:hr></gpxtpx:TrackPointExtension></extensions>
      </trkpt>
      <trkpt lat="59.9845743" lon="15.8273933">
        <ele>97.8</ele>
        <time>2013-02-18T22:39:04Z</time>
        <extensions><gpxtpx:TrackPointExtension><gpxtpx:hr>147</gpxtpx:hr></gpxtpx:TrackPointExtension></extensions>
      </trkpt>
      <trkpt lat="59.9845759" lon="15.8273841">
        <ele>97.8</ele>
        <time>2013-02-18T22:39:05Z</time>
        <extensions><gpxtpx:TrackPointExtension><gpxtpx:hr>147</gpxtpx:hr></gpxtpx:TrackPointExtension></extensions>
      </trkpt>
      <trkpt lat="59.9845746" lon="15.8273698">
        <ele>97.8</ele>
        <time>2013-02-18T22:39:06Z</time>
        <extensions><gpxtpx:TrackPointExtension><gpxtpx:hr>147</gpxtpx:hr></gpxtpx:TrackPointExtension></extensions>
      </trkpt>
      <trkpt lat="59.9845762" lon="15.8273628">
        <ele>97.8</ele>
        <time>2013-02-18T22:39:07Z</time>
        <extensions><gpxtpx:TrackPointExtension><gpxtpx:hr>147</gpxtpx:hr></gpxtpx:TrackPointExtension></extensions>
      </trkpt>
      <trkpt lat="59.9845772" lon="15.8273608">
        <ele>97.8</ele>
        <time>2013-02-18T22:39:08Z</time>
        <extensions><gpxtpx:TrackPointExtension><gpxtpx:hr>147</gpxtpx:hr></gpxtpx:TrackPointExtension></extensions>
      </trkpt>
      <trkpt lat="59.9845778" lon="15.8273583">
        <ele>97.8</ele>
        <time>2013-02-18T22:39:09Z</time>
        <extensions><gpxtpx:TrackPointExtension><gpxtpx:hr>148</gpxtpx:hr></gpxtpx:TrackPointExtension></extensions>
      </trkpt>
      <trkpt lat="59.9845788" lon="15.8273551">
        <ele>97.8</ele>
        <time>2013-02-18T22:39:10Z</time>
        <extensions><gpxtpx:TrackPointExtension><gpxtpx:hr>148</gpxtpx:hr></gpxtpx:TrackPointExtension></extensions>
      </trkpt>
      <trkpt lat="59.9845776" lon="15.8273603">
        <ele>97.8</ele>
        <time>2013-02-18T22:39:12Z</time>
        <extensions><gpxtpx:TrackPointExtension><gpxtpx:hr>148</gpxtpx:hr></gpxtpx:TrackPointExtension></extensions>
      </trkpt>
      <trkpt lat="59.9845728" lon="15.8273847">
        <ele>97.8</ele>
        <time>2013-02-18T22:39:15Z</time>
        <extensions><gpxtpx:TrackPointExtension><gpxtpx:hr>147</gpxtpx:hr></gpxtpx:TrackPointExtension></extensions>
      </trkpt>
      <trkpt lat="59.9845736" lon="15.8273836">
        <ele>97.8</ele>
        <time>2013-02-18T22:39:16Z</time>
        <extensions><gpxtpx:TrackPointExtension><gpxtpx:hr>147</gpxtpx:hr></gpxtpx:TrackPointExtension></extensions>
      </trkpt>
      <trkpt lat="59.9845752" lon="15.8273791">
        <ele>97.8</ele>
        <time>2013-02-18T22:39:17Z</time>
        <extensions><gpxtpx:TrackPointExtension><gpxtpx:hr>147</gpxtpx:hr></gpxtpx:TrackPointExtension></extensions>
      </trkpt>
      <trkpt lat="59.9845771" lon="15.8273741">
        <ele>97.8</ele>
        <time>2013-02-18T22:39:18Z</time>
        <extensions><gpxtpx:TrackPointExtension><gpxtpx:hr>148</gpxtpx:hr></gpxtpx:TrackPointExtension></extensions>
      </trkpt>
      <trkpt lat="59.984579" lon="15.827368">
        <ele>97.8</ele>
        <time>2013-02-18T22:39:20Z</time>
        <extensions><gpxtpx:TrackPointExtension><gpxtpx:hr>149</gpxtpx:hr></gpxtpx:TrackPointExtension></extensions>
      </trkpt>
      <trkpt lat="59.9845796" lon="15.827366">
        <ele>97.8</ele>
        <time>2013-02-18T22:39:21Z</time>
        <extensions><gpxtpx:TrackPointExtension><gpxtpx:hr>149</gpxtpx:hr></gpxtpx:TrackPointExtension></extensions>
      </trkpt>
      <trkpt lat="59.9845803" lon="15.8273641">
        <ele>97.8</ele>
        <time>2013-02-18T22:39:22Z</time>
        <extensions><gpxtpx:TrackPointExtension><gpxtpx:hr>149</gpxtpx:hr></gpxtpx:TrackPointExtension></extensions>
      </trkpt>
      <trkpt lat="59.9845822" lon="15.8273581">
        <ele>97.8</ele>
        <time>2013-02-18T22:39:23Z</time>
        <extensions><gpxtpx:TrackPointExtension><gpxtpx:hr>149</gpxtpx:hr></gpxtpx:TrackPointExtension></extensions>
      </trkpt>
      <trkpt lat="59.9845845" lon="15.8273497">
        <ele>97.8</ele>
        <time>2013-02-18T22:39:24Z</time>
        <extensions><gpxtpx:TrackPointExtension><gpxtpx:hr>149</gpxtpx:hr></gpxtpx:TrackPointExtension></extensions>
      </trkpt>
      <trkpt lat="59.9845876" lon="15.82734">
        <ele>97.8</ele>
        <time>2013-02-18T22:39:25Z</time>
        <extensions><gpxtpx:TrackPointExtension><gpxtpx:hr>150</gpxtpx:hr></gpxtpx:TrackPointExtension></extensions>
      </trkpt>
      <trkpt lat="59.984589" lon="15.8273285">
        <ele>97.8</ele>
        <time>2013-02-18T22:39:29Z</time>
        <extensions><gpxtpx:TrackPointExtension><gpxtpx:hr>150</gpxtpx:hr></gpxtpx:TrackPointExtension></extensions>
      </trkpt>
      <trkpt lat="59.984585" lon="15.8273448">
        <ele>97.8</ele>
        <time>2013-02-18T22:39:36Z</time>
        <extensions><gpxtpx:TrackPointExtension><gpxtpx:hr>149</gpxtpx:hr></gpxtpx:TrackPointExtension></extensions>
      </trkpt>
      <trkpt lat="59.9845921" lon="15.8273172">
        <ele>97.8</ele>
        <time>2013-02-18T22:39:41Z</time>
        <extensions><gpxtpx:TrackPointExtension><gpxtpx:hr>148</gpxtpx:hr></gpxtpx:TrackPointExtension></extensions>
      </trkpt>
      <trkpt lat="59.9845895" lon="15.8273231">
        <ele>97.8</ele>
        <time>2013-02-18T22:39:42Z</time>
        <extensions><gpxtpx:TrackPointExtension><gpxtpx:hr>148</gpxtpx:hr></gpxtpx:TrackPointExtension></extensions>
      </trkpt>
      <trkpt lat="59.9845865" lon="15.8273306">
        <ele>97.8</ele>
        <time>2013-02-18T22:39:43Z</time>
        <extensions><gpxtpx:TrackPointExtension><gpxtpx:hr>148</gpxtpx:hr></gpxtpx:TrackPointExtension></extensions>
      </trkpt>
      <trkpt lat="59.9845838" lon="15.8273412">
        <ele>97.8</ele>
        <time>2013-02-18T22:39:44Z</time>
        <extensions><gpxtpx:TrackPointExtension><gpxtpx:hr>147</gpxtpx:hr></gpxtpx:TrackPointExtension></extensions>
      </trkpt>
      <trkpt lat="59.9845821" lon="15.8273459">
        <ele>97.8</ele>
        <time>2013-02-18T22:39:45Z</time>
        <extensions><gpxtpx:TrackPointExtension><gpxtpx:hr>147</gpxtpx:hr></gpxtpx:TrackPointExtension></extensions>
      </trkpt>
      <trkpt lat="59.9845811" lon="15.8273504">
        <ele>97.8</ele>
        <time>2013-02-18T22:39:46Z</time>
        <extensions><gpxtpx:TrackPointExtension><gpxtpx:hr>147</gpxtpx:hr></gpxtpx:TrackPointExtension></extensions>
      </trkpt>
      <trkpt lat="59.9845808" lon="15.8273525">
        <ele>97.8</ele>
        <time>2013-02-18T22:39:47Z</time>
        <extensions><gpxtpx:TrackPointExtension><gpxtpx:hr>147</gpxtpx:hr></gpxtpx:TrackPointExtension></extensions>
      </trkpt>
      <trkpt lat="59.9845807" lon="15.8273534">
        <ele>97.8</ele>
        <time>2013-02-18T22:39:48Z</time>
        <extensions><gpxtpx:TrackPointExtension><gpxtpx:hr>147</gpxtpx:hr></gpxtpx:TrackPointExtension></extensions>
      </trkpt>
      <trkpt lat="59.9845809" lon="15.8273536">
        <ele>97.8</ele>
        <time>2013-02-18T22:39:49Z</time>
        <extensions><gpxtpx:TrackPointExtension><gpxtpx:hr>148</gpxtpx:hr></gpxtpx:TrackPointExtension></extensions>
      </trkpt>
      <trkpt lat="59.9845817" lon="15.8273608">
        <ele>97.8</ele>
        <time>2013-02-18T22:39:52Z</time>
        <extensions><gpxtpx:TrackPointExtension><gpxtpx:hr>147</gpxtpx:hr></gpxtpx:TrackPointExtension></extensions>
      </trkpt>
      <trkpt lat="59.9845742" lon="15.8273891">
        <ele>97.8</ele>
        <time>2013-02-18T22:39:56Z</time>
        <extensions><gpxtpx:TrackPointExtension><gpxtpx:hr>147</gpxtpx:hr></gpxtpx:TrackPointExtension></extensions>
      </trkpt>
      <trkpt lat="59.9845746" lon="15.8274067">
        <ele>97.8</ele>
        <time>2013-02-18T22:40:00Z</time>
        <extensions><gpxtpx:TrackPointExtension><gpxtpx:hr>148</gpxtpx:hr></gpxtpx:TrackPointExtension></extensions>
      </trkpt>
      <trkpt lat="59.9845725" lon="15.827411">
        <ele>97.8</ele>
        <time>2013-02-18T22:40:01Z</time>
        <extensions><gpxtpx:TrackPointExtension><gpxtpx:hr>148</gpxtpx:hr></gpxtpx:TrackPointExtension></extensions>
      </trkpt>
      <trkpt lat="59.9845441" lon="15.8276532">
        <ele>97.8</ele>
        <time>2013-02-18T22:40:02Z</time>
        <extensions><gpxtpx:TrackPointExtension><gpxtpx:hr>148</gpxtpx:hr></gpxtpx:TrackPointExtension></extensions>
      </trkpt>
      <trkpt lat="59.9845383" lon="15.8276526">
        <ele>97.8</ele>
        <time>2013-02-18T22:40:03Z</time>
        <extensions><gpxtpx:TrackPointExtension><gpxtpx:hr>148</gpxtpx:hr></gpxtpx:TrackPointExtension></extensions>
      </trkpt>
      <trkpt lat="59.9845355" lon="15.8276566">
        <ele>97.8</ele>
        <time>2013-02-18T22:40:04Z</time>
        <extensions><gpxtpx:TrackPointExtension><gpxtpx:hr>149</gpxtpx:hr></gpxtpx:TrackPointExtension></extensions>
      </trkpt>
      <trkpt lat="59.9845331" lon="15.8276643">
        <ele>97.8</ele>
        <time>2013-02-18T22:40:05Z</time>
        <extensions><gpxtpx:TrackPointExtension><gpxtpx:hr>148</gpxtpx:hr></gpxtpx:TrackPointExtension></extensions>
      </trkpt>
      <trkpt lat="59.9845291" lon="15.8276704">
        <ele>97.8</ele>
        <time>2013-02-18T22:40:06Z</time>
        <extensions><gpxtpx:TrackPointExtension><gpxtpx:hr>149</gpxtpx:hr></gpxtpx:TrackPointExtension></extensions>
      </trkpt>
      <trkpt lat="59.9845263" lon="15.8276752">
        <ele>97.8</ele>
        <time>2013-02-18T22:40:07Z</time>
        <extensions><gpxtpx:TrackPointExtension><gpxtpx:hr>148</gpxtpx:hr></gpxtpx:TrackPointExtension></extensions>
      </trkpt>
      <trkpt lat="59.9845275" lon="15.8276755">
        <ele>97.8</ele>
        <time>2013-02-18T22:40:08Z</time>
        <extensions><gpxtpx:TrackPointExtension><gpxtpx:hr>149</gpxtpx:hr></gpxtpx:TrackPointExtension></extensions>
      </trkpt>
      <trkpt lat="59.9845368" lon="15.8276621">
        <ele>97.8</ele>
        <time>2013-02-18T22:40:09Z</time>
        <extensions><gpxtpx:TrackPointExtension><gpxtpx:hr>148</gpxtpx:hr></gpxtpx:TrackPointExtension></extensions>
      </trkpt>
      <trkpt lat="59.9845405" lon="15.8276635">
        <ele>97.8</ele>
        <time>2013-02-18T22:40:10Z</time>
        <extensions><gpxtpx:TrackPointExtension><gpxtpx:hr>149</gpxtpx:hr></gpxtpx:TrackPointExtension></extensions>
      </trkpt>
      <trkpt lat="59.9845423" lon="15.8276642">
        <ele>97.8</ele>
        <time>2013-02-18T22:40:11Z</time>
        <extensions><gpxtpx:TrackPointExtension><gpxtpx:hr>148</gpxtpx:hr></gpxtpx:TrackPointExtension></extensions>
      </trkpt>
      <trkpt lat="59.984542" lon="15.8276689">
        <ele>97.8</ele>
        <time>2013-02-18T22:40:12Z</time>
        <extensions><gpxtpx:TrackPointExtension><gpxtpx:hr>149</gpxtpx:hr></gpxtpx:TrackPointExtension></extensions>
      </trkpt>
      <trkpt lat="59.9845404" lon="15.8276715">
        <ele>97.8</ele>
        <time>2013-02-18T22:40:13Z</time>
        <extensions><gpxtpx:TrackPointExtension><gpxtpx:hr>148</gpxtpx:hr></gpxtpx:TrackPointExtension></extensions>
      </trkpt>
      <trkpt lat="59.98454" lon="15.8276724">
        <ele>97.8</ele>
        <time>2013-02-18T22:40:14Z</time>
        <extensions><gpxtpx:TrackPointExtension><gpxtpx:hr>149</gpxtpx:hr></gpxtpx:TrackPointExtension></extensions>
      </trkpt>
      <trkpt lat="59.9845425" lon="15.8276736">
        <ele>97.8</ele>
        <time>2013-02-18T22:40:15Z</time>
        <extensions><gpxtpx:TrackPointExtension><gpxtpx:hr>148</gpxtpx:hr></gpxtpx:TrackPointExtension></extensions>
      </trkpt>
      <trkpt lat="59.9845461" lon="15.8276771">
        <ele>97.8</ele>
        <time>2013-02-18T22:40:16Z</time>
        <extensions><gpxtpx:TrackPointExtension><gpxtpx:hr>148</gpxtpx:hr></gpxtpx:TrackPointExtension></extensions>
      </trkpt>
      <trkpt lat="59.9845498" lon="15.8276805">
        <ele>97.8</ele>
        <time>2013-02-18T22:40:17Z</time>
        <extensions><gpxtpx:TrackPointExtension><gpxtpx:hr>148</gpxtpx:hr></gpxtpx:TrackPointExtension></extensions>
      </trkpt>
      <trkpt lat="59.9845523" lon="15.8276796">
        <ele>97.8</ele>
        <time>2013-02-18T22:40:18Z</time>
        <extensions><gpxtpx:TrackPointExtension><gpxtpx:hr>148</gpxtpx:hr></gpxtpx:TrackPointExtension></extensions>
      </trkpt>
      <trkpt lat="59.9845557" lon="15.8276741">
        <ele>97.8</ele>
        <time>2013-02-18T22:40:19Z</time>
        <extensions><gpxtpx:TrackPointExtension><gpxtpx:hr>147</gpxtpx:hr></gpxtpx:TrackPointExtension></extensions>
      </trkpt>
      <trkpt lat="59.9845566" lon="15.8276714">
        <ele>97.8</ele>
        <time>2013-02-18T22:40:20Z</time>
        <extensions><gpxtpx:TrackPointExtension><gpxtpx:hr>147</gpxtpx:hr></gpxtpx:TrackPointExtension></extensions>
      </trkpt>
      <trkpt lat="59.9845529" lon="15.8276706">
        <ele>97.8</ele>
        <time>2013-02-18T22:40:21Z</time>
        <extensions><gpxtpx:TrackPointExtension><gpxtpx:hr>147</gpxtpx:hr></gpxtpx:TrackPointExtension></extensions>
      </trkpt>
      <trkpt lat="59.9845513" lon="15.8276714">
        <ele>97.8</ele>
        <time>2013-02-18T22:40:22Z</time>
        <extensions><gpxtpx:TrackPointExtension><gpxtpx:hr>147</gpxtpx:hr></gpxtpx:TrackPointExtension></extensions>
      </trkpt>
      <trkpt lat="59.9845503" lon="15.8276711">
        <ele>97.8</ele>
        <time>2013-02-18T22:40:23Z</time>
        <extensions><gpxtpx:TrackPointExtension><gpxtpx:hr>147</gpxtpx:hr></gpxtpx:TrackPointExtension></extensions>
      </trkpt>
      <trkpt lat="59.9845487" lon="15.8276704">
        <ele>97.8</ele>
        <time>2013-02-18T22:40:24Z</time>
        <extensions><gpxtpx:TrackPointExtension><gpxtpx:hr>147</gpxtpx:hr></gpxtpx:TrackPointExtension></extensions>
      </trkpt>
      <trkpt lat="59.9845457" lon="15.8276761">
        <ele>97.8</ele>
        <time>2013-02-18T22:40:25Z</time>
        <extensions><gpxtpx:TrackPointExtension><gpxtpx:hr>147</gpxtpx:hr></gpxtpx:TrackPointExtension></extensions>
      </trkpt>
      <trkpt lat="59.9845435" lon="15.8276827">
        <ele>97.8</ele>
        <time>2013-02-18T22:40:26Z</time>
        <extensions><gpxtpx:TrackPointExtension><gpxtpx:hr>147</gpxtpx:hr></gpxtpx:TrackPointExtension></extensions>
      </trkpt>
      <trkpt lat="59.9845438" lon="15.8276858">
        <ele>97.8</ele>
        <time>2013-02-18T22:40:27Z</time>
        <extensions><gpxtpx:TrackPointExtension><gpxtpx:hr>147</gpxtpx:hr></gpxtpx:TrackPointExtension></extensions>
      </trkpt>
      <trkpt lat="59.9845463" lon="15.827685">
        <ele>97.8</ele>
        <time>2013-02-18T22:40:28Z</time>
        <extensions><gpxtpx:TrackPointExtension><gpxtpx:hr>147</gpxtpx:hr></gpxtpx:TrackPointExtension></extensions>
      </trkpt>
      <trkpt lat="59.9845468" lon="15.8276839">
        <ele>94.8</ele>
        <time>2013-02-18T22:40:29Z</time>
        <extensions><gpxtpx:TrackPointExtension><gpxtpx:hr>147</gpxtpx:hr></gpxtpx:TrackPointExtension></extensions>
      </trkpt>
      <trkpt lat="59.9845442" lon="15.8276837">
        <ele>94.8</ele>
        <time>2013-02-18T22:40:30Z</time>
        <extensions><gpxtpx:TrackPointExtension><gpxtpx:hr>146</gpxtpx:hr></gpxtpx:TrackPointExtension></extensions>
      </trkpt>
      <trkpt lat="59.9845437" lon="15.8276836">
        <ele>94.8</ele>
        <time>2013-02-18T22:40:31Z</time>
        <extensions><gpxtpx:TrackPointExtension><gpxtpx:hr>147</gpxtpx:hr></gpxtpx:TrackPointExtension></extensions>
      </trkpt>
      <trkpt lat="59.984544" lon="15.8276881">
        <ele>94.8</ele>
        <time>2013-02-18T22:40:32Z</time>
        <extensions><gpxtpx:TrackPointExtension><gpxtpx:hr>147</gpxtpx:hr></gpxtpx:TrackPointExtension></extensions>
      </trkpt>
      <trkpt lat="59.984543" lon="15.8276932">
        <ele>94.8</ele>
        <time>2013-02-18T22:40:33Z</time>
        <extensions><gpxtpx:TrackPointExtension><gpxtpx:hr>147</gpxtpx:hr></gpxtpx:TrackPointExtension></extensions>
      </trkpt>
      <trkpt lat="59.9845407" lon="15.8277013">
        <ele>94.8</ele>
        <time>2013-02-18T22:40:34Z</time>
        <extensions><gpxtpx:TrackPointExtension><gpxtpx:hr>147</gpxtpx:hr></gpxtpx:TrackPointExtension></extensions>
      </trkpt>
      <trkpt lat="59.9845361" lon="15.8277188">
        <ele>94.8</ele>
        <time>2013-02-18T22:40:36Z</time>
        <extensions><gpxtpx:TrackPointExtension><gpxtpx:hr>147</gpxtpx:hr></gpxtpx:TrackPointExtension></extensions>
      </trkpt>
      <trkpt lat="59.984536" lon="15.8277209">
        <ele>94.8</ele>
        <time>2013-02-18T22:40:37Z</time>
        <extensions><gpxtpx:TrackPointExtension><gpxtpx:hr>147</gpxtpx:hr></gpxtpx:TrackPointExtension></extensions>
      </trkpt>
      <trkpt lat="59.9845372" lon="15.8277198">
        <ele>94.8</ele>
        <time>2013-02-18T22:40:38Z</time>
        <extensions><gpxtpx:TrackPointExtension><gpxtpx:hr>148</gpxtpx:hr></gpxtpx:TrackPointExtension></extensions>
      </trkpt>
      <trkpt lat="59.9845385" lon="15.8277192">
        <ele>94.8</ele>
        <time>2013-02-18T22:40:39Z</time>
        <extensions><gpxtpx:TrackPointExtension><gpxtpx:hr>148</gpxtpx:hr></gpxtpx:TrackPointExtension></extensions>
      </trkpt>
      <trkpt lat="59.9845389" lon="15.8277192">
        <ele>94.8</ele>
        <time>2013-02-18T22:40:40Z</time>
        <extensions><gpxtpx:TrackPointExtension><gpxtpx:hr>148</gpxtpx:hr></gpxtpx:TrackPointExtension></extensions>
      </trkpt>
      <trkpt lat="59.9845384" lon="15.8277194">
        <ele>94.8</ele>
        <time>2013-02-18T22:40:41Z</time>
        <extensions><gpxtpx:TrackPointExtension><gpxtpx:hr>148</gpxtpx:hr></gpxtpx:TrackPointExtension></extensions>
      </trkpt>
      <trkpt lat="59.9845016" lon="15.827702">
        <ele>94.8</ele>
        <time>2013-02-18T22:40:43Z</time>
        <extensions><gpxtpx:TrackPointExtension><gpxtpx:hr>149</gpxtpx:hr></gpxtpx:TrackPointExtension></extensions>
      </trkpt>
      <trkpt lat="59.984505" lon="15.827683">
        <ele>94.8</ele>
        <time>2013-02-18T22:40:44Z</time>
        <extensions><gpxtpx:TrackPointExtension><gpxtpx:hr>149</gpxtpx:hr></gpxtpx:TrackPointExtension></extensions>
      </trkpt>
      <trkpt lat="59.9845144" lon="15.8276499">
        <ele>94.8</ele>
        <time>2013-02-18T22:40:50Z</time>
        <extensions><gpxtpx:TrackPointExtension><gpxtpx:hr>150</gpxtpx:hr></gpxtpx:TrackPointExtension></extensions>
      </trkpt>
      <trkpt lat="59.9845121" lon="15.8276523">
        <ele>94.8</ele>
        <time>2013-02-18T22:40:51Z</time>
        <extensions><gpxtpx:TrackPointExtension><gpxtpx:hr>149</gpxtpx:hr></gpxtpx:TrackPointExtension></extensions>
      </trkpt>
      <trkpt lat="59.9845075" lon="15.827659">
        <ele>94.8</ele>
        <time>2013-02-18T22:40:53Z</time>
        <extensions><gpxtpx:TrackPointExtension><gpxtpx:hr>149</gpxtpx:hr></gpxtpx:TrackPointExtension></extensions>
      </trkpt>
      <trkpt lat="59.9845063" lon="15.8276618">
        <ele>94.8</ele>
        <time>2013-02-18T22:40:54Z</time>
        <extensions><gpxtpx:TrackPointExtension><gpxtpx:hr>149</gpxtpx:hr></gpxtpx:TrackPointExtension></extensions>
      </trkpt>
      <trkpt lat="59.9845117" lon="15.8276563">
        <ele>94.8</ele>
        <time>2013-02-18T22:40:57Z</time>
        <extensions><gpxtpx:TrackPointExtension><gpxtpx:hr>149</gpxtpx:hr></gpxtpx:TrackPointExtension></extensions>
      </trkpt>
      <trkpt lat="59.9845143" lon="15.8276519">
        <ele>94.8</ele>
        <time>2013-02-18T22:40:58Z</time>
        <extensions><gpxtpx:TrackPointExtension><gpxtpx:hr>149</gpxtpx:hr></gpxtpx:TrackPointExtension></extensions>
      </trkpt>
      <trkpt lat="59.9845164" lon="15.8276478">
        <ele>94.8</ele>
        <time>2013-02-18T22:40:59Z</time>
        <extensions><gpxtpx:TrackPointExtension><gpxtpx:hr>149</gpxtpx:hr></gpxtpx:TrackPointExtension></extensions>
      </trkpt>
      <trkpt lat="59.9845168" lon="15.8276484">
        <ele>94.8</ele>
        <time>2013-02-18T22:41:00Z</time>
        <extensions><gpxtpx:TrackPointExtension><gpxtpx:hr>149</gpxtpx:hr></gpxtpx:TrackPointExtension></extensions>
      </trkpt>
      <trkpt lat="59.9845148" lon="15.8276519">
        <ele>94.8</ele>
        <time>2013-02-18T22:41:01Z</time>
        <extensions><gpxtpx:TrackPointExtension><gpxtpx:hr>149</gpxtpx:hr></gpxtpx:TrackPointExtension></extensions>
      </trkpt>
      <trkpt lat="59.9845143" lon="15.8276486">
        <ele>94.8</ele>
        <time>2013-02-18T22:41:02Z</time>
        <extensions><gpxtpx:TrackPointExtension><gpxtpx:hr>149</gpxtpx:hr></gpxtpx:TrackPointExtension></extensions>
      </trkpt>
      <trkpt lat="59.9845139" lon="15.8276451">
        <ele>94.8</ele>
        <time>2013-02-18T22:41:03Z</time>
        <extensions><gpxtpx:TrackPointExtension><gpxtpx:hr>150</gpxtpx:hr></gpxtpx:TrackPointExtension></extensions>
      </trkpt>
      <trkpt lat="59.9845132" lon="15.8276462">
        <ele>94.8</ele>
        <time>2013-02-18T22:41:04Z</time>
        <extensions><gpxtpx:TrackPointExtension><gpxtpx:hr>149</gpxtpx:hr></gpxtpx:TrackPointExtension></extensions>
      </trkpt>
      <trkpt lat="59.9845133" lon="15.8276473">
        <ele>94.8</ele>
        <time>2013-02-18T22:41:05Z</time>
        <extensions><gpxtpx:TrackPointExtension><gpxtpx:hr>149</gpxtpx:hr></gpxtpx:TrackPointExtension></extensions>
      </trkpt>
      <trkpt lat="59.9845122" lon="15.8276524">
        <ele>94.8</ele>
        <time>2013-02-18T22:41:06Z</time>
        <extensions><gpxtpx:TrackPointExtension><gpxtpx:hr>149</gpxtpx:hr></gpxtpx:TrackPointExtension></extensions>
      </trkpt>
      <trkpt lat="59.9845159" lon="15.8275971">
        <ele>94.8</ele>
        <time>2013-02-18T22:41:07Z</time>
        <extensions><gpxtpx:TrackPointExtension><gpxtpx:hr>149</gpxtpx:hr></gpxtpx:TrackPointExtension></extensions>
      </trkpt>
      <trkpt lat="59.9845093" lon="15.8276165">
        <ele>94.8</ele>
        <time>2013-02-18T22:41:08Z</time>
        <extensions><gpxtpx:TrackPointExtension><gpxtpx:hr>149</gpxtpx:hr></gpxtpx:TrackPointExtension></extensions>
      </trkpt>
      <trkpt lat="59.9845023" lon="15.8276276">
        <ele>94.8</ele>
        <time>2013-02-18T22:41:09Z</time>
        <extensions><gpxtpx:TrackPointExtension><gpxtpx:hr>149</gpxtpx:hr></gpxtpx:TrackPointExtension></extensions>
      </trkpt>
      <trkpt lat="59.9844978" lon="15.8276357">
        <ele>94.8</ele>
        <time>2013-02-18T22:41:10Z</time>
        <extensions><gpxtpx:TrackPointExtension><gpxtpx:hr>149</gpxtpx:hr></gpxtpx:TrackPointExtension></extensions>
      </trkpt>
      <trkpt lat="59.9844938" lon="15.8276365">
        <ele>94.8</ele>
        <time>2013-02-18T22:41:11Z</time>
        <extensions><gpxtpx:TrackPointExtension><gpxtpx:hr>149</gpxtpx:hr></gpxtpx:TrackPointExtension></extensions>
      </trkpt>
      <trkpt lat="59.9844811" lon="15.8276419">
        <ele>94.8</ele>
        <time>2013-02-18T22:41:13Z</time>
        <extensions><gpxtpx:TrackPointExtension><gpxtpx:hr>149</gpxtpx:hr></gpxtpx:TrackPointExtension></extensions>
      </trkpt>
      <trkpt lat="59.9844804" lon="15.827648">
        <ele>94.8</ele>
        <time>2013-02-18T22:41:16Z</time>
        <extensions><gpxtpx:TrackPointExtension><gpxtpx:hr>150</gpxtpx:hr></gpxtpx:TrackPointExtension></extensions>
      </trkpt>
      <trkpt lat="59.9844819" lon="15.8276541">
        <ele>94.8</ele>
        <time>2013-02-18T22:41:17Z</time>
        <extensions><gpxtpx:TrackPointExtension><gpxtpx:hr>150</gpxtpx:hr></gpxtpx:TrackPointExtension></extensions>
      </trkpt>
      <trkpt lat="59.9844842" lon="15.8276581">
        <ele>94.8</ele>
        <time>2013-02-18T22:41:18Z</time>
        <extensions><gpxtpx:TrackPointExtension><gpxtpx:hr>150</gpxtpx:hr></gpxtpx:TrackPointExtension></extensions>
      </trkpt>
      <trkpt lat="59.9844789" lon="15.8276348">
        <ele>94.8</ele>
        <time>2013-02-18T22:41:19Z</time>
        <extensions><gpxtpx:TrackPointExtension><gpxtpx:hr>151</gpxtpx:hr></gpxtpx:TrackPointExtension></extensions>
      </trkpt>
      <trkpt lat="59.9844792" lon="15.827639">
        <ele>94.8</ele>
        <time>2013-02-18T22:41:20Z</time>
        <extensions><gpxtpx:TrackPointExtension><gpxtpx:hr>151</gpxtpx:hr></gpxtpx:TrackPointExtension></extensions>
      </trkpt>
      <trkpt lat="59.9844759" lon="15.8276412">
        <ele>93.8</ele>
        <time>2013-02-18T22:41:21Z</time>
        <extensions><gpxtpx:TrackPointExtension><gpxtpx:hr>151</gpxtpx:hr></gpxtpx:TrackPointExtension></extensions>
      </trkpt>
      <trkpt lat="59.9844714" lon="15.8276436">
        <ele>93.8</ele>
        <time>2013-02-18T22:41:22Z</time>
        <extensions><gpxtpx:TrackPointExtension><gpxtpx:hr>151</gpxtpx:hr></gpxtpx:TrackPointExtension></extensions>
      </trkpt>
      <trkpt lat="59.9844571" lon="15.8276244">
        <ele>93.8</ele>
        <time>2013-02-18T22:41:23Z</time>
        <extensions><gpxtpx:TrackPointExtension><gpxtpx:hr>151</gpxtpx:hr></gpxtpx:TrackPointExtension></extensions>
      </trkpt>
      <trkpt lat="59.9844498" lon="15.8276151">
        <ele>93.8</ele>
        <time>2013-02-18T22:41:24Z</time>
        <extensions><gpxtpx:TrackPointExtension><gpxtpx:hr>151</gpxtpx:hr></gpxtpx:TrackPointExtension></extensions>
      </trkpt>
      <trkpt lat="59.9844469" lon="15.82761">
        <ele>93.8</ele>
        <time>2013-02-18T22:41:25Z</time>
        <extensions><gpxtpx:TrackPointExtension><gpxtpx:hr>151</gpxtpx:hr></gpxtpx:TrackPointExtension></extensions>
      </trkpt>
      <trkpt lat="59.9844474" lon="15.8276015">
        <ele>93.8</ele>
        <time>2013-02-18T22:41:26Z</time>
        <extensions><gpxtpx:TrackPointExtension><gpxtpx:hr>151</gpxtpx:hr></gpxtpx:TrackPointExtension></extensions>
      </trkpt>
      <trkpt lat="59.9844481" lon="15.8275951">
        <ele>93.8</ele>
        <time>2013-02-18T22:41:27Z</time>
        <extensions><gpxtpx:TrackPointExtension><gpxtpx:hr>151</gpxtpx:hr></gpxtpx:TrackPointExtension></extensions>
      </trkpt>
      <trkpt lat="59.9844487" lon="15.8275887">
        <ele>93.8</ele>
        <time>2013-02-18T22:41:28Z</time>
        <extensions><gpxtpx:TrackPointExtension><gpxtpx:hr>151</gpxtpx:hr></gpxtpx:TrackPointExtension></extensions>
      </trkpt>
      <trkpt lat="59.9844512" lon="15.8275797">
        <ele>93.8</ele>
        <time>2013-02-18T22:41:29Z</time>
        <extensions><gpxtpx:TrackPointExtension><gpxtpx:hr>151</gpxtpx:hr></gpxtpx:TrackPointExtension></extensions>
      </trkpt>
      <trkpt lat="59.9844533" lon="15.8275728">
        <ele>93.8</ele>
        <time>2013-02-18T22:41:30Z</time>
        <extensions><gpxtpx:TrackPointExtension><gpxtpx:hr>151</gpxtpx:hr></gpxtpx:TrackPointExtension></extensions>
      </trkpt>
      <trkpt lat="59.9844551" lon="15.8275735">
        <ele>93.8</ele>
        <time>2013-02-18T22:41:31Z</time>
        <extensions><gpxtpx:TrackPointExtension><gpxtpx:hr>151</gpxtpx:hr></gpxtpx:TrackPointExtension></extensions>
      </trkpt>
      <trkpt lat="59.9844528" lon="15.827581">
        <ele>93.8</ele>
        <time>2013-02-18T22:41:32Z</time>
        <extensions><gpxtpx:TrackPointExtension><gpxtpx:hr>151</gpxtpx:hr></gpxtpx:TrackPointExtension></extensions>
      </trkpt>
      <trkpt lat="59.9844354" lon="15.8275882">
        <ele>93.8</ele>
        <time>2013-02-18T22:41:33Z</time>
        <extensions><gpxtpx:TrackPointExtension><gpxtpx:hr>151</gpxtpx:hr></gpxtpx:TrackPointExtension></extensions>
      </trkpt>
      <trkpt lat="59.9844239" lon="15.8276006">
        <ele>93.8</ele>
        <time>2013-02-18T22:41:35Z</time>
        <extensions><gpxtpx:TrackPointExtension><gpxtpx:hr>151</gpxtpx:hr></gpxtpx:TrackPointExtension></extensions>
      </trkpt>
      <trkpt lat="59.984422" lon="15.8276097">
        <ele>93.8</ele>
        <time>2013-02-18T22:41:36Z</time>
        <extensions><gpxtpx:TrackPointExtension><gpxtpx:hr>151</gpxtpx:hr></gpxtpx:TrackPointExtension></extensions>
      </trkpt>
      <trkpt lat="59.9844218" lon="15.8276193">
        <ele>93.8</ele>
        <time>2013-02-18T22:41:37Z</time>
        <extensions><gpxtpx:TrackPointExtension><gpxtpx:hr>151</gpxtpx:hr></gpxtpx:TrackPointExtension></extensions>
      </trkpt>
      <trkpt lat="59.9844228" lon="15.8276255">
        <ele>93.8</ele>
        <time>2013-02-18T22:41:38Z</time>
        <extensions><gpxtpx:TrackPointExtension><gpxtpx:hr>151</gpxtpx:hr></gpxtpx:TrackPointExtension></extensions>
      </trkpt>
      <trkpt lat="59.9844226" lon="15.8276303">
        <ele>93.8</ele>
        <time>2013-02-18T22:41:39Z</time>
        <extensions><gpxtpx:TrackPointExtension><gpxtpx:hr>151</gpxtpx:hr></gpxtpx:TrackPointExtension></extensions>
      </trkpt>
      <trkpt lat="59.9844221" lon="15.8276305">
        <ele>93.8</ele>
        <time>2013-02-18T22:41:40Z</time>
        <extensions><gpxtpx:TrackPointExtension><gpxtpx:hr>150</gpxtpx:hr></gpxtpx:TrackPointExtension></extensions>
      </trkpt>
      <trkpt lat="59.9844231" lon="15.8276286">
        <ele>93.8</ele>
        <time>2013-02-18T22:41:41Z</time>
        <extensions><gpxtpx:TrackPointExtension><gpxtpx:hr>150</gpxtpx:hr></gpxtpx:TrackPointExtension></extensions>
      </trkpt>
      <trkpt lat="59.9844242" lon="15.8276271">
        <ele>93.8</ele>
        <time>2013-02-18T22:41:42Z</time>
        <extensions><gpxtpx:TrackPointExtension><gpxtpx:hr>150</gpxtpx:hr></gpxtpx:TrackPointExtension></extensions>
      </trkpt>
      <trkpt lat="59.984418" lon="15.8276184">
        <ele>93.8</ele>
        <time>2013-02-18T22:41:45Z</time>
        <extensions><gpxtpx:TrackPointExtension><gpxtpx:hr>150</gpxtpx:hr></gpxtpx:TrackPointExtension></extensions>
      </trkpt>
      <trkpt lat="59.9844151" lon="15.8275472">
        <ele>93.8</ele>
        <time>2013-02-18T22:41:46Z</time>
        <extensions><gpxtpx:TrackPointExtension><gpxtpx:hr>149</gpxtpx:hr></gpxtpx:TrackPointExtension></extensions>
      </trkpt>
      <trkpt lat="59.984413" lon="15.8275623">
        <ele>93.8</ele>
        <time>2013-02-18T22:41:47Z</time>
        <extensions><gpxtpx:TrackPointExtension><gpxtpx:hr>149</gpxtpx:hr></gpxtpx:TrackPointExtension></extensions>
      </trkpt>
      <trkpt lat="59.9844137" lon="15.8275674">
        <ele>93.8</ele>
        <time>2013-02-18T22:41:48Z</time>
        <extensions><gpxtpx:TrackPointExtension><gpxtpx:hr>148</gpxtpx:hr></gpxtpx:TrackPointExtension></extensions>
      </trkpt>
      <trkpt lat="59.9844126" lon="15.827574">
        <ele>93.8</ele>
        <time>2013-02-18T22:41:49Z</time>
        <extensions><gpxtpx:TrackPointExtension><gpxtpx:hr>148</gpxtpx:hr></gpxtpx:TrackPointExtension></extensions>
      </trkpt>
      <trkpt lat="59.9844074" lon="15.827583">
        <ele>93.8</ele>
        <time>2013-02-18T22:41:50Z</time>
        <extensions><gpxtpx:TrackPointExtension><gpxtpx:hr>149</gpxtpx:hr></gpxtpx:TrackPointExtension></extensions>
      </trkpt>
      <trkpt lat="59.9844057" lon="15.8275883">
        <ele>93.8</ele>
        <time>2013-02-18T22:41:52Z</time>
        <extensions><gpxtpx:TrackPointExtension><gpxtpx:hr>149</gpxtpx:hr></gpxtpx:TrackPointExtension></extensions>
      </trkpt>
      <trkpt lat="59.9844212" lon="15.8275018">
        <ele>93.8</ele>
        <time>2013-02-18T22:41:54Z</time>
        <extensions><gpxtpx:TrackPointExtension><gpxtpx:hr>150</gpxtpx:hr></gpxtpx:TrackPointExtension></extensions>
      </trkpt>
      <trkpt lat="59.9844267" lon="15.8274944">
        <ele>93.8</ele>
        <time>2013-02-18T22:41:55Z</time>
        <extensions><gpxtpx:TrackPointExtension><gpxtpx:hr>150</gpxtpx:hr></gpxtpx:TrackPointExtension></extensions>
      </trkpt>
      <trkpt lat="59.9844296" lon="15.8274924">
        <ele>93.8</ele>
        <time>2013-02-18T22:41:56Z</time>
        <extensions><gpxtpx:TrackPointExtension><gpxtpx:hr>150</gpxtpx:hr></gpxtpx:TrackPointExtension></extensions>
      </trkpt>
      <trkpt lat="59.9844152" lon="15.8275209">
        <ele>93.8</ele>
        <time>2013-02-18T22:41:57Z</time>
        <extensions><gpxtpx:TrackPointExtension><gpxtpx:hr>150</gpxtpx:hr></gpxtpx:TrackPointExtension></extensions>
      </trkpt>
      <trkpt lat="59.9844107" lon="15.8275237">
        <ele>93.8</ele>
        <time>2013-02-18T22:41:58Z</time>
        <extensions><gpxtpx:TrackPointExtension><gpxtpx:hr>151</gpxtpx:hr></gpxtpx:TrackPointExtension></extensions>
      </trkpt>
      <trkpt lat="59.9844109" lon="15.8275336">
        <ele>93.8</ele>
        <time>2013-02-18T22:42:00Z</time>
        <extensions><gpxtpx:TrackPointExtension><gpxtpx:hr>151</gpxtpx:hr></gpxtpx:TrackPointExtension></extensions>
      </trkpt>
      <trkpt lat="59.9844109" lon="15.8275355">
        <ele>93.8</ele>
        <time>2013-02-18T22:42:01Z</time>
        <extensions><gpxtpx:TrackPointExtension><gpxtpx:hr>151</gpxtpx:hr></gpxtpx:TrackPointExtension></extensions>
      </trkpt>
      <trkpt lat="59.9844113" lon="15.8275376">
        <ele>93.8</ele>
        <time>2013-02-18T22:42:02Z</time>
        <extensions><gpxtpx:TrackPointExtension><gpxtpx:hr>151</gpxtpx:hr></gpxtpx:TrackPointExtension></extensions>
      </trkpt>
      <trkpt lat="59.9844126" lon="15.8275396">
        <ele>93.8</ele>
        <time>2013-02-18T22:42:09Z</time>
        <extensions><gpxtpx:TrackPointExtension><gpxtpx:hr>151</gpxtpx:hr></gpxtpx:TrackPointExtension></extensions>
      </trkpt>
      <trkpt lat="59.9844068" lon="15.8275531">
        <ele>93.8</ele>
        <time>2013-02-18T22:42:13Z</time>
        <extensions><gpxtpx:TrackPointExtension><gpxtpx:hr>151</gpxtpx:hr></gpxtpx:TrackPointExtension></extensions>
      </trkpt>
      <trkpt lat="59.9845177" lon="15.8272828">
        <ele>93.8</ele>
        <time>2013-02-18T22:42:14Z</time>
        <extensions><gpxtpx:TrackPointExtension><gpxtpx:hr>151</gpxtpx:hr></gpxtpx:TrackPointExtension></extensions>
      </trkpt>
      <trkpt lat="59.9845213" lon="15.8272784">
        <ele>93.8</ele>
        <time>2013-02-18T22:42:15Z</time>
        <extensions><gpxtpx:TrackPointExtension><gpxtpx:hr>151</gpxtpx:hr></gpxtpx:TrackPointExtension></extensions>
      </trkpt>
      <trkpt lat="59.9845187" lon="15.8272878">
        <ele>93.8</ele>
        <time>2013-02-18T22:42:16Z</time>
        <extensions><gpxtpx:TrackPointExtension><gpxtpx:hr>151</gpxtpx:hr></gpxtpx:TrackPointExtension></extensions>
      </trkpt>
      <trkpt lat="59.9845172" lon="15.827294">
        <ele>93.8</ele>
        <time>2013-02-18T22:42:17Z</time>
        <extensions><gpxtpx:TrackPointExtension><gpxtpx:hr>151</gpxtpx:hr></gpxtpx:TrackPointExtension></extensions>
      </trkpt>
      <trkpt lat="59.9845177" lon="15.827294">
        <ele>93.8</ele>
        <time>2013-02-18T22:42:18Z</time>
        <extensions><gpxtpx:TrackPointExtension><gpxtpx:hr>151</gpxtpx:hr></gpxtpx:TrackPointExtension></extensions>
      </trkpt>
      <trkpt lat="59.9845164" lon="15.8273009">
        <ele>93.8</ele>
        <time>2013-02-18T22:42:19Z</time>
        <extensions><gpxtpx:TrackPointExtension><gpxtpx:hr>151</gpxtpx:hr></gpxtpx:TrackPointExtension></extensions>
      </trkpt>
      <trkpt lat="59.9845156" lon="15.8273058">
        <ele>93.8</ele>
        <time>2013-02-18T22:42:20Z</time>
        <extensions><gpxtpx:TrackPointExtension><gpxtpx:hr>151</gpxtpx:hr></gpxtpx:TrackPointExtension></extensions>
      </trkpt>
      <trkpt lat="59.9845164" lon="15.8273067">
        <ele>93.8</ele>
        <time>2013-02-18T22:42:21Z</time>
        <extensions><gpxtpx:TrackPointExtension><gpxtpx:hr>151</gpxtpx:hr></gpxtpx:TrackPointExtension></extensions>
      </trkpt>
      <trkpt lat="59.9845174" lon="15.827304">
        <ele>93.8</ele>
        <time>2013-02-18T22:42:22Z</time>
        <extensions><gpxtpx:TrackPointExtension><gpxtpx:hr>150</gpxtpx:hr></gpxtpx:TrackPointExtension></extensions>
      </trkpt>
      <trkpt lat="59.9845281" lon="15.8272639">
        <ele>93.8</ele>
        <time>2013-02-18T22:42:23Z</time>
        <extensions><gpxtpx:TrackPointExtension><gpxtpx:hr>151</gpxtpx:hr></gpxtpx:TrackPointExtension></extensions>
      </trkpt>
      <trkpt lat="59.9845298" lon="15.8272493">
        <ele>93.8</ele>
        <time>2013-02-18T22:42:25Z</time>
        <extensions><gpxtpx:TrackPointExtension><gpxtpx:hr>150</gpxtpx:hr></gpxtpx:TrackPointExtension></extensions>
      </trkpt>
      <trkpt lat="59.9845346" lon="15.8272225">
        <ele>93.8</ele>
        <time>2013-02-18T22:42:26Z</time>
        <extensions><gpxtpx:TrackPointExtension><gpxtpx:hr>150</gpxtpx:hr></gpxtpx:TrackPointExtension></extensions>
      </trkpt>
      <trkpt lat="59.9845352" lon="15.8272148">
        <ele>93.8</ele>
        <time>2013-02-18T22:42:27Z</time>
        <extensions><gpxtpx:TrackPointExtension><gpxtpx:hr>150</gpxtpx:hr></gpxtpx:TrackPointExtension></extensions>
      </trkpt>
      <trkpt lat="59.9845353" lon="15.8272096">
        <ele>93.8</ele>
        <time>2013-02-18T22:42:28Z</time>
        <extensions><gpxtpx:TrackPointExtension><gpxtpx:hr>150</gpxtpx:hr></gpxtpx:TrackPointExtension></extensions>
      </trkpt>
      <trkpt lat="59.9845399" lon="15.8271959">
        <ele>93.8</ele>
        <time>2013-02-18T22:42:29Z</time>
        <extensions><gpxtpx:TrackPointExtension><gpxtpx:hr>150</gpxtpx:hr></gpxtpx:TrackPointExtension></extensions>
      </trkpt>
      <trkpt lat="59.9845403" lon="15.827191">
        <ele>93.8</ele>
        <time>2013-02-18T22:42:30Z</time>
        <extensions><gpxtpx:TrackPointExtension><gpxtpx:hr>150</gpxtpx:hr></gpxtpx:TrackPointExtension></extensions>
      </trkpt>
      <trkpt lat="59.9845425" lon="15.8271896">
        <ele>92.8</ele>
        <time>2013-02-18T22:42:33Z</time>
        <extensions><gpxtpx:TrackPointExtension><gpxtpx:hr>150</gpxtpx:hr></gpxtpx:TrackPointExtension></extensions>
      </trkpt>
      <trkpt lat="59.9845408" lon="15.827195">
        <ele>92.8</ele>
        <time>2013-02-18T22:42:34Z</time>
        <extensions><gpxtpx:TrackPointExtension><gpxtpx:hr>151</gpxtpx:hr></gpxtpx:TrackPointExtension></extensions>
      </trkpt>
      <trkpt lat="59.9845401" lon="15.8272">
        <ele>92.8</ele>
        <time>2013-02-18T22:42:35Z</time>
        <extensions><gpxtpx:TrackPointExtension><gpxtpx:hr>150</gpxtpx:hr></gpxtpx:TrackPointExtension></extensions>
      </trkpt>
      <trkpt lat="59.9845404" lon="15.8272059">
        <ele>92.8</ele>
        <time>2013-02-18T22:42:36Z</time>
        <extensions><gpxtpx:TrackPointExtension><gpxtpx:hr>150</gpxtpx:hr></gpxtpx:TrackPointExtension></extensions>
      </trkpt>
      <trkpt lat="59.9845404" lon="15.8272087">
        <ele>92.8</ele>
        <time>2013-02-18T22:42:37Z</time>
        <extensions><gpxtpx:TrackPointExtension><gpxtpx:hr>150</gpxtpx:hr></gpxtpx:TrackPointExtension></extensions>
      </trkpt>
      <trkpt lat="59.9845412" lon="15.8272089">
        <ele>92.8</ele>
        <time>2013-02-18T22:42:38Z</time>
        <extensions><gpxtpx:TrackPointExtension><gpxtpx:hr>150</gpxtpx:hr></gpxtpx:TrackPointExtension></extensions>
      </trkpt>
      <trkpt lat="59.9845422" lon="15.8272077">
        <ele>92.8</ele>
        <time>2013-02-18T22:42:39Z</time>
        <extensions><gpxtpx:TrackPointExtension><gpxtpx:hr>150</gpxtpx:hr></gpxtpx:TrackPointExtension></extensions>
      </trkpt>
      <trkpt lat="59.9845429" lon="15.8272044">
        <ele>92.8</ele>
        <time>2013-02-18T22:42:40Z</time>
        <extensions><gpxtpx:TrackPointExtension><gpxtpx:hr>149</gpxtpx:hr></gpxtpx:TrackPointExtension></extensions>
      </trkpt>
      <trkpt lat="59.9845435" lon="15.8272018">
        <ele>92.8</ele>
        <time>2013-02-18T22:42:41Z</time>
        <extensions><gpxtpx:TrackPointExtension><gpxtpx:hr>149</gpxtpx:hr></gpxtpx:TrackPointExtension></extensions>
      </trkpt>
      <trkpt lat="59.9845437" lon="15.8272022">
        <ele>92.8</ele>
        <time>2013-02-18T22:42:42Z</time>
        <extensions><gpxtpx:TrackPointExtension><gpxtpx:hr>149</gpxtpx:hr></gpxtpx:TrackPointExtension></extensions>
      </trkpt>
      <trkpt lat="59.9845436" lon="15.8272059">
        <ele>92.8</ele>
        <time>2013-02-18T22:42:43Z</time>
        <extensions><gpxtpx:TrackPointExtension><gpxtpx:hr>149</gpxtpx:hr></gpxtpx:TrackPointExtension></extensions>
      </trkpt>
      <trkpt lat="59.9845435" lon="15.8272125">
        <ele>92.8</ele>
        <time>2013-02-18T22:42:44Z</time>
        <extensions><gpxtpx:TrackPointExtension><gpxtpx:hr>148</gpxtpx:hr></gpxtpx:TrackPointExtension></extensions>
      </trkpt>
      <trkpt lat="59.984529" lon="15.8273197">
        <ele>92.8</ele>
        <time>2013-02-18T22:42:45Z</time>
        <extensions><gpxtpx:TrackPointExtension><gpxtpx:hr>148</gpxtpx:hr></gpxtpx:TrackPointExtension></extensions>
      </trkpt>
      <trkpt lat="59.9845266" lon="15.8273312">
        <ele>92.8</ele>
        <time>2013-02-18T22:42:46Z</time>
        <extensions><gpxtpx:TrackPointExtension><gpxtpx:hr>148</gpxtpx:hr></gpxtpx:TrackPointExtension></extensions>
      </trkpt>
      <trkpt lat="59.9845249" lon="15.8273393">
        <ele>92.8</ele>
        <time>2013-02-18T22:42:47Z</time>
        <extensions><gpxtpx:TrackPointExtension><gpxtpx:hr>148</gpxtpx:hr></gpxtpx:TrackPointExtension></extensions>
      </trkpt>
      <trkpt lat="59.9845249" lon="15.8273391">
        <ele>92.8</ele>
        <time>2013-02-18T22:42:48Z</time>
        <extensions><gpxtpx:TrackPointExtension><gpxtpx:hr>147</gpxtpx:hr></gpxtpx:TrackPointExtension></extensions>
      </trkpt>
      <trkpt lat="59.9845255" lon="15.8273387">
        <ele>92.8</ele>
        <time>2013-02-18T22:42:49Z</time>
        <extensions><gpxtpx:TrackPointExtension><gpxtpx:hr>148</gpxtpx:hr></gpxtpx:TrackPointExtension></extensions>
      </trkpt>
      <trkpt lat="59.9845252" lon="15.8273432">
        <ele>92.8</ele>
        <time>2013-02-18T22:42:50Z</time>
        <extensions><gpxtpx:TrackPointExtension><gpxtpx:hr>147</gpxtpx:hr></gpxtpx:TrackPointExtension></extensions>
      </trkpt>
      <trkpt lat="59.9845239" lon="15.8273511">
        <ele>92.8</ele>
        <time>2013-02-18T22:42:52Z</time>
        <extensions><gpxtpx:TrackPointExtension><gpxtpx:hr>147</gpxtpx:hr></gpxtpx:TrackPointExtension></extensions>
      </trkpt>
      <trkpt lat="59.9845253" lon="15.8273561">
        <ele>92.8</ele>
        <time>2013-02-18T22:42:56Z</time>
        <extensions><gpxtpx:TrackPointExtension><gpxtpx:hr>147</gpxtpx:hr></gpxtpx:TrackPointExtension></extensions>
      </trkpt>
      <trkpt lat="59.9845244" lon="15.8273572">
        <ele>92.8</ele>
        <time>2013-02-18T22:42:57Z</time>
        <extensions><gpxtpx:TrackPointExtension><gpxtpx:hr>147</gpxtpx:hr></gpxtpx:TrackPointExtension></extensions>
      </trkpt>
      <trkpt lat="59.9845233" lon="15.8273594">
        <ele>92.8</ele>
        <time>2013-02-18T22:42:58Z</time>
        <extensions><gpxtpx:TrackPointExtension><gpxtpx:hr>147</gpxtpx:hr></gpxtpx:TrackPointExtension></extensions>
      </trkpt>
      <trkpt lat="59.9845223" lon="15.8273609">
        <ele>92.8</ele>
        <time>2013-02-18T22:42:59Z</time>
        <extensions><gpxtpx:TrackPointExtension><gpxtpx:hr>147</gpxtpx:hr></gpxtpx:TrackPointExtension></extensions>
      </trkpt>
      <trkpt lat="59.9845211" lon="15.8273561">
        <ele>92.8</ele>
        <time>2013-02-18T22:43:01Z</time>
        <extensions><gpxtpx:TrackPointExtension><gpxtpx:hr>146</gpxtpx:hr></gpxtpx:TrackPointExtension></extensions>
      </trkpt>
      <trkpt lat="59.9845193" lon="15.8273584">
        <ele>92.8</ele>
        <time>2013-02-18T22:43:02Z</time>
        <extensions><gpxtpx:TrackPointExtension><gpxtpx:hr>146</gpxtpx:hr></gpxtpx:TrackPointExtension></extensions>
      </trkpt>
      <trkpt lat="59.984529" lon="15.8273978">
        <ele>92.8</ele>
        <time>2013-02-18T22:43:03Z</time>
        <extensions><gpxtpx:TrackPointExtension><gpxtpx:hr>146</gpxtpx:hr></gpxtpx:TrackPointExtension></extensions>
      </trkpt>
      <trkpt lat="59.9845251" lon="15.827414">
        <ele>92.8</ele>
        <time>2013-02-18T22:43:04Z</time>
        <extensions><gpxtpx:TrackPointExtension><gpxtpx:hr>147</gpxtpx:hr></gpxtpx:TrackPointExtension></extensions>
      </trkpt>
      <trkpt lat="59.9845239" lon="15.8274229">
        <ele>92.8</ele>
        <time>2013-02-18T22:43:05Z</time>
        <extensions><gpxtpx:TrackPointExtension><gpxtpx:hr>146</gpxtpx:hr></gpxtpx:TrackPointExtension></extensions>
      </trkpt>
      <trkpt lat="59.9845221" lon="15.8274288">
        <ele>92.8</ele>
        <time>2013-02-18T22:43:06Z</time>
        <extensions><gpxtpx:TrackPointExtension><gpxtpx:hr>146</gpxtpx:hr></gpxtpx:TrackPointExtension></extensions>
      </trkpt>
      <trkpt lat="59.9845211" lon="15.827432">
        <ele>92.8</ele>
        <time>2013-02-18T22:43:07Z</time>
        <extensions><gpxtpx:TrackPointExtension><gpxtpx:hr>147</gpxtpx:hr></gpxtpx:TrackPointExtension></extensions>
      </trkpt>
      <trkpt lat="59.9845232" lon="15.8274258">
        <ele>92.8</ele>
        <time>2013-02-18T22:43:09Z</time>
        <extensions><gpxtpx:TrackPointExtension><gpxtpx:hr>146</gpxtpx:hr></gpxtpx:TrackPointExtension></extensions>
      </trkpt>
      <trkpt lat="59.9845244" lon="15.8274217">
        <ele>92.8</ele>
        <time>2013-02-18T22:43:10Z</time>
        <extensions><gpxtpx:TrackPointExtension><gpxtpx:hr>147</gpxtpx:hr></gpxtpx:TrackPointExtension></extensions>
      </trkpt>
      <trkpt lat="59.9845257" lon="15.8274174">
        <ele>92.8</ele>
        <time>2013-02-18T22:43:11Z</time>
        <extensions><gpxtpx:TrackPointExtension><gpxtpx:hr>146</gpxtpx:hr></gpxtpx:TrackPointExtension></extensions>
      </trkpt>
      <trkpt lat="59.9845452" lon="15.8273859">
        <ele>92.8</ele>
        <time>2013-02-18T22:43:12Z</time>
        <extensions><gpxtpx:TrackPointExtension><gpxtpx:hr>146</gpxtpx:hr></gpxtpx:TrackPointExtension></extensions>
      </trkpt>
      <trkpt lat="59.9845507" lon="15.8273715">
        <ele>92.8</ele>
        <time>2013-02-18T22:43:13Z</time>
        <extensions><gpxtpx:TrackPointExtension><gpxtpx:hr>146</gpxtpx:hr></gpxtpx:TrackPointExtension></extensions>
      </trkpt>
      <trkpt lat="59.9845545" lon="15.8273598">
        <ele>92.8</ele>
        <time>2013-02-18T22:43:14Z</time>
        <extensions><gpxtpx:TrackPointExtension><gpxtpx:hr>146</gpxtpx:hr></gpxtpx:TrackPointExtension></extensions>
      </trkpt>
      <trkpt lat="59.9845589" lon="15.8273489">
        <ele>92.8</ele>
        <time>2013-02-18T22:43:15Z</time>
        <extensions><gpxtpx:TrackPointExtension><gpxtpx:hr>146</gpxtpx:hr></gpxtpx:TrackPointExtension></extensions>
      </trkpt>
      <trkpt lat="59.9845605" lon="15.8273375">
        <ele>92.8</ele>
        <time>2013-02-18T22:43:17Z</time>
        <extensions><gpxtpx:TrackPointExtension><gpxtpx:hr>147</gpxtpx:hr></gpxtpx:TrackPointExtension></extensions>
      </trkpt>
      <trkpt lat="59.9845594" lon="15.8273403">
        <ele>92.8</ele>
        <time>2013-02-18T22:43:18Z</time>
        <extensions><gpxtpx:TrackPointExtension><gpxtpx:hr>147</gpxtpx:hr></gpxtpx:TrackPointExtension></extensions>
      </trkpt>
      <trkpt lat="59.984562" lon="15.8273623">
        <ele>92.8</ele>
        <time>2013-02-18T22:43:20Z</time>
        <extensions><gpxtpx:TrackPointExtension><gpxtpx:hr>147</gpxtpx:hr></gpxtpx:TrackPointExtension></extensions>
      </trkpt>
      <trkpt lat="59.9845606" lon="15.8273805">
        <ele>92.8</ele>
        <time>2013-02-18T22:43:22Z</time>
        <extensions><gpxtpx:TrackPointExtension><gpxtpx:hr>146</gpxtpx:hr></gpxtpx:TrackPointExtension></extensions>
      </trkpt>
      <trkpt lat="59.9845639" lon="15.8273666">
        <ele>92.8</ele>
        <time>2013-02-18T22:43:30Z</time>
        <extensions><gpxtpx:TrackPointExtension><gpxtpx:hr>147</gpxtpx:hr></gpxtpx:TrackPointExtension></extensions>
      </trkpt>
      <trkpt lat="59.9845644" lon="15.8273654">
        <ele>92.8</ele>
        <time>2013-02-18T22:43:31Z</time>
        <extensions><gpxtpx:TrackPointExtension><gpxtpx:hr>147</gpxtpx:hr></gpxtpx:TrackPointExtension></extensions>
      </trkpt>
      <trkpt lat="59.9845631" lon="15.8273704">
        <ele>92.8</ele>
        <time>2013-02-18T22:43:32Z</time>
        <extensions><gpxtpx:TrackPointExtension><gpxtpx:hr>147</gpxtpx:hr></gpxtpx:TrackPointExtension></extensions>
      </trkpt>
      <trkpt lat="59.9845617" lon="15.8273764">
        <ele>92.8</ele>
        <time>2013-02-18T22:43:33Z</time>
        <extensions><gpxtpx:TrackPointExtension><gpxtpx:hr>147</gpxtpx:hr></gpxtpx:TrackPointExtension></extensions>
      </trkpt>
      <trkpt lat="59.9845601" lon="15.8273822">
        <ele>91.8</ele>
        <time>2013-02-18T22:43:34Z</time>
        <extensions><gpxtpx:TrackPointExtension><gpxtpx:hr>147</gpxtpx:hr></gpxtpx:TrackPointExtension></extensions>
      </trkpt>
      <trkpt lat="59.9845584" lon="15.8273886">
        <ele>91.8</ele>
        <time>2013-02-18T22:43:35Z</time>
        <extensions><gpxtpx:TrackPointExtension><gpxtpx:hr>147</gpxtpx:hr></gpxtpx:TrackPointExtension></extensions>
      </trkpt>
      <trkpt lat="59.98457" lon="15.8274166">
        <ele>91.8</ele>
        <time>2013-02-18T22:43:36Z</time>
        <extensions><gpxtpx:TrackPointExtension><gpxtpx:hr>148</gpxtpx:hr></gpxtpx:TrackPointExtension></extensions>
      </trkpt>
      <trkpt lat="59.9845674" lon="15.8274247">
        <ele>91.8</ele>
        <time>2013-02-18T22:43:37Z</time>
        <extensions><gpxtpx:TrackPointExtension><gpxtpx:hr>148</gpxtpx:hr></gpxtpx:TrackPointExtension></extensions>
      </trkpt>
      <trkpt lat="59.984566" lon="15.8274306">
        <ele>91.8</ele>
        <time>2013-02-18T22:43:38Z</time>
        <extensions><gpxtpx:TrackPointExtension><gpxtpx:hr>148</gpxtpx:hr></gpxtpx:TrackPointExtension></extensions>
      </trkpt>
      <trkpt lat="59.9845653" lon="15.8274323">
        <ele>91.8</ele>
        <time>2013-02-18T22:43:39Z</time>
        <extensions><gpxtpx:TrackPointExtension><gpxtpx:hr>148</gpxtpx:hr></gpxtpx:TrackPointExtension></extensions>
      </trkpt>
      <trkpt lat="59.9845652" lon="15.827432">
        <ele>91.8</ele>
        <time>2013-02-18T22:43:40Z</time>
        <extensions><gpxtpx:TrackPointExtension><gpxtpx:hr>148</gpxtpx:hr></gpxtpx:TrackPointExtension></extensions>
      </trkpt>
      <trkpt lat="59.9845648" lon="15.8274358">
        <ele>91.8</ele>
        <time>2013-02-18T22:43:41Z</time>
        <extensions><gpxtpx:TrackPointExtension><gpxtpx:hr>149</gpxtpx:hr></gpxtpx:TrackPointExtension></extensions>
      </trkpt>
      <trkpt lat="59.984565" lon="15.8274352">
        <ele>91.8</ele>
        <time>2013-02-18T22:43:42Z</time>
        <extensions><gpxtpx:TrackPointExtension><gpxtpx:hr>149</gpxtpx:hr></gpxtpx:TrackPointExtension></extensions>
      </trkpt>
      <trkpt lat="59.9845641" lon="15.8274378">
        <ele>91.8</ele>
        <time>2013-02-18T22:43:44Z</time>
        <extensions><gpxtpx:TrackPointExtension><gpxtpx:hr>149</gpxtpx:hr></gpxtpx:TrackPointExtension></extensions>
      </trkpt>
      <trkpt lat="59.9845575" lon="15.8274572">
        <ele>91.8</ele>
        <time>2013-02-18T22:43:49Z</time>
        <extensions><gpxtpx:TrackPointExtension><gpxtpx:hr>150</gpxtpx:hr></gpxtpx:TrackPointExtension></extensions>
      </trkpt>
      <trkpt lat="59.9845565" lon="15.8274618">
        <ele>91.8</ele>
        <time>2013-02-18T22:43:50Z</time>
        <extensions><gpxtpx:TrackPointExtension><gpxtpx:hr>151</gpxtpx:hr></gpxtpx:TrackPointExtension></extensions>
      </trkpt>
      <trkpt lat="59.9845552" lon="15.827469">
        <ele>91.8</ele>
        <time>2013-02-18T22:43:51Z</time>
        <extensions><gpxtpx:TrackPointExtension><gpxtpx:hr>151</gpxtpx:hr></gpxtpx:TrackPointExtension></extensions>
      </trkpt>
      <trkpt lat="59.9845544" lon="15.8274757">
        <ele>91.8</ele>
        <time>2013-02-18T22:43:52Z</time>
        <extensions><gpxtpx:TrackPointExtension><gpxtpx:hr>151</gpxtpx:hr></gpxtpx:TrackPointExtension></extensions>
      </trkpt>
      <trkpt lat="59.9845544" lon="15.8274754">
        <ele>91.8</ele>
        <time>2013-02-18T22:43:53Z</time>
        <extensions><gpxtpx:TrackPointExtension><gpxtpx:hr>151</gpxtpx:hr></gpxtpx:TrackPointExtension></extensions>
      </trkpt>
      <trkpt lat="59.984555" lon="15.8274729">
        <ele>91.8</ele>
        <time>2013-02-18T22:43:54Z</time>
        <extensions><gpxtpx:TrackPointExtension><gpxtpx:hr>151</gpxtpx:hr></gpxtpx:TrackPointExtension></extensions>
      </trkpt>
      <trkpt lat="59.9845565" lon="15.8274673">
        <ele>91.8</ele>
        <time>2013-02-18T22:43:55Z</time>
        <extensions><gpxtpx:TrackPointExtension><gpxtpx:hr>151</gpxtpx:hr></gpxtpx:TrackPointExtension></extensions>
      </trkpt>
      <trkpt lat="59.984558" lon="15.8274629">
        <ele>91.8</ele>
        <time>2013-02-18T22:43:56Z</time>
        <extensions><gpxtpx:TrackPointExtension><gpxtpx:hr>151</gpxtpx:hr></gpxtpx:TrackPointExtension></extensions>
      </trkpt>
      <trkpt lat="59.9845588" lon="15.8274603">
        <ele>91.8</ele>
        <time>2013-02-18T22:43:57Z</time>
        <extensions><gpxtpx:TrackPointExtension><gpxtpx:hr>152</gpxtpx:hr></gpxtpx:TrackPointExtension></extensions>
      </trkpt>
      <trkpt lat="59.9845583" lon="15.8274629">
        <ele>91.8</ele>
        <time>2013-02-18T22:43:58Z</time>
        <extensions><gpxtpx:TrackPointExtension><gpxtpx:hr>152</gpxtpx:hr></gpxtpx:TrackPointExtension></extensions>
      </trkpt>
      <trkpt lat="59.9845574" lon="15.8274665">
        <ele>91.8</ele>
        <time>2013-02-18T22:43:59Z</time>
        <extensions><gpxtpx:TrackPointExtension><gpxtpx:hr>152</gpxtpx:hr></gpxtpx:TrackPointExtension></extensions>
      </trkpt>
      <trkpt lat="59.9845583" lon="15.8274658">
        <ele>91.8</ele>
        <time>2013-02-18T22:44:00Z</time>
        <extensions><gpxtpx:TrackPointExtension><gpxtpx:hr>152</gpxtpx:hr></gpxtpx:TrackPointExtension></extensions>
      </trkpt>
      <trkpt lat="59.9845587" lon="15.8274646">
        <ele>91.8</ele>
        <time>2013-02-18T22:44:01Z</time>
        <extensions><gpxtpx:TrackPointExtension><gpxtpx:hr>152</gpxtpx:hr></gpxtpx:TrackPointExtension></extensions>
      </trkpt>
      <trkpt lat="59.9845597" lon="15.8274605">
        <ele>91.8</ele>
        <time>2013-02-18T22:44:02Z</time>
        <extensions><gpxtpx:TrackPointExtension><gpxtpx:hr>153</gpxtpx:hr></gpxtpx:TrackPointExtension></extensions>
      </trkpt>
      <trkpt lat="59.9845617" lon="15.8274525">
        <ele>91.8</ele>
        <time>2013-02-18T22:44:04Z</time>
        <extensions><gpxtpx:TrackPointExtension><gpxtpx:hr>153</gpxtpx:hr></gpxtpx:TrackPointExtension></extensions>
      </trkpt>
      <trkpt lat="59.9845627" lon="15.8274481">
        <ele>91.8</ele>
        <time>2013-02-18T22:44:05Z</time>
        <extensions><gpxtpx:TrackPointExtension><gpxtpx:hr>153</gpxtpx:hr></gpxtpx:TrackPointExtension></extensions>
      </trkpt>
      <trkpt lat="59.984564" lon="15.8274406">
        <ele>91.8</ele>
        <time>2013-02-18T22:44:06Z</time>
        <extensions><gpxtpx:TrackPointExtension><gpxtpx:hr>153</gpxtpx:hr></gpxtpx:TrackPointExtension></extensions>
      </trkpt>
      <trkpt lat="59.9845643" lon="15.8274451">
        <ele>91.8</ele>
        <time>2013-02-18T22:44:09Z</time>
        <extensions><gpxtpx:TrackPointExtension><gpxtpx:hr>152</gpxtpx:hr></gpxtpx:TrackPointExtension></extensions>
      </trkpt>
      <trkpt lat="59.9845624" lon="15.8274526">
        <ele>91.8</ele>
        <time>2013-02-18T22:44:10Z</time>
        <extensions><gpxtpx:TrackPointExtension><gpxtpx:hr>152</gpxtpx:hr></gpxtpx:TrackPointExtension></extensions>
      </trkpt>
      <trkpt lat="59.9845606" lon="15.8274598">
        <ele>91.8</ele>
        <time>2013-02-18T22:44:11Z</time>
        <extensions><gpxtpx:TrackPointExtension><gpxtpx:hr>152</gpxtpx:hr></gpxtpx:TrackPointExtension></extensions>
      </trkpt>
      <trkpt lat="59.9845601" lon="15.8274649">
        <ele>91.8</ele>
        <time>2013-02-18T22:44:12Z</time>
        <extensions><gpxtpx:TrackPointExtension><gpxtpx:hr>152</gpxtpx:hr></gpxtpx:TrackPointExtension></extensions>
      </trkpt>
      <trkpt lat="59.9845604" lon="15.8274683">
        <ele>91.8</ele>
        <time>2013-02-18T22:44:13Z</time>
        <extensions><gpxtpx:TrackPointExtension><gpxtpx:hr>152</gpxtpx:hr></gpxtpx:TrackPointExtension></extensions>
      </trkpt>
      <trkpt lat="59.9845603" lon="15.8274727">
        <ele>91.8</ele>
        <time>2013-02-18T22:44:14Z</time>
        <extensions><gpxtpx:TrackPointExtension><gpxtpx:hr>152</gpxtpx:hr></gpxtpx:TrackPointExtension></extensions>
      </trkpt>
      <trkpt lat="59.9845596" lon="15.8274838">
        <ele>91.8</ele>
        <time>2013-02-18T22:44:16Z</time>
        <extensions><gpxtpx:TrackPointExtension><gpxtpx:hr>151</gpxtpx:hr></gpxtpx:TrackPointExtension></extensions>
      </trkpt>
      <trkpt lat="59.9845587" lon="15.8274882">
        <ele>91.8</ele>
        <time>2013-02-18T22:44:17Z</time>
        <extensions><gpxtpx:TrackPointExtension><gpxtpx:hr>151</gpxtpx:hr></gpxtpx:TrackPointExtension></extensions>
      </trkpt>
      <trkpt lat="59.9845582" lon="15.8274924">
        <ele>91.8</ele>
        <time>2013-02-18T22:44:18Z</time>
        <extensions><gpxtpx:TrackPointExtension><gpxtpx:hr>151</gpxtpx:hr></gpxtpx:TrackPointExtension></extensions>
      </trkpt>
      <trkpt lat="59.9845575" lon="15.8274974">
        <ele>91.8</ele>
        <time>2013-02-18T22:44:19Z</time>
        <extensions><gpxtpx:TrackPointExtension><gpxtpx:hr>151</gpxtpx:hr></gpxtpx:TrackPointExtension></extensions>
      </trkpt>
      <trkpt lat="59.9845567" lon="15.8275007">
        <ele>91.8</ele>
        <time>2013-02-18T22:44:20Z</time>
        <extensions><gpxtpx:TrackPointExtension><gpxtpx:hr>151</gpxtpx:hr></gpxtpx:TrackPointExtension></extensions>
      </trkpt>
      <trkpt lat="59.9846076" lon="15.8273467">
        <ele>91.8</ele>
        <time>2013-02-18T22:44:21Z</time>
        <extensions><gpxtpx:TrackPointExtension><gpxtpx:hr>151</gpxtpx:hr></gpxtpx:TrackPointExtension></extensions>
      </trkpt>
      <trkpt lat="59.9846005" lon="15.8273712">
        <ele>91.8</ele>
        <time>2013-02-18T22:44:25Z</time>
        <extensions><gpxtpx:TrackPointExtension><gpxtpx:hr>151</gpxtpx:hr></gpxtpx:TrackPointExtension></extensions>
      </trkpt>
      <trkpt lat="59.984601" lon="15.8273735">
        <ele>91.8</ele>
        <time>2013-02-18T22:44:26Z</time>
        <extensions><gpxtpx:TrackPointExtension><gpxtpx:hr>150</gpxtpx:hr></gpxtpx:TrackPointExtension></extensions>
      </trkpt>
      <trkpt lat="59.9846009" lon="15.8273765">
        <ele>91.8</ele>
        <time>2013-02-18T22:44:27Z</time>
        <extensions><gpxtpx:TrackPointExtension><gpxtpx:hr>150</gpxtpx:hr></gpxtpx:TrackPointExtension></extensions>
      </trkpt>
      <trkpt lat="59.9845992" lon="15.8273806">
        <ele>91.8</ele>
        <time>2013-02-18T22:44:28Z</time>
        <extensions><gpxtpx:TrackPointExtension><gpxtpx:hr>150</gpxtpx:hr></gpxtpx:TrackPointExtension></extensions>
      </trkpt>
      <trkpt lat="59.9845979" lon="15.8273836">
        <ele>91.8</ele>
        <time>2013-02-18T22:44:29Z</time>
        <extensions><gpxtpx:TrackPointExtension><gpxtpx:hr>150</gpxtpx:hr></gpxtpx:TrackPointExtension></extensions>
      </trkpt>
      <trkpt lat="59.9845973" lon="15.8273853">
        <ele>91.8</ele>
        <time>2013-02-18T22:44:30Z</time>
        <extensions><gpxtpx:TrackPointExtension><gpxtpx:hr>150</gpxtpx:hr></gpxtpx:TrackPointExtension></extensions>
      </trkpt>
      <trkpt lat="59.984597" lon="15.8273841">
        <ele>91.8</ele>
        <time>2013-02-18T22:44:31Z</time>
        <extensions><gpxtpx:TrackPointExtension><gpxtpx:hr>150</gpxtpx:hr></gpxtpx:TrackPointExtension></extensions>
      </trkpt>
      <trkpt lat="59.984598" lon="15.8273768">
        <ele>91.8</ele>
        <time>2013-02-18T22:44:33Z</time>
        <extensions><gpxtpx:TrackPointExtension><gpxtpx:hr>150</gpxtpx:hr></gpxtpx:TrackPointExtension></extensions>
      </trkpt>
      <trkpt lat="59.9845982" lon="15.8273634">
        <ele>91.8</ele>
        <time>2013-02-18T22:44:39Z</time>
        <extensions><gpxtpx:TrackPointExtension><gpxtpx:hr>150</gpxtpx:hr></gpxtpx:TrackPointExtension></extensions>
      </trkpt>
      <trkpt lat="59.9846179" lon="15.8273412">
        <ele>91.8</ele>
        <time>2013-02-18T22:44:46Z</time>
        <extensions><gpxtpx:TrackPointExtension><gpxtpx:hr>150</gpxtpx:hr></gpxtpx:TrackPointExtension></extensions>
      </trkpt>
      <trkpt lat="59.9846212" lon="15.8273411">
        <ele>91.8</ele>
        <time>2013-02-18T22:44:47Z</time>
        <extensions><gpxtpx:TrackPointExtension><gpxtpx:hr>150</gpxtpx:hr></gpxtpx:TrackPointExtension></extensions>
      </trkpt>
      <trkpt lat="59.9846188" lon="15.8273447">
        <ele>91.8</ele>
        <time>2013-02-18T22:44:48Z</time>
        <extensions><gpxtpx:TrackPointExtension><gpxtpx:hr>150</gpxtpx:hr></gpxtpx:TrackPointExtension></extensions>
      </trkpt>
      <trkpt lat="59.9846176" lon="15.8273496">
        <ele>91.8</ele>
        <time>2013-02-18T22:44:49Z</time>
        <extensions><gpxtpx:TrackPointExtension><gpxtpx:hr>150</gpxtpx:hr></gpxtpx:TrackPointExtension></extensions>
      </trkpt>
      <trkpt lat="59.9846174" lon="15.8273566">
        <ele>91.8</ele>
        <time>2013-02-18T22:44:50Z</time>
        <extensions><gpxtpx:TrackPointExtension><gpxtpx:hr>150</gpxtpx:hr></gpxtpx:TrackPointExtension></extensions>
      </trkpt>
      <trkpt lat="59.9846179" lon="15.8273639">
        <ele>91.8</ele>
        <time>2013-02-18T22:44:51Z</time>
        <extensions><gpxtpx:TrackPointExtension><gpxtpx:hr>150</gpxtpx:hr></gpxtpx:TrackPointExtension></extensions>
      </trkpt>
      <trkpt lat="59.9846191" lon="15.8273649">
        <ele>91.8</ele>
        <time>2013-02-18T22:44:52Z</time>
        <extensions><gpxtpx:TrackPointExtension><gpxtpx:hr>151</gpxtpx:hr></gpxtpx:TrackPointExtension></extensions>
      </trkpt>
      <trkpt lat="59.9846237" lon="15.8273667">
        <ele>91.8</ele>
        <time>2013-02-18T22:44:53Z</time>
        <extensions><gpxtpx:TrackPointExtension><gpxtpx:hr>151</gpxtpx:hr></gpxtpx:TrackPointExtension></extensions>
      </trkpt>
      <trkpt lat="59.9846254" lon="15.8273691">
        <ele>91.8</ele>
        <time>2013-02-18T22:44:54Z</time>
        <extensions><gpxtpx:TrackPointExtension><gpxtpx:hr>151</gpxtpx:hr></gpxtpx:TrackPointExtension></extensions>
      </trkpt>
      <trkpt lat="59.9846257" lon="15.8273712">
        <ele>91.8</ele>
        <time>2013-02-18T22:44:55Z</time>
        <extensions><gpxtpx:TrackPointExtension><gpxtpx:hr>150</gpxtpx:hr></gpxtpx:TrackPointExtension></extensions>
      </trkpt>
      <trkpt lat="59.9846255" lon="15.827378">
        <ele>91.8</ele>
        <time>2013-02-18T22:44:56Z</time>
        <extensions><gpxtpx:TrackPointExtension><gpxtpx:hr>151</gpxtpx:hr></gpxtpx:TrackPointExtension></extensions>
      </trkpt>
      <trkpt lat="59.9846572" lon="15.8273323">
        <ele>91.8</ele>
        <time>2013-02-18T22:44:57Z</time>
        <extensions><gpxtpx:TrackPointExtension><gpxtpx:hr>150</gpxtpx:hr></gpxtpx:TrackPointExtension></extensions>
      </trkpt>
      <trkpt lat="59.9846541" lon="15.8273405">
        <ele>91.8</ele>
        <time>2013-02-18T22:44:58Z</time>
        <extensions><gpxtpx:TrackPointExtension><gpxtpx:hr>150</gpxtpx:hr></gpxtpx:TrackPointExtension></extensions>
      </trkpt>
      <trkpt lat="59.9846527" lon="15.8273509">
        <ele>91.8</ele>
        <time>2013-02-18T22:45:04Z</time>
        <extensions><gpxtpx:TrackPointExtension><gpxtpx:hr>151</gpxtpx:hr></gpxtpx:TrackPointExtension></extensions>
      </trkpt>
      <trkpt lat="59.9846513" lon="15.8273551">
        <ele>91.8</ele>
        <time>2013-02-18T22:45:05Z</time>
        <extensions><gpxtpx:TrackPointExtension><gpxtpx:hr>150</gpxtpx:hr></gpxtpx:TrackPointExtension></extensions>
      </trkpt>
      <trkpt lat="59.9846502" lon="15.8273575">
        <ele>91.8</ele>
        <time>2013-02-18T22:45:06Z</time>
        <extensions><gpxtpx:TrackPointExtension><gpxtpx:hr>151</gpxtpx:hr></gpxtpx:TrackPointExtension></extensions>
      </trkpt>
      <trkpt lat="59.9846499" lon="15.8273595">
        <ele>91.8</ele>
        <time>2013-02-18T22:45:07Z</time>
        <extensions><gpxtpx:TrackPointExtension><gpxtpx:hr>151</gpxtpx:hr></gpxtpx:TrackPointExtension></extensions>
      </trkpt>
      <trkpt lat="59.9846501" lon="15.8273629">
        <ele>91.8</ele>
        <time>2013-02-18T22:45:08Z</time>
        <extensions><gpxtpx:TrackPointExtension><gpxtpx:hr>151</gpxtpx:hr></gpxtpx:TrackPointExtension></extensions>
      </trkpt>
      <trkpt lat="59.9846497" lon="15.8273655">
        <ele>91.8</ele>
        <time>2013-02-18T22:45:09Z</time>
        <extensions><gpxtpx:TrackPointExtension><gpxtpx:hr>151</gpxtpx:hr></gpxtpx:TrackPointExtension></extensions>
      </trkpt>
      <trkpt lat="59.9846487" lon="15.827368">
        <ele>91.8</ele>
        <time>2013-02-18T22:45:10Z</time>
        <extensions><gpxtpx:TrackPointExtension><gpxtpx:hr>152</gpxtpx:hr></gpxtpx:TrackPointExtension></extensions>
      </trkpt>
      <trkpt lat="59.9846481" lon="15.8273691">
        <ele>91.8</ele>
        <time>2013-02-18T22:45:11Z</time>
        <extensions><gpxtpx:TrackPointExtension><gpxtpx:hr>152</gpxtpx:hr></gpxtpx:TrackPointExtension></extensions>
      </trkpt>
      <trkpt lat="59.9846476" lon="15.8273695">
        <ele>91.8</ele>
        <time>2013-02-18T22:45:12Z</time>
        <extensions><gpxtpx:TrackPointExtension><gpxtpx:hr>152</gpxtpx:hr></gpxtpx:TrackPointExtension></extensions>
      </trkpt>
      <trkpt lat="59.9846475" lon="15.8273722">
        <ele>91.8</ele>
        <time>2013-02-18T22:45:13Z</time>
        <extensions><gpxtpx:TrackPointExtension><gpxtpx:hr>152</gpxtpx:hr></gpxtpx:TrackPointExtension></extensions>
      </trkpt>
      <trkpt lat="59.9846472" lon="15.8273753">
        <ele>91.8</ele>
        <time>2013-02-18T22:45:15Z</time>
        <extensions><gpxtpx:TrackPointExtension><gpxtpx:hr>153</gpxtpx:hr></gpxtpx:TrackPointExtension></extensions>
      </trkpt>
      <trkpt lat="59.9846499" lon="15.8273681">
        <ele>91.8</ele>
        <time>2013-02-18T22:45:17Z</time>
        <extensions><gpxtpx:TrackPointExtension><gpxtpx:hr>153</gpxtpx:hr></gpxtpx:TrackPointExtension></extensions>
      </trkpt>
      <trkpt lat="59.9846504" lon="15.8273673">
        <ele>91.8</ele>
        <time>2013-02-18T22:45:18Z</time>
        <extensions><gpxtpx:TrackPointExtension><gpxtpx:hr>152</gpxtpx:hr></gpxtpx:TrackPointExtension></extensions>
      </trkpt>
      <trkpt lat="59.984651" lon="15.8273664">
        <ele>91.8</ele>
        <time>2013-02-18T22:45:19Z</time>
        <extensions><gpxtpx:TrackPointExtension><gpxtpx:hr>153</gpxtpx:hr></gpxtpx:TrackPointExtension></extensions>
      </trkpt>
      <trkpt lat="59.9846509" lon="15.827364">
        <ele>91.8</ele>
        <time>2013-02-18T22:45:20Z</time>
        <extensions><gpxtpx:TrackPointExtension><gpxtpx:hr>153</gpxtpx:hr></gpxtpx:TrackPointExtension></extensions>
      </trkpt>
      <trkpt lat="59.9846498" lon="15.8273629">
        <ele>91.8</ele>
        <time>2013-02-18T22:45:21Z</time>
        <extensions><gpxtpx:TrackPointExtension><gpxtpx:hr>153</gpxtpx:hr></gpxtpx:TrackPointExtension></extensions>
      </trkpt>
      <trkpt lat="59.9846489" lon="15.827362">
        <ele>91.8</ele>
        <time>2013-02-18T22:45:22Z</time>
        <extensions><gpxtpx:TrackPointExtension><gpxtpx:hr>153</gpxtpx:hr></gpxtpx:TrackPointExtension></extensions>
      </trkpt>
      <trkpt lat="59.9846186" lon="15.8273825">
        <ele>91.8</ele>
        <time>2013-02-18T22:45:25Z</time>
        <extensions><gpxtpx:TrackPointExtension><gpxtpx:hr>153</gpxtpx:hr></gpxtpx:TrackPointExtension></extensions>
      </trkpt>
      <trkpt lat="59.984617" lon="15.8273874">
        <ele>91.8</ele>
        <time>2013-02-18T22:45:26Z</time>
        <extensions><gpxtpx:TrackPointExtension><gpxtpx:hr>153</gpxtpx:hr></gpxtpx:TrackPointExtension></extensions>
      </trkpt>
      <trkpt lat="59.9846162" lon="15.8273926">
        <ele>91.8</ele>
        <time>2013-02-18T22:45:27Z</time>
        <extensions><gpxtpx:TrackPointExtension><gpxtpx:hr>153</gpxtpx:hr></gpxtpx:TrackPointExtension></extensions>
      </trkpt>
      <trkpt lat="59.9846149" lon="15.8273971">
        <ele>91.8</ele>
        <time>2013-02-18T22:45:28Z</time>
        <extensions><gpxtpx:TrackPointExtension><gpxtpx:hr>152</gpxtpx:hr></gpxtpx:TrackPointExtension></extensions>
      </trkpt>
      <trkpt lat="59.9846147" lon="15.8273957">
        <ele>91.8</ele>
        <time>2013-02-18T22:45:29Z</time>
        <extensions><gpxtpx:TrackPointExtension><gpxtpx:hr>153</gpxtpx:hr></gpxtpx:TrackPointExtension></extensions>
      </trkpt>
      <trkpt lat="59.9846145" lon="15.8273909">
        <ele>91.8</ele>
        <time>2013-02-18T22:45:30Z</time>
        <extensions><gpxtpx:TrackPointExtension><gpxtpx:hr>153</gpxtpx:hr></gpxtpx:TrackPointExtension></extensions>
      </trkpt>
      <trkpt lat="59.9846123" lon="15.8273879">
        <ele>91.8</ele>
        <time>2013-02-18T22:45:31Z</time>
        <extensions><gpxtpx:TrackPointExtension><gpxtpx:hr>153</gpxtpx:hr></gpxtpx:TrackPointExtension></extensions>
      </trkpt>
      <trkpt lat="59.9846124" lon="15.8273843">
        <ele>91.8</ele>
        <time>2013-02-18T22:45:32Z</time>
        <extensions><gpxtpx:TrackPointExtension><gpxtpx:hr>153</gpxtpx:hr></gpxtpx:TrackPointExtension></extensions>
      </trkpt>
      <trkpt lat="59.9846148" lon="15.8273765">
        <ele>91.8</ele>
        <time>2013-02-18T22:45:34Z</time>
        <extensions><gpxtpx:TrackPointExtension><gpxtpx:hr>153</gpxtpx:hr></gpxtpx:TrackPointExtension></extensions>
      </trkpt>
      <trkpt lat="59.9846153" lon="15.8273726">
        <ele>91.8</ele>
        <time>2013-02-18T22:45:35Z</time>
        <extensions><gpxtpx:TrackPointExtension><gpxtpx:hr>153</gpxtpx:hr></gpxtpx:TrackPointExtension></extensions>
      </trkpt>
      <trkpt lat="59.9846172" lon="15.8273731">
        <ele>91.8</ele>
        <time>2013-02-18T22:45:36Z</time>
        <extensions><gpxtpx:TrackPointExtension><gpxtpx:hr>154</gpxtpx:hr></gpxtpx:TrackPointExtension></extensions>
      </trkpt>
      <trkpt lat="59.9846171" lon="15.8273744">
        <ele>91.8</ele>
        <time>2013-02-18T22:45:37Z</time>
        <extensions><gpxtpx:TrackPointExtension><gpxtpx:hr>154</gpxtpx:hr></gpxtpx:TrackPointExtension></extensions>
      </trkpt>
      <trkpt lat="59.9846171" lon="15.8273692">
        <ele>91.8</ele>
        <time>2013-02-18T22:45:38Z</time>
        <extensions><gpxtpx:TrackPointExtension><gpxtpx:hr>154</gpxtpx:hr></gpxtpx:TrackPointExtension></extensions>
      </trkpt>
      <trkpt lat="59.9846172" lon="15.8273652">
        <ele>91.8</ele>
        <time>2013-02-18T22:45:39Z</time>
        <extensions><gpxtpx:TrackPointExtension><gpxtpx:hr>153</gpxtpx:hr></gpxtpx:TrackPointExtension></extensions>
      </trkpt>
      <trkpt lat="59.984617" lon="15.8273639">
        <ele>91.8</ele>
        <time>2013-02-18T22:45:40Z</time>
        <extensions><gpxtpx:TrackPointExtension><gpxtpx:hr>153</gpxtpx:hr></gpxtpx:TrackPointExtension></extensions>
      </trkpt>
      <trkpt lat="59.9846166" lon="15.8273639">
        <ele>91.8</ele>
        <time>2013-02-18T22:45:41Z</time>
        <extensions><gpxtpx:TrackPointExtension><gpxtpx:hr>153</gpxtpx:hr></gpxtpx:TrackPointExtension></extensions>
      </trkpt>
      <trkpt lat="59.9846174" lon="15.8273628">
        <ele>91.8</ele>
        <time>2013-02-18T22:45:42Z</time>
        <extensions><gpxtpx:TrackPointExtension><gpxtpx:hr>153</gpxtpx:hr></gpxtpx:TrackPointExtension></extensions>
      </trkpt>
      <trkpt lat="59.9846191" lon="15.8273582">
        <ele>91.8</ele>
        <time>2013-02-18T22:45:43Z</time>
        <extensions><gpxtpx:TrackPointExtension><gpxtpx:hr>153</gpxtpx:hr></gpxtpx:TrackPointExtension></extensions>
      </trkpt>
      <trkpt lat="59.9846202" lon="15.8273554">
        <ele>91.8</ele>
        <time>2013-02-18T22:45:44Z</time>
        <extensions><gpxtpx:TrackPointExtension><gpxtpx:hr>153</gpxtpx:hr></gpxtpx:TrackPointExtension></extensions>
      </trkpt>
      <trkpt lat="59.984621" lon="15.8273567">
        <ele>91.8</ele>
        <time>2013-02-18T22:45:46Z</time>
        <extensions><gpxtpx:TrackPointExtension><gpxtpx:hr>153</gpxtpx:hr></gpxtpx:TrackPointExtension></extensions>
      </trkpt>
      <trkpt lat="59.9846217" lon="15.8273598">
        <ele>91.8</ele>
        <time>2013-02-18T22:45:47Z</time>
        <extensions><gpxtpx:TrackPointExtension><gpxtpx:hr>153</gpxtpx:hr></gpxtpx:TrackPointExtension></extensions>
      </trkpt>
      <trkpt lat="59.9846214" lon="15.8273634">
        <ele>91.8</ele>
        <time>2013-02-18T22:45:48Z</time>
        <extensions><gpxtpx:TrackPointExtension><gpxtpx:hr>153</gpxtpx:hr></gpxtpx:TrackPointExtension></extensions>
      </trkpt>
      <trkpt lat="59.9846236" lon="15.8273866">
        <ele>91.8</ele>
        <time>2013-02-18T22:45:49Z</time>
        <extensions><gpxtpx:TrackPointExtension><gpxtpx:hr>152</gpxtpx:hr></gpxtpx:TrackPointExtension></extensions>
      </trkpt>
      <trkpt lat="59.9846228" lon="15.8273944">
        <ele>91.8</ele>
        <time>2013-02-18T22:45:50Z</time>
        <extensions><gpxtpx:TrackPointExtension><gpxtpx:hr>153</gpxtpx:hr></gpxtpx:TrackPointExtension></extensions>
      </trkpt>
      <trkpt lat="59.984622" lon="15.8273981">
        <ele>91.8</ele>
        <time>2013-02-18T22:45:51Z</time>
        <extensions><gpxtpx:TrackPointExtension><gpxtpx:hr>152</gpxtpx:hr></gpxtpx:TrackPointExtension></extensions>
      </trkpt>
      <trkpt lat="59.9846217" lon="15.8274002">
        <ele>91.8</ele>
        <time>2013-02-18T22:45:55Z</time>
        <extensions><gpxtpx:TrackPointExtension><gpxtpx:hr>152</gpxtpx:hr></gpxtpx:TrackPointExtension></extensions>
      </trkpt>
      <trkpt lat="59.9846241" lon="15.8273981">
        <ele>91.8</ele>
        <time>2013-02-18T22:46:02Z</time>
        <extensions><gpxtpx:TrackPointExtension><gpxtpx:hr>153</gpxtpx:hr></gpxtpx:TrackPointExtension></extensions>
      </trkpt>
      <trkpt lat="59.9846251" lon="15.8274019">
        <ele>91.8</ele>
        <time>2013-02-18T22:46:03Z</time>
        <extensions><gpxtpx:TrackPointExtension><gpxtpx:hr>152</gpxtpx:hr></gpxtpx:TrackPointExtension></extensions>
      </trkpt>
      <trkpt lat="59.9846258" lon="15.8274044">
        <ele>91.8</ele>
        <time>2013-02-18T22:46:04Z</time>
        <extensions><gpxtpx:TrackPointExtension><gpxtpx:hr>152</gpxtpx:hr></gpxtpx:TrackPointExtension></extensions>
      </trkpt>
      <trkpt lat="59.9846258" lon="15.8274082">
        <ele>91.8</ele>
        <time>2013-02-18T22:46:05Z</time>
        <extensions><gpxtpx:TrackPointExtension><gpxtpx:hr>152</gpxtpx:hr></gpxtpx:TrackPointExtension></extensions>
      </trkpt>
      <trkpt lat="59.9846261" lon="15.8274116">
        <ele>91.8</ele>
        <time>2013-02-18T22:46:06Z</time>
        <extensions><gpxtpx:TrackPointExtension><gpxtpx:hr>153</gpxtpx:hr></gpxtpx:TrackPointExtension></extensions>
      </trkpt>
      <trkpt lat="59.984626" lon="15.8274126">
        <ele>91.8</ele>
        <time>2013-02-18T22:46:07Z</time>
        <extensions><gpxtpx:TrackPointExtension><gpxtpx:hr>152</gpxtpx:hr></gpxtpx:TrackPointExtension></extensions>
      </trkpt>
      <trkpt lat="59.9846256" lon="15.8274123">
        <ele>91.8</ele>
        <time>2013-02-18T22:46:08Z</time>
        <extensions><gpxtpx:TrackPointExtension><gpxtpx:hr>152</gpxtpx:hr></gpxtpx:TrackPointExtension></extensions>
      </trkpt>
      <trkpt lat="59.9846242" lon="15.8274133">
        <ele>91.8</ele>
        <time>2013-02-18T22:46:09Z</time>
        <extensions><gpxtpx:TrackPointExtension><gpxtpx:hr>152</gpxtpx:hr></gpxtpx:TrackPointExtension></extensions>
      </trkpt>
      <trkpt lat="59.9846226" lon="15.8274174">
        <ele>91.8</ele>
        <time>2013-02-18T22:46:10Z</time>
        <extensions><gpxtpx:TrackPointExtension><gpxtpx:hr>152</gpxtpx:hr></gpxtpx:TrackPointExtension></extensions>
      </trkpt>
      <trkpt lat="59.9846213" lon="15.8274204">
        <ele>91.8</ele>
        <time>2013-02-18T22:46:11Z</time>
        <extensions><gpxtpx:TrackPointExtension><gpxtpx:hr>152</gpxtpx:hr></gpxtpx:TrackPointExtension></extensions>
      </trkpt>
      <trkpt lat="59.9846208" lon="15.8274208">
        <ele>91.8</ele>
        <time>2013-02-18T22:46:12Z</time>
        <extensions><gpxtpx:TrackPointExtension><gpxtpx:hr>152</gpxtpx:hr></gpxtpx:TrackPointExtension></extensions>
      </trkpt>
      <trkpt lat="59.9846219" lon="15.8274238">
        <ele>91.8</ele>
        <time>2013-02-18T22:46:15Z</time>
        <extensions><gpxtpx:TrackPointExtension><gpxtpx:hr>152</gpxtpx:hr></gpxtpx:TrackPointExtension></extensions>
      </trkpt>
      <trkpt lat="59.9846273" lon="15.8274236">
        <ele>91.8</ele>
        <time>2013-02-18T22:46:21Z</time>
        <extensions><gpxtpx:TrackPointExtension><gpxtpx:hr>152</gpxtpx:hr></gpxtpx:TrackPointExtension></extensions>
      </trkpt>
      <trkpt lat="59.9846288" lon="15.8274206">
        <ele>91.8</ele>
        <time>2013-02-18T22:46:22Z</time>
        <extensions><gpxtpx:TrackPointExtension><gpxtpx:hr>152</gpxtpx:hr></gpxtpx:TrackPointExtension></extensions>
      </trkpt>
      <trkpt lat="59.9846307" lon="15.8274168">
        <ele>91.8</ele>
        <time>2013-02-18T22:46:23Z</time>
        <extensions><gpxtpx:TrackPointExtension><gpxtpx:hr>151</gpxtpx:hr></gpxtpx:TrackPointExtension></extensions>
      </trkpt>
      <trkpt lat="59.9846321" lon="15.827413">
        <ele>91.8</ele>
        <time>2013-02-18T22:46:24Z</time>
        <extensions><gpxtpx:TrackPointExtension><gpxtpx:hr>151</gpxtpx:hr></gpxtpx:TrackPointExtension></extensions>
      </trkpt>
      <trkpt lat="59.9846329" lon="15.8274101">
        <ele>91.8</ele>
        <time>2013-02-18T22:46:25Z</time>
        <extensions><gpxtpx:TrackPointExtension><gpxtpx:hr>151</gpxtpx:hr></gpxtpx:TrackPointExtension></extensions>
      </trkpt>
      <trkpt lat="59.9846338" lon="15.8274075">
        <ele>91.8</ele>
        <time>2013-02-18T22:46:26Z</time>
        <extensions><gpxtpx:TrackPointExtension><gpxtpx:hr>151</gpxtpx:hr></gpxtpx:TrackPointExtension></extensions>
      </trkpt>
      <trkpt lat="59.9846352" lon="15.8274042">
        <ele>91.8</ele>
        <time>2013-02-18T22:46:27Z</time>
        <extensions><gpxtpx:TrackPointExtension><gpxtpx:hr>151</gpxtpx:hr></gpxtpx:TrackPointExtension></extensions>
      </trkpt>
      <trkpt lat="59.984637" lon="15.8273992">
        <ele>91.8</ele>
        <time>2013-02-18T22:46:28Z</time>
        <extensions><gpxtpx:TrackPointExtension><gpxtpx:hr>151</gpxtpx:hr></gpxtpx:TrackPointExtension></extensions>
      </trkpt>
      <trkpt lat="59.9846377" lon="15.8273978">
        <ele>91.8</ele>
        <time>2013-02-18T22:46:29Z</time>
        <extensions><gpxtpx:TrackPointExtension><gpxtpx:hr>151</gpxtpx:hr></gpxtpx:TrackPointExtension></extensions>
      </trkpt>
      <trkpt lat="59.9846376" lon="15.8273978">
        <ele>91.8</ele>
        <time>2013-02-18T22:46:30Z</time>
        <extensions><gpxtpx:TrackPointExtension><gpxtpx:hr>151</gpxtpx:hr></gpxtpx:TrackPointExtension></extensions>
      </trkpt>
      <trkpt lat="59.9846378" lon="15.8273972">
        <ele>91.8</ele>
        <time>2013-02-18T22:46:31Z</time>
        <extensions><gpxtpx:TrackPointExtension><gpxtpx:hr>150</gpxtpx:hr></gpxtpx:TrackPointExtension></extensions>
      </trkpt>
      <trkpt lat="59.984637" lon="15.8273973">
        <ele>91.8</ele>
        <time>2013-02-18T22:46:32Z</time>
        <extensions><gpxtpx:TrackPointExtension><gpxtpx:hr>150</gpxtpx:hr></gpxtpx:TrackPointExtension></extensions>
      </trkpt>
      <trkpt lat="59.9846357" lon="15.8273986">
        <ele>91.8</ele>
        <time>2013-02-18T22:46:33Z</time>
        <extensions><gpxtpx:TrackPointExtension><gpxtpx:hr>150</gpxtpx:hr></gpxtpx:TrackPointExtension></extensions>
      </trkpt>
      <trkpt lat="59.984635" lon="15.8274005">
        <ele>91.8</ele>
        <time>2013-02-18T22:46:34Z</time>
        <extensions><gpxtpx:TrackPointExtension><gpxtpx:hr>150</gpxtpx:hr></gpxtpx:TrackPointExtension></extensions>
      </trkpt>
      <trkpt lat="59.9846342" lon="15.8274038">
        <ele>91.8</ele>
        <time>2013-02-18T22:46:35Z</time>
        <extensions><gpxtpx:TrackPointExtension><gpxtpx:hr>150</gpxtpx:hr></gpxtpx:TrackPointExtension></extensions>
      </trkpt>
      <trkpt lat="59.9846337" lon="15.8274088">
        <ele>91.8</ele>
        <time>2013-02-18T22:46:36Z</time>
        <extensions><gpxtpx:TrackPointExtension><gpxtpx:hr>150</gpxtpx:hr></gpxtpx:TrackPointExtension></extensions>
      </trkpt>
      <trkpt lat="59.9846335" lon="15.827412">
        <ele>91.8</ele>
        <time>2013-02-18T22:46:37Z</time>
        <extensions><gpxtpx:TrackPointExtension><gpxtpx:hr>150</gpxtpx:hr></gpxtpx:TrackPointExtension></extensions>
      </trkpt>
      <trkpt lat="59.9846337" lon="15.8274136">
        <ele>91.8</ele>
        <time>2013-02-18T22:46:38Z</time>
        <extensions><gpxtpx:TrackPointExtension><gpxtpx:hr>150</gpxtpx:hr></gpxtpx:TrackPointExtension></extensions>
      </trkpt>
      <trkpt lat="59.9846341" lon="15.8274142">
        <ele>91.8</ele>
        <time>2013-02-18T22:46:39Z</time>
        <extensions><gpxtpx:TrackPointExtension><gpxtpx:hr>150</gpxtpx:hr></gpxtpx:TrackPointExtension></extensions>
      </trkpt>
      <trkpt lat="59.9846329" lon="15.8274257">
        <ele>90.8</ele>
        <time>2013-02-18T22:46:43Z</time>
        <extensions><gpxtpx:TrackPointExtension><gpxtpx:hr>151</gpxtpx:hr></gpxtpx:TrackPointExtension></extensions>
      </trkpt>
      <trkpt lat="59.9846326" lon="15.8274264">
        <ele>90.8</ele>
        <time>2013-02-18T22:46:44Z</time>
        <extensions><gpxtpx:TrackPointExtension><gpxtpx:hr>151</gpxtpx:hr></gpxtpx:TrackPointExtension></extensions>
      </trkpt>
      <trkpt lat="59.9846327" lon="15.827425">
        <ele>90.8</ele>
        <time>2013-02-18T22:46:45Z</time>
        <extensions><gpxtpx:TrackPointExtension><gpxtpx:hr>151</gpxtpx:hr></gpxtpx:TrackPointExtension></extensions>
      </trkpt>
      <trkpt lat="59.9846292" lon="15.8274427">
        <ele>90.8</ele>
        <time>2013-02-18T22:46:46Z</time>
        <extensions><gpxtpx:TrackPointExtension><gpxtpx:hr>151</gpxtpx:hr></gpxtpx:TrackPointExtension></extensions>
      </trkpt>
      <trkpt lat="59.9846316" lon="15.8274365">
        <ele>90.8</ele>
        <time>2013-02-18T22:46:47Z</time>
        <extensions><gpxtpx:TrackPointExtension><gpxtpx:hr>151</gpxtpx:hr></gpxtpx:TrackPointExtension></extensions>
      </trkpt>
      <trkpt lat="59.9846334" lon="15.8274285">
        <ele>90.8</ele>
        <time>2013-02-18T22:46:48Z</time>
        <extensions><gpxtpx:TrackPointExtension><gpxtpx:hr>151</gpxtpx:hr></gpxtpx:TrackPointExtension></extensions>
      </trkpt>
      <trkpt lat="59.9846339" lon="15.8274088">
        <ele>90.8</ele>
        <time>2013-02-18T22:46:50Z</time>
        <extensions><gpxtpx:TrackPointExtension><gpxtpx:hr>151</gpxtpx:hr></gpxtpx:TrackPointExtension></extensions>
      </trkpt>
      <trkpt lat="59.9846357" lon="15.8273999">
        <ele>90.8</ele>
        <time>2013-02-18T22:46:51Z</time>
        <extensions><gpxtpx:TrackPointExtension><gpxtpx:hr>151</gpxtpx:hr></gpxtpx:TrackPointExtension></extensions>
      </trkpt>
      <trkpt lat="59.9846382" lon="15.8273966">
        <ele>90.8</ele>
        <time>2013-02-18T22:46:52Z</time>
        <extensions><gpxtpx:TrackPointExtension><gpxtpx:hr>150</gpxtpx:hr></gpxtpx:TrackPointExtension></extensions>
      </trkpt>
      <trkpt lat="59.9846398" lon="15.827395">
        <ele>90.8</ele>
        <time>2013-02-18T22:46:53Z</time>
        <extensions><gpxtpx:TrackPointExtension><gpxtpx:hr>150</gpxtpx:hr></gpxtpx:TrackPointExtension></extensions>
      </trkpt>
      <trkpt lat="59.9846401" lon="15.8273959">
        <ele>90.8</ele>
        <time>2013-02-18T22:46:54Z</time>
        <extensions><gpxtpx:TrackPointExtension><gpxtpx:hr>150</gpxtpx:hr></gpxtpx:TrackPointExtension></extensions>
      </trkpt>
      <trkpt lat="59.9846399" lon="15.8273977">
        <ele>90.8</ele>
        <time>2013-02-18T22:46:55Z</time>
        <extensions><gpxtpx:TrackPointExtension><gpxtpx:hr>151</gpxtpx:hr></gpxtpx:TrackPointExtension></extensions>
      </trkpt>
      <trkpt lat="59.9846394" lon="15.8274019">
        <ele>90.8</ele>
        <time>2013-02-18T22:46:56Z</time>
        <extensions><gpxtpx:TrackPointExtension><gpxtpx:hr>150</gpxtpx:hr></gpxtpx:TrackPointExtension></extensions>
      </trkpt>
      <trkpt lat="59.9846396" lon="15.8274113">
        <ele>90.8</ele>
        <time>2013-02-18T22:46:59Z</time>
        <extensions><gpxtpx:TrackPointExtension><gpxtpx:hr>150</gpxtpx:hr></gpxtpx:TrackPointExtension></extensions>
      </trkpt>
      <trkpt lat="59.9846384" lon="15.8274171">
        <ele>90.8</ele>
        <time>2013-02-18T22:47:00Z</time>
        <extensions><gpxtpx:TrackPointExtension><gpxtpx:hr>149</gpxtpx:hr></gpxtpx:TrackPointExtension></extensions>
      </trkpt>
      <trkpt lat="59.9846375" lon="15.8274208">
        <ele>90.8</ele>
        <time>2013-02-18T22:47:01Z</time>
        <extensions><gpxtpx:TrackPointExtension><gpxtpx:hr>149</gpxtpx:hr></gpxtpx:TrackPointExtension></extensions>
      </trkpt>
      <trkpt lat="59.9846371" lon="15.8274236">
        <ele>90.8</ele>
        <time>2013-02-18T22:47:02Z</time>
        <extensions><gpxtpx:TrackPointExtension><gpxtpx:hr>148</gpxtpx:hr></gpxtpx:TrackPointExtension></extensions>
      </trkpt>
      <trkpt lat="59.9846364" lon="15.8274271">
        <ele>90.8</ele>
        <time>2013-02-18T22:47:03Z</time>
        <extensions><gpxtpx:TrackPointExtension><gpxtpx:hr>148</gpxtpx:hr></gpxtpx:TrackPointExtension></extensions>
      </trkpt>
      <trkpt lat="59.9846337" lon="15.8274332">
        <ele>90.8</ele>
        <time>2013-02-18T22:47:06Z</time>
        <extensions><gpxtpx:TrackPointExtension><gpxtpx:hr>147</gpxtpx:hr></gpxtpx:TrackPointExtension></extensions>
      </trkpt>
      <trkpt lat="59.9846329" lon="15.8274339">
        <ele>90.8</ele>
        <time>2013-02-18T22:47:07Z</time>
        <extensions><gpxtpx:TrackPointExtension><gpxtpx:hr>148</gpxtpx:hr></gpxtpx:TrackPointExtension></extensions>
      </trkpt>
      <trkpt lat="59.984635" lon="15.8274279">
        <ele>90.8</ele>
        <time>2013-02-18T22:47:09Z</time>
        <extensions><gpxtpx:TrackPointExtension><gpxtpx:hr>149</gpxtpx:hr></gpxtpx:TrackPointExtension></extensions>
      </trkpt>
      <trkpt lat="59.9846329" lon="15.8274295">
        <ele>90.8</ele>
        <time>2013-02-18T22:47:14Z</time>
        <extensions><gpxtpx:TrackPointExtension><gpxtpx:hr>150</gpxtpx:hr></gpxtpx:TrackPointExtension></extensions>
      </trkpt>
      <trkpt lat="59.9846331" lon="15.8274298">
        <ele>90.8</ele>
        <time>2013-02-18T22:47:15Z</time>
        <extensions><gpxtpx:TrackPointExtension><gpxtpx:hr>151</gpxtpx:hr></gpxtpx:TrackPointExtension></extensions>
      </trkpt>
      <trkpt lat="59.9846385" lon="15.8274281">
        <ele>90.8</ele>
        <time>2013-02-18T22:47:19Z</time>
        <extensions><gpxtpx:TrackPointExtension><gpxtpx:hr>150</gpxtpx:hr></gpxtpx:TrackPointExtension></extensions>
      </trkpt>
      <trkpt lat="59.9846408" lon="15.8274238">
        <ele>90.8</ele>
        <time>2013-02-18T22:47:20Z</time>
        <extensions><gpxtpx:TrackPointExtension><gpxtpx:hr>150</gpxtpx:hr></gpxtpx:TrackPointExtension></extensions>
      </trkpt>
      <trkpt lat="59.984659" lon="15.8274634">
        <ele>90.8</ele>
        <time>2013-02-18T22:47:21Z</time>
        <extensions><gpxtpx:TrackPointExtension><gpxtpx:hr>150</gpxtpx:hr></gpxtpx:TrackPointExtension></extensions>
      </trkpt>
      <trkpt lat="59.9846613" lon="15.8274596">
        <ele>90.8</ele>
        <time>2013-02-18T22:47:22Z</time>
        <extensions><gpxtpx:TrackPointExtension><gpxtpx:hr>150</gpxtpx:hr></gpxtpx:TrackPointExtension></extensions>
      </trkpt>
      <trkpt lat="59.9846627" lon="15.8274581">
        <ele>90.8</ele>
        <time>2013-02-18T22:47:23Z</time>
        <extensions><gpxtpx:TrackPointExtension><gpxtpx:hr>150</gpxtpx:hr></gpxtpx:TrackPointExtension></extensions>
      </trkpt>
      <trkpt lat="59.9846637" lon="15.8274578">
        <ele>90.8</ele>
        <time>2013-02-18T22:47:24Z</time>
        <extensions><gpxtpx:TrackPointExtension><gpxtpx:hr>150</gpxtpx:hr></gpxtpx:TrackPointExtension></extensions>
      </trkpt>
      <trkpt lat="59.9846641" lon="15.8274598">
        <ele>90.8</ele>
        <time>2013-02-18T22:47:25Z</time>
        <extensions><gpxtpx:TrackPointExtension><gpxtpx:hr>150</gpxtpx:hr></gpxtpx:TrackPointExtension></extensions>
      </trkpt>
      <trkpt lat="59.9846636" lon="15.8274632">
        <ele>90.8</ele>
        <time>2013-02-18T22:47:26Z</time>
        <extensions><gpxtpx:TrackPointExtension><gpxtpx:hr>150</gpxtpx:hr></gpxtpx:TrackPointExtension></extensions>
      </trkpt>
      <trkpt lat="59.9846631" lon="15.827464">
        <ele>90.8</ele>
        <time>2013-02-18T22:47:27Z</time>
        <extensions><gpxtpx:TrackPointExtension><gpxtpx:hr>151</gpxtpx:hr></gpxtpx:TrackPointExtension></extensions>
      </trkpt>
      <trkpt lat="59.9846639" lon="15.8274602">
        <ele>90.8</ele>
        <time>2013-02-18T22:47:28Z</time>
        <extensions><gpxtpx:TrackPointExtension><gpxtpx:hr>151</gpxtpx:hr></gpxtpx:TrackPointExtension></extensions>
      </trkpt>
      <trkpt lat="59.9846639" lon="15.8274573">
        <ele>90.8</ele>
        <time>2013-02-18T22:47:29Z</time>
        <extensions><gpxtpx:TrackPointExtension><gpxtpx:hr>151</gpxtpx:hr></gpxtpx:TrackPointExtension></extensions>
      </trkpt>
      <trkpt lat="59.9846649" lon="15.82745">
        <ele>90.8</ele>
        <time>2013-02-18T22:47:31Z</time>
        <extensions><gpxtpx:TrackPointExtension><gpxtpx:hr>152</gpxtpx:hr></gpxtpx:TrackPointExtension></extensions>
      </trkpt>
      <trkpt lat="59.9846689" lon="15.8274375">
        <ele>90.8</ele>
        <time>2013-02-18T22:47:38Z</time>
        <extensions><gpxtpx:TrackPointExtension><gpxtpx:hr>152</gpxtpx:hr></gpxtpx:TrackPointExtension></extensions>
      </trkpt>
      <trkpt lat="59.9846714" lon="15.8274313">
        <ele>90.8</ele>
        <time>2013-02-18T22:47:39Z</time>
        <extensions><gpxtpx:TrackPointExtension><gpxtpx:hr>151</gpxtpx:hr></gpxtpx:TrackPointExtension></extensions>
      </trkpt>
      <trkpt lat="59.9846735" lon="15.8274249">
        <ele>90.8</ele>
        <time>2013-02-18T22:47:40Z</time>
        <extensions><gpxtpx:TrackPointExtension><gpxtpx:hr>151</gpxtpx:hr></gpxtpx:TrackPointExtension></extensions>
      </trkpt>
      <trkpt lat="59.9846751" lon="15.8274209">
        <ele>90.8</ele>
        <time>2013-02-18T22:47:41Z</time>
        <extensions><gpxtpx:TrackPointExtension><gpxtpx:hr>151</gpxtpx:hr></gpxtpx:TrackPointExtension></extensions>
      </trkpt>
      <trkpt lat="59.9846775" lon="15.8274142">
        <ele>90.8</ele>
        <time>2013-02-18T22:47:42Z</time>
        <extensions><gpxtpx:TrackPointExtension><gpxtpx:hr>151</gpxtpx:hr></gpxtpx:TrackPointExtension></extensions>
      </trkpt>
      <trkpt lat="59.9846794" lon="15.827407">
        <ele>90.8</ele>
        <time>2013-02-18T22:47:43Z</time>
        <extensions><gpxtpx:TrackPointExtension><gpxtpx:hr>151</gpxtpx:hr></gpxtpx:TrackPointExtension></extensions>
      </trkpt>
      <trkpt lat="59.9846803" lon="15.8274025">
        <ele>90.8</ele>
        <time>2013-02-18T22:47:44Z</time>
        <extensions><gpxtpx:TrackPointExtension><gpxtpx:hr>152</gpxtpx:hr></gpxtpx:TrackPointExtension></extensions>
      </trkpt>
      <trkpt lat="59.9846813" lon="15.8273986">
        <ele>90.8</ele>
        <time>2013-02-18T22:47:45Z</time>
        <extensions><gpxtpx:TrackPointExtension><gpxtpx:hr>151</gpxtpx:hr></gpxtpx:TrackPointExtension></extensions>
      </trkpt>
      <trkpt lat="59.9846823" lon="15.8273955">
        <ele>90.8</ele>
        <time>2013-02-18T22:47:46Z</time>
        <extensions><gpxtpx:TrackPointExtension><gpxtpx:hr>152</gpxtpx:hr></gpxtpx:TrackPointExtension></extensions>
      </trkpt>
      <trkpt lat="59.9846824" lon="15.8273945">
        <ele>90.8</ele>
        <time>2013-02-18T22:47:47Z</time>
        <extensions><gpxtpx:TrackPointExtension><gpxtpx:hr>151</gpxtpx:hr></gpxtpx:TrackPointExtension></extensions>
      </trkpt>
      <trkpt lat="59.9846819" lon="15.8273973">
        <ele>90.8</ele>
        <time>2013-02-18T22:47:48Z</time>
        <extensions><gpxtpx:TrackPointExtension><gpxtpx:hr>152</gpxtpx:hr></gpxtpx:TrackPointExtension></extensions>
      </trkpt>
      <trkpt lat="59.9846819" lon="15.8273973">
        <ele>90.8</ele>
        <time>2013-02-18T22:47:49Z</time>
        <extensions><gpxtpx:TrackPointExtension><gpxtpx:hr>151</gpxtpx:hr></gpxtpx:TrackPointExtension></extensions>
      </trkpt>
      <trkpt lat="59.9846822" lon="15.8273957">
        <ele>90.8</ele>
        <time>2013-02-18T22:47:50Z</time>
        <extensions><gpxtpx:TrackPointExtension><gpxtpx:hr>152</gpxtpx:hr></gpxtpx:TrackPointExtension></extensions>
      </trkpt>
      <trkpt lat="59.9846818" lon="15.8273972">
        <ele>90.8</ele>
        <time>2013-02-18T22:47:51Z</time>
        <extensions><gpxtpx:TrackPointExtension><gpxtpx:hr>152</gpxtpx:hr></gpxtpx:TrackPointExtension></extensions>
      </trkpt>
      <trkpt lat="59.9846798" lon="15.8274059">
        <ele>90.8</ele>
        <time>2013-02-18T22:47:52Z</time>
        <extensions><gpxtpx:TrackPointExtension><gpxtpx:hr>152</gpxtpx:hr></gpxtpx:TrackPointExtension></extensions>
      </trkpt>
      <trkpt lat="59.9846786" lon="15.8274112">
        <ele>90.8</ele>
        <time>2013-02-18T22:47:53Z</time>
        <extensions><gpxtpx:TrackPointExtension><gpxtpx:hr>152</gpxtpx:hr></gpxtpx:TrackPointExtension></extensions>
      </trkpt>
      <trkpt lat="59.9846784" lon="15.8274112">
        <ele>90.8</ele>
        <time>2013-02-18T22:47:54Z</time>
        <extensions><gpxtpx:TrackPointExtension><gpxtpx:hr>152</gpxtpx:hr></gpxtpx:TrackPointExtension></extensions>
      </trkpt>
      <trkpt lat="59.9846799" lon="15.8274074">
        <ele>90.8</ele>
        <time>2013-02-18T22:47:56Z</time>
        <extensions><gpxtpx:TrackPointExtension><gpxtpx:hr>152</gpxtpx:hr></gpxtpx:TrackPointExtension></extensions>
      </trkpt>
      <trkpt lat="59.9846815" lon="15.8274014">
        <ele>90.8</ele>
        <time>2013-02-18T22:47:57Z</time>
        <extensions><gpxtpx:TrackPointExtension><gpxtpx:hr>151</gpxtpx:hr></gpxtpx:TrackPointExtension></extensions>
      </trkpt>
      <trkpt lat="59.9846822" lon="15.8273955">
        <ele>90.8</ele>
        <time>2013-02-18T22:47:58Z</time>
        <extensions><gpxtpx:TrackPointExtension><gpxtpx:hr>151</gpxtpx:hr></gpxtpx:TrackPointExtension></extensions>
      </trkpt>
      <trkpt lat="59.9846826" lon="15.8273908">
        <ele>90.8</ele>
        <time>2013-02-18T22:47:59Z</time>
        <extensions><gpxtpx:TrackPointExtension><gpxtpx:hr>151</gpxtpx:hr></gpxtpx:TrackPointExtension></extensions>
      </trkpt>
      <trkpt lat="59.9846834" lon="15.827388">
        <ele>90.8</ele>
        <time>2013-02-18T22:48:00Z</time>
        <extensions><gpxtpx:TrackPointExtension><gpxtpx:hr>151</gpxtpx:hr></gpxtpx:TrackPointExtension></extensions>
      </trkpt>
      <trkpt lat="59.9846847" lon="15.8273831">
        <ele>90.8</ele>
        <time>2013-02-18T22:48:01Z</time>
        <extensions><gpxtpx:TrackPointExtension><gpxtpx:hr>151</gpxtpx:hr></gpxtpx:TrackPointExtension></extensions>
      </trkpt>
      <trkpt lat="59.9846857" lon="15.8273779">
        <ele>90.8</ele>
        <time>2013-02-18T22:48:02Z</time>
        <extensions><gpxtpx:TrackPointExtension><gpxtpx:hr>151</gpxtpx:hr></gpxtpx:TrackPointExtension></extensions>
      </trkpt>
      <trkpt lat="59.9846863" lon="15.8273729">
        <ele>90.8</ele>
        <time>2013-02-18T22:48:03Z</time>
        <extensions><gpxtpx:TrackPointExtension><gpxtpx:hr>151</gpxtpx:hr></gpxtpx:TrackPointExtension></extensions>
      </trkpt>
      <trkpt lat="59.9846858" lon="15.8273706">
        <ele>90.8</ele>
        <time>2013-02-18T22:48:04Z</time>
        <extensions><gpxtpx:TrackPointExtension><gpxtpx:hr>151</gpxtpx:hr></gpxtpx:TrackPointExtension></extensions>
      </trkpt>
      <trkpt lat="59.9846853" lon="15.82737">
        <ele>90.8</ele>
        <time>2013-02-18T22:48:05Z</time>
        <extensions><gpxtpx:TrackPointExtension><gpxtpx:hr>151</gpxtpx:hr></gpxtpx:TrackPointExtension></extensions>
      </trkpt>
      <trkpt lat="59.9846849" lon="15.8273737">
        <ele>90.8</ele>
        <time>2013-02-18T22:48:06Z</time>
        <extensions><gpxtpx:TrackPointExtension><gpxtpx:hr>151</gpxtpx:hr></gpxtpx:TrackPointExtension></extensions>
      </trkpt>
      <trkpt lat="59.9846848" lon="15.8273764">
        <ele>90.8</ele>
        <time>2013-02-18T22:48:07Z</time>
        <extensions><gpxtpx:TrackPointExtension><gpxtpx:hr>151</gpxtpx:hr></gpxtpx:TrackPointExtension></extensions>
      </trkpt>
      <trkpt lat="59.984685" lon="15.8273754">
        <ele>90.8</ele>
        <time>2013-02-18T22:48:08Z</time>
        <extensions><gpxtpx:TrackPointExtension><gpxtpx:hr>150</gpxtpx:hr></gpxtpx:TrackPointExtension></extensions>
      </trkpt>
      <trkpt lat="59.9846849" lon="15.8273743">
        <ele>90.8</ele>
        <time>2013-02-18T22:48:09Z</time>
        <extensions><gpxtpx:TrackPointExtension><gpxtpx:hr>150</gpxtpx:hr></gpxtpx:TrackPointExtension></extensions>
      </trkpt>
      <trkpt lat="59.9846855" lon="15.8273702">
        <ele>90.8</ele>
        <time>2013-02-18T22:48:10Z</time>
        <extensions><gpxtpx:TrackPointExtension><gpxtpx:hr>151</gpxtpx:hr></gpxtpx:TrackPointExtension></extensions>
      </trkpt>
      <trkpt lat="59.984704" lon="15.8273786">
        <ele>90.8</ele>
        <time>2013-02-18T22:48:11Z</time>
        <extensions><gpxtpx:TrackPointExtension><gpxtpx:hr>151</gpxtpx:hr></gpxtpx:TrackPointExtension></extensions>
      </trkpt>
      <trkpt lat="59.9847055" lon="15.8273675">
        <ele>90.8</ele>
        <time>2013-02-18T22:48:12Z</time>
        <extensions><gpxtpx:TrackPointExtension><gpxtpx:hr>151</gpxtpx:hr></gpxtpx:TrackPointExtension></extensions>
      </trkpt>
      <trkpt lat="59.9847087" lon="15.8273475">
        <ele>89.8</ele>
        <time>2013-02-18T22:48:14Z</time>
        <extensions><gpxtpx:TrackPointExtension><gpxtpx:hr>151</gpxtpx:hr></gpxtpx:TrackPointExtension></extensions>
      </trkpt>
      <trkpt lat="59.984711" lon="15.8273382">
        <ele>89.8</ele>
        <time>2013-02-18T22:48:15Z</time>
        <extensions><gpxtpx:TrackPointExtension><gpxtpx:hr>150</gpxtpx:hr></gpxtpx:TrackPointExtension></extensions>
      </trkpt>
      <trkpt lat="59.9847111" lon="15.8273315">
        <ele>89.8</ele>
        <time>2013-02-18T22:48:16Z</time>
        <extensions><gpxtpx:TrackPointExtension><gpxtpx:hr>151</gpxtpx:hr></gpxtpx:TrackPointExtension></extensions>
      </trkpt>
      <trkpt lat="59.9847112" lon="15.8273235">
        <ele>89.8</ele>
        <time>2013-02-18T22:48:17Z</time>
        <extensions><gpxtpx:TrackPointExtension><gpxtpx:hr>150</gpxtpx:hr></gpxtpx:TrackPointExtension></extensions>
      </trkpt>
      <trkpt lat="59.9847119" lon="15.8273178">
        <ele>89.8</ele>
        <time>2013-02-18T22:48:18Z</time>
        <extensions><gpxtpx:TrackPointExtension><gpxtpx:hr>150</gpxtpx:hr></gpxtpx:TrackPointExtension></extensions>
      </trkpt>
      <trkpt lat="59.984714" lon="15.8273081">
        <ele>89.8</ele>
        <time>2013-02-18T22:48:19Z</time>
        <extensions><gpxtpx:TrackPointExtension><gpxtpx:hr>150</gpxtpx:hr></gpxtpx:TrackPointExtension></extensions>
      </trkpt>
      <trkpt lat="59.984715" lon="15.8272909">
        <ele>89.8</ele>
        <time>2013-02-18T22:48:20Z</time>
        <extensions><gpxtpx:TrackPointExtension><gpxtpx:hr>150</gpxtpx:hr></gpxtpx:TrackPointExtension></extensions>
      </trkpt>
      <trkpt lat="59.9847155" lon="15.8272857">
        <ele>89.8</ele>
        <time>2013-02-18T22:48:21Z</time>
        <extensions><gpxtpx:TrackPointExtension><gpxtpx:hr>150</gpxtpx:hr></gpxtpx:TrackPointExtension></extensions>
      </trkpt>
      <trkpt lat="59.9847149" lon="15.8272857">
        <ele>89.8</ele>
        <time>2013-02-18T22:48:22Z</time>
        <extensions><gpxtpx:TrackPointExtension><gpxtpx:hr>150</gpxtpx:hr></gpxtpx:TrackPointExtension></extensions>
      </trkpt>
      <trkpt lat="59.9847145" lon="15.8272862">
        <ele>89.8</ele>
        <time>2013-02-18T22:48:23Z</time>
        <extensions><gpxtpx:TrackPointExtension><gpxtpx:hr>150</gpxtpx:hr></gpxtpx:TrackPointExtension></extensions>
      </trkpt>
      <trkpt lat="59.9847155" lon="15.8272839">
        <ele>89.8</ele>
        <time>2013-02-18T22:48:24Z</time>
        <extensions><gpxtpx:TrackPointExtension><gpxtpx:hr>150</gpxtpx:hr></gpxtpx:TrackPointExtension></extensions>
      </trkpt>
      <trkpt lat="59.9847169" lon="15.8272767">
        <ele>89.8</ele>
        <time>2013-02-18T22:48:26Z</time>
        <extensions><gpxtpx:TrackPointExtension><gpxtpx:hr>150</gpxtpx:hr></gpxtpx:TrackPointExtension></extensions>
      </trkpt>
      <trkpt lat="59.9847139" lon="15.8272965">
        <ele>89.8</ele>
        <time>2013-02-18T22:48:32Z</time>
        <extensions><gpxtpx:TrackPointExtension><gpxtpx:hr>151</gpxtpx:hr></gpxtpx:TrackPointExtension></extensions>
      </trkpt>
      <trkpt lat="59.9847137" lon="15.8272988">
        <ele>89.8</ele>
        <time>2013-02-18T22:48:33Z</time>
        <extensions><gpxtpx:TrackPointExtension><gpxtpx:hr>151</gpxtpx:hr></gpxtpx:TrackPointExtension></extensions>
      </trkpt>
      <trkpt lat="59.984714" lon="15.8273056">
        <ele>89.8</ele>
        <time>2013-02-18T22:48:35Z</time>
        <extensions><gpxtpx:TrackPointExtension><gpxtpx:hr>150</gpxtpx:hr></gpxtpx:TrackPointExtension></extensions>
      </trkpt>
      <trkpt lat="59.9847131" lon="15.827306">
        <ele>89.8</ele>
        <time>2013-02-18T22:48:36Z</time>
        <extensions><gpxtpx:TrackPointExtension><gpxtpx:hr>150</gpxtpx:hr></gpxtpx:TrackPointExtension></extensions>
      </trkpt>
      <trkpt lat="59.984711" lon="15.8273093">
        <ele>89.8</ele>
        <time>2013-02-18T22:48:37Z</time>
        <extensions><gpxtpx:TrackPointExtension><gpxtpx:hr>150</gpxtpx:hr></gpxtpx:TrackPointExtension></extensions>
      </trkpt>
      <trkpt lat="59.9847088" lon="15.8273121">
        <ele>89.8</ele>
        <time>2013-02-18T22:48:38Z</time>
        <extensions><gpxtpx:TrackPointExtension><gpxtpx:hr>151</gpxtpx:hr></gpxtpx:TrackPointExtension></extensions>
      </trkpt>
      <trkpt lat="59.9847081" lon="15.8273116">
        <ele>89.6</ele>
        <time>2013-02-18T22:48:39Z</time>
        <extensions><gpxtpx:TrackPointExtension><gpxtpx:hr>151</gpxtpx:hr></gpxtpx:TrackPointExtension></extensions>
      </trkpt>
      <trkpt lat="59.9847083" lon="15.8273099">
        <ele>89.8</ele>
        <time>2013-02-18T22:48:40Z</time>
        <extensions><gpxtpx:TrackPointExtension><gpxtpx:hr>151</gpxtpx:hr></gpxtpx:TrackPointExtension></extensions>
      </trkpt>
      <trkpt lat="59.9847085" lon="15.8273057">
        <ele>89.8</ele>
        <time>2013-02-18T22:48:41Z</time>
        <extensions><gpxtpx:TrackPointExtension><gpxtpx:hr>151</gpxtpx:hr></gpxtpx:TrackPointExtension></extensions>
      </trkpt>
      <trkpt lat="59.98471" lon="15.8272992">
        <ele>89.8</ele>
        <time>2013-02-18T22:48:42Z</time>
        <extensions><gpxtpx:TrackPointExtension><gpxtpx:hr>151</gpxtpx:hr></gpxtpx:TrackPointExtension></extensions>
      </trkpt>
      <trkpt lat="59.9847121" lon="15.8272945">
        <ele>89.8</ele>
        <time>2013-02-18T22:48:43Z</time>
        <extensions><gpxtpx:TrackPointExtension><gpxtpx:hr>151</gpxtpx:hr></gpxtpx:TrackPointExtension></extensions>
      </trkpt>
      <trkpt lat="59.9847139" lon="15.8272904">
        <ele>89.8</ele>
        <time>2013-02-18T22:48:44Z</time>
        <extensions><gpxtpx:TrackPointExtension><gpxtpx:hr>151</gpxtpx:hr></gpxtpx:TrackPointExtension></extensions>
      </trkpt>
      <trkpt lat="59.9847152" lon="15.8272916">
        <ele>89.8</ele>
        <time>2013-02-18T22:48:45Z</time>
        <extensions><gpxtpx:TrackPointExtension><gpxtpx:hr>151</gpxtpx:hr></gpxtpx:TrackPointExtension></extensions>
      </trkpt>
      <trkpt lat="59.9847159" lon="15.8272932">
        <ele>89.8</ele>
        <time>2013-02-18T22:48:46Z</time>
        <extensions><gpxtpx:TrackPointExtension><gpxtpx:hr>151</gpxtpx:hr></gpxtpx:TrackPointExtension></extensions>
      </trkpt>
      <trkpt lat="59.9847164" lon="15.8272947">
        <ele>89.8</ele>
        <time>2013-02-18T22:48:47Z</time>
        <extensions><gpxtpx:TrackPointExtension><gpxtpx:hr>151</gpxtpx:hr></gpxtpx:TrackPointExtension></extensions>
      </trkpt>
      <trkpt lat="59.984717" lon="15.8272888">
        <ele>89.8</ele>
        <time>2013-02-18T22:48:48Z</time>
        <extensions><gpxtpx:TrackPointExtension><gpxtpx:hr>152</gpxtpx:hr></gpxtpx:TrackPointExtension></extensions>
      </trkpt>
      <trkpt lat="59.9847231" lon="15.827234">
        <ele>89.6</ele>
        <time>2013-02-18T22:48:49Z</time>
        <extensions><gpxtpx:TrackPointExtension><gpxtpx:hr>152</gpxtpx:hr></gpxtpx:TrackPointExtension></extensions>
      </trkpt>
      <trkpt lat="59.9847249" lon="15.8272224">
        <ele>89.8</ele>
        <time>2013-02-18T22:48:50Z</time>
        <extensions><gpxtpx:TrackPointExtension><gpxtpx:hr>152</gpxtpx:hr></gpxtpx:TrackPointExtension></extensions>
      </trkpt>
      <trkpt lat="59.9847259" lon="15.8272156">
        <ele>89.8</ele>
        <time>2013-02-18T22:48:51Z</time>
        <extensions><gpxtpx:TrackPointExtension><gpxtpx:hr>152</gpxtpx:hr></gpxtpx:TrackPointExtension></extensions>
      </trkpt>
      <trkpt lat="59.9847281" lon="15.8272007">
        <ele>89.8</ele>
        <time>2013-02-18T22:48:52Z</time>
        <extensions><gpxtpx:TrackPointExtension><gpxtpx:hr>152</gpxtpx:hr></gpxtpx:TrackPointExtension></extensions>
      </trkpt>
      <trkpt lat="59.9847294" lon="15.8271929">
        <ele>89.8</ele>
        <time>2013-02-18T22:48:53Z</time>
        <extensions><gpxtpx:TrackPointExtension><gpxtpx:hr>152</gpxtpx:hr></gpxtpx:TrackPointExtension></extensions>
      </trkpt>
      <trkpt lat="59.9847314" lon="15.8271795">
        <ele>89.8</ele>
        <time>2013-02-18T22:48:55Z</time>
        <extensions><gpxtpx:TrackPointExtension><gpxtpx:hr>151</gpxtpx:hr></gpxtpx:TrackPointExtension></extensions>
      </trkpt>
      <trkpt lat="59.9847327" lon="15.8271743">
        <ele>89.8</ele>
        <time>2013-02-18T22:48:56Z</time>
        <extensions><gpxtpx:TrackPointExtension><gpxtpx:hr>151</gpxtpx:hr></gpxtpx:TrackPointExtension></extensions>
      </trkpt>
      <trkpt lat="59.984733" lon="15.8271744">
        <ele>89.8</ele>
        <time>2013-02-18T22:48:57Z</time>
        <extensions><gpxtpx:TrackPointExtension><gpxtpx:hr>151</gpxtpx:hr></gpxtpx:TrackPointExtension></extensions>
      </trkpt>
      <trkpt lat="59.9847336" lon="15.8271721">
        <ele>89.8</ele>
        <time>2013-02-18T22:48:58Z</time>
        <extensions><gpxtpx:TrackPointExtension><gpxtpx:hr>152</gpxtpx:hr></gpxtpx:TrackPointExtension></extensions>
      </trkpt>
      <trkpt lat="59.9847344" lon="15.82717">
        <ele>89.8</ele>
        <time>2013-02-18T22:48:59Z</time>
        <extensions><gpxtpx:TrackPointExtension><gpxtpx:hr>151</gpxtpx:hr></gpxtpx:TrackPointExtension></extensions>
      </trkpt>
      <trkpt lat="59.984735" lon="15.8271684">
        <ele>89.8</ele>
        <time>2013-02-18T22:49:00Z</time>
        <extensions><gpxtpx:TrackPointExtension><gpxtpx:hr>152</gpxtpx:hr></gpxtpx:TrackPointExtension></extensions>
      </trkpt>
      <trkpt lat="59.9847356" lon="15.8271641">
        <ele>89.8</ele>
        <time>2013-02-18T22:49:01Z</time>
        <extensions><gpxtpx:TrackPointExtension><gpxtpx:hr>151</gpxtpx:hr></gpxtpx:TrackPointExtension></extensions>
      </trkpt>
      <trkpt lat="59.9847383" lon="15.8271609">
        <ele>89.8</ele>
        <time>2013-02-18T22:49:02Z</time>
        <extensions><gpxtpx:TrackPointExtension><gpxtpx:hr>151</gpxtpx:hr></gpxtpx:TrackPointExtension></extensions>
      </trkpt>
      <trkpt lat="59.9847395" lon="15.8271492">
        <ele>89.8</ele>
        <time>2013-02-18T22:49:04Z</time>
        <extensions><gpxtpx:TrackPointExtension><gpxtpx:hr>151</gpxtpx:hr></gpxtpx:TrackPointExtension></extensions>
      </trkpt>
      <trkpt lat="59.9847395" lon="15.8271459">
        <ele>89.8</ele>
        <time>2013-02-18T22:49:05Z</time>
        <extensions><gpxtpx:TrackPointExtension><gpxtpx:hr>151</gpxtpx:hr></gpxtpx:TrackPointExtension></extensions>
      </trkpt>
      <trkpt lat="59.9847396" lon="15.8271433">
        <ele>89.8</ele>
        <time>2013-02-18T22:49:06Z</time>
        <extensions><gpxtpx:TrackPointExtension><gpxtpx:hr>151</gpxtpx:hr></gpxtpx:TrackPointExtension></extensions>
      </trkpt>
      <trkpt lat="59.9847397" lon="15.8271396">
        <ele>89.8</ele>
        <time>2013-02-18T22:49:07Z</time>
        <extensions><gpxtpx:TrackPointExtension><gpxtpx:hr>151</gpxtpx:hr></gpxtpx:TrackPointExtension></extensions>
      </trkpt>
      <trkpt lat="59.9847388" lon="15.827136">
        <ele>89.8</ele>
        <time>2013-02-18T22:49:08Z</time>
        <extensions><gpxtpx:TrackPointExtension><gpxtpx:hr>151</gpxtpx:hr></gpxtpx:TrackPointExtension></extensions>
      </trkpt>
      <trkpt lat="59.9847368" lon="15.8271365">
        <ele>89.8</ele>
        <time>2013-02-18T22:49:09Z</time>
        <extensions><gpxtpx:TrackPointExtension><gpxtpx:hr>151</gpxtpx:hr></gpxtpx:TrackPointExtension></extensions>
      </trkpt>
      <trkpt lat="59.9847362" lon="15.8271348">
        <ele>89.8</ele>
        <time>2013-02-18T22:49:10Z</time>
        <extensions><gpxtpx:TrackPointExtension><gpxtpx:hr>151</gpxtpx:hr></gpxtpx:TrackPointExtension></extensions>
      </trkpt>
      <trkpt lat="59.984736" lon="15.8271319">
        <ele>89.8</ele>
        <time>2013-02-18T22:49:11Z</time>
        <extensions><gpxtpx:TrackPointExtension><gpxtpx:hr>150</gpxtpx:hr></gpxtpx:TrackPointExtension></extensions>
      </trkpt>
      <trkpt lat="59.9847358" lon="15.8271303">
        <ele>89.8</ele>
        <time>2013-02-18T22:49:12Z</time>
        <extensions><gpxtpx:TrackPointExtension><gpxtpx:hr>150</gpxtpx:hr></gpxtpx:TrackPointExtension></extensions>
      </trkpt>
      <trkpt lat="59.9847357" lon="15.8271283">
        <ele>89.8</ele>
        <time>2013-02-18T22:49:13Z</time>
        <extensions><gpxtpx:TrackPointExtension><gpxtpx:hr>150</gpxtpx:hr></gpxtpx:TrackPointExtension></extensions>
      </trkpt>
      <trkpt lat="59.9847358" lon="15.8271289">
        <ele>89.8</ele>
        <time>2013-02-18T22:49:14Z</time>
        <extensions><gpxtpx:TrackPointExtension><gpxtpx:hr>151</gpxtpx:hr></gpxtpx:TrackPointExtension></extensions>
      </trkpt>
      <trkpt lat="59.9847359" lon="15.82713">
        <ele>89.8</ele>
        <time>2013-02-18T22:49:15Z</time>
        <extensions><gpxtpx:TrackPointExtension><gpxtpx:hr>151</gpxtpx:hr></gpxtpx:TrackPointExtension></extensions>
      </trkpt>
      <trkpt lat="59.9847359" lon="15.8271283">
        <ele>89.8</ele>
        <time>2013-02-18T22:49:16Z</time>
        <extensions><gpxtpx:TrackPointExtension><gpxtpx:hr>151</gpxtpx:hr></gpxtpx:TrackPointExtension></extensions>
      </trkpt>
      <trkpt lat="59.9847361" lon="15.8271044">
        <ele>88.8</ele>
        <time>2013-02-18T22:49:22Z</time>
        <extensions><gpxtpx:TrackPointExtension><gpxtpx:hr>152</gpxtpx:hr></gpxtpx:TrackPointExtension></extensions>
      </trkpt>
      <trkpt lat="59.9847375" lon="15.8270936">
        <ele>88.8</ele>
        <time>2013-02-18T22:49:25Z</time>
        <extensions><gpxtpx:TrackPointExtension><gpxtpx:hr>151</gpxtpx:hr></gpxtpx:TrackPointExtension></extensions>
      </trkpt>
      <trkpt lat="59.9847443" lon="15.8270841">
        <ele>88.8</ele>
        <time>2013-02-18T22:49:32Z</time>
        <extensions><gpxtpx:TrackPointExtension><gpxtpx:hr>150</gpxtpx:hr></gpxtpx:TrackPointExtension></extensions>
      </trkpt>
      <trkpt lat="59.9847435" lon="15.8270843">
        <ele>88.8</ele>
        <time>2013-02-18T22:49:33Z</time>
        <extensions><gpxtpx:TrackPointExtension><gpxtpx:hr>150</gpxtpx:hr></gpxtpx:TrackPointExtension></extensions>
      </trkpt>
      <trkpt lat="59.9847434" lon="15.8270837">
        <ele>88.8</ele>
        <time>2013-02-18T22:49:34Z</time>
        <extensions><gpxtpx:TrackPointExtension><gpxtpx:hr>150</gpxtpx:hr></gpxtpx:TrackPointExtension></extensions>
      </trkpt>
      <trkpt lat="59.9846868" lon="15.8272239">
        <ele>88.8</ele>
        <time>2013-02-18T22:49:35Z</time>
        <extensions><gpxtpx:TrackPointExtension><gpxtpx:hr>150</gpxtpx:hr></gpxtpx:TrackPointExtension></extensions>
      </trkpt>
      <trkpt lat="59.9846815" lon="15.827235">
        <ele>88.6</ele>
        <time>2013-02-18T22:49:36Z</time>
        <extensions><gpxtpx:TrackPointExtension><gpxtpx:hr>150</gpxtpx:hr></gpxtpx:TrackPointExtension></extensions>
      </trkpt>
      <trkpt lat="59.9846805" lon="15.8272426">
        <ele>88.6</ele>
        <time>2013-02-18T22:49:37Z</time>
        <extensions><gpxtpx:TrackPointExtension><gpxtpx:hr>151</gpxtpx:hr></gpxtpx:TrackPointExtension></extensions>
      </trkpt>
      <trkpt lat="59.9846751" lon="15.8272537">
        <ele>88.6</ele>
        <time>2013-02-18T22:49:38Z</time>
        <extensions><gpxtpx:TrackPointExtension><gpxtpx:hr>151</gpxtpx:hr></gpxtpx:TrackPointExtension></extensions>
      </trkpt>
      <trkpt lat="59.9846737" lon="15.8272596">
        <ele>88.8</ele>
        <time>2013-02-18T22:49:39Z</time>
        <extensions><gpxtpx:TrackPointExtension><gpxtpx:hr>151</gpxtpx:hr></gpxtpx:TrackPointExtension></extensions>
      </trkpt>
      <trkpt lat="59.9846736" lon="15.8272567">
        <ele>88.8</ele>
        <time>2013-02-18T22:49:40Z</time>
        <extensions><gpxtpx:TrackPointExtension><gpxtpx:hr>151</gpxtpx:hr></gpxtpx:TrackPointExtension></extensions>
      </trkpt>
      <trkpt lat="59.9846741" lon="15.8272536">
        <ele>88.8</ele>
        <time>2013-02-18T22:49:41Z</time>
        <extensions><gpxtpx:TrackPointExtension><gpxtpx:hr>151</gpxtpx:hr></gpxtpx:TrackPointExtension></extensions>
      </trkpt>
      <trkpt lat="59.9846757" lon="15.82725">
        <ele>88.8</ele>
        <time>2013-02-18T22:49:42Z</time>
        <extensions><gpxtpx:TrackPointExtension><gpxtpx:hr>151</gpxtpx:hr></gpxtpx:TrackPointExtension></extensions>
      </trkpt>
      <trkpt lat="59.9846721" lon="15.8272349">
        <ele>88.8</ele>
        <time>2013-02-18T22:49:43Z</time>
        <extensions><gpxtpx:TrackPointExtension><gpxtpx:hr>151</gpxtpx:hr></gpxtpx:TrackPointExtension></extensions>
      </trkpt>
      <trkpt lat="59.984671" lon="15.8272407">
        <ele>88.8</ele>
        <time>2013-02-18T22:49:48Z</time>
        <extensions><gpxtpx:TrackPointExtension><gpxtpx:hr>151</gpxtpx:hr></gpxtpx:TrackPointExtension></extensions>
      </trkpt>
      <trkpt lat="59.9846691" lon="15.8272402">
        <ele>88.6</ele>
        <time>2013-02-18T22:49:51Z</time>
        <extensions><gpxtpx:TrackPointExtension><gpxtpx:hr>151</gpxtpx:hr></gpxtpx:TrackPointExtension></extensions>
      </trkpt>
      <trkpt lat="59.9846685" lon="15.8272438">
        <ele>88.8</ele>
        <time>2013-02-18T22:49:52Z</time>
        <extensions><gpxtpx:TrackPointExtension><gpxtpx:hr>151</gpxtpx:hr></gpxtpx:TrackPointExtension></extensions>
      </trkpt>
      <trkpt lat="59.9846684" lon="15.8272467">
        <ele>88.8</ele>
        <time>2013-02-18T22:49:53Z</time>
        <extensions><gpxtpx:TrackPointExtension><gpxtpx:hr>151</gpxtpx:hr></gpxtpx:TrackPointExtension></extensions>
      </trkpt>
      <trkpt lat="59.9846689" lon="15.8272465">
        <ele>88.8</ele>
        <time>2013-02-18T22:49:54Z</time>
        <extensions><gpxtpx:TrackPointExtension><gpxtpx:hr>150</gpxtpx:hr></gpxtpx:TrackPointExtension></extensions>
      </trkpt>
      <trkpt lat="59.9846693" lon="15.8272462">
        <ele>88.8</ele>
        <time>2013-02-18T22:49:55Z</time>
        <extensions><gpxtpx:TrackPointExtension><gpxtpx:hr>150</gpxtpx:hr></gpxtpx:TrackPointExtension></extensions>
      </trkpt>
      <trkpt lat="59.984668" lon="15.8272486">
        <ele>88.8</ele>
        <time>2013-02-18T22:49:56Z</time>
        <extensions><gpxtpx:TrackPointExtension><gpxtpx:hr>150</gpxtpx:hr></gpxtpx:TrackPointExtension></extensions>
      </trkpt>
      <trkpt lat="59.9846677" lon="15.8272468">
        <ele>88.8</ele>
        <time>2013-02-18T22:49:57Z</time>
        <extensions><gpxtpx:TrackPointExtension><gpxtpx:hr>150</gpxtpx:hr></gpxtpx:TrackPointExtension></extensions>
      </trkpt>
      <trkpt lat="59.9846673" lon="15.8272438">
        <ele>87.6</ele>
        <time>2013-02-18T22:49:58Z</time>
        <extensions><gpxtpx:TrackPointExtension><gpxtpx:hr>150</gpxtpx:hr></gpxtpx:TrackPointExtension></extensions>
      </trkpt>
      <trkpt lat="59.9846666" lon="15.8272407">
        <ele>87.6</ele>
        <time>2013-02-18T22:49:59Z</time>
        <extensions><gpxtpx:TrackPointExtension><gpxtpx:hr>150</gpxtpx:hr></gpxtpx:TrackPointExtension></extensions>
      </trkpt>
      <trkpt lat="59.9846653" lon="15.8272408">
        <ele>87.6</ele>
        <time>2013-02-18T22:50:00Z</time>
        <extensions><gpxtpx:TrackPointExtension><gpxtpx:hr>150</gpxtpx:hr></gpxtpx:TrackPointExtension></extensions>
      </trkpt>
      <trkpt lat="59.9846645" lon="15.8272411">
        <ele>87.6</ele>
        <time>2013-02-18T22:50:01Z</time>
        <extensions><gpxtpx:TrackPointExtension><gpxtpx:hr>150</gpxtpx:hr></gpxtpx:TrackPointExtension></extensions>
      </trkpt>
      <trkpt lat="59.984665" lon="15.8272416">
        <ele>87.6</ele>
        <time>2013-02-18T22:50:02Z</time>
        <extensions><gpxtpx:TrackPointExtension><gpxtpx:hr>150</gpxtpx:hr></gpxtpx:TrackPointExtension></extensions>
      </trkpt>
      <trkpt lat="59.9846658" lon="15.8272401">
        <ele>87.6</ele>
        <time>2013-02-18T22:50:03Z</time>
        <extensions><gpxtpx:TrackPointExtension><gpxtpx:hr>150</gpxtpx:hr></gpxtpx:TrackPointExtension></extensions>
      </trkpt>
      <trkpt lat="59.9846674" lon="15.8272371">
        <ele>87.6</ele>
        <time>2013-02-18T22:50:04Z</time>
        <extensions><gpxtpx:TrackPointExtension><gpxtpx:hr>150</gpxtpx:hr></gpxtpx:TrackPointExtension></extensions>
      </trkpt>
      <trkpt lat="59.9846698" lon="15.8272323">
        <ele>87.6</ele>
        <time>2013-02-18T22:50:05Z</time>
        <extensions><gpxtpx:TrackPointExtension><gpxtpx:hr>151</gpxtpx:hr></gpxtpx:TrackPointExtension></extensions>
      </trkpt>
      <trkpt lat="59.9846429" lon="15.8272661">
        <ele>87.6</ele>
        <time>2013-02-18T22:50:06Z</time>
        <extensions><gpxtpx:TrackPointExtension><gpxtpx:hr>151</gpxtpx:hr></gpxtpx:TrackPointExtension></extensions>
      </trkpt>
      <trkpt lat="59.9846461" lon="15.8272617">
        <ele>87.6</ele>
        <time>2013-02-18T22:50:07Z</time>
        <extensions><gpxtpx:TrackPointExtension><gpxtpx:hr>150</gpxtpx:hr></gpxtpx:TrackPointExtension></extensions>
      </trkpt>
      <trkpt lat="59.9846532" lon="15.8272493">
        <ele>87.6</ele>
        <time>2013-02-18T22:50:10Z</time>
        <extensions><gpxtpx:TrackPointExtension><gpxtpx:hr>150</gpxtpx:hr></gpxtpx:TrackPointExtension></extensions>
      </trkpt>
      <trkpt lat="59.984655" lon="15.8272458">
        <ele>87.6</ele>
        <time>2013-02-18T22:50:11Z</time>
        <extensions><gpxtpx:TrackPointExtension><gpxtpx:hr>151</gpxtpx:hr></gpxtpx:TrackPointExtension></extensions>
      </trkpt>
      <trkpt lat="59.9846551" lon="15.8272458">
        <ele>87.6</ele>
        <time>2013-02-18T22:50:12Z</time>
        <extensions><gpxtpx:TrackPointExtension><gpxtpx:hr>151</gpxtpx:hr></gpxtpx:TrackPointExtension></extensions>
      </trkpt>
      <trkpt lat="59.9846548" lon="15.8272497">
        <ele>87.6</ele>
        <time>2013-02-18T22:50:13Z</time>
        <extensions><gpxtpx:TrackPointExtension><gpxtpx:hr>151</gpxtpx:hr></gpxtpx:TrackPointExtension></extensions>
      </trkpt>
      <trkpt lat="59.9846544" lon="15.8272535">
        <ele>87.6</ele>
        <time>2013-02-18T22:50:14Z</time>
        <extensions><gpxtpx:TrackPointExtension><gpxtpx:hr>151</gpxtpx:hr></gpxtpx:TrackPointExtension></extensions>
      </trkpt>
      <trkpt lat="59.9846543" lon="15.8272569">
        <ele>87.6</ele>
        <time>2013-02-18T22:50:15Z</time>
        <extensions><gpxtpx:TrackPointExtension><gpxtpx:hr>151</gpxtpx:hr></gpxtpx:TrackPointExtension></extensions>
      </trkpt>
      <trkpt lat="59.9846542" lon="15.8272564">
        <ele>87.8</ele>
        <time>2013-02-18T22:50:16Z</time>
        <extensions><gpxtpx:TrackPointExtension><gpxtpx:hr>151</gpxtpx:hr></gpxtpx:TrackPointExtension></extensions>
      </trkpt>
      <trkpt lat="59.9846559" lon="15.8272546">
        <ele>87.6</ele>
        <time>2013-02-18T22:50:17Z</time>
        <extensions><gpxtpx:TrackPointExtension><gpxtpx:hr>151</gpxtpx:hr></gpxtpx:TrackPointExtension></extensions>
      </trkpt>
      <trkpt lat="59.9846574" lon="15.8272533">
        <ele>87.6</ele>
        <time>2013-02-18T22:50:18Z</time>
        <extensions><gpxtpx:TrackPointExtension><gpxtpx:hr>151</gpxtpx:hr></gpxtpx:TrackPointExtension></extensions>
      </trkpt>
      <trkpt lat="59.984659" lon="15.8272507">
        <ele>87.6</ele>
        <time>2013-02-18T22:50:20Z</time>
        <extensions><gpxtpx:TrackPointExtension><gpxtpx:hr>151</gpxtpx:hr></gpxtpx:TrackPointExtension></extensions>
      </trkpt>
      <trkpt lat="59.9846597" lon="15.8272476">
        <ele>87.6</ele>
        <time>2013-02-18T22:50:21Z</time>
        <extensions><gpxtpx:TrackPointExtension><gpxtpx:hr>151</gpxtpx:hr></gpxtpx:TrackPointExtension></extensions>
      </trkpt>
      <trkpt lat="59.9846595" lon="15.8272465">
        <ele>87.6</ele>
        <time>2013-02-18T22:50:22Z</time>
        <extensions><gpxtpx:TrackPointExtension><gpxtpx:hr>150</gpxtpx:hr></gpxtpx:TrackPointExtension></extensions>
      </trkpt>
      <trkpt lat="59.9846592" lon="15.8272462">
        <ele>87.6</ele>
        <time>2013-02-18T22:50:23Z</time>
        <extensions><gpxtpx:TrackPointExtension><gpxtpx:hr>150</gpxtpx:hr></gpxtpx:TrackPointExtension></extensions>
      </trkpt>
      <trkpt lat="59.9846594" lon="15.8272458">
        <ele>87.6</ele>
        <time>2013-02-18T22:50:24Z</time>
        <extensions><gpxtpx:TrackPointExtension><gpxtpx:hr>150</gpxtpx:hr></gpxtpx:TrackPointExtension></extensions>
      </trkpt>
      <trkpt lat="59.9846596" lon="15.8272457">
        <ele>87.6</ele>
        <time>2013-02-18T22:50:25Z</time>
        <extensions><gpxtpx:TrackPointExtension><gpxtpx:hr>150</gpxtpx:hr></gpxtpx:TrackPointExtension></extensions>
      </trkpt>
      <trkpt lat="59.9846609" lon="15.8272441">
        <ele>87.6</ele>
        <time>2013-02-18T22:50:26Z</time>
        <extensions><gpxtpx:TrackPointExtension><gpxtpx:hr>150</gpxtpx:hr></gpxtpx:TrackPointExtension></extensions>
      </trkpt>
      <trkpt lat="59.9846627" lon="15.8272411">
        <ele>87.6</ele>
        <time>2013-02-18T22:50:27Z</time>
        <extensions><gpxtpx:TrackPointExtension><gpxtpx:hr>149</gpxtpx:hr></gpxtpx:TrackPointExtension></extensions>
      </trkpt>
      <trkpt lat="59.9846639" lon="15.8272415">
        <ele>87.6</ele>
        <time>2013-02-18T22:50:28Z</time>
        <extensions><gpxtpx:TrackPointExtension><gpxtpx:hr>149</gpxtpx:hr></gpxtpx:TrackPointExtension></extensions>
      </trkpt>
      <trkpt lat="59.9846645" lon="15.8272396">
        <ele>87.6</ele>
        <time>2013-02-18T22:50:29Z</time>
        <extensions><gpxtpx:TrackPointExtension><gpxtpx:hr>148</gpxtpx:hr></gpxtpx:TrackPointExtension></extensions>
      </trkpt>
      <trkpt lat="59.9846659" lon="15.8272377">
        <ele>87.6</ele>
        <time>2013-02-18T22:50:30Z</time>
        <extensions><gpxtpx:TrackPointExtension><gpxtpx:hr>149</gpxtpx:hr></gpxtpx:TrackPointExtension></extensions>
      </trkpt>
      <trkpt lat="59.9846671" lon="15.827236">
        <ele>87.6</ele>
        <time>2013-02-18T22:50:31Z</time>
        <extensions><gpxtpx:TrackPointExtension><gpxtpx:hr>148</gpxtpx:hr></gpxtpx:TrackPointExtension></extensions>
      </trkpt>
      <trkpt lat="59.9846673" lon="15.8272351">
        <ele>87.6</ele>
        <time>2013-02-18T22:50:32Z</time>
        <extensions><gpxtpx:TrackPointExtension><gpxtpx:hr>149</gpxtpx:hr></gpxtpx:TrackPointExtension></extensions>
      </trkpt>
      <trkpt lat="59.9846679" lon="15.8272348">
        <ele>87.6</ele>
        <time>2013-02-18T22:50:33Z</time>
        <extensions><gpxtpx:TrackPointExtension><gpxtpx:hr>149</gpxtpx:hr></gpxtpx:TrackPointExtension></extensions>
      </trkpt>
      <trkpt lat="59.9846723" lon="15.8272304">
        <ele>87.6</ele>
        <time>2013-02-18T22:50:36Z</time>
        <extensions><gpxtpx:TrackPointExtension><gpxtpx:hr>150</gpxtpx:hr></gpxtpx:TrackPointExtension></extensions>
      </trkpt>
      <trkpt lat="59.9846739" lon="15.8272282">
        <ele>87.6</ele>
        <time>2013-02-18T22:50:37Z</time>
        <extensions><gpxtpx:TrackPointExtension><gpxtpx:hr>150</gpxtpx:hr></gpxtpx:TrackPointExtension></extensions>
      </trkpt>
      <trkpt lat="59.9846775" lon="15.8272251">
        <ele>87.6</ele>
        <time>2013-02-18T22:50:39Z</time>
        <extensions><gpxtpx:TrackPointExtension><gpxtpx:hr>150</gpxtpx:hr></gpxtpx:TrackPointExtension></extensions>
      </trkpt>
      <trkpt lat="59.9846797" lon="15.8272264">
        <ele>87.6</ele>
        <time>2013-02-18T22:50:44Z</time>
        <extensions><gpxtpx:TrackPointExtension><gpxtpx:hr>151</gpxtpx:hr></gpxtpx:TrackPointExtension></extensions>
      </trkpt>
      <trkpt lat="59.9846804" lon="15.8272254">
        <ele>87.6</ele>
        <time>2013-02-18T22:50:45Z</time>
        <extensions><gpxtpx:TrackPointExtension><gpxtpx:hr>151</gpxtpx:hr></gpxtpx:TrackPointExtension></extensions>
      </trkpt>
      <trkpt lat="59.9846846" lon="15.8272199">
        <ele>87.6</ele>
        <time>2013-02-18T22:50:48Z</time>
        <extensions><gpxtpx:TrackPointExtension><gpxtpx:hr>151</gpxtpx:hr></gpxtpx:TrackPointExtension></extensions>
      </trkpt>
      <trkpt lat="59.9846862" lon="15.8272209">
        <ele>87.6</ele>
        <time>2013-02-18T22:50:49Z</time>
        <extensions><gpxtpx:TrackPointExtension><gpxtpx:hr>151</gpxtpx:hr></gpxtpx:TrackPointExtension></extensions>
      </trkpt>
      <trkpt lat="59.9846876" lon="15.8272181">
        <ele>87.6</ele>
        <time>2013-02-18T22:50:50Z</time>
        <extensions><gpxtpx:TrackPointExtension><gpxtpx:hr>151</gpxtpx:hr></gpxtpx:TrackPointExtension></extensions>
      </trkpt>
      <trkpt lat="59.9846886" lon="15.8272167">
        <ele>87.6</ele>
        <time>2013-02-18T22:50:51Z</time>
        <extensions><gpxtpx:TrackPointExtension><gpxtpx:hr>151</gpxtpx:hr></gpxtpx:TrackPointExtension></extensions>
      </trkpt>
      <trkpt lat="59.9846884" lon="15.8272157">
        <ele>87.6</ele>
        <time>2013-02-18T22:50:52Z</time>
        <extensions><gpxtpx:TrackPointExtension><gpxtpx:hr>151</gpxtpx:hr></gpxtpx:TrackPointExtension></extensions>
      </trkpt>
      <trkpt lat="59.9846877" lon="15.8272153">
        <ele>87.6</ele>
        <time>2013-02-18T22:50:53Z</time>
        <extensions><gpxtpx:TrackPointExtension><gpxtpx:hr>151</gpxtpx:hr></gpxtpx:TrackPointExtension></extensions>
      </trkpt>
      <trkpt lat="59.984686" lon="15.8272165">
        <ele>87.6</ele>
        <time>2013-02-18T22:50:54Z</time>
        <extensions><gpxtpx:TrackPointExtension><gpxtpx:hr>152</gpxtpx:hr></gpxtpx:TrackPointExtension></extensions>
      </trkpt>
      <trkpt lat="59.9846846" lon="15.8272173">
        <ele>87.6</ele>
        <time>2013-02-18T22:50:55Z</time>
        <extensions><gpxtpx:TrackPointExtension><gpxtpx:hr>151</gpxtpx:hr></gpxtpx:TrackPointExtension></extensions>
      </trkpt>
      <trkpt lat="59.9846843" lon="15.8272149">
        <ele>87.6</ele>
        <time>2013-02-18T22:50:56Z</time>
        <extensions><gpxtpx:TrackPointExtension><gpxtpx:hr>152</gpxtpx:hr></gpxtpx:TrackPointExtension></extensions>
      </trkpt>
      <trkpt lat="59.984685" lon="15.8272128">
        <ele>87.6</ele>
        <time>2013-02-18T22:50:57Z</time>
        <extensions><gpxtpx:TrackPointExtension><gpxtpx:hr>152</gpxtpx:hr></gpxtpx:TrackPointExtension></extensions>
      </trkpt>
      <trkpt lat="59.9846865" lon="15.8272099">
        <ele>87.6</ele>
        <time>2013-02-18T22:50:58Z</time>
        <extensions><gpxtpx:TrackPointExtension><gpxtpx:hr>152</gpxtpx:hr></gpxtpx:TrackPointExtension></extensions>
      </trkpt>
      <trkpt lat="59.9846905" lon="15.8272054">
        <ele>86.6</ele>
        <time>2013-02-18T22:51:01Z</time>
        <extensions><gpxtpx:TrackPointExtension><gpxtpx:hr>153</gpxtpx:hr></gpxtpx:TrackPointExtension></extensions>
      </trkpt>
      <trkpt lat="59.9846888" lon="15.8272166">
        <ele>86.6</ele>
        <time>2013-02-18T22:51:05Z</time>
        <extensions><gpxtpx:TrackPointExtension><gpxtpx:hr>152</gpxtpx:hr></gpxtpx:TrackPointExtension></extensions>
      </trkpt>
      <trkpt lat="59.9846877" lon="15.8272281">
        <ele>86.6</ele>
        <time>2013-02-18T22:51:07Z</time>
        <extensions><gpxtpx:TrackPointExtension><gpxtpx:hr>152</gpxtpx:hr></gpxtpx:TrackPointExtension></extensions>
      </trkpt>
      <trkpt lat="59.9846866" lon="15.8272286">
        <ele>86.6</ele>
        <time>2013-02-18T22:51:08Z</time>
        <extensions><gpxtpx:TrackPointExtension><gpxtpx:hr>152</gpxtpx:hr></gpxtpx:TrackPointExtension></extensions>
      </trkpt>
      <trkpt lat="59.9846878" lon="15.8272262">
        <ele>86.6</ele>
        <time>2013-02-18T22:51:09Z</time>
        <extensions><gpxtpx:TrackPointExtension><gpxtpx:hr>152</gpxtpx:hr></gpxtpx:TrackPointExtension></extensions>
      </trkpt>
      <trkpt lat="59.9846307" lon="15.8272409">
        <ele>86.6</ele>
        <time>2013-02-18T22:51:10Z</time>
        <extensions><gpxtpx:TrackPointExtension><gpxtpx:hr>152</gpxtpx:hr></gpxtpx:TrackPointExtension></extensions>
      </trkpt>
      <trkpt lat="59.9846305" lon="15.8272374">
        <ele>86.6</ele>
        <time>2013-02-18T22:51:11Z</time>
        <extensions><gpxtpx:TrackPointExtension><gpxtpx:hr>152</gpxtpx:hr></gpxtpx:TrackPointExtension></extensions>
      </trkpt>
      <trkpt lat="59.9846321" lon="15.827236">
        <ele>86.6</ele>
        <time>2013-02-18T22:51:12Z</time>
        <extensions><gpxtpx:TrackPointExtension><gpxtpx:hr>152</gpxtpx:hr></gpxtpx:TrackPointExtension></extensions>
      </trkpt>
      <trkpt lat="59.9846332" lon="15.8272381">
        <ele>86.6</ele>
        <time>2013-02-18T22:51:13Z</time>
        <extensions><gpxtpx:TrackPointExtension><gpxtpx:hr>152</gpxtpx:hr></gpxtpx:TrackPointExtension></extensions>
      </trkpt>
      <trkpt lat="59.9846334" lon="15.8272394">
        <ele>86.6</ele>
        <time>2013-02-18T22:51:14Z</time>
        <extensions><gpxtpx:TrackPointExtension><gpxtpx:hr>153</gpxtpx:hr></gpxtpx:TrackPointExtension></extensions>
      </trkpt>
      <trkpt lat="59.9846333" lon="15.8272375">
        <ele>86.6</ele>
        <time>2013-02-18T22:51:15Z</time>
        <extensions><gpxtpx:TrackPointExtension><gpxtpx:hr>153</gpxtpx:hr></gpxtpx:TrackPointExtension></extensions>
      </trkpt>
      <trkpt lat="59.9846347" lon="15.8272323">
        <ele>86.6</ele>
        <time>2013-02-18T22:51:16Z</time>
        <extensions><gpxtpx:TrackPointExtension><gpxtpx:hr>153</gpxtpx:hr></gpxtpx:TrackPointExtension></extensions>
      </trkpt>
      <trkpt lat="59.9846346" lon="15.8272282">
        <ele>86.6</ele>
        <time>2013-02-18T22:51:17Z</time>
        <extensions><gpxtpx:TrackPointExtension><gpxtpx:hr>153</gpxtpx:hr></gpxtpx:TrackPointExtension></extensions>
      </trkpt>
      <trkpt lat="59.9846347" lon="15.8272263">
        <ele>86.6</ele>
        <time>2013-02-18T22:51:18Z</time>
        <extensions><gpxtpx:TrackPointExtension><gpxtpx:hr>152</gpxtpx:hr></gpxtpx:TrackPointExtension></extensions>
      </trkpt>
      <trkpt lat="59.9846356" lon="15.8272255">
        <ele>86.6</ele>
        <time>2013-02-18T22:51:19Z</time>
        <extensions><gpxtpx:TrackPointExtension><gpxtpx:hr>152</gpxtpx:hr></gpxtpx:TrackPointExtension></extensions>
      </trkpt>
      <trkpt lat="59.9846356" lon="15.8272272">
        <ele>86.6</ele>
        <time>2013-02-18T22:51:20Z</time>
        <extensions><gpxtpx:TrackPointExtension><gpxtpx:hr>153</gpxtpx:hr></gpxtpx:TrackPointExtension></extensions>
      </trkpt>
      <trkpt lat="59.9846361" lon="15.8272282">
        <ele>86.6</ele>
        <time>2013-02-18T22:51:21Z</time>
        <extensions><gpxtpx:TrackPointExtension><gpxtpx:hr>153</gpxtpx:hr></gpxtpx:TrackPointExtension></extensions>
      </trkpt>
      <trkpt lat="59.9846382" lon="15.8272282">
        <ele>86.6</ele>
        <time>2013-02-18T22:51:22Z</time>
        <extensions><gpxtpx:TrackPointExtension><gpxtpx:hr>152</gpxtpx:hr></gpxtpx:TrackPointExtension></extensions>
      </trkpt>
      <trkpt lat="59.9846404" lon="15.8272284">
        <ele>86.6</ele>
        <time>2013-02-18T22:51:23Z</time>
        <extensions><gpxtpx:TrackPointExtension><gpxtpx:hr>153</gpxtpx:hr></gpxtpx:TrackPointExtension></extensions>
      </trkpt>
      <trkpt lat="59.984643" lon="15.8272297">
        <ele>86.6</ele>
        <time>2013-02-18T22:51:27Z</time>
        <extensions><gpxtpx:TrackPointExtension><gpxtpx:hr>153</gpxtpx:hr></gpxtpx:TrackPointExtension></extensions>
      </trkpt>
      <trkpt lat="59.9846247" lon="15.827248">
        <ele>86.6</ele>
        <time>2013-02-18T22:51:29Z</time>
        <extensions><gpxtpx:TrackPointExtension><gpxtpx:hr>153</gpxtpx:hr></gpxtpx:TrackPointExtension></extensions>
      </trkpt>
      <trkpt lat="59.9846266" lon="15.827252">
        <ele>86.6</ele>
        <time>2013-02-18T22:51:30Z</time>
        <extensions><gpxtpx:TrackPointExtension><gpxtpx:hr>153</gpxtpx:hr></gpxtpx:TrackPointExtension></extensions>
      </trkpt>
      <trkpt lat="59.9846296" lon="15.8272556">
        <ele>86.6</ele>
        <time>2013-02-18T22:51:31Z</time>
        <extensions><gpxtpx:TrackPointExtension><gpxtpx:hr>153</gpxtpx:hr></gpxtpx:TrackPointExtension></extensions>
      </trkpt>
      <trkpt lat="59.9846308" lon="15.8272554">
        <ele>86.6</ele>
        <time>2013-02-18T22:51:32Z</time>
        <extensions><gpxtpx:TrackPointExtension><gpxtpx:hr>153</gpxtpx:hr></gpxtpx:TrackPointExtension></extensions>
      </trkpt>
      <trkpt lat="59.9846304" lon="15.8272532">
        <ele>86.6</ele>
        <time>2013-02-18T22:51:33Z</time>
        <extensions><gpxtpx:TrackPointExtension><gpxtpx:hr>153</gpxtpx:hr></gpxtpx:TrackPointExtension></extensions>
      </trkpt>
      <trkpt lat="59.9846175" lon="15.8272459">
        <ele>86.6</ele>
        <time>2013-02-18T22:51:34Z</time>
        <extensions><gpxtpx:TrackPointExtension><gpxtpx:hr>153</gpxtpx:hr></gpxtpx:TrackPointExtension></extensions>
      </trkpt>
      <trkpt lat="59.9846082" lon="15.8272483">
        <ele>86.6</ele>
        <time>2013-02-18T22:51:37Z</time>
        <extensions><gpxtpx:TrackPointExtension><gpxtpx:hr>153</gpxtpx:hr></gpxtpx:TrackPointExtension></extensions>
      </trkpt>
      <trkpt lat="59.9846101" lon="15.8272528">
        <ele>86.6</ele>
        <time>2013-02-18T22:51:38Z</time>
        <extensions><gpxtpx:TrackPointExtension><gpxtpx:hr>153</gpxtpx:hr></gpxtpx:TrackPointExtension></extensions>
      </trkpt>
      <trkpt lat="59.9846109" lon="15.8272567">
        <ele>86.6</ele>
        <time>2013-02-18T22:51:39Z</time>
        <extensions><gpxtpx:TrackPointExtension><gpxtpx:hr>153</gpxtpx:hr></gpxtpx:TrackPointExtension></extensions>
      </trkpt>
      <trkpt lat="59.9846098" lon="15.8272603">
        <ele>86.6</ele>
        <time>2013-02-18T22:51:40Z</time>
        <extensions><gpxtpx:TrackPointExtension><gpxtpx:hr>152</gpxtpx:hr></gpxtpx:TrackPointExtension></extensions>
      </trkpt>
      <trkpt lat="59.9846088" lon="15.8272615">
        <ele>86.6</ele>
        <time>2013-02-18T22:51:41Z</time>
        <extensions><gpxtpx:TrackPointExtension><gpxtpx:hr>152</gpxtpx:hr></gpxtpx:TrackPointExtension></extensions>
      </trkpt>
      <trkpt lat="59.9846082" lon="15.8272649">
        <ele>86.6</ele>
        <time>2013-02-18T22:51:42Z</time>
        <extensions><gpxtpx:TrackPointExtension><gpxtpx:hr>151</gpxtpx:hr></gpxtpx:TrackPointExtension></extensions>
      </trkpt>
      <trkpt lat="59.9845726" lon="15.8272667">
        <ele>86.6</ele>
        <time>2013-02-18T22:51:46Z</time>
        <extensions><gpxtpx:TrackPointExtension><gpxtpx:hr>151</gpxtpx:hr></gpxtpx:TrackPointExtension></extensions>
      </trkpt>
      <trkpt lat="59.9845672" lon="15.8272636">
        <ele>86.6</ele>
        <time>2013-02-18T22:51:47Z</time>
        <extensions><gpxtpx:TrackPointExtension><gpxtpx:hr>152</gpxtpx:hr></gpxtpx:TrackPointExtension></extensions>
      </trkpt>
      <trkpt lat="59.9845592" lon="15.8272624">
        <ele>86.6</ele>
        <time>2013-02-18T22:51:48Z</time>
        <extensions><gpxtpx:TrackPointExtension><gpxtpx:hr>152</gpxtpx:hr></gpxtpx:TrackPointExtension></extensions>
      </trkpt>
      <trkpt lat="59.9845554" lon="15.8272643">
        <ele>86.6</ele>
        <time>2013-02-18T22:51:49Z</time>
        <extensions><gpxtpx:TrackPointExtension><gpxtpx:hr>152</gpxtpx:hr></gpxtpx:TrackPointExtension></extensions>
      </trkpt>
      <trkpt lat="59.9845534" lon="15.8272697">
        <ele>86.6</ele>
        <time>2013-02-18T22:51:50Z</time>
        <extensions><gpxtpx:TrackPointExtension><gpxtpx:hr>152</gpxtpx:hr></gpxtpx:TrackPointExtension></extensions>
      </trkpt>
      <trkpt lat="59.9845529" lon="15.8272683">
        <ele>86.6</ele>
        <time>2013-02-18T22:51:51Z</time>
        <extensions><gpxtpx:TrackPointExtension><gpxtpx:hr>152</gpxtpx:hr></gpxtpx:TrackPointExtension></extensions>
      </trkpt>
      <trkpt lat="59.9845529" lon="15.8272702">
        <ele>86.6</ele>
        <time>2013-02-18T22:51:52Z</time>
        <extensions><gpxtpx:TrackPointExtension><gpxtpx:hr>152</gpxtpx:hr></gpxtpx:TrackPointExtension></extensions>
      </trkpt>
      <trkpt lat="59.9845378" lon="15.8272686">
        <ele>86.6</ele>
        <time>2013-02-18T22:51:53Z</time>
        <extensions><gpxtpx:TrackPointExtension><gpxtpx:hr>152</gpxtpx:hr></gpxtpx:TrackPointExtension></extensions>
      </trkpt>
      <trkpt lat="59.9845288" lon="15.8272684">
        <ele>86.6</ele>
        <time>2013-02-18T22:51:54Z</time>
        <extensions><gpxtpx:TrackPointExtension><gpxtpx:hr>152</gpxtpx:hr></gpxtpx:TrackPointExtension></extensions>
      </trkpt>
      <trkpt lat="59.9845254" lon="15.8272708">
        <ele>86.6</ele>
        <time>2013-02-18T22:51:55Z</time>
        <extensions><gpxtpx:TrackPointExtension><gpxtpx:hr>152</gpxtpx:hr></gpxtpx:TrackPointExtension></extensions>
      </trkpt>
      <trkpt lat="59.9845269" lon="15.827272">
        <ele>85.6</ele>
        <time>2013-02-18T22:51:56Z</time>
        <extensions><gpxtpx:TrackPointExtension><gpxtpx:hr>153</gpxtpx:hr></gpxtpx:TrackPointExtension></extensions>
      </trkpt>
      <trkpt lat="59.984524" lon="15.8272574">
        <ele>85.6</ele>
        <time>2013-02-18T22:51:57Z</time>
        <extensions><gpxtpx:TrackPointExtension><gpxtpx:hr>153</gpxtpx:hr></gpxtpx:TrackPointExtension></extensions>
      </trkpt>
      <trkpt lat="59.9845273" lon="15.8272546">
        <ele>85.6</ele>
        <time>2013-02-18T22:51:58Z</time>
        <extensions><gpxtpx:TrackPointExtension><gpxtpx:hr>153</gpxtpx:hr></gpxtpx:TrackPointExtension></extensions>
      </trkpt>
      <trkpt lat="59.9845187" lon="15.8272453">
        <ele>85.6</ele>
        <time>2013-02-18T22:51:59Z</time>
        <extensions><gpxtpx:TrackPointExtension><gpxtpx:hr>153</gpxtpx:hr></gpxtpx:TrackPointExtension></extensions>
      </trkpt>
      <trkpt lat="59.9845211" lon="15.8272451">
        <ele>85.6</ele>
        <time>2013-02-18T22:52:00Z</time>
        <extensions><gpxtpx:TrackPointExtension><gpxtpx:hr>153</gpxtpx:hr></gpxtpx:TrackPointExtension></extensions>
      </trkpt>
      <trkpt lat="59.9845207" lon="15.8272439">
        <ele>85.6</ele>
        <time>2013-02-18T22:52:01Z</time>
        <extensions><gpxtpx:TrackPointExtension><gpxtpx:hr>153</gpxtpx:hr></gpxtpx:TrackPointExtension></extensions>
      </trkpt>
      <trkpt lat="59.9845242" lon="15.8272468">
        <ele>85.6</ele>
        <time>2013-02-18T22:52:05Z</time>
        <extensions><gpxtpx:TrackPointExtension><gpxtpx:hr>152</gpxtpx:hr></gpxtpx:TrackPointExtension></extensions>
      </trkpt>
      <trkpt lat="59.9845223" lon="15.8272489">
        <ele>85.6</ele>
        <time>2013-02-18T22:52:06Z</time>
        <extensions><gpxtpx:TrackPointExtension><gpxtpx:hr>153</gpxtpx:hr></gpxtpx:TrackPointExtension></extensions>
      </trkpt>
      <trkpt lat="59.9845202" lon="15.82725">
        <ele>85.6</ele>
        <time>2013-02-18T22:52:07Z</time>
        <extensions><gpxtpx:TrackPointExtension><gpxtpx:hr>152</gpxtpx:hr></gpxtpx:TrackPointExtension></extensions>
      </trkpt>
      <trkpt lat="59.9845184" lon="15.8272533">
        <ele>85.6</ele>
        <time>2013-02-18T22:52:08Z</time>
        <extensions><gpxtpx:TrackPointExtension><gpxtpx:hr>152</gpxtpx:hr></gpxtpx:TrackPointExtension></extensions>
      </trkpt>
      <trkpt lat="59.9845164" lon="15.8272579">
        <ele>85.6</ele>
        <time>2013-02-18T22:52:09Z</time>
        <extensions><gpxtpx:TrackPointExtension><gpxtpx:hr>152</gpxtpx:hr></gpxtpx:TrackPointExtension></extensions>
      </trkpt>
      <trkpt lat="59.9845154" lon="15.8272589">
        <ele>85.6</ele>
        <time>2013-02-18T22:52:10Z</time>
        <extensions><gpxtpx:TrackPointExtension><gpxtpx:hr>152</gpxtpx:hr></gpxtpx:TrackPointExtension></extensions>
      </trkpt>
      <trkpt lat="59.9845148" lon="15.8272582">
        <ele>85.6</ele>
        <time>2013-02-18T22:52:11Z</time>
        <extensions><gpxtpx:TrackPointExtension><gpxtpx:hr>152</gpxtpx:hr></gpxtpx:TrackPointExtension></extensions>
      </trkpt>
      <trkpt lat="59.9845141" lon="15.8272586">
        <ele>85.6</ele>
        <time>2013-02-18T22:52:12Z</time>
        <extensions><gpxtpx:TrackPointExtension><gpxtpx:hr>152</gpxtpx:hr></gpxtpx:TrackPointExtension></extensions>
      </trkpt>
      <trkpt lat="59.9845141" lon="15.827265">
        <ele>85.6</ele>
        <time>2013-02-18T22:52:14Z</time>
        <extensions><gpxtpx:TrackPointExtension><gpxtpx:hr>152</gpxtpx:hr></gpxtpx:TrackPointExtension></extensions>
      </trkpt>
      <trkpt lat="59.9845152" lon="15.8272635">
        <ele>85.6</ele>
        <time>2013-02-18T22:52:15Z</time>
        <extensions><gpxtpx:TrackPointExtension><gpxtpx:hr>152</gpxtpx:hr></gpxtpx:TrackPointExtension></extensions>
      </trkpt>
      <trkpt lat="59.9844748" lon="15.827218">
        <ele>85.6</ele>
        <time>2013-02-18T22:52:16Z</time>
        <extensions><gpxtpx:TrackPointExtension><gpxtpx:hr>152</gpxtpx:hr></gpxtpx:TrackPointExtension></extensions>
      </trkpt>
      <trkpt lat="59.9844771" lon="15.8272157">
        <ele>85.6</ele>
        <time>2013-02-18T22:52:17Z</time>
        <extensions><gpxtpx:TrackPointExtension><gpxtpx:hr>151</gpxtpx:hr></gpxtpx:TrackPointExtension></extensions>
      </trkpt>
      <trkpt lat="59.9844785" lon="15.8272195">
        <ele>85.6</ele>
        <time>2013-02-18T22:52:18Z</time>
        <extensions><gpxtpx:TrackPointExtension><gpxtpx:hr>151</gpxtpx:hr></gpxtpx:TrackPointExtension></extensions>
      </trkpt>
      <trkpt lat="59.9844768" lon="15.8272277">
        <ele>85.6</ele>
        <time>2013-02-18T22:52:19Z</time>
        <extensions><gpxtpx:TrackPointExtension><gpxtpx:hr>151</gpxtpx:hr></gpxtpx:TrackPointExtension></extensions>
      </trkpt>
      <trkpt lat="59.9844803" lon="15.8272341">
        <ele>85.6</ele>
        <time>2013-02-18T22:52:20Z</time>
        <extensions><gpxtpx:TrackPointExtension><gpxtpx:hr>151</gpxtpx:hr></gpxtpx:TrackPointExtension></extensions>
      </trkpt>
      <trkpt lat="59.9844836" lon="15.8272338">
        <ele>85.6</ele>
        <time>2013-02-18T22:52:22Z</time>
        <extensions><gpxtpx:TrackPointExtension><gpxtpx:hr>152</gpxtpx:hr></gpxtpx:TrackPointExtension></extensions>
      </trkpt>
      <trkpt lat="59.9844768" lon="15.8272327">
        <ele>85.6</ele>
        <time>2013-02-18T22:52:23Z</time>
        <extensions><gpxtpx:TrackPointExtension><gpxtpx:hr>152</gpxtpx:hr></gpxtpx:TrackPointExtension></extensions>
      </trkpt>
      <trkpt lat="59.9844787" lon="15.8272314">
        <ele>85.6</ele>
        <time>2013-02-18T22:52:24Z</time>
        <extensions><gpxtpx:TrackPointExtension><gpxtpx:hr>152</gpxtpx:hr></gpxtpx:TrackPointExtension></extensions>
      </trkpt>
      <trkpt lat="59.984476" lon="15.8272176">
        <ele>85.6</ele>
        <time>2013-02-18T22:52:25Z</time>
        <extensions><gpxtpx:TrackPointExtension><gpxtpx:hr>152</gpxtpx:hr></gpxtpx:TrackPointExtension></extensions>
      </trkpt>
      <trkpt lat="59.9844767" lon="15.8272109">
        <ele>85.6</ele>
        <time>2013-02-18T22:52:26Z</time>
        <extensions><gpxtpx:TrackPointExtension><gpxtpx:hr>151</gpxtpx:hr></gpxtpx:TrackPointExtension></extensions>
      </trkpt>
      <trkpt lat="59.9844771" lon="15.8272057">
        <ele>85.6</ele>
        <time>2013-02-18T22:52:27Z</time>
        <extensions><gpxtpx:TrackPointExtension><gpxtpx:hr>151</gpxtpx:hr></gpxtpx:TrackPointExtension></extensions>
      </trkpt>
      <trkpt lat="59.984481" lon="15.8272018">
        <ele>85.6</ele>
        <time>2013-02-18T22:52:30Z</time>
        <extensions><gpxtpx:TrackPointExtension><gpxtpx:hr>151</gpxtpx:hr></gpxtpx:TrackPointExtension></extensions>
      </trkpt>
      <trkpt lat="59.9844532" lon="15.8272289">
        <ele>85.6</ele>
        <time>2013-02-18T22:52:34Z</time>
        <extensions><gpxtpx:TrackPointExtension><gpxtpx:hr>151</gpxtpx:hr></gpxtpx:TrackPointExtension></extensions>
      </trkpt>
      <trkpt lat="59.9844524" lon="15.8272155">
        <ele>85.6</ele>
        <time>2013-02-18T22:52:37Z</time>
        <extensions><gpxtpx:TrackPointExtension><gpxtpx:hr>151</gpxtpx:hr></gpxtpx:TrackPointExtension></extensions>
      </trkpt>
      <trkpt lat="59.9844518" lon="15.8272258">
        <ele>85.6</ele>
        <time>2013-02-18T22:52:38Z</time>
        <extensions><gpxtpx:TrackPointExtension><gpxtpx:hr>151</gpxtpx:hr></gpxtpx:TrackPointExtension></extensions>
      </trkpt>
      <trkpt lat="59.9844596" lon="15.8272178">
        <ele>85.6</ele>
        <time>2013-02-18T22:52:43Z</time>
        <extensions><gpxtpx:TrackPointExtension><gpxtpx:hr>151</gpxtpx:hr></gpxtpx:TrackPointExtension></extensions>
      </trkpt>
      <trkpt lat="59.984455" lon="15.827198">
        <ele>85.6</ele>
        <time>2013-02-18T22:52:44Z</time>
        <extensions><gpxtpx:TrackPointExtension><gpxtpx:hr>151</gpxtpx:hr></gpxtpx:TrackPointExtension></extensions>
      </trkpt>
      <trkpt lat="59.9844612" lon="15.8271992">
        <ele>85.6</ele>
        <time>2013-02-18T22:52:45Z</time>
        <extensions><gpxtpx:TrackPointExtension><gpxtpx:hr>151</gpxtpx:hr></gpxtpx:TrackPointExtension></extensions>
      </trkpt>
      <trkpt lat="59.9844636" lon="15.8271984">
        <ele>85.6</ele>
        <time>2013-02-18T22:52:46Z</time>
        <extensions><gpxtpx:TrackPointExtension><gpxtpx:hr>151</gpxtpx:hr></gpxtpx:TrackPointExtension></extensions>
      </trkpt>
      <trkpt lat="59.9844638" lon="15.8271987">
        <ele>85.6</ele>
        <time>2013-02-18T22:52:47Z</time>
        <extensions><gpxtpx:TrackPointExtension><gpxtpx:hr>151</gpxtpx:hr></gpxtpx:TrackPointExtension></extensions>
      </trkpt>
      <trkpt lat="59.98446" lon="15.8272045">
        <ele>85.6</ele>
        <time>2013-02-18T22:52:48Z</time>
        <extensions><gpxtpx:TrackPointExtension><gpxtpx:hr>151</gpxtpx:hr></gpxtpx:TrackPointExtension></extensions>
      </trkpt>
      <trkpt lat="59.9844569" lon="15.8272091">
        <ele>85.6</ele>
        <time>2013-02-18T22:52:49Z</time>
        <extensions><gpxtpx:TrackPointExtension><gpxtpx:hr>151</gpxtpx:hr></gpxtpx:TrackPointExtension></extensions>
      </trkpt>
      <trkpt lat="59.9844574" lon="15.8272075">
        <ele>85.6</ele>
        <time>2013-02-18T22:52:50Z</time>
        <extensions><gpxtpx:TrackPointExtension><gpxtpx:hr>152</gpxtpx:hr></gpxtpx:TrackPointExtension></extensions>
      </trkpt>
      <trkpt lat="59.9844593" lon="15.8272057">
        <ele>85.6</ele>
        <time>2013-02-18T22:52:51Z</time>
        <extensions><gpxtpx:TrackPointExtension><gpxtpx:hr>151</gpxtpx:hr></gpxtpx:TrackPointExtension></extensions>
      </trkpt>
      <trkpt lat="59.9844611" lon="15.8272009">
        <ele>85.6</ele>
        <time>2013-02-18T22:52:52Z</time>
        <extensions><gpxtpx:TrackPointExtension><gpxtpx:hr>151</gpxtpx:hr></gpxtpx:TrackPointExtension></extensions>
      </trkpt>
      <trkpt lat="59.9844619" lon="15.8271954">
        <ele>85.6</ele>
        <time>2013-02-18T22:52:53Z</time>
        <extensions><gpxtpx:TrackPointExtension><gpxtpx:hr>152</gpxtpx:hr></gpxtpx:TrackPointExtension></extensions>
      </trkpt>
      <trkpt lat="59.9844296" lon="15.82724">
        <ele>85.6</ele>
        <time>2013-02-18T22:52:54Z</time>
        <extensions><gpxtpx:TrackPointExtension><gpxtpx:hr>151</gpxtpx:hr></gpxtpx:TrackPointExtension></extensions>
      </trkpt>
      <trkpt lat="59.9844295" lon="15.8272329">
        <ele>85.6</ele>
        <time>2013-02-18T22:52:55Z</time>
        <extensions><gpxtpx:TrackPointExtension><gpxtpx:hr>151</gpxtpx:hr></gpxtpx:TrackPointExtension></extensions>
      </trkpt>
      <trkpt lat="59.9844306" lon="15.827229">
        <ele>85.6</ele>
        <time>2013-02-18T22:52:56Z</time>
        <extensions><gpxtpx:TrackPointExtension><gpxtpx:hr>151</gpxtpx:hr></gpxtpx:TrackPointExtension></extensions>
      </trkpt>
      <trkpt lat="59.9844291" lon="15.8272362">
        <ele>85.6</ele>
        <time>2013-02-18T22:52:59Z</time>
        <extensions><gpxtpx:TrackPointExtension><gpxtpx:hr>151</gpxtpx:hr></gpxtpx:TrackPointExtension></extensions>
      </trkpt>
      <trkpt lat="59.9844112" lon="15.8272517">
        <ele>85.6</ele>
        <time>2013-02-18T22:53:00Z</time>
        <extensions><gpxtpx:TrackPointExtension><gpxtpx:hr>151</gpxtpx:hr></gpxtpx:TrackPointExtension></extensions>
      </trkpt>
      <trkpt lat="59.984401" lon="15.8272537">
        <ele>85.6</ele>
        <time>2013-02-18T22:53:02Z</time>
        <extensions><gpxtpx:TrackPointExtension><gpxtpx:hr>151</gpxtpx:hr></gpxtpx:TrackPointExtension></extensions>
      </trkpt>
      <trkpt lat="59.9843904" lon="15.8272688">
        <ele>85.6</ele>
        <time>2013-02-18T22:53:03Z</time>
        <extensions><gpxtpx:TrackPointExtension><gpxtpx:hr>151</gpxtpx:hr></gpxtpx:TrackPointExtension></extensions>
      </trkpt>
      <trkpt lat="59.9843804" lon="15.8272814">
        <ele>85.6</ele>
        <time>2013-02-18T22:53:04Z</time>
        <extensions><gpxtpx:TrackPointExtension><gpxtpx:hr>151</gpxtpx:hr></gpxtpx:TrackPointExtension></extensions>
      </trkpt>
      <trkpt lat="59.9843791" lon="15.827287">
        <ele>85.6</ele>
        <time>2013-02-18T22:53:05Z</time>
        <extensions><gpxtpx:TrackPointExtension><gpxtpx:hr>151</gpxtpx:hr></gpxtpx:TrackPointExtension></extensions>
      </trkpt>
      <trkpt lat="59.9843713" lon="15.8272986">
        <ele>85.6</ele>
        <time>2013-02-18T22:53:06Z</time>
        <extensions><gpxtpx:TrackPointExtension><gpxtpx:hr>151</gpxtpx:hr></gpxtpx:TrackPointExtension></extensions>
      </trkpt>
      <trkpt lat="59.9843698" lon="15.8273066">
        <ele>85.6</ele>
        <time>2013-02-18T22:53:07Z</time>
        <extensions><gpxtpx:TrackPointExtension><gpxtpx:hr>150</gpxtpx:hr></gpxtpx:TrackPointExtension></extensions>
      </trkpt>
      <trkpt lat="59.9843729" lon="15.8273043">
        <ele>85.6</ele>
        <time>2013-02-18T22:53:08Z</time>
        <extensions><gpxtpx:TrackPointExtension><gpxtpx:hr>150</gpxtpx:hr></gpxtpx:TrackPointExtension></extensions>
      </trkpt>
      <trkpt lat="59.9843716" lon="15.8273063">
        <ele>85.6</ele>
        <time>2013-02-18T22:53:09Z</time>
        <extensions><gpxtpx:TrackPointExtension><gpxtpx:hr>150</gpxtpx:hr></gpxtpx:TrackPointExtension></extensions>
      </trkpt>
      <trkpt lat="59.9843781" lon="15.8273054">
        <ele>85.6</ele>
        <time>2013-02-18T22:53:10Z</time>
        <extensions><gpxtpx:TrackPointExtension><gpxtpx:hr>150</gpxtpx:hr></gpxtpx:TrackPointExtension></extensions>
      </trkpt>
      <trkpt lat="59.9843871" lon="15.8272965">
        <ele>85.6</ele>
        <time>2013-02-18T22:53:11Z</time>
        <extensions><gpxtpx:TrackPointExtension><gpxtpx:hr>150</gpxtpx:hr></gpxtpx:TrackPointExtension></extensions>
      </trkpt>
      <trkpt lat="59.984395" lon="15.827286">
        <ele>85.6</ele>
        <time>2013-02-18T22:53:12Z</time>
        <extensions><gpxtpx:TrackPointExtension><gpxtpx:hr>150</gpxtpx:hr></gpxtpx:TrackPointExtension></extensions>
      </trkpt>
      <trkpt lat="59.9844002" lon="15.8272709">
        <ele>85.6</ele>
        <time>2013-02-18T22:53:13Z</time>
        <extensions><gpxtpx:TrackPointExtension><gpxtpx:hr>150</gpxtpx:hr></gpxtpx:TrackPointExtension></extensions>
      </trkpt>
      <trkpt lat="59.9844012" lon="15.8272656">
        <ele>85.6</ele>
        <time>2013-02-18T22:53:14Z</time>
        <extensions><gpxtpx:TrackPointExtension><gpxtpx:hr>150</gpxtpx:hr></gpxtpx:TrackPointExtension></extensions>
      </trkpt>
      <trkpt lat="59.9843985" lon="15.8272615">
        <ele>85.6</ele>
        <time>2013-02-18T22:53:15Z</time>
        <extensions><gpxtpx:TrackPointExtension><gpxtpx:hr>151</gpxtpx:hr></gpxtpx:TrackPointExtension></extensions>
      </trkpt>
      <trkpt lat="59.9843957" lon="15.8272654">
        <ele>84.6</ele>
        <time>2013-02-18T22:53:16Z</time>
        <extensions><gpxtpx:TrackPointExtension><gpxtpx:hr>150</gpxtpx:hr></gpxtpx:TrackPointExtension></extensions>
      </trkpt>
      <trkpt lat="59.9843942" lon="15.8272722">
        <ele>84.6</ele>
        <time>2013-02-18T22:53:17Z</time>
        <extensions><gpxtpx:TrackPointExtension><gpxtpx:hr>151</gpxtpx:hr></gpxtpx:TrackPointExtension></extensions>
      </trkpt>
      <trkpt lat="59.9843938" lon="15.8272799">
        <ele>84.6</ele>
        <time>2013-02-18T22:53:18Z</time>
        <extensions><gpxtpx:TrackPointExtension><gpxtpx:hr>150</gpxtpx:hr></gpxtpx:TrackPointExtension></extensions>
      </trkpt>
      <trkpt lat="59.9843949" lon="15.8272875">
        <ele>84.6</ele>
        <time>2013-02-18T22:53:19Z</time>
        <extensions><gpxtpx:TrackPointExtension><gpxtpx:hr>151</gpxtpx:hr></gpxtpx:TrackPointExtension></extensions>
      </trkpt>
      <trkpt lat="59.9844047" lon="15.8272932">
        <ele>84.6</ele>
        <time>2013-02-18T22:53:20Z</time>
        <extensions><gpxtpx:TrackPointExtension><gpxtpx:hr>151</gpxtpx:hr></gpxtpx:TrackPointExtension></extensions>
      </trkpt>
      <trkpt lat="59.9844049" lon="15.8272941">
        <ele>84.6</ele>
        <time>2013-02-18T22:53:21Z</time>
        <extensions><gpxtpx:TrackPointExtension><gpxtpx:hr>151</gpxtpx:hr></gpxtpx:TrackPointExtension></extensions>
      </trkpt>
      <trkpt lat="59.9844057" lon="15.8272964">
        <ele>84.6</ele>
        <time>2013-02-18T22:53:22Z</time>
        <extensions><gpxtpx:TrackPointExtension><gpxtpx:hr>151</gpxtpx:hr></gpxtpx:TrackPointExtension></extensions>
      </trkpt>
      <trkpt lat="59.9844044" lon="15.8272997">
        <ele>84.6</ele>
        <time>2013-02-18T22:53:23Z</time>
        <extensions><gpxtpx:TrackPointExtension><gpxtpx:hr>151</gpxtpx:hr></gpxtpx:TrackPointExtension></extensions>
      </trkpt>
      <trkpt lat="59.9844021" lon="15.8273043">
        <ele>84.6</ele>
        <time>2013-02-18T22:53:24Z</time>
        <extensions><gpxtpx:TrackPointExtension><gpxtpx:hr>151</gpxtpx:hr></gpxtpx:TrackPointExtension></extensions>
      </trkpt>
      <trkpt lat="59.9843927" lon="15.8273118">
        <ele>84.6</ele>
        <time>2013-02-18T22:53:26Z</time>
        <extensions><gpxtpx:TrackPointExtension><gpxtpx:hr>151</gpxtpx:hr></gpxtpx:TrackPointExtension></extensions>
      </trkpt>
      <trkpt lat="59.9843869" lon="15.827315">
        <ele>84.6</ele>
        <time>2013-02-18T22:53:27Z</time>
        <extensions><gpxtpx:TrackPointExtension><gpxtpx:hr>151</gpxtpx:hr></gpxtpx:TrackPointExtension></extensions>
      </trkpt>
      <trkpt lat="59.9843809" lon="15.827322">
        <ele>84.6</ele>
        <time>2013-02-18T22:53:28Z</time>
        <extensions><gpxtpx:TrackPointExtension><gpxtpx:hr>152</gpxtpx:hr></gpxtpx:TrackPointExtension></extensions>
      </trkpt>
      <trkpt lat="59.9843801" lon="15.8273274">
        <ele>84.6</ele>
        <time>2013-02-18T22:53:29Z</time>
        <extensions><gpxtpx:TrackPointExtension><gpxtpx:hr>151</gpxtpx:hr></gpxtpx:TrackPointExtension></extensions>
      </trkpt>
      <trkpt lat="59.9843754" lon="15.8273332">
        <ele>84.6</ele>
        <time>2013-02-18T22:53:30Z</time>
        <extensions><gpxtpx:TrackPointExtension><gpxtpx:hr>151</gpxtpx:hr></gpxtpx:TrackPointExtension></extensions>
      </trkpt>
      <trkpt lat="59.9843858" lon="15.8273209">
        <ele>84.6</ele>
        <time>2013-02-18T22:53:34Z</time>
        <extensions><gpxtpx:TrackPointExtension><gpxtpx:hr>151</gpxtpx:hr></gpxtpx:TrackPointExtension></extensions>
      </trkpt>
      <trkpt lat="59.9844074" lon="15.827294">
        <ele>84.6</ele>
        <time>2013-02-18T22:53:38Z</time>
        <extensions><gpxtpx:TrackPointExtension><gpxtpx:hr>151</gpxtpx:hr></gpxtpx:TrackPointExtension></extensions>
      </trkpt>
      <trkpt lat="59.9844088" lon="15.8272926">
        <ele>84.6</ele>
        <time>2013-02-18T22:53:39Z</time>
        <extensions><gpxtpx:TrackPointExtension><gpxtpx:hr>151</gpxtpx:hr></gpxtpx:TrackPointExtension></extensions>
      </trkpt>
      <trkpt lat="59.9844071" lon="15.8272909">
        <ele>84.6</ele>
        <time>2013-02-18T22:53:40Z</time>
        <extensions><gpxtpx:TrackPointExtension><gpxtpx:hr>151</gpxtpx:hr></gpxtpx:TrackPointExtension></extensions>
      </trkpt>
      <trkpt lat="59.9844046" lon="15.8272909">
        <ele>84.6</ele>
        <time>2013-02-18T22:53:41Z</time>
        <extensions><gpxtpx:TrackPointExtension><gpxtpx:hr>151</gpxtpx:hr></gpxtpx:TrackPointExtension></extensions>
      </trkpt>
      <trkpt lat="59.9844026" lon="15.8272927">
        <ele>84.6</ele>
        <time>2013-02-18T22:53:42Z</time>
        <extensions><gpxtpx:TrackPointExtension><gpxtpx:hr>150</gpxtpx:hr></gpxtpx:TrackPointExtension></extensions>
      </trkpt>
      <trkpt lat="59.9844019" lon="15.8272971">
        <ele>84.6</ele>
        <time>2013-02-18T22:53:43Z</time>
        <extensions><gpxtpx:TrackPointExtension><gpxtpx:hr>151</gpxtpx:hr></gpxtpx:TrackPointExtension></extensions>
      </trkpt>
      <trkpt lat="59.9844016" lon="15.8273004">
        <ele>84.6</ele>
        <time>2013-02-18T22:53:44Z</time>
        <extensions><gpxtpx:TrackPointExtension><gpxtpx:hr>151</gpxtpx:hr></gpxtpx:TrackPointExtension></extensions>
      </trkpt>
      <trkpt lat="59.9844042" lon="15.8272984">
        <ele>84.6</ele>
        <time>2013-02-18T22:53:45Z</time>
        <extensions><gpxtpx:TrackPointExtension><gpxtpx:hr>151</gpxtpx:hr></gpxtpx:TrackPointExtension></extensions>
      </trkpt>
      <trkpt lat="59.9844064" lon="15.8272971">
        <ele>84.6</ele>
        <time>2013-02-18T22:53:46Z</time>
        <extensions><gpxtpx:TrackPointExtension><gpxtpx:hr>151</gpxtpx:hr></gpxtpx:TrackPointExtension></extensions>
      </trkpt>
      <trkpt lat="59.9844083" lon="15.8272982">
        <ele>84.6</ele>
        <time>2013-02-18T22:53:47Z</time>
        <extensions><gpxtpx:TrackPointExtension><gpxtpx:hr>151</gpxtpx:hr></gpxtpx:TrackPointExtension></extensions>
      </trkpt>
      <trkpt lat="59.9844092" lon="15.8273002">
        <ele>84.6</ele>
        <time>2013-02-18T22:53:48Z</time>
        <extensions><gpxtpx:TrackPointExtension><gpxtpx:hr>151</gpxtpx:hr></gpxtpx:TrackPointExtension></extensions>
      </trkpt>
      <trkpt lat="59.9844071" lon="15.8273015">
        <ele>84.6</ele>
        <time>2013-02-18T22:53:49Z</time>
        <extensions><gpxtpx:TrackPointExtension><gpxtpx:hr>151</gpxtpx:hr></gpxtpx:TrackPointExtension></extensions>
      </trkpt>
      <trkpt lat="59.9844388" lon="15.8273036">
        <ele>84.6</ele>
        <time>2013-02-18T22:53:51Z</time>
        <extensions><gpxtpx:TrackPointExtension><gpxtpx:hr>151</gpxtpx:hr></gpxtpx:TrackPointExtension></extensions>
      </trkpt>
      <trkpt lat="59.9844503" lon="15.8272931">
        <ele>84.6</ele>
        <time>2013-02-18T22:53:53Z</time>
        <extensions><gpxtpx:TrackPointExtension><gpxtpx:hr>151</gpxtpx:hr></gpxtpx:TrackPointExtension></extensions>
      </trkpt>
      <trkpt lat="59.9844467" lon="15.827289">
        <ele>84.6</ele>
        <time>2013-02-18T22:53:56Z</time>
        <extensions><gpxtpx:TrackPointExtension><gpxtpx:hr>151</gpxtpx:hr></gpxtpx:TrackPointExtension></extensions>
      </trkpt>
      <trkpt lat="59.9844342" lon="15.8272961">
        <ele>84.6</ele>
        <time>2013-02-18T22:53:58Z</time>
        <extensions><gpxtpx:TrackPointExtension><gpxtpx:hr>151</gpxtpx:hr></gpxtpx:TrackPointExtension></extensions>
      </trkpt>
      <trkpt lat="59.9844332" lon="15.8272875">
        <ele>84.6</ele>
        <time>2013-02-18T22:53:59Z</time>
        <extensions><gpxtpx:TrackPointExtension><gpxtpx:hr>150</gpxtpx:hr></gpxtpx:TrackPointExtension></extensions>
      </trkpt>
      <trkpt lat="59.9844332" lon="15.8272845">
        <ele>84.6</ele>
        <time>2013-02-18T22:54:00Z</time>
        <extensions><gpxtpx:TrackPointExtension><gpxtpx:hr>150</gpxtpx:hr></gpxtpx:TrackPointExtension></extensions>
      </trkpt>
      <trkpt lat="59.9844353" lon="15.8272825">
        <ele>84.6</ele>
        <time>2013-02-18T22:54:01Z</time>
        <extensions><gpxtpx:TrackPointExtension><gpxtpx:hr>151</gpxtpx:hr></gpxtpx:TrackPointExtension></extensions>
      </trkpt>
      <trkpt lat="59.9844373" lon="15.8272797">
        <ele>84.6</ele>
        <time>2013-02-18T22:54:02Z</time>
        <extensions><gpxtpx:TrackPointExtension><gpxtpx:hr>151</gpxtpx:hr></gpxtpx:TrackPointExtension></extensions>
      </trkpt>
      <trkpt lat="59.9844469" lon="15.8272727">
        <ele>84.6</ele>
        <time>2013-02-18T22:54:03Z</time>
        <extensions><gpxtpx:TrackPointExtension><gpxtpx:hr>151</gpxtpx:hr></gpxtpx:TrackPointExtension></extensions>
      </trkpt>
      <trkpt lat="59.9844517" lon="15.8272682">
        <ele>84.6</ele>
        <time>2013-02-18T22:54:06Z</time>
        <extensions><gpxtpx:TrackPointExtension><gpxtpx:hr>151</gpxtpx:hr></gpxtpx:TrackPointExtension></extensions>
      </trkpt>
      <trkpt lat="59.9844446" lon="15.8272776">
        <ele>84.6</ele>
        <time>2013-02-18T22:54:07Z</time>
        <extensions><gpxtpx:TrackPointExtension><gpxtpx:hr>152</gpxtpx:hr></gpxtpx:TrackPointExtension></extensions>
      </trkpt>
      <trkpt lat="59.9844371" lon="15.8272933">
        <ele>84.6</ele>
        <time>2013-02-18T22:54:09Z</time>
        <extensions><gpxtpx:TrackPointExtension><gpxtpx:hr>152</gpxtpx:hr></gpxtpx:TrackPointExtension></extensions>
      </trkpt>
      <trkpt lat="59.9844316" lon="15.8273141">
        <ele>84.6</ele>
        <time>2013-02-18T22:54:12Z</time>
        <extensions><gpxtpx:TrackPointExtension><gpxtpx:hr>152</gpxtpx:hr></gpxtpx:TrackPointExtension></extensions>
      </trkpt>
      <trkpt lat="59.9844287" lon="15.8273256">
        <ele>84.6</ele>
        <time>2013-02-18T22:54:14Z</time>
        <extensions><gpxtpx:TrackPointExtension><gpxtpx:hr>152</gpxtpx:hr></gpxtpx:TrackPointExtension></extensions>
      </trkpt>
      <trkpt lat="59.9844279" lon="15.8273225">
        <ele>84.6</ele>
        <time>2013-02-18T22:54:15Z</time>
        <extensions><gpxtpx:TrackPointExtension><gpxtpx:hr>152</gpxtpx:hr></gpxtpx:TrackPointExtension></extensions>
      </trkpt>
      <trkpt lat="59.9844306" lon="15.8273257">
        <ele>84.6</ele>
        <time>2013-02-18T22:54:17Z</time>
        <extensions><gpxtpx:TrackPointExtension><gpxtpx:hr>152</gpxtpx:hr></gpxtpx:TrackPointExtension></extensions>
      </trkpt>
      <trkpt lat="59.9844332" lon="15.8273265">
        <ele>84.6</ele>
        <time>2013-02-18T22:54:18Z</time>
        <extensions><gpxtpx:TrackPointExtension><gpxtpx:hr>152</gpxtpx:hr></gpxtpx:TrackPointExtension></extensions>
      </trkpt>
      <trkpt lat="59.984435" lon="15.8273271">
        <ele>84.6</ele>
        <time>2013-02-18T22:54:19Z</time>
        <extensions><gpxtpx:TrackPointExtension><gpxtpx:hr>151</gpxtpx:hr></gpxtpx:TrackPointExtension></extensions>
      </trkpt>
      <trkpt lat="59.9844349" lon="15.8273248">
        <ele>84.6</ele>
        <time>2013-02-18T22:54:20Z</time>
        <extensions><gpxtpx:TrackPointExtension><gpxtpx:hr>151</gpxtpx:hr></gpxtpx:TrackPointExtension></extensions>
      </trkpt>
      <trkpt lat="59.9844319" lon="15.8273278">
        <ele>84.6</ele>
        <time>2013-02-18T22:54:22Z</time>
        <extensions><gpxtpx:TrackPointExtension><gpxtpx:hr>152</gpxtpx:hr></gpxtpx:TrackPointExtension></extensions>
      </trkpt>
      <trkpt lat="59.9844311" lon="15.8273289">
        <ele>84.6</ele>
        <time>2013-02-18T22:54:23Z</time>
        <extensions><gpxtpx:TrackPointExtension><gpxtpx:hr>151</gpxtpx:hr></gpxtpx:TrackPointExtension></extensions>
      </trkpt>
      <trkpt lat="59.9844482" lon="15.8273064">
        <ele>84.6</ele>
        <time>2013-02-18T22:54:25Z</time>
        <extensions><gpxtpx:TrackPointExtension><gpxtpx:hr>151</gpxtpx:hr></gpxtpx:TrackPointExtension></extensions>
      </trkpt>
      <trkpt lat="59.9844508" lon="15.8272975">
        <ele>84.6</ele>
        <time>2013-02-18T22:54:28Z</time>
        <extensions><gpxtpx:TrackPointExtension><gpxtpx:hr>152</gpxtpx:hr></gpxtpx:TrackPointExtension></extensions>
      </trkpt>
      <trkpt lat="59.9844502" lon="15.8272992">
        <ele>83.6</ele>
        <time>2013-02-18T22:54:29Z</time>
        <extensions><gpxtpx:TrackPointExtension><gpxtpx:hr>152</gpxtpx:hr></gpxtpx:TrackPointExtension></extensions>
      </trkpt>
      <trkpt lat="59.9844491" lon="15.827295">
        <ele>83.6</ele>
        <time>2013-02-18T22:54:30Z</time>
        <extensions><gpxtpx:TrackPointExtension><gpxtpx:hr>152</gpxtpx:hr></gpxtpx:TrackPointExtension></extensions>
      </trkpt>
      <trkpt lat="59.984449" lon="15.8272921">
        <ele>83.6</ele>
        <time>2013-02-18T22:54:31Z</time>
        <extensions><gpxtpx:TrackPointExtension><gpxtpx:hr>152</gpxtpx:hr></gpxtpx:TrackPointExtension></extensions>
      </trkpt>
      <trkpt lat="59.9844548" lon="15.8272861">
        <ele>83.6</ele>
        <time>2013-02-18T22:54:33Z</time>
        <extensions><gpxtpx:TrackPointExtension><gpxtpx:hr>152</gpxtpx:hr></gpxtpx:TrackPointExtension></extensions>
      </trkpt>
      <trkpt lat="59.9844564" lon="15.8272814">
        <ele>83.6</ele>
        <time>2013-02-18T22:54:34Z</time>
        <extensions><gpxtpx:TrackPointExtension><gpxtpx:hr>152</gpxtpx:hr></gpxtpx:TrackPointExtension></extensions>
      </trkpt>
      <trkpt lat="59.9844827" lon="15.8272765">
        <ele>83.6</ele>
        <time>2013-02-18T22:54:36Z</time>
        <extensions><gpxtpx:TrackPointExtension><gpxtpx:hr>152</gpxtpx:hr></gpxtpx:TrackPointExtension></extensions>
      </trkpt>
      <trkpt lat="59.9845062" lon="15.8272708">
        <ele>83.6</ele>
        <time>2013-02-18T22:54:40Z</time>
        <extensions><gpxtpx:TrackPointExtension><gpxtpx:hr>152</gpxtpx:hr></gpxtpx:TrackPointExtension></extensions>
      </trkpt>
      <trkpt lat="59.98451" lon="15.8272803">
        <ele>83.6</ele>
        <time>2013-02-18T22:54:41Z</time>
        <extensions><gpxtpx:TrackPointExtension><gpxtpx:hr>152</gpxtpx:hr></gpxtpx:TrackPointExtension></extensions>
      </trkpt>
    </trkseg>
  </trk>
</gpx>